<?xml version="1.0" encoding="UTF-8"?>
<gpx version="1.1" creator="https://www.youtrack.es" xsi:schemaLocation="http://www.topografix.com/GPX/1/1 http://www.topografix.com/GPX/1/1/gpx.xsd http://www.garmin.com/xmlschemas/GpxExtensions/v3 http://www.garmin.com/xmlschemas/GpxExtensionsv3.xsd http://www.garmin.com/xmlschemas/TrackPointExtension/v1 http://www.garmin.com/xmlschemas/TrackPointExtensionv1.xsd" xmlns:gpxtpx="http://www.garmin.com/xmlschemas/TrackPointExtension/v1" xmlns:gpxx="http://www.garmin.com/xmlschemas/GpxExtensions/v3" xmlns:xsi="http://www.w3.org/2001/XMLSchema-instance">
  <metadata>
    <link href="https://www.youtrack.es">
      <text>YouTrack.es</text>
    </link>
    <time>2026-05-08T20:42:14Z</time>
  </metadata>
  <trk>
    <src>https://www.youtrack.es</src>
    <link href="https://www.youtrack.es/ruta/31029-machoruela2">
      <text>YouTrack.es</text>
    </link>
    <trkseg>
      <trkpt lat="36.662587" lon="-4.963027">
        <ele>586.283</ele>
        <time>2022-04-15T21:40:38Z</time>
      </trkpt>
      <trkpt lat="36.662311" lon="-4.963006">
        <ele>584.425</ele>
        <time>2022-04-15T21:41:18Z</time>
      </trkpt>
      <trkpt lat="36.661950" lon="-4.962931">
        <ele>579.517</ele>
        <time>2022-04-15T21:41:58Z</time>
      </trkpt>
      <trkpt lat="36.661459" lon="-4.963124">
        <ele>582.509</ele>
        <time>2022-04-15T21:42:38Z</time>
      </trkpt>
      <trkpt lat="36.661123" lon="-4.962738">
        <ele>576.439</ele>
        <time>2022-04-15T21:43:18Z</time>
      </trkpt>
      <trkpt lat="36.660761" lon="-4.962630">
        <ele>584.958</ele>
        <time>2022-04-15T21:43:58Z</time>
      </trkpt>
      <trkpt lat="36.660503" lon="-4.962169">
        <ele>578.558</ele>
        <time>2022-04-15T21:44:38Z</time>
      </trkpt>
      <trkpt lat="36.660270" lon="-4.962040">
        <ele>586.879</ele>
        <time>2022-04-15T21:45:18Z</time>
      </trkpt>
      <trkpt lat="36.660244" lon="-4.961697">
        <ele>579.828</ele>
        <time>2022-04-15T21:45:58Z</time>
      </trkpt>
      <trkpt lat="36.660072" lon="-4.960839">
        <ele>572.864</ele>
        <time>2022-04-15T21:46:38Z</time>
      </trkpt>
      <trkpt lat="36.659788" lon="-4.960313">
        <ele>576.913</ele>
        <time>2022-04-15T21:47:18Z</time>
      </trkpt>
      <trkpt lat="36.659728" lon="-4.959852">
        <ele>559.178</ele>
        <time>2022-04-15T21:47:58Z</time>
      </trkpt>
      <trkpt lat="36.659501" lon="-4.959794">
        <ele>563.639</ele>
        <time>2022-04-15T21:48:38Z</time>
      </trkpt>
      <trkpt lat="36.659113" lon="-4.960417">
        <ele>591.242</ele>
        <time>2022-04-15T21:49:18Z</time>
      </trkpt>
      <trkpt lat="36.658596" lon="-4.959515">
        <ele>572.522</ele>
        <time>2022-04-15T21:49:58Z</time>
      </trkpt>
      <trkpt lat="36.657718" lon="-4.959151">
        <ele>573.914</ele>
        <time>2022-04-15T21:50:38Z</time>
      </trkpt>
      <trkpt lat="36.657101" lon="-4.959537">
        <ele>577.809</ele>
        <time>2022-04-15T21:51:18Z</time>
      </trkpt>
      <trkpt lat="36.656790" lon="-4.960438">
        <ele>589.865</ele>
        <time>2022-04-15T21:51:58Z</time>
      </trkpt>
      <trkpt lat="36.656635" lon="-4.960631">
        <ele>594.024</ele>
        <time>2022-04-15T21:52:38Z</time>
      </trkpt>
      <trkpt lat="36.656248" lon="-4.960481">
        <ele>591.794</ele>
        <time>2022-04-15T21:53:18Z</time>
      </trkpt>
      <trkpt lat="36.655869" lon="-4.960617">
        <ele>605.345</ele>
        <time>2022-04-15T21:53:58Z</time>
      </trkpt>
      <trkpt lat="36.655412" lon="-4.960037">
        <ele>597.594</ele>
        <time>2022-04-15T21:54:38Z</time>
      </trkpt>
      <trkpt lat="36.655007" lon="-4.960853">
        <ele>615.850</ele>
        <time>2022-04-15T21:55:18Z</time>
      </trkpt>
      <trkpt lat="36.654189" lon="-4.960746">
        <ele>617.579</ele>
        <time>2022-04-15T21:55:58Z</time>
      </trkpt>
      <trkpt lat="36.654071" lon="-4.961032">
        <ele>622.634</ele>
        <time>2022-04-15T21:56:38Z</time>
      </trkpt>
      <trkpt lat="36.653804" lon="-4.961525">
        <ele>628.055</ele>
        <time>2022-04-15T21:57:18Z</time>
      </trkpt>
      <trkpt lat="36.653417" lon="-4.961804">
        <ele>619.648</ele>
        <time>2022-04-15T21:57:58Z</time>
      </trkpt>
      <trkpt lat="36.653417" lon="-4.962534">
        <ele>618.361</ele>
        <time>2022-04-15T21:58:38Z</time>
      </trkpt>
      <trkpt lat="36.653606" lon="-4.963156">
        <ele>620.917</ele>
        <time>2022-04-15T21:59:18Z</time>
      </trkpt>
      <trkpt lat="36.653830" lon="-4.963714">
        <ele>622.809</ele>
        <time>2022-04-15T21:59:58Z</time>
      </trkpt>
      <trkpt lat="36.654071" lon="-4.964079">
        <ele>632.025</ele>
        <time>2022-04-15T22:00:38Z</time>
      </trkpt>
      <trkpt lat="36.654227" lon="-4.964572">
        <ele>631.484</ele>
        <time>2022-04-15T22:01:18Z</time>
      </trkpt>
      <trkpt lat="36.654649" lon="-4.964873">
        <ele>637.684</ele>
        <time>2022-04-15T22:01:58Z</time>
      </trkpt>
      <trkpt lat="36.654623" lon="-4.965066">
        <ele>639.215</ele>
        <time>2022-04-15T22:02:38Z</time>
      </trkpt>
      <trkpt lat="36.654261" lon="-4.965152">
        <ele>636.514</ele>
        <time>2022-04-15T22:03:18Z</time>
      </trkpt>
      <trkpt lat="36.653701" lon="-4.964958">
        <ele>636.810</ele>
        <time>2022-04-15T22:03:58Z</time>
      </trkpt>
      <trkpt lat="36.653210" lon="-4.964669">
        <ele>635.049</ele>
        <time>2022-04-15T22:04:38Z</time>
      </trkpt>
      <trkpt lat="36.652624" lon="-4.964508">
        <ele>641.134</ele>
        <time>2022-04-15T22:05:18Z</time>
      </trkpt>
      <trkpt lat="36.652478" lon="-4.965141">
        <ele>639.155</ele>
        <time>2022-04-15T22:05:58Z</time>
      </trkpt>
      <trkpt lat="36.652711" lon="-4.965495">
        <ele>637.697</ele>
        <time>2022-04-15T22:06:38Z</time>
      </trkpt>
      <trkpt lat="36.653434" lon="-4.965484">
        <ele>651.123</ele>
        <time>2022-04-15T22:07:18Z</time>
      </trkpt>
      <trkpt lat="36.653770" lon="-4.965667">
        <ele>650.725</ele>
        <time>2022-04-15T22:07:58Z</time>
      </trkpt>
      <trkpt lat="36.653925" lon="-4.966096">
        <ele>651.409</ele>
        <time>2022-04-15T22:08:38Z</time>
      </trkpt>
      <trkpt lat="36.653994" lon="-4.966568">
        <ele>649.490</ele>
        <time>2022-04-15T22:09:18Z</time>
      </trkpt>
      <trkpt lat="36.654442" lon="-4.966804">
        <ele>666.429</ele>
        <time>2022-04-15T22:09:58Z</time>
      </trkpt>
      <trkpt lat="36.654640" lon="-4.967190">
        <ele>663.859</ele>
        <time>2022-04-15T22:10:38Z</time>
      </trkpt>
      <trkpt lat="36.655181" lon="-4.967462">
        <ele>667.310</ele>
        <time>2022-04-15T22:11:18Z</time>
      </trkpt>
      <trkpt lat="36.655723" lon="-4.968041">
        <ele>662.769</ele>
        <time>2022-04-15T22:11:58Z</time>
      </trkpt>
      <trkpt lat="36.656344" lon="-4.968427">
        <ele>677.765</ele>
        <time>2022-04-15T22:12:38Z</time>
      </trkpt>
      <trkpt lat="36.656595" lon="-4.968680">
        <ele>677.894</ele>
        <time>2022-04-15T22:13:18Z</time>
      </trkpt>
      <trkpt lat="36.656983" lon="-4.968626">
        <ele>678.149</ele>
        <time>2022-04-15T22:13:58Z</time>
      </trkpt>
      <trkpt lat="36.657079" lon="-4.968720">
        <ele>684.82</ele>
        <time>2014-01-21T09:28:05Z</time>
      </trkpt>
      <trkpt lat="36.657109" lon="-4.968701">
        <ele>685.07</ele>
        <time>2014-01-21T09:28:06Z</time>
      </trkpt>
      <trkpt lat="36.657165" lon="-4.968662">
        <ele>685.01</ele>
        <time>2014-01-21T09:28:10Z</time>
      </trkpt>
      <trkpt lat="36.657193" lon="-4.968630">
        <ele>684.81</ele>
        <time>2014-01-21T09:28:12Z</time>
      </trkpt>
      <trkpt lat="36.657258" lon="-4.968592">
        <ele>684.85</ele>
        <time>2014-01-21T09:28:17Z</time>
      </trkpt>
      <trkpt lat="36.657267" lon="-4.968590">
        <ele>685.05</ele>
        <time>2014-01-21T09:28:19Z</time>
      </trkpt>
      <trkpt lat="36.657284" lon="-4.968571">
        <ele>684.83</ele>
        <time>2014-01-21T09:28:40Z</time>
      </trkpt>
      <trkpt lat="36.657287" lon="-4.968577">
        <ele>684.85</ele>
        <time>2014-01-21T09:28:42Z</time>
      </trkpt>
      <trkpt lat="36.657295" lon="-4.968575">
        <ele>684.81</ele>
        <time>2014-01-21T09:28:46Z</time>
      </trkpt>
      <trkpt lat="36.657298" lon="-4.968567">
        <ele>684.82</ele>
        <time>2014-01-21T09:28:57Z</time>
      </trkpt>
      <trkpt lat="36.657337" lon="-4.968600">
        <ele>685.23</ele>
        <time>2014-01-21T09:29:03Z</time>
      </trkpt>
      <trkpt lat="36.657354" lon="-4.968599">
        <ele>685.46</ele>
        <time>2014-01-21T09:29:04Z</time>
      </trkpt>
      <trkpt lat="36.657370" lon="-4.968598">
        <ele>685.43</ele>
        <time>2014-01-21T09:29:05Z</time>
      </trkpt>
      <trkpt lat="36.657384" lon="-4.968594">
        <ele>685.42</ele>
        <time>2014-01-21T09:29:06Z</time>
      </trkpt>
      <trkpt lat="36.657409" lon="-4.968589">
        <ele>685.49</ele>
        <time>2014-01-21T09:29:08Z</time>
      </trkpt>
      <trkpt lat="36.657492" lon="-4.968592">
        <ele>685.81</ele>
        <time>2014-01-21T09:29:14Z</time>
      </trkpt>
      <trkpt lat="36.657564" lon="-4.968608">
        <ele>686.23</ele>
        <time>2014-01-21T09:29:20Z</time>
      </trkpt>
      <trkpt lat="36.657616" lon="-4.968625">
        <ele>686.81</ele>
        <time>2014-01-21T09:29:23Z</time>
      </trkpt>
      <trkpt lat="36.657631" lon="-4.968624">
        <ele>686.88</ele>
        <time>2014-01-21T09:29:24Z</time>
      </trkpt>
      <trkpt lat="36.657668" lon="-4.968602">
        <ele>686.84</ele>
        <time>2014-01-21T09:29:27Z</time>
      </trkpt>
      <trkpt lat="36.657678" lon="-4.968595">
        <ele>686.88</ele>
        <time>2014-01-21T09:29:28Z</time>
      </trkpt>
      <trkpt lat="36.657762" lon="-4.968567">
        <ele>686.88</ele>
        <time>2014-01-21T09:29:34Z</time>
      </trkpt>
      <trkpt lat="36.657817" lon="-4.968559">
        <ele>686.86</ele>
        <time>2014-01-21T09:29:37Z</time>
      </trkpt>
      <trkpt lat="36.657831" lon="-4.968550">
        <ele>686.82</ele>
        <time>2014-01-21T09:29:38Z</time>
      </trkpt>
      <trkpt lat="36.657876" lon="-4.968520">
        <ele>686.47</ele>
        <time>2014-01-21T09:29:41Z</time>
      </trkpt>
      <trkpt lat="36.657911" lon="-4.968498">
        <ele>686.24</ele>
        <time>2014-01-21T09:29:43Z</time>
      </trkpt>
      <trkpt lat="36.657926" lon="-4.968494">
        <ele>686.29</ele>
        <time>2014-01-21T09:29:44Z</time>
      </trkpt>
      <trkpt lat="36.657941" lon="-4.968491">
        <ele>686.21</ele>
        <time>2014-01-21T09:29:45Z</time>
      </trkpt>
      <trkpt lat="36.657984" lon="-4.968468">
        <ele>686.01</ele>
        <time>2014-01-21T09:29:48Z</time>
      </trkpt>
      <trkpt lat="36.657998" lon="-4.968458">
        <ele>685.83</ele>
        <time>2014-01-21T09:29:49Z</time>
      </trkpt>
      <trkpt lat="36.658034" lon="-4.968435">
        <ele>685.64</ele>
        <time>2014-01-21T09:29:52Z</time>
      </trkpt>
      <trkpt lat="36.658075" lon="-4.968408">
        <ele>685.23</ele>
        <time>2014-01-21T09:29:55Z</time>
      </trkpt>
      <trkpt lat="36.658102" lon="-4.968387">
        <ele>684.84</ele>
        <time>2014-01-21T09:29:57Z</time>
      </trkpt>
      <trkpt lat="36.658112" lon="-4.968375">
        <ele>684.67</ele>
        <time>2014-01-21T09:29:58Z</time>
      </trkpt>
      <trkpt lat="36.658135" lon="-4.968351">
        <ele>684.25</ele>
        <time>2014-01-21T09:30:00Z</time>
      </trkpt>
      <trkpt lat="36.658159" lon="-4.968337">
        <ele>683.81</ele>
        <time>2014-01-21T09:30:02Z</time>
      </trkpt>
      <trkpt lat="36.658216" lon="-4.968324">
        <ele>684.30</ele>
        <time>2014-01-21T09:30:06Z</time>
      </trkpt>
      <trkpt lat="36.658227" lon="-4.968323">
        <ele>684.21</ele>
        <time>2014-01-21T09:30:07Z</time>
      </trkpt>
      <trkpt lat="36.658253" lon="-4.968321">
        <ele>684.23</ele>
        <time>2014-01-21T09:30:09Z</time>
      </trkpt>
      <trkpt lat="36.658288" lon="-4.968315">
        <ele>684.41</ele>
        <time>2014-01-21T09:30:12Z</time>
      </trkpt>
      <trkpt lat="36.658313" lon="-4.968315">
        <ele>684.65</ele>
        <time>2014-01-21T09:30:14Z</time>
      </trkpt>
      <trkpt lat="36.658354" lon="-4.968337">
        <ele>684.42</ele>
        <time>2014-01-21T09:30:18Z</time>
      </trkpt>
      <trkpt lat="36.658402" lon="-4.968381">
        <ele>686.04</ele>
        <time>2014-01-21T09:30:23Z</time>
      </trkpt>
      <trkpt lat="36.658412" lon="-4.968394">
        <ele>686.44</ele>
        <time>2014-01-21T09:30:24Z</time>
      </trkpt>
      <trkpt lat="36.658423" lon="-4.968405">
        <ele>686.87</ele>
        <time>2014-01-21T09:30:25Z</time>
      </trkpt>
      <trkpt lat="36.658467" lon="-4.968443">
        <ele>688.46</ele>
        <time>2014-01-21T09:30:29Z</time>
      </trkpt>
      <trkpt lat="36.658477" lon="-4.968444">
        <ele>688.41</ele>
        <time>2014-01-21T09:30:30Z</time>
      </trkpt>
      <trkpt lat="36.658514" lon="-4.968449">
        <ele>689.08</ele>
        <time>2014-01-21T09:30:33Z</time>
      </trkpt>
      <trkpt lat="36.658530" lon="-4.968453">
        <ele>689.44</ele>
        <time>2014-01-21T09:30:34Z</time>
      </trkpt>
      <trkpt lat="36.658611" lon="-4.968476">
        <ele>691.02</ele>
        <time>2014-01-21T09:30:40Z</time>
      </trkpt>
      <trkpt lat="36.658624" lon="-4.968480">
        <ele>691.21</ele>
        <time>2014-01-21T09:30:41Z</time>
      </trkpt>
      <trkpt lat="36.658687" lon="-4.968484">
        <ele>692.03</ele>
        <time>2014-01-21T09:30:46Z</time>
      </trkpt>
      <trkpt lat="36.658717" lon="-4.968479">
        <ele>692.46</ele>
        <time>2014-01-21T09:30:47Z</time>
      </trkpt>
      <trkpt lat="36.658762" lon="-4.968473">
        <ele>692.89</ele>
        <time>2014-01-21T09:30:50Z</time>
      </trkpt>
      <trkpt lat="36.658773" lon="-4.968465">
        <ele>692.86</ele>
        <time>2014-01-21T09:30:51Z</time>
      </trkpt>
      <trkpt lat="36.658829" lon="-4.968430">
        <ele>693.04</ele>
        <time>2014-01-21T09:30:55Z</time>
      </trkpt>
      <trkpt lat="36.658894" lon="-4.968391">
        <ele>693.22</ele>
        <time>2014-01-21T09:31:00Z</time>
      </trkpt>
      <trkpt lat="36.658920" lon="-4.968354">
        <ele>692.85</ele>
        <time>2014-01-21T09:31:02Z</time>
      </trkpt>
      <trkpt lat="36.658988" lon="-4.968323">
        <ele>693.65</ele>
        <time>2014-01-21T09:31:05Z</time>
      </trkpt>
      <trkpt lat="36.659025" lon="-4.968308">
        <ele>694.49</ele>
        <time>2014-01-21T09:31:07Z</time>
      </trkpt>
      <trkpt lat="36.659112" lon="-4.968291">
        <ele>696.02</ele>
        <time>2014-01-21T09:31:12Z</time>
      </trkpt>
      <trkpt lat="36.659123" lon="-4.968293">
        <ele>696.01</ele>
        <time>2014-01-21T09:31:13Z</time>
      </trkpt>
      <trkpt lat="36.659134" lon="-4.968290">
        <ele>696.21</ele>
        <time>2014-01-21T09:31:14Z</time>
      </trkpt>
      <trkpt lat="36.659156" lon="-4.968297">
        <ele>696.47</ele>
        <time>2014-01-21T09:31:18Z</time>
      </trkpt>
      <trkpt lat="36.659172" lon="-4.968337">
        <ele>696.24</ele>
        <time>2014-01-21T09:31:22Z</time>
      </trkpt>
      <trkpt lat="36.659201" lon="-4.968366">
        <ele>696.83</ele>
        <time>2014-01-21T09:31:25Z</time>
      </trkpt>
      <trkpt lat="36.659209" lon="-4.968374">
        <ele>697.04</ele>
        <time>2014-01-21T09:31:26Z</time>
      </trkpt>
      <trkpt lat="36.659221" lon="-4.968393">
        <ele>697.49</ele>
        <time>2014-01-21T09:31:28Z</time>
      </trkpt>
      <trkpt lat="36.659271" lon="-4.968400">
        <ele>698.08</ele>
        <time>2014-01-21T09:31:33Z</time>
      </trkpt>
      <trkpt lat="36.659285" lon="-4.968387">
        <ele>697.87</ele>
        <time>2014-01-21T09:31:34Z</time>
      </trkpt>
      <trkpt lat="36.659306" lon="-4.968377">
        <ele>698.08</ele>
        <time>2014-01-21T09:31:36Z</time>
      </trkpt>
      <trkpt lat="36.659331" lon="-4.968371">
        <ele>698.02</ele>
        <time>2014-01-21T09:31:38Z</time>
      </trkpt>
      <trkpt lat="36.659353" lon="-4.968373">
        <ele>698.41</ele>
        <time>2014-01-21T09:31:40Z</time>
      </trkpt>
      <trkpt lat="36.659370" lon="-4.968377">
        <ele>698.68</ele>
        <time>2014-01-21T09:31:42Z</time>
      </trkpt>
      <trkpt lat="36.659376" lon="-4.968373">
        <ele>698.62</ele>
        <time>2014-01-21T09:31:43Z</time>
      </trkpt>
      <trkpt lat="36.659421" lon="-4.968366">
        <ele>698.88</ele>
        <time>2014-01-21T09:31:46Z</time>
      </trkpt>
      <trkpt lat="36.659457" lon="-4.968391">
        <ele>699.45</ele>
        <time>2014-01-21T09:31:49Z</time>
      </trkpt>
      <trkpt lat="36.659483" lon="-4.968405">
        <ele>699.85</ele>
        <time>2014-01-21T09:31:51Z</time>
      </trkpt>
      <trkpt lat="36.659558" lon="-4.968426">
        <ele>700.64</ele>
        <time>2014-01-21T09:31:57Z</time>
      </trkpt>
      <trkpt lat="36.659571" lon="-4.968424">
        <ele>700.87</ele>
        <time>2014-01-21T09:31:58Z</time>
      </trkpt>
      <trkpt lat="36.659593" lon="-4.968419">
        <ele>700.82</ele>
        <time>2014-01-21T09:32:00Z</time>
      </trkpt>
      <trkpt lat="36.659602" lon="-4.968416">
        <ele>701.08</ele>
        <time>2014-01-21T09:32:01Z</time>
      </trkpt>
      <trkpt lat="36.659649" lon="-4.968404">
        <ele>701.21</ele>
        <time>2014-01-21T09:32:05Z</time>
      </trkpt>
      <trkpt lat="36.659707" lon="-4.968394">
        <ele>701.61</ele>
        <time>2014-01-21T09:32:09Z</time>
      </trkpt>
      <trkpt lat="36.659732" lon="-4.968400">
        <ele>702.06</ele>
        <time>2014-01-21T09:32:15Z</time>
      </trkpt>
      <trkpt lat="36.659765" lon="-4.968415">
        <ele>702.46</ele>
        <time>2014-01-21T09:32:20Z</time>
      </trkpt>
      <trkpt lat="36.659773" lon="-4.968416">
        <ele>702.49</ele>
        <time>2014-01-21T09:32:21Z</time>
      </trkpt>
      <trkpt lat="36.659804" lon="-4.968416">
        <ele>702.63</ele>
        <time>2014-01-21T09:32:24Z</time>
      </trkpt>
      <trkpt lat="36.659821" lon="-4.968408">
        <ele>702.86</ele>
        <time>2014-01-21T09:32:26Z</time>
      </trkpt>
      <trkpt lat="36.659844" lon="-4.968384">
        <ele>702.85</ele>
        <time>2014-01-21T09:32:30Z</time>
      </trkpt>
      <trkpt lat="36.659855" lon="-4.968364">
        <ele>702.84</ele>
        <time>2014-01-21T09:32:32Z</time>
      </trkpt>
      <trkpt lat="36.659858" lon="-4.968355">
        <ele>702.83</ele>
        <time>2014-01-21T09:32:33Z</time>
      </trkpt>
      <trkpt lat="36.659859" lon="-4.968326">
        <ele>702.86</ele>
        <time>2014-01-21T09:32:35Z</time>
      </trkpt>
      <trkpt lat="36.659847" lon="-4.968297">
        <ele>703.21</ele>
        <time>2014-01-21T09:32:38Z</time>
      </trkpt>
      <trkpt lat="36.659836" lon="-4.968275">
        <ele>703.61</ele>
        <time>2014-01-21T09:32:40Z</time>
      </trkpt>
      <trkpt lat="36.659835" lon="-4.968260">
        <ele>703.83</ele>
        <time>2014-01-21T09:32:41Z</time>
      </trkpt>
      <trkpt lat="36.659828" lon="-4.968217">
        <ele>704.62</ele>
        <time>2014-01-21T09:32:44Z</time>
      </trkpt>
      <trkpt lat="36.659822" lon="-4.968197">
        <ele>704.82</ele>
        <time>2014-01-21T09:32:46Z</time>
      </trkpt>
      <trkpt lat="36.659812" lon="-4.968173">
        <ele>705.25</ele>
        <time>2014-01-21T09:32:49Z</time>
      </trkpt>
      <trkpt lat="36.659806" lon="-4.968167">
        <ele>705.26</ele>
        <time>2014-01-21T09:32:50Z</time>
      </trkpt>
      <trkpt lat="36.659784" lon="-4.968145">
        <ele>705.50</ele>
        <time>2014-01-21T09:32:53Z</time>
      </trkpt>
      <trkpt lat="36.659769" lon="-4.968130">
        <ele>705.63</ele>
        <time>2014-01-21T09:32:55Z</time>
      </trkpt>
      <trkpt lat="36.659751" lon="-4.968102">
        <ele>705.85</ele>
        <time>2014-01-21T09:32:59Z</time>
      </trkpt>
      <trkpt lat="36.659739" lon="-4.968082">
        <ele>706.26</ele>
        <time>2014-01-21T09:33:01Z</time>
      </trkpt>
      <trkpt lat="36.659724" lon="-4.968068">
        <ele>706.22</ele>
        <time>2014-01-21T09:33:03Z</time>
      </trkpt>
      <trkpt lat="36.659706" lon="-4.968055">
        <ele>706.21</ele>
        <time>2014-01-21T09:33:05Z</time>
      </trkpt>
      <trkpt lat="36.659681" lon="-4.968041">
        <ele>706.25</ele>
        <time>2014-01-21T09:33:08Z</time>
      </trkpt>
      <trkpt lat="36.659683" lon="-4.968019">
        <ele>706.86</ele>
        <time>2014-01-21T09:33:12Z</time>
      </trkpt>
      <trkpt lat="36.659691" lon="-4.968012">
        <ele>707.05</ele>
        <time>2014-01-21T09:33:13Z</time>
      </trkpt>
      <trkpt lat="36.659698" lon="-4.967999">
        <ele>707.29</ele>
        <time>2014-01-21T09:33:15Z</time>
      </trkpt>
      <trkpt lat="36.659727" lon="-4.967998">
        <ele>707.66</ele>
        <time>2014-01-21T09:33:18Z</time>
      </trkpt>
      <trkpt lat="36.659752" lon="-4.967999">
        <ele>707.83</ele>
        <time>2014-01-21T09:33:20Z</time>
      </trkpt>
      <trkpt lat="36.659772" lon="-4.968004">
        <ele>708.07</ele>
        <time>2014-01-21T09:33:22Z</time>
      </trkpt>
      <trkpt lat="36.659803" lon="-4.968004">
        <ele>708.22</ele>
        <time>2014-01-21T09:33:25Z</time>
      </trkpt>
      <trkpt lat="36.659813" lon="-4.968003">
        <ele>708.40</ele>
        <time>2014-01-21T09:33:26Z</time>
      </trkpt>
      <trkpt lat="36.659853" lon="-4.967989">
        <ele>709.01</ele>
        <time>2014-01-21T09:33:30Z</time>
      </trkpt>
      <trkpt lat="36.659864" lon="-4.967986">
        <ele>709.21</ele>
        <time>2014-01-21T09:33:31Z</time>
      </trkpt>
      <trkpt lat="36.659877" lon="-4.967988">
        <ele>709.49</ele>
        <time>2014-01-21T09:33:33Z</time>
      </trkpt>
      <trkpt lat="36.659892" lon="-4.967997">
        <ele>709.48</ele>
        <time>2014-01-21T09:33:34Z</time>
      </trkpt>
      <trkpt lat="36.659915" lon="-4.968006">
        <ele>709.45</ele>
        <time>2014-01-21T09:33:36Z</time>
      </trkpt>
      <trkpt lat="36.659926" lon="-4.968009">
        <ele>709.47</ele>
        <time>2014-01-21T09:33:37Z</time>
      </trkpt>
      <trkpt lat="36.660003" lon="-4.968030">
        <ele>709.87</ele>
        <time>2014-01-21T09:33:44Z</time>
      </trkpt>
      <trkpt lat="36.660035" lon="-4.968043">
        <ele>710.07</ele>
        <time>2014-01-21T09:33:47Z</time>
      </trkpt>
      <trkpt lat="36.660044" lon="-4.968050">
        <ele>710.07</ele>
        <time>2014-01-21T09:33:48Z</time>
      </trkpt>
      <trkpt lat="36.660066" lon="-4.968056">
        <ele>710.27</ele>
        <time>2014-01-21T09:33:50Z</time>
      </trkpt>
      <trkpt lat="36.660114" lon="-4.968063">
        <ele>710.81</ele>
        <time>2014-01-21T09:33:55Z</time>
      </trkpt>
      <trkpt lat="36.660124" lon="-4.968062">
        <ele>711.01</ele>
        <time>2014-01-21T09:33:56Z</time>
      </trkpt>
      <trkpt lat="36.660130" lon="-4.968058">
        <ele>711.01</ele>
        <time>2014-01-21T09:33:57Z</time>
      </trkpt>
      <trkpt lat="36.660154" lon="-4.968052">
        <ele>711.42</ele>
        <time>2014-01-21T09:34:00Z</time>
      </trkpt>
      <trkpt lat="36.660186" lon="-4.968042">
        <ele>712.29</ele>
        <time>2014-01-21T09:34:04Z</time>
      </trkpt>
      <trkpt lat="36.660203" lon="-4.968039">
        <ele>712.44</ele>
        <time>2014-01-21T09:34:06Z</time>
      </trkpt>
      <trkpt lat="36.660240" lon="-4.968048">
        <ele>712.88</ele>
        <time>2014-01-21T09:34:10Z</time>
      </trkpt>
      <trkpt lat="36.660247" lon="-4.968046">
        <ele>712.84</ele>
        <time>2014-01-21T09:34:11Z</time>
      </trkpt>
      <trkpt lat="36.660282" lon="-4.968032">
        <ele>713.69</ele>
        <time>2014-01-21T09:34:15Z</time>
      </trkpt>
      <trkpt lat="36.660288" lon="-4.968031">
        <ele>713.68</ele>
        <time>2014-01-21T09:34:16Z</time>
      </trkpt>
      <trkpt lat="36.660296" lon="-4.968032">
        <ele>713.86</ele>
        <time>2014-01-21T09:34:17Z</time>
      </trkpt>
      <trkpt lat="36.660304" lon="-4.968031">
        <ele>713.80</ele>
        <time>2014-01-21T09:34:18Z</time>
      </trkpt>
      <trkpt lat="36.660312" lon="-4.968030">
        <ele>714.02</ele>
        <time>2014-01-21T09:34:19Z</time>
      </trkpt>
      <trkpt lat="36.660324" lon="-4.968015">
        <ele>714.42</ele>
        <time>2014-01-21T09:34:23Z</time>
      </trkpt>
      <trkpt lat="36.660331" lon="-4.967992">
        <ele>714.83</ele>
        <time>2014-01-21T09:34:26Z</time>
      </trkpt>
      <trkpt lat="36.660357" lon="-4.967981">
        <ele>715.48</ele>
        <time>2014-01-21T09:34:33Z</time>
      </trkpt>
      <trkpt lat="36.660369" lon="-4.967971">
        <ele>715.62</ele>
        <time>2014-01-21T09:34:34Z</time>
      </trkpt>
      <trkpt lat="36.660387" lon="-4.967949">
        <ele>716.23</ele>
        <time>2014-01-21T09:34:38Z</time>
      </trkpt>
      <trkpt lat="36.660394" lon="-4.967939">
        <ele>716.47</ele>
        <time>2014-01-21T09:34:43Z</time>
      </trkpt>
      <trkpt lat="36.660427" lon="-4.967898">
        <ele>717.42</ele>
        <time>2014-01-21T09:34:49Z</time>
      </trkpt>
      <trkpt lat="36.660434" lon="-4.967891">
        <ele>717.63</ele>
        <time>2014-01-21T09:34:50Z</time>
      </trkpt>
      <trkpt lat="36.660455" lon="-4.967860">
        <ele>718.29</ele>
        <time>2014-01-21T09:34:54Z</time>
      </trkpt>
      <trkpt lat="36.660473" lon="-4.967832">
        <ele>718.81</ele>
        <time>2014-01-21T09:34:57Z</time>
      </trkpt>
      <trkpt lat="36.660488" lon="-4.967799">
        <ele>719.41</ele>
        <time>2014-01-21T09:35:00Z</time>
      </trkpt>
      <trkpt lat="36.660491" lon="-4.967791">
        <ele>719.66</ele>
        <time>2014-01-21T09:35:01Z</time>
      </trkpt>
      <trkpt lat="36.660500" lon="-4.967748">
        <ele>720.29</ele>
        <time>2014-01-21T09:35:05Z</time>
      </trkpt>
      <trkpt lat="36.660504" lon="-4.967729">
        <ele>720.65</ele>
        <time>2014-01-21T09:35:07Z</time>
      </trkpt>
      <trkpt lat="36.660504" lon="-4.967724">
        <ele>720.66</ele>
        <time>2014-01-21T09:35:08Z</time>
      </trkpt>
      <trkpt lat="36.660501" lon="-4.967702">
        <ele>721.04</ele>
        <time>2014-01-21T09:35:10Z</time>
      </trkpt>
      <trkpt lat="36.660506" lon="-4.967692">
        <ele>721.02</ele>
        <time>2014-01-21T09:35:11Z</time>
      </trkpt>
      <trkpt lat="36.660513" lon="-4.967661">
        <ele>721.68</ele>
        <time>2014-01-21T09:35:14Z</time>
      </trkpt>
      <trkpt lat="36.660516" lon="-4.967648">
        <ele>721.83</ele>
        <time>2014-01-21T09:35:15Z</time>
      </trkpt>
      <trkpt lat="36.660510" lon="-4.967608">
        <ele>722.20</ele>
        <time>2014-01-21T09:35:19Z</time>
      </trkpt>
      <trkpt lat="36.660509" lon="-4.967597">
        <ele>722.42</ele>
        <time>2014-01-21T09:35:20Z</time>
      </trkpt>
      <trkpt lat="36.660496" lon="-4.967564">
        <ele>722.81</ele>
        <time>2014-01-21T09:35:24Z</time>
      </trkpt>
      <trkpt lat="36.660499" lon="-4.967559">
        <ele>722.82</ele>
        <time>2014-01-21T09:35:27Z</time>
      </trkpt>
      <trkpt lat="36.660524" lon="-4.967513">
        <ele>723.61</ele>
        <time>2014-01-21T09:35:34Z</time>
      </trkpt>
      <trkpt lat="36.660560" lon="-4.967464">
        <ele>723.23</ele>
        <time>2014-01-21T09:35:38Z</time>
      </trkpt>
      <trkpt lat="36.660569" lon="-4.967457">
        <ele>723.10</ele>
        <time>2014-01-21T09:35:39Z</time>
      </trkpt>
      <trkpt lat="36.660606" lon="-4.967442">
        <ele>722.89</ele>
        <time>2014-01-21T09:35:42Z</time>
      </trkpt>
      <trkpt lat="36.660624" lon="-4.967442">
        <ele>723.06</ele>
        <time>2014-01-21T09:35:44Z</time>
      </trkpt>
      <trkpt lat="36.660656" lon="-4.967463">
        <ele>723.88</ele>
        <time>2014-01-21T09:35:48Z</time>
      </trkpt>
      <trkpt lat="36.660684" lon="-4.967475">
        <ele>724.29</ele>
        <time>2014-01-21T09:35:51Z</time>
      </trkpt>
      <trkpt lat="36.660729" lon="-4.967486">
        <ele>724.84</ele>
        <time>2014-01-21T09:35:55Z</time>
      </trkpt>
      <trkpt lat="36.660778" lon="-4.967511">
        <ele>725.43</ele>
        <time>2014-01-21T09:35:58Z</time>
      </trkpt>
      <trkpt lat="36.660790" lon="-4.967525">
        <ele>725.41</ele>
        <time>2014-01-21T09:35:59Z</time>
      </trkpt>
      <trkpt lat="36.660849" lon="-4.967595">
        <ele>725.41</ele>
        <time>2014-01-21T09:36:05Z</time>
      </trkpt>
      <trkpt lat="36.660858" lon="-4.967606">
        <ele>725.48</ele>
        <time>2014-01-21T09:36:06Z</time>
      </trkpt>
      <trkpt lat="36.660898" lon="-4.967684">
        <ele>725.48</ele>
        <time>2014-01-21T09:36:13Z</time>
      </trkpt>
      <trkpt lat="36.660899" lon="-4.967694">
        <ele>725.43</ele>
        <time>2014-01-21T09:36:14Z</time>
      </trkpt>
      <trkpt lat="36.660907" lon="-4.967704">
        <ele>725.44</ele>
        <time>2014-01-21T09:36:15Z</time>
      </trkpt>
      <trkpt lat="36.660921" lon="-4.967716">
        <ele>725.68</ele>
        <time>2014-01-21T09:36:17Z</time>
      </trkpt>
      <trkpt lat="36.660940" lon="-4.967724">
        <ele>725.82</ele>
        <time>2014-01-21T09:36:19Z</time>
      </trkpt>
      <trkpt lat="36.660976" lon="-4.967732">
        <ele>726.63</ele>
        <time>2014-01-21T09:36:22Z</time>
      </trkpt>
      <trkpt lat="36.661000" lon="-4.967736">
        <ele>727.06</ele>
        <time>2014-01-21T09:36:25Z</time>
      </trkpt>
      <trkpt lat="36.661011" lon="-4.967742">
        <ele>727.01</ele>
        <time>2014-01-21T09:36:27Z</time>
      </trkpt>
      <trkpt lat="36.661035" lon="-4.967752">
        <ele>727.41</ele>
        <time>2014-01-21T09:36:29Z</time>
      </trkpt>
      <trkpt lat="36.661063" lon="-4.967769">
        <ele>727.89</ele>
        <time>2014-01-21T09:36:32Z</time>
      </trkpt>
      <trkpt lat="36.661098" lon="-4.967791">
        <ele>728.46</ele>
        <time>2014-01-21T09:36:36Z</time>
      </trkpt>
      <trkpt lat="36.661124" lon="-4.967787">
        <ele>729.05</ele>
        <time>2014-01-21T09:36:39Z</time>
      </trkpt>
      <trkpt lat="36.661132" lon="-4.967782">
        <ele>729.22</ele>
        <time>2014-01-21T09:36:40Z</time>
      </trkpt>
      <trkpt lat="36.661141" lon="-4.967778">
        <ele>729.47</ele>
        <time>2014-01-21T09:36:41Z</time>
      </trkpt>
      <trkpt lat="36.661165" lon="-4.967796">
        <ele>729.82</ele>
        <time>2014-01-21T09:36:45Z</time>
      </trkpt>
      <trkpt lat="36.661183" lon="-4.967806">
        <ele>730.03</ele>
        <time>2014-01-21T09:36:48Z</time>
      </trkpt>
      <trkpt lat="36.661193" lon="-4.967817">
        <ele>730.23</ele>
        <time>2014-01-21T09:36:49Z</time>
      </trkpt>
      <trkpt lat="36.661221" lon="-4.967848">
        <ele>730.60</ele>
        <time>2014-01-21T09:36:53Z</time>
      </trkpt>
      <trkpt lat="36.661221" lon="-4.967848">
        <ele>730.62</ele>
        <time>2014-01-21T09:36:54Z</time>
      </trkpt>
      <trkpt lat="36.661237" lon="-4.967864">
        <ele>730.81</ele>
        <time>2014-01-21T09:36:59Z</time>
      </trkpt>
      <trkpt lat="36.661293" lon="-4.967900">
        <ele>731.82</ele>
        <time>2014-01-21T09:37:05Z</time>
      </trkpt>
      <trkpt lat="36.661307" lon="-4.967906">
        <ele>732.08</ele>
        <time>2014-01-21T09:37:06Z</time>
      </trkpt>
      <trkpt lat="36.661335" lon="-4.967921">
        <ele>732.69</ele>
        <time>2014-01-21T09:37:09Z</time>
      </trkpt>
      <trkpt lat="36.661352" lon="-4.967938">
        <ele>732.86</ele>
        <time>2014-01-21T09:37:11Z</time>
      </trkpt>
      <trkpt lat="36.661390" lon="-4.967964">
        <ele>733.64</ele>
        <time>2014-01-21T09:37:15Z</time>
      </trkpt>
      <trkpt lat="36.661422" lon="-4.967980">
        <ele>734.28</ele>
        <time>2014-01-21T09:37:18Z</time>
      </trkpt>
      <trkpt lat="36.661469" lon="-4.968019">
        <ele>735.02</ele>
        <time>2014-01-21T09:37:23Z</time>
      </trkpt>
      <trkpt lat="36.661545" lon="-4.968071">
        <ele>736.66</ele>
        <time>2014-01-21T09:37:30Z</time>
      </trkpt>
      <trkpt lat="36.661566" lon="-4.968085">
        <ele>737.08</ele>
        <time>2014-01-21T09:37:32Z</time>
      </trkpt>
      <trkpt lat="36.661613" lon="-4.968109">
        <ele>738.01</ele>
        <time>2014-01-21T09:37:36Z</time>
      </trkpt>
      <trkpt lat="36.661633" lon="-4.968113">
        <ele>738.41</ele>
        <time>2014-01-21T09:37:38Z</time>
      </trkpt>
      <trkpt lat="36.661642" lon="-4.968118">
        <ele>738.68</ele>
        <time>2014-01-21T09:37:39Z</time>
      </trkpt>
      <trkpt lat="36.661676" lon="-4.968145">
        <ele>739.48</ele>
        <time>2014-01-21T09:37:42Z</time>
      </trkpt>
      <trkpt lat="36.661687" lon="-4.968155">
        <ele>739.48</ele>
        <time>2014-01-21T09:37:43Z</time>
      </trkpt>
      <trkpt lat="36.661751" lon="-4.968197">
        <ele>740.23</ele>
        <time>2014-01-21T09:37:49Z</time>
      </trkpt>
      <trkpt lat="36.661760" lon="-4.968199">
        <ele>740.24</ele>
        <time>2014-01-21T09:37:50Z</time>
      </trkpt>
      <trkpt lat="36.661770" lon="-4.968204">
        <ele>740.44</ele>
        <time>2014-01-21T09:37:51Z</time>
      </trkpt>
      <trkpt lat="36.661820" lon="-4.968207">
        <ele>740.90</ele>
        <time>2014-01-21T09:37:55Z</time>
      </trkpt>
      <trkpt lat="36.661874" lon="-4.968193">
        <ele>741.45</ele>
        <time>2014-01-21T09:38:00Z</time>
      </trkpt>
      <trkpt lat="36.661923" lon="-4.968195">
        <ele>742.09</ele>
        <time>2014-01-21T09:38:03Z</time>
      </trkpt>
      <trkpt lat="36.661962" lon="-4.968192">
        <ele>742.42</ele>
        <time>2014-01-21T09:38:06Z</time>
      </trkpt>
      <trkpt lat="36.662030" lon="-4.968181">
        <ele>743.01</ele>
        <time>2014-01-21T09:38:12Z</time>
      </trkpt>
      <trkpt lat="36.662050" lon="-4.968183">
        <ele>743.28</ele>
        <time>2014-01-21T09:38:14Z</time>
      </trkpt>
      <trkpt lat="36.662073" lon="-4.968196">
        <ele>743.68</ele>
        <time>2014-01-21T09:38:16Z</time>
      </trkpt>
      <trkpt lat="36.662081" lon="-4.968201">
        <ele>743.84</ele>
        <time>2014-01-21T09:38:17Z</time>
      </trkpt>
      <trkpt lat="36.662097" lon="-4.968227">
        <ele>744.26</ele>
        <time>2014-01-21T09:38:20Z</time>
      </trkpt>
      <trkpt lat="36.662104" lon="-4.968247">
        <ele>744.47</ele>
        <time>2014-01-21T09:38:23Z</time>
      </trkpt>
      <trkpt lat="36.662119" lon="-4.968281">
        <ele>745.02</ele>
        <time>2014-01-21T09:38:27Z</time>
      </trkpt>
      <trkpt lat="36.662124" lon="-4.968292">
        <ele>745.23</ele>
        <time>2014-01-21T09:38:28Z</time>
      </trkpt>
      <trkpt lat="36.662130" lon="-4.968304">
        <ele>745.44</ele>
        <time>2014-01-21T09:38:29Z</time>
      </trkpt>
      <trkpt lat="36.662156" lon="-4.968349">
        <ele>746.26</ele>
        <time>2014-01-21T09:38:33Z</time>
      </trkpt>
      <trkpt lat="36.662170" lon="-4.968353">
        <ele>746.41</ele>
        <time>2014-01-21T09:38:34Z</time>
      </trkpt>
      <trkpt lat="36.662182" lon="-4.968353">
        <ele>746.61</ele>
        <time>2014-01-21T09:38:35Z</time>
      </trkpt>
      <trkpt lat="36.662191" lon="-4.968352">
        <ele>746.88</ele>
        <time>2014-01-21T09:38:36Z</time>
      </trkpt>
      <trkpt lat="36.662217" lon="-4.968348">
        <ele>747.02</ele>
        <time>2014-01-21T09:38:40Z</time>
      </trkpt>
      <trkpt lat="36.662227" lon="-4.968345">
        <ele>747.23</ele>
        <time>2014-01-21T09:38:41Z</time>
      </trkpt>
      <trkpt lat="36.662278" lon="-4.968370">
        <ele>748.29</ele>
        <time>2014-01-21T09:38:46Z</time>
      </trkpt>
      <trkpt lat="36.662288" lon="-4.968373">
        <ele>748.46</ele>
        <time>2014-01-21T09:38:47Z</time>
      </trkpt>
      <trkpt lat="36.662341" lon="-4.968390">
        <ele>749.50</ele>
        <time>2014-01-21T09:38:53Z</time>
      </trkpt>
      <trkpt lat="36.662349" lon="-4.968398">
        <ele>749.64</ele>
        <time>2014-01-21T09:38:54Z</time>
      </trkpt>
      <trkpt lat="36.662370" lon="-4.968412">
        <ele>750.04</ele>
        <time>2014-01-21T09:38:57Z</time>
      </trkpt>
      <trkpt lat="36.662377" lon="-4.968413">
        <ele>750.02</ele>
        <time>2014-01-21T09:38:58Z</time>
      </trkpt>
      <trkpt lat="36.662391" lon="-4.968415">
        <ele>750.42</ele>
        <time>2014-01-21T09:39:00Z</time>
      </trkpt>
      <trkpt lat="36.662433" lon="-4.968427">
        <ele>751.21</ele>
        <time>2014-01-21T09:39:04Z</time>
      </trkpt>
      <trkpt lat="36.662456" lon="-4.968442">
        <ele>751.64</ele>
        <time>2014-01-21T09:39:06Z</time>
      </trkpt>
      <trkpt lat="36.662492" lon="-4.968474">
        <ele>752.68</ele>
        <time>2014-01-21T09:39:10Z</time>
      </trkpt>
      <trkpt lat="36.662506" lon="-4.968494">
        <ele>753.04</ele>
        <time>2014-01-21T09:39:12Z</time>
      </trkpt>
      <trkpt lat="36.662517" lon="-4.968501">
        <ele>753.02</ele>
        <time>2014-01-21T09:39:14Z</time>
      </trkpt>
      <trkpt lat="36.662545" lon="-4.968542">
        <ele>753.67</ele>
        <time>2014-01-21T09:39:19Z</time>
      </trkpt>
      <trkpt lat="36.662598" lon="-4.968592">
        <ele>754.26</ele>
        <time>2014-01-21T09:39:25Z</time>
      </trkpt>
      <trkpt lat="36.662612" lon="-4.968606">
        <ele>754.61</ele>
        <time>2014-01-21T09:39:27Z</time>
      </trkpt>
      <trkpt lat="36.662625" lon="-4.968621">
        <ele>754.86</ele>
        <time>2014-01-21T09:39:32Z</time>
      </trkpt>
      <trkpt lat="36.662666" lon="-4.968668">
        <ele>755.60</ele>
        <time>2014-01-21T09:39:38Z</time>
      </trkpt>
      <trkpt lat="36.662690" lon="-4.968694">
        <ele>756.22</ele>
        <time>2014-01-21T09:39:41Z</time>
      </trkpt>
      <trkpt lat="36.662720" lon="-4.968718">
        <ele>756.81</ele>
        <time>2014-01-21T09:39:45Z</time>
      </trkpt>
      <trkpt lat="36.662736" lon="-4.968724">
        <ele>757.01</ele>
        <time>2014-01-21T09:39:47Z</time>
      </trkpt>
      <trkpt lat="36.662755" lon="-4.968744">
        <ele>757.65</ele>
        <time>2014-01-21T09:39:50Z</time>
      </trkpt>
      <trkpt lat="36.662763" lon="-4.968751">
        <ele>757.88</ele>
        <time>2014-01-21T09:39:51Z</time>
      </trkpt>
      <trkpt lat="36.662771" lon="-4.968757">
        <ele>758.07</ele>
        <time>2014-01-21T09:39:52Z</time>
      </trkpt>
      <trkpt lat="36.662806" lon="-4.968768">
        <ele>758.42</ele>
        <time>2014-01-21T09:39:59Z</time>
      </trkpt>
      <trkpt lat="36.662812" lon="-4.968775">
        <ele>758.66</ele>
        <time>2014-01-21T09:40:00Z</time>
      </trkpt>
      <trkpt lat="36.662836" lon="-4.968794">
        <ele>759.24</ele>
        <time>2014-01-21T09:40:04Z</time>
      </trkpt>
      <trkpt lat="36.662843" lon="-4.968803">
        <ele>759.49</ele>
        <time>2014-01-21T09:40:05Z</time>
      </trkpt>
      <trkpt lat="36.662855" lon="-4.968813">
        <ele>759.81</ele>
        <time>2014-01-21T09:40:07Z</time>
      </trkpt>
      <trkpt lat="36.662876" lon="-4.968833">
        <ele>760.41</ele>
        <time>2014-01-21T09:40:11Z</time>
      </trkpt>
      <trkpt lat="36.662879" lon="-4.968843">
        <ele>760.68</ele>
        <time>2014-01-21T09:40:12Z</time>
      </trkpt>
      <trkpt lat="36.662889" lon="-4.968864">
        <ele>761.23</ele>
        <time>2014-01-21T09:40:14Z</time>
      </trkpt>
      <trkpt lat="36.662894" lon="-4.968871">
        <ele>761.49</ele>
        <time>2014-01-21T09:40:15Z</time>
      </trkpt>
      <trkpt lat="36.662904" lon="-4.968879">
        <ele>761.85</ele>
        <time>2014-01-21T09:40:17Z</time>
      </trkpt>
      <trkpt lat="36.662932" lon="-4.968897">
        <ele>762.69</ele>
        <time>2014-01-21T09:40:21Z</time>
      </trkpt>
      <trkpt lat="36.662939" lon="-4.968904">
        <ele>762.83</ele>
        <time>2014-01-21T09:40:22Z</time>
      </trkpt>
      <trkpt lat="36.662954" lon="-4.968913">
        <ele>763.28</ele>
        <time>2014-01-21T09:40:24Z</time>
      </trkpt>
      <trkpt lat="36.662970" lon="-4.968939">
        <ele>764.10</ele>
        <time>2014-01-21T09:40:27Z</time>
      </trkpt>
      <trkpt lat="36.663024" lon="-4.968989">
        <ele>766.22</ele>
        <time>2014-01-21T09:40:33Z</time>
      </trkpt>
      <trkpt lat="36.663057" lon="-4.969044">
        <ele>768.23</ele>
        <time>2014-01-21T09:40:39Z</time>
      </trkpt>
      <trkpt lat="36.663058" lon="-4.969054">
        <ele>768.41</ele>
        <time>2014-01-21T09:40:40Z</time>
      </trkpt>
      <trkpt lat="36.663066" lon="-4.969089">
        <ele>769.64</ele>
        <time>2014-01-21T09:40:43Z</time>
      </trkpt>
      <trkpt lat="36.663079" lon="-4.969115">
        <ele>770.62</ele>
        <time>2014-01-21T09:40:46Z</time>
      </trkpt>
      <trkpt lat="36.663087" lon="-4.969120">
        <ele>770.85</ele>
        <time>2014-01-21T09:40:47Z</time>
      </trkpt>
      <trkpt lat="36.663108" lon="-4.969127">
        <ele>771.41</ele>
        <time>2014-01-21T09:40:51Z</time>
      </trkpt>
      <trkpt lat="36.663114" lon="-4.969123">
        <ele>771.49</ele>
        <time>2014-01-21T09:40:52Z</time>
      </trkpt>
      <trkpt lat="36.663124" lon="-4.969114">
        <ele>771.42</ele>
        <time>2014-01-21T09:40:55Z</time>
      </trkpt>
      <trkpt lat="36.663149" lon="-4.969103">
        <ele>771.48</ele>
        <time>2014-01-21T09:40:59Z</time>
      </trkpt>
      <trkpt lat="36.663148" lon="-4.969138">
        <ele>772.62</ele>
        <time>2014-01-21T09:41:04Z</time>
      </trkpt>
      <trkpt lat="36.663148" lon="-4.969160">
        <ele>773.21</ele>
        <time>2014-01-21T09:41:06Z</time>
      </trkpt>
      <trkpt lat="36.663143" lon="-4.969204">
        <ele>774.61</ele>
        <time>2014-01-21T09:41:10Z</time>
      </trkpt>
      <trkpt lat="36.663147" lon="-4.969216">
        <ele>775.04</ele>
        <time>2014-01-21T09:41:11Z</time>
      </trkpt>
      <trkpt lat="36.663157" lon="-4.969237">
        <ele>776.05</ele>
        <time>2014-01-21T09:41:13Z</time>
      </trkpt>
      <trkpt lat="36.663173" lon="-4.969256">
        <ele>777.06</ele>
        <time>2014-01-21T09:41:16Z</time>
      </trkpt>
      <trkpt lat="36.663181" lon="-4.969269">
        <ele>777.64</ele>
        <time>2014-01-21T09:41:18Z</time>
      </trkpt>
      <trkpt lat="36.663194" lon="-4.969296">
        <ele>778.88</ele>
        <time>2014-01-21T09:41:21Z</time>
      </trkpt>
      <trkpt lat="36.663198" lon="-4.969304">
        <ele>779.24</ele>
        <time>2014-01-21T09:41:22Z</time>
      </trkpt>
      <trkpt lat="36.663208" lon="-4.969331">
        <ele>780.24</ele>
        <time>2014-01-21T09:41:25Z</time>
      </trkpt>
      <trkpt lat="36.663211" lon="-4.969337">
        <ele>780.62</ele>
        <time>2014-01-21T09:41:26Z</time>
      </trkpt>
      <trkpt lat="36.663223" lon="-4.969367">
        <ele>781.89</ele>
        <time>2014-01-21T09:41:30Z</time>
      </trkpt>
      <trkpt lat="36.663244" lon="-4.969366">
        <ele>782.22</ele>
        <time>2014-01-21T09:41:32Z</time>
      </trkpt>
      <trkpt lat="36.663256" lon="-4.969346">
        <ele>781.81</ele>
        <time>2014-01-21T09:41:34Z</time>
      </trkpt>
      <trkpt lat="36.663266" lon="-4.969314">
        <ele>781.05</ele>
        <time>2014-01-21T09:41:37Z</time>
      </trkpt>
      <trkpt lat="36.663281" lon="-4.969308">
        <ele>781.04</ele>
        <time>2014-01-21T09:41:40Z</time>
      </trkpt>
      <trkpt lat="36.663287" lon="-4.969314">
        <ele>781.48</ele>
        <time>2014-01-21T09:41:41Z</time>
      </trkpt>
      <trkpt lat="36.663296" lon="-4.969322">
        <ele>781.87</ele>
        <time>2014-01-21T09:41:43Z</time>
      </trkpt>
      <trkpt lat="36.663314" lon="-4.969369">
        <ele>783.86</ele>
        <time>2014-01-21T09:41:49Z</time>
      </trkpt>
      <trkpt lat="36.663319" lon="-4.969377">
        <ele>784.22</ele>
        <time>2014-01-21T09:41:50Z</time>
      </trkpt>
      <trkpt lat="36.663324" lon="-4.969416">
        <ele>785.89</ele>
        <time>2014-01-21T09:41:55Z</time>
      </trkpt>
      <trkpt lat="36.663317" lon="-4.969485">
        <ele>788.25</ele>
        <time>2014-01-21T09:41:59Z</time>
      </trkpt>
      <trkpt lat="36.663335" lon="-4.969534">
        <ele>790.20</ele>
        <time>2014-01-21T09:42:04Z</time>
      </trkpt>
      <trkpt lat="36.663337" lon="-4.969550">
        <ele>791.01</ele>
        <time>2014-01-21T09:42:05Z</time>
      </trkpt>
      <trkpt lat="36.663353" lon="-4.969600">
        <ele>793.21</ele>
        <time>2014-01-21T09:42:09Z</time>
      </trkpt>
      <trkpt lat="36.663362" lon="-4.969615">
        <ele>794.23</ele>
        <time>2014-01-21T09:42:11Z</time>
      </trkpt>
      <trkpt lat="36.663365" lon="-4.969621">
        <ele>794.46</ele>
        <time>2014-01-21T09:42:12Z</time>
      </trkpt>
      <trkpt lat="36.663372" lon="-4.969635">
        <ele>795.25</ele>
        <time>2014-01-21T09:42:14Z</time>
      </trkpt>
      <trkpt lat="36.663401" lon="-4.969674">
        <ele>797.69</ele>
        <time>2014-01-21T09:42:19Z</time>
      </trkpt>
      <trkpt lat="36.663413" lon="-4.969695">
        <ele>798.84</ele>
        <time>2014-01-21T09:42:22Z</time>
      </trkpt>
      <trkpt lat="36.663428" lon="-4.969702">
        <ele>799.67</ele>
        <time>2014-01-21T09:42:24Z</time>
      </trkpt>
      <trkpt lat="36.663438" lon="-4.969715">
        <ele>800.69</ele>
        <time>2014-01-21T09:42:26Z</time>
      </trkpt>
      <trkpt lat="36.663473" lon="-4.969763">
        <ele>803.81</ele>
        <time>2014-01-21T09:42:32Z</time>
      </trkpt>
      <trkpt lat="36.663490" lon="-4.969801">
        <ele>805.83</ele>
        <time>2014-01-21T09:42:36Z</time>
      </trkpt>
      <trkpt lat="36.663521" lon="-4.969831">
        <ele>808.21</ele>
        <time>2014-01-21T09:42:40Z</time>
      </trkpt>
      <trkpt lat="36.663554" lon="-4.969872">
        <ele>811.21</ele>
        <time>2014-01-21T09:42:45Z</time>
      </trkpt>
      <trkpt lat="36.663567" lon="-4.969905">
        <ele>813.23</ele>
        <time>2014-01-21T09:42:48Z</time>
      </trkpt>
      <trkpt lat="36.663569" lon="-4.969932">
        <ele>814.49</ele>
        <time>2014-01-21T09:42:50Z</time>
      </trkpt>
      <trkpt lat="36.663577" lon="-4.969978">
        <ele>816.62</ele>
        <time>2014-01-21T09:42:55Z</time>
      </trkpt>
      <trkpt lat="36.663575" lon="-4.969993">
        <ele>817.22</ele>
        <time>2014-01-21T09:42:57Z</time>
      </trkpt>
      <trkpt lat="36.663579" lon="-4.970032">
        <ele>818.81</ele>
        <time>2014-01-21T09:43:01Z</time>
      </trkpt>
      <trkpt lat="36.663575" lon="-4.970034">
        <ele>818.69</ele>
        <time>2014-01-21T09:43:02Z</time>
      </trkpt>
      <trkpt lat="36.663568" lon="-4.970080">
        <ele>820.09</ele>
        <time>2014-01-21T09:43:07Z</time>
      </trkpt>
      <trkpt lat="36.663563" lon="-4.970098">
        <ele>820.49</ele>
        <time>2014-01-21T09:43:09Z</time>
      </trkpt>
      <trkpt lat="36.663545" lon="-4.970141">
        <ele>821.02</ele>
        <time>2014-01-21T09:43:14Z</time>
      </trkpt>
      <trkpt lat="36.663537" lon="-4.970151">
        <ele>821.03</ele>
        <time>2014-01-21T09:43:16Z</time>
      </trkpt>
      <trkpt lat="36.663541" lon="-4.970194">
        <ele>822.81</ele>
        <time>2014-01-21T09:43:22Z</time>
      </trkpt>
      <trkpt lat="36.663549" lon="-4.970219">
        <ele>824.06</ele>
        <time>2014-01-21T09:43:25Z</time>
      </trkpt>
      <trkpt lat="36.663544" lon="-4.970244">
        <ele>824.62</ele>
        <time>2014-01-21T09:43:28Z</time>
      </trkpt>
      <trkpt lat="36.663531" lon="-4.970267">
        <ele>824.88</ele>
        <time>2014-01-21T09:43:33Z</time>
      </trkpt>
      <trkpt lat="36.663531" lon="-4.970267">
        <ele>824.87</ele>
        <time>2014-01-21T09:43:34Z</time>
      </trkpt>
      <trkpt lat="36.663533" lon="-4.970286">
        <ele>825.70</ele>
        <time>2014-01-21T09:43:36Z</time>
      </trkpt>
      <trkpt lat="36.663522" lon="-4.970306">
        <ele>825.87</ele>
        <time>2014-01-21T09:43:38Z</time>
      </trkpt>
      <trkpt lat="36.663518" lon="-4.970315">
        <ele>826.02</ele>
        <time>2014-01-21T09:43:40Z</time>
      </trkpt>
      <trkpt lat="36.663509" lon="-4.970339">
        <ele>826.42</ele>
        <time>2014-01-21T09:43:44Z</time>
      </trkpt>
      <trkpt lat="36.663499" lon="-4.970379">
        <ele>827.41</ele>
        <time>2014-01-21T09:43:47Z</time>
      </trkpt>
      <trkpt lat="36.663497" lon="-4.970405">
        <ele>828.21</ele>
        <time>2014-01-21T09:43:49Z</time>
      </trkpt>
      <trkpt lat="36.663509" lon="-4.970449">
        <ele>830.24</ele>
        <time>2014-01-21T09:43:55Z</time>
      </trkpt>
      <trkpt lat="36.663513" lon="-4.970458">
        <ele>830.88</ele>
        <time>2014-01-21T09:43:56Z</time>
      </trkpt>
      <trkpt lat="36.663521" lon="-4.970483">
        <ele>832.09</ele>
        <time>2014-01-21T09:43:59Z</time>
      </trkpt>
      <trkpt lat="36.663523" lon="-4.970513">
        <ele>833.09</ele>
        <time>2014-01-21T09:44:04Z</time>
      </trkpt>
      <trkpt lat="36.663525" lon="-4.970553">
        <ele>834.67</ele>
        <time>2014-01-21T09:44:09Z</time>
      </trkpt>
      <trkpt lat="36.663527" lon="-4.970563">
        <ele>835.09</ele>
        <time>2014-01-21T09:44:10Z</time>
      </trkpt>
      <trkpt lat="36.663530" lon="-4.970576">
        <ele>835.64</ele>
        <time>2014-01-21T09:44:11Z</time>
      </trkpt>
      <trkpt lat="36.663529" lon="-4.970636">
        <ele>837.66</ele>
        <time>2014-01-21T09:44:17Z</time>
      </trkpt>
      <trkpt lat="36.663531" lon="-4.970644">
        <ele>838.08</ele>
        <time>2014-01-21T09:44:18Z</time>
      </trkpt>
      <trkpt lat="36.663540" lon="-4.970634">
        <ele>838.21</ele>
        <time>2014-01-21T09:44:22Z</time>
      </trkpt>
      <trkpt lat="36.663556" lon="-4.970622">
        <ele>838.61</ele>
        <time>2014-01-21T09:44:26Z</time>
      </trkpt>
      <trkpt lat="36.663575" lon="-4.970614">
        <ele>839.23</ele>
        <time>2014-01-21T09:44:29Z</time>
      </trkpt>
      <trkpt lat="36.663582" lon="-4.970608">
        <ele>839.29</ele>
        <time>2014-01-21T09:44:30Z</time>
      </trkpt>
      <trkpt lat="36.663605" lon="-4.970563">
        <ele>838.89</ele>
        <time>2014-01-21T09:44:35Z</time>
      </trkpt>
      <trkpt lat="36.663623" lon="-4.970533">
        <ele>838.64</ele>
        <time>2014-01-21T09:44:39Z</time>
      </trkpt>
      <trkpt lat="36.663635" lon="-4.970494">
        <ele>837.85</ele>
        <time>2014-01-21T09:44:43Z</time>
      </trkpt>
      <trkpt lat="36.663640" lon="-4.970486">
        <ele>837.66</ele>
        <time>2014-01-21T09:44:44Z</time>
      </trkpt>
      <trkpt lat="36.663644" lon="-4.970482">
        <ele>837.67</ele>
        <time>2014-01-21T09:44:45Z</time>
      </trkpt>
      <trkpt lat="36.663656" lon="-4.970493">
        <ele>838.64</ele>
        <time>2014-01-21T09:44:49Z</time>
      </trkpt>
      <trkpt lat="36.663667" lon="-4.970517">
        <ele>840.05</ele>
        <time>2014-01-21T09:44:54Z</time>
      </trkpt>
      <trkpt lat="36.663669" lon="-4.970525">
        <ele>840.41</ele>
        <time>2014-01-21T09:44:55Z</time>
      </trkpt>
      <trkpt lat="36.663670" lon="-4.970561">
        <ele>841.81</ele>
        <time>2014-01-21T09:44:59Z</time>
      </trkpt>
      <trkpt lat="36.663674" lon="-4.970583">
        <ele>842.87</ele>
        <time>2014-01-21T09:45:02Z</time>
      </trkpt>
      <trkpt lat="36.663677" lon="-4.970600">
        <ele>843.46</ele>
        <time>2014-01-21T09:45:04Z</time>
      </trkpt>
      <trkpt lat="36.663678" lon="-4.970638">
        <ele>845.05</ele>
        <time>2014-01-21T09:45:09Z</time>
      </trkpt>
      <trkpt lat="36.663677" lon="-4.970638">
        <ele>844.86</ele>
        <time>2014-01-21T09:45:10Z</time>
      </trkpt>
      <trkpt lat="36.663687" lon="-4.970664">
        <ele>846.29</ele>
        <time>2014-01-21T09:45:13Z</time>
      </trkpt>
      <trkpt lat="36.663693" lon="-4.970691">
        <ele>847.64</ele>
        <time>2014-01-21T09:45:16Z</time>
      </trkpt>
      <trkpt lat="36.663694" lon="-4.970713">
        <ele>848.48</ele>
        <time>2014-01-21T09:45:18Z</time>
      </trkpt>
      <trkpt lat="36.663688" lon="-4.970750">
        <ele>849.43</ele>
        <time>2014-01-21T09:45:21Z</time>
      </trkpt>
      <trkpt lat="36.663696" lon="-4.970830">
        <ele>852.85</ele>
        <time>2014-01-21T09:45:27Z</time>
      </trkpt>
      <trkpt lat="36.663684" lon="-4.970859">
        <ele>853.01</ele>
        <time>2014-01-21T09:45:29Z</time>
      </trkpt>
      <trkpt lat="36.663654" lon="-4.970911">
        <ele>853.01</ele>
        <time>2014-01-21T09:45:33Z</time>
      </trkpt>
      <trkpt lat="36.663646" lon="-4.971022">
        <ele>855.70</ele>
        <time>2014-01-21T09:45:37Z</time>
      </trkpt>
      <trkpt lat="36.663637" lon="-4.971092">
        <ele>857.06</ele>
        <time>2014-01-21T09:45:40Z</time>
      </trkpt>
      <trkpt lat="36.663633" lon="-4.971116">
        <ele>857.68</ele>
        <time>2014-01-21T09:45:42Z</time>
      </trkpt>
      <trkpt lat="36.663618" lon="-4.971147">
        <ele>857.67</ele>
        <time>2014-01-21T09:45:44Z</time>
      </trkpt>
      <trkpt lat="36.663601" lon="-4.971175">
        <ele>857.66</ele>
        <time>2014-01-21T09:45:46Z</time>
      </trkpt>
      <trkpt lat="36.663549" lon="-4.971187">
        <ele>855.41</ele>
        <time>2014-01-21T09:45:51Z</time>
      </trkpt>
      <trkpt lat="36.663515" lon="-4.971195">
        <ele>854.02</ele>
        <time>2014-01-21T09:45:54Z</time>
      </trkpt>
      <trkpt lat="36.663470" lon="-4.971199">
        <ele>852.02</ele>
        <time>2014-01-21T09:45:58Z</time>
      </trkpt>
      <trkpt lat="36.663451" lon="-4.971204">
        <ele>851.30</ele>
        <time>2014-01-21T09:46:00Z</time>
      </trkpt>
      <trkpt lat="36.663426" lon="-4.971209">
        <ele>850.22</ele>
        <time>2014-01-21T09:46:03Z</time>
      </trkpt>
      <trkpt lat="36.663405" lon="-4.971207">
        <ele>849.21</ele>
        <time>2014-01-21T09:46:05Z</time>
      </trkpt>
      <trkpt lat="36.663397" lon="-4.971212">
        <ele>849.04</ele>
        <time>2014-01-21T09:46:07Z</time>
      </trkpt>
      <trkpt lat="36.663361" lon="-4.971256">
        <ele>848.44</ele>
        <time>2014-01-21T09:46:12Z</time>
      </trkpt>
      <trkpt lat="36.663362" lon="-4.971272">
        <ele>849.08</ele>
        <time>2014-01-21T09:46:14Z</time>
      </trkpt>
      <trkpt lat="36.663379" lon="-4.971277">
        <ele>850.09</ele>
        <time>2014-01-21T09:46:18Z</time>
      </trkpt>
      <trkpt lat="36.663414" lon="-4.971290">
        <ele>852.03</ele>
        <time>2014-01-21T09:46:25Z</time>
      </trkpt>
      <trkpt lat="36.663386" lon="-4.971308">
        <ele>851.21</ele>
        <time>2014-01-21T09:46:30Z</time>
      </trkpt>
      <trkpt lat="36.663375" lon="-4.971322">
        <ele>851.07</ele>
        <time>2014-01-21T09:46:32Z</time>
      </trkpt>
      <trkpt lat="36.663395" lon="-4.971337">
        <ele>852.41</ele>
        <time>2014-01-21T09:46:35Z</time>
      </trkpt>
      <trkpt lat="36.663401" lon="-4.971341">
        <ele>852.81</ele>
        <time>2014-01-21T09:46:36Z</time>
      </trkpt>
      <trkpt lat="36.663428" lon="-4.971363">
        <ele>854.89</ele>
        <time>2014-01-21T09:46:41Z</time>
      </trkpt>
      <trkpt lat="36.663431" lon="-4.971382">
        <ele>855.50</ele>
        <time>2014-01-21T09:46:46Z</time>
      </trkpt>
      <trkpt lat="36.663399" lon="-4.971416">
        <ele>854.86</ele>
        <time>2014-01-21T09:46:52Z</time>
      </trkpt>
      <trkpt lat="36.663466" lon="-4.971436">
        <ele>858.70</ele>
        <time>2014-01-21T09:47:01Z</time>
      </trkpt>
      <trkpt lat="36.663482" lon="-4.971446">
        <ele>859.63</ele>
        <time>2014-01-21T09:47:05Z</time>
      </trkpt>
      <trkpt lat="36.663503" lon="-4.971461">
        <ele>861.02</ele>
        <time>2014-01-21T09:47:09Z</time>
      </trkpt>
      <trkpt lat="36.663514" lon="-4.971468">
        <ele>861.61</ele>
        <time>2014-01-21T09:47:11Z</time>
      </trkpt>
      <trkpt lat="36.663537" lon="-4.971482">
        <ele>863.22</ele>
        <time>2014-01-21T09:47:15Z</time>
      </trkpt>
      <trkpt lat="36.663543" lon="-4.971485">
        <ele>863.66</ele>
        <time>2014-01-21T09:47:16Z</time>
      </trkpt>
      <trkpt lat="36.663568" lon="-4.971506">
        <ele>865.23</ele>
        <time>2014-01-21T09:47:21Z</time>
      </trkpt>
      <trkpt lat="36.663592" lon="-4.971521">
        <ele>866.81</ele>
        <time>2014-01-21T09:47:24Z</time>
      </trkpt>
      <trkpt lat="36.663601" lon="-4.971525">
        <ele>867.22</ele>
        <time>2014-01-21T09:47:26Z</time>
      </trkpt>
      <trkpt lat="36.663609" lon="-4.971535">
        <ele>868.06</ele>
        <time>2014-01-21T09:47:27Z</time>
      </trkpt>
      <trkpt lat="36.663625" lon="-4.971546">
        <ele>869.06</ele>
        <time>2014-01-21T09:47:31Z</time>
      </trkpt>
      <trkpt lat="36.663641" lon="-4.971577">
        <ele>870.64</ele>
        <time>2014-01-21T09:47:36Z</time>
      </trkpt>
      <trkpt lat="36.663633" lon="-4.971588">
        <ele>870.62</ele>
        <time>2014-01-21T09:47:38Z</time>
      </trkpt>
      <trkpt lat="36.663616" lon="-4.971597">
        <ele>870.01</ele>
        <time>2014-01-21T09:47:41Z</time>
      </trkpt>
      <trkpt lat="36.663598" lon="-4.971606">
        <ele>869.42</ele>
        <time>2014-01-21T09:47:43Z</time>
      </trkpt>
      <trkpt lat="36.663560" lon="-4.971610">
        <ele>867.83</ele>
        <time>2014-01-21T09:47:47Z</time>
      </trkpt>
      <trkpt lat="36.663522" lon="-4.971614">
        <ele>866.24</ele>
        <time>2014-01-21T09:47:50Z</time>
      </trkpt>
      <trkpt lat="36.663501" lon="-4.971616">
        <ele>865.22</ele>
        <time>2014-01-21T09:47:52Z</time>
      </trkpt>
      <trkpt lat="36.663477" lon="-4.971616">
        <ele>864.23</ele>
        <time>2014-01-21T09:47:54Z</time>
      </trkpt>
      <trkpt lat="36.663451" lon="-4.971625">
        <ele>863.25</ele>
        <time>2014-01-21T09:47:57Z</time>
      </trkpt>
      <trkpt lat="36.663452" lon="-4.971634">
        <ele>863.45</ele>
        <time>2014-01-21T09:47:58Z</time>
      </trkpt>
      <trkpt lat="36.663427" lon="-4.971651">
        <ele>862.86</ele>
        <time>2014-01-21T09:48:02Z</time>
      </trkpt>
      <trkpt lat="36.663422" lon="-4.971653">
        <ele>862.62</ele>
        <time>2014-01-21T09:48:03Z</time>
      </trkpt>
      <trkpt lat="36.663402" lon="-4.971658">
        <ele>861.81</ele>
        <time>2014-01-21T09:48:06Z</time>
      </trkpt>
      <trkpt lat="36.663384" lon="-4.971670">
        <ele>861.41</ele>
        <time>2014-01-21T09:48:09Z</time>
      </trkpt>
      <trkpt lat="36.663380" lon="-4.971675">
        <ele>861.24</ele>
        <time>2014-01-21T09:48:10Z</time>
      </trkpt>
      <trkpt lat="36.663354" lon="-4.971697">
        <ele>860.43</ele>
        <time>2014-01-21T09:48:14Z</time>
      </trkpt>
      <trkpt lat="36.663341" lon="-4.971708">
        <ele>860.03</ele>
        <time>2014-01-21T09:48:18Z</time>
      </trkpt>
      <trkpt lat="36.663332" lon="-4.971728">
        <ele>859.87</ele>
        <time>2014-01-21T09:48:22Z</time>
      </trkpt>
      <trkpt lat="36.663361" lon="-4.971751">
        <ele>861.50</ele>
        <time>2014-01-21T09:48:28Z</time>
      </trkpt>
      <trkpt lat="36.663377" lon="-4.971756">
        <ele>862.49</ele>
        <time>2014-01-21T09:48:30Z</time>
      </trkpt>
      <trkpt lat="36.663411" lon="-4.971773">
        <ele>864.29</ele>
        <time>2014-01-21T09:48:35Z</time>
      </trkpt>
      <trkpt lat="36.663419" lon="-4.971783">
        <ele>864.62</ele>
        <time>2014-01-21T09:48:37Z</time>
      </trkpt>
      <trkpt lat="36.663420" lon="-4.971795">
        <ele>864.84</ele>
        <time>2014-01-21T09:48:39Z</time>
      </trkpt>
      <trkpt lat="36.663446" lon="-4.971809">
        <ele>866.41</ele>
        <time>2014-01-21T09:48:44Z</time>
      </trkpt>
      <trkpt lat="36.663471" lon="-4.971804">
        <ele>867.44</ele>
        <time>2014-01-21T09:48:47Z</time>
      </trkpt>
      <trkpt lat="36.663496" lon="-4.971804">
        <ele>868.69</ele>
        <time>2014-01-21T09:48:50Z</time>
      </trkpt>
      <trkpt lat="36.663521" lon="-4.971813">
        <ele>869.83</ele>
        <time>2014-01-21T09:48:54Z</time>
      </trkpt>
      <trkpt lat="36.663551" lon="-4.971816">
        <ele>871.44</ele>
        <time>2014-01-21T09:48:58Z</time>
      </trkpt>
      <trkpt lat="36.663573" lon="-4.971822">
        <ele>872.41</ele>
        <time>2014-01-21T09:49:01Z</time>
      </trkpt>
      <trkpt lat="36.663597" lon="-4.971832">
        <ele>873.87</ele>
        <time>2014-01-21T09:49:05Z</time>
      </trkpt>
      <trkpt lat="36.663611" lon="-4.971835">
        <ele>874.68</ele>
        <time>2014-01-21T09:49:07Z</time>
      </trkpt>
      <trkpt lat="36.663621" lon="-4.971837">
        <ele>875.03</ele>
        <time>2014-01-21T09:49:08Z</time>
      </trkpt>
      <trkpt lat="36.663650" lon="-4.971847">
        <ele>876.66</ele>
        <time>2014-01-21T09:49:11Z</time>
      </trkpt>
      <trkpt lat="36.663699" lon="-4.971881">
        <ele>879.41</ele>
        <time>2014-01-21T09:49:16Z</time>
      </trkpt>
      <trkpt lat="36.663706" lon="-4.971886">
        <ele>879.81</ele>
        <time>2014-01-21T09:49:17Z</time>
      </trkpt>
      <trkpt lat="36.663739" lon="-4.971884">
        <ele>881.50</ele>
        <time>2014-01-21T09:49:22Z</time>
      </trkpt>
      <trkpt lat="36.663738" lon="-4.971884">
        <ele>881.44</ele>
        <time>2014-01-21T09:49:23Z</time>
      </trkpt>
      <trkpt lat="36.663747" lon="-4.971870">
        <ele>881.67</ele>
        <time>2014-01-21T09:49:36Z</time>
      </trkpt>
      <trkpt lat="36.663759" lon="-4.971869">
        <ele>882.05</ele>
        <time>2014-01-21T09:49:38Z</time>
      </trkpt>
      <trkpt lat="36.663765" lon="-4.971865">
        <ele>882.26</ele>
        <time>2014-01-21T09:49:39Z</time>
      </trkpt>
      <trkpt lat="36.663789" lon="-4.971867">
        <ele>883.41</ele>
        <time>2014-01-21T09:49:43Z</time>
      </trkpt>
      <trkpt lat="36.663799" lon="-4.971866">
        <ele>884.02</ele>
        <time>2014-01-21T09:49:44Z</time>
      </trkpt>
      <trkpt lat="36.663814" lon="-4.971874">
        <ele>884.88</ele>
        <time>2014-01-21T09:49:46Z</time>
      </trkpt>
      <trkpt lat="36.663818" lon="-4.971876">
        <ele>885.01</ele>
        <time>2014-01-21T09:49:47Z</time>
      </trkpt>
      <trkpt lat="36.663851" lon="-4.971884">
        <ele>886.61</ele>
        <time>2014-01-21T09:49:52Z</time>
      </trkpt>
      <trkpt lat="36.663854" lon="-4.971883">
        <ele>886.88</ele>
        <time>2014-01-21T09:49:53Z</time>
      </trkpt>
      <trkpt lat="36.663870" lon="-4.971886">
        <ele>887.66</ele>
        <time>2014-01-21T09:49:55Z</time>
      </trkpt>
      <trkpt lat="36.663882" lon="-4.971891">
        <ele>888.49</ele>
        <time>2014-01-21T09:49:58Z</time>
      </trkpt>
      <trkpt lat="36.663882" lon="-4.971891">
        <ele>888.45</ele>
        <time>2014-01-21T09:49:59Z</time>
      </trkpt>
      <trkpt lat="36.663884" lon="-4.971911">
        <ele>888.88</ele>
        <time>2014-01-21T09:50:01Z</time>
      </trkpt>
      <trkpt lat="36.663880" lon="-4.971919">
        <ele>888.89</ele>
        <time>2014-01-21T09:50:02Z</time>
      </trkpt>
      <trkpt lat="36.663857" lon="-4.971946">
        <ele>888.27</ele>
        <time>2014-01-21T09:50:06Z</time>
      </trkpt>
      <trkpt lat="36.663844" lon="-4.971965">
        <ele>887.86</ele>
        <time>2014-01-21T09:50:09Z</time>
      </trkpt>
      <trkpt lat="36.663835" lon="-4.971973">
        <ele>887.66</ele>
        <time>2014-01-21T09:50:12Z</time>
      </trkpt>
      <trkpt lat="36.663825" lon="-4.971999">
        <ele>887.61</ele>
        <time>2014-01-21T09:50:16Z</time>
      </trkpt>
      <trkpt lat="36.663817" lon="-4.972016">
        <ele>887.61</ele>
        <time>2014-01-21T09:50:21Z</time>
      </trkpt>
      <trkpt lat="36.663791" lon="-4.972031">
        <ele>886.64</ele>
        <time>2014-01-21T09:50:25Z</time>
      </trkpt>
      <trkpt lat="36.663778" lon="-4.972042">
        <ele>886.23</ele>
        <time>2014-01-21T09:50:27Z</time>
      </trkpt>
      <trkpt lat="36.663775" lon="-4.972047">
        <ele>886.08</ele>
        <time>2014-01-21T09:50:28Z</time>
      </trkpt>
      <trkpt lat="36.663746" lon="-4.972064">
        <ele>885.07</ele>
        <time>2014-01-21T09:50:33Z</time>
      </trkpt>
      <trkpt lat="36.663743" lon="-4.972071">
        <ele>885.05</ele>
        <time>2014-01-21T09:50:34Z</time>
      </trkpt>
      <trkpt lat="36.663759" lon="-4.972100">
        <ele>886.22</ele>
        <time>2014-01-21T09:50:38Z</time>
      </trkpt>
      <trkpt lat="36.663760" lon="-4.972112">
        <ele>886.45</ele>
        <time>2014-01-21T09:50:39Z</time>
      </trkpt>
      <trkpt lat="36.663787" lon="-4.972131">
        <ele>888.25</ele>
        <time>2014-01-21T09:50:43Z</time>
      </trkpt>
      <trkpt lat="36.663815" lon="-4.972149">
        <ele>890.00</ele>
        <time>2014-01-21T09:50:48Z</time>
      </trkpt>
      <trkpt lat="36.663820" lon="-4.972153">
        <ele>890.21</ele>
        <time>2014-01-21T09:50:49Z</time>
      </trkpt>
      <trkpt lat="36.663836" lon="-4.972158">
        <ele>891.21</ele>
        <time>2014-01-21T09:50:52Z</time>
      </trkpt>
      <trkpt lat="36.663864" lon="-4.972166">
        <ele>892.69</ele>
        <time>2014-01-21T09:50:56Z</time>
      </trkpt>
      <trkpt lat="36.663871" lon="-4.972168">
        <ele>893.07</ele>
        <time>2014-01-21T09:50:57Z</time>
      </trkpt>
      <trkpt lat="36.663895" lon="-4.972173">
        <ele>894.45</ele>
        <time>2014-01-21T09:51:01Z</time>
      </trkpt>
      <trkpt lat="36.663903" lon="-4.972170">
        <ele>894.63</ele>
        <time>2014-01-21T09:51:02Z</time>
      </trkpt>
      <trkpt lat="36.663914" lon="-4.972172">
        <ele>895.50</ele>
        <time>2014-01-21T09:51:04Z</time>
      </trkpt>
      <trkpt lat="36.663938" lon="-4.972176">
        <ele>896.63</ele>
        <time>2014-01-21T09:51:08Z</time>
      </trkpt>
      <trkpt lat="36.663951" lon="-4.972176">
        <ele>897.23</ele>
        <time>2014-01-21T09:51:10Z</time>
      </trkpt>
      <trkpt lat="36.663961" lon="-4.972180">
        <ele>897.87</ele>
        <time>2014-01-21T09:51:12Z</time>
      </trkpt>
      <trkpt lat="36.663976" lon="-4.972192">
        <ele>898.80</ele>
        <time>2014-01-21T09:51:16Z</time>
      </trkpt>
      <trkpt lat="36.664000" lon="-4.972195">
        <ele>900.02</ele>
        <time>2014-01-21T09:51:20Z</time>
      </trkpt>
      <trkpt lat="36.664012" lon="-4.972194">
        <ele>900.61</ele>
        <time>2014-01-21T09:51:22Z</time>
      </trkpt>
      <trkpt lat="36.664052" lon="-4.972214">
        <ele>903.02</ele>
        <time>2014-01-21T09:51:28Z</time>
      </trkpt>
      <trkpt lat="36.664064" lon="-4.972224">
        <ele>903.85</ele>
        <time>2014-01-21T09:51:30Z</time>
      </trkpt>
      <trkpt lat="36.664091" lon="-4.972235">
        <ele>905.44</ele>
        <time>2014-01-21T09:51:33Z</time>
      </trkpt>
      <trkpt lat="36.664120" lon="-4.972238">
        <ele>907.08</ele>
        <time>2014-01-21T09:51:36Z</time>
      </trkpt>
      <trkpt lat="36.664141" lon="-4.972246">
        <ele>908.25</ele>
        <time>2014-01-21T09:51:39Z</time>
      </trkpt>
      <trkpt lat="36.664149" lon="-4.972252">
        <ele>908.84</ele>
        <time>2014-01-21T09:51:40Z</time>
      </trkpt>
      <trkpt lat="36.664184" lon="-4.972277">
        <ele>911.25</ele>
        <time>2014-01-21T09:51:45Z</time>
      </trkpt>
      <trkpt lat="36.664205" lon="-4.972281">
        <ele>912.24</ele>
        <time>2014-01-21T09:51:48Z</time>
      </trkpt>
      <trkpt lat="36.664237" lon="-4.972269">
        <ele>913.69</ele>
        <time>2014-01-21T09:51:52Z</time>
      </trkpt>
      <trkpt lat="36.664263" lon="-4.972256">
        <ele>914.61</ele>
        <time>2014-01-21T09:51:57Z</time>
      </trkpt>
      <trkpt lat="36.664270" lon="-4.972255">
        <ele>915.01</ele>
        <time>2014-01-21T09:51:58Z</time>
      </trkpt>
      <trkpt lat="36.664302" lon="-4.972247">
        <ele>916.66</ele>
        <time>2014-01-21T09:52:02Z</time>
      </trkpt>
      <trkpt lat="36.664308" lon="-4.972246">
        <ele>916.88</ele>
        <time>2014-01-21T09:52:03Z</time>
      </trkpt>
      <trkpt lat="36.664319" lon="-4.972258">
        <ele>917.64</ele>
        <time>2014-01-21T09:52:08Z</time>
      </trkpt>
      <trkpt lat="36.664317" lon="-4.972271">
        <ele>917.89</ele>
        <time>2014-01-21T09:52:09Z</time>
      </trkpt>
      <trkpt lat="36.664312" lon="-4.972299">
        <ele>918.24</ele>
        <time>2014-01-21T09:52:12Z</time>
      </trkpt>
      <trkpt lat="36.664311" lon="-4.972328">
        <ele>918.87</ele>
        <time>2014-01-21T09:52:15Z</time>
      </trkpt>
      <trkpt lat="36.664309" lon="-4.972337">
        <ele>918.89</ele>
        <time>2014-01-21T09:52:16Z</time>
      </trkpt>
      <trkpt lat="36.664299" lon="-4.972378">
        <ele>919.28</ele>
        <time>2014-01-21T09:52:20Z</time>
      </trkpt>
      <trkpt lat="36.664294" lon="-4.972396">
        <ele>919.24</ele>
        <time>2014-01-21T09:52:22Z</time>
      </trkpt>
      <trkpt lat="36.664288" lon="-4.972417">
        <ele>919.42</ele>
        <time>2014-01-21T09:52:24Z</time>
      </trkpt>
      <trkpt lat="36.664287" lon="-4.972439">
        <ele>919.81</ele>
        <time>2014-01-21T09:52:27Z</time>
      </trkpt>
      <trkpt lat="36.664276" lon="-4.972474">
        <ele>920.03</ele>
        <time>2014-01-21T09:52:32Z</time>
      </trkpt>
      <trkpt lat="36.664270" lon="-4.972486">
        <ele>919.89</ele>
        <time>2014-01-21T09:52:34Z</time>
      </trkpt>
      <trkpt lat="36.664263" lon="-4.972519">
        <ele>919.85</ele>
        <time>2014-01-21T09:52:38Z</time>
      </trkpt>
      <trkpt lat="36.664257" lon="-4.972544">
        <ele>919.44</ele>
        <time>2014-01-21T09:52:43Z</time>
      </trkpt>
      <trkpt lat="36.664245" lon="-4.972576">
        <ele>918.84</ele>
        <time>2014-01-21T09:52:58Z</time>
      </trkpt>
      <trkpt lat="36.664290" lon="-4.972579">
        <ele>921.03</ele>
        <time>2014-01-21T09:53:04Z</time>
      </trkpt>
      <trkpt lat="36.664298" lon="-4.972585">
        <ele>921.46</ele>
        <time>2014-01-21T09:53:05Z</time>
      </trkpt>
      <trkpt lat="36.664301" lon="-4.972593">
        <ele>921.61</ele>
        <time>2014-01-21T09:53:06Z</time>
      </trkpt>
      <trkpt lat="36.664306" lon="-4.972611">
        <ele>921.81</ele>
        <time>2014-01-21T09:53:08Z</time>
      </trkpt>
      <trkpt lat="36.664312" lon="-4.972625">
        <ele>922.04</ele>
        <time>2014-01-21T09:53:11Z</time>
      </trkpt>
      <trkpt lat="36.664324" lon="-4.972631">
        <ele>922.67</ele>
        <time>2014-01-21T09:53:12Z</time>
      </trkpt>
      <trkpt lat="36.664340" lon="-4.972615">
        <ele>923.68</ele>
        <time>2014-01-21T09:53:15Z</time>
      </trkpt>
      <trkpt lat="36.664344" lon="-4.972614">
        <ele>923.84</ele>
        <time>2014-01-21T09:53:16Z</time>
      </trkpt>
      <trkpt lat="36.664378" lon="-4.972604">
        <ele>925.67</ele>
        <time>2014-01-21T09:53:20Z</time>
      </trkpt>
      <trkpt lat="36.664395" lon="-4.972604">
        <ele>926.43</ele>
        <time>2014-01-21T09:53:22Z</time>
      </trkpt>
      <trkpt lat="36.664411" lon="-4.972613">
        <ele>927.24</ele>
        <time>2014-01-21T09:53:24Z</time>
      </trkpt>
      <trkpt lat="36.664424" lon="-4.972613">
        <ele>927.89</ele>
        <time>2014-01-21T09:53:27Z</time>
      </trkpt>
      <trkpt lat="36.664439" lon="-4.972615">
        <ele>928.66</ele>
        <time>2014-01-21T09:53:30Z</time>
      </trkpt>
      <trkpt lat="36.664453" lon="-4.972631">
        <ele>929.43</ele>
        <time>2014-01-21T09:53:32Z</time>
      </trkpt>
      <trkpt lat="36.664484" lon="-4.972636">
        <ele>931.01</ele>
        <time>2014-01-21T09:53:37Z</time>
      </trkpt>
      <trkpt lat="36.664501" lon="-4.972611">
        <ele>931.81</ele>
        <time>2014-01-21T09:53:41Z</time>
      </trkpt>
      <trkpt lat="36.664505" lon="-4.972606">
        <ele>932.25</ele>
        <time>2014-01-21T09:53:42Z</time>
      </trkpt>
      <trkpt lat="36.664536" lon="-4.972616">
        <ele>933.65</ele>
        <time>2014-01-21T09:53:47Z</time>
      </trkpt>
      <trkpt lat="36.664540" lon="-4.972620">
        <ele>934.04</ele>
        <time>2014-01-21T09:53:48Z</time>
      </trkpt>
      <trkpt lat="36.664557" lon="-4.972632">
        <ele>934.83</ele>
        <time>2014-01-21T09:53:51Z</time>
      </trkpt>
      <trkpt lat="36.664565" lon="-4.972652">
        <ele>935.23</ele>
        <time>2014-01-21T09:53:54Z</time>
      </trkpt>
      <trkpt lat="36.664578" lon="-4.972676">
        <ele>936.07</ele>
        <time>2014-01-21T09:53:57Z</time>
      </trkpt>
      <trkpt lat="36.664596" lon="-4.972676">
        <ele>936.89</ele>
        <time>2014-01-21T09:54:00Z</time>
      </trkpt>
      <trkpt lat="36.664606" lon="-4.972671">
        <ele>937.47</ele>
        <time>2014-01-21T09:54:02Z</time>
      </trkpt>
      <trkpt lat="36.664616" lon="-4.972647">
        <ele>937.81</ele>
        <time>2014-01-21T09:54:06Z</time>
      </trkpt>
      <trkpt lat="36.664625" lon="-4.972624">
        <ele>938.29</ele>
        <time>2014-01-21T09:54:09Z</time>
      </trkpt>
      <trkpt lat="36.664622" lon="-4.972581">
        <ele>938.08</ele>
        <time>2014-01-21T09:54:14Z</time>
      </trkpt>
      <trkpt lat="36.664623" lon="-4.972583">
        <ele>938.22</ele>
        <time>2014-01-21T09:54:15Z</time>
      </trkpt>
      <trkpt lat="36.664639" lon="-4.972576">
        <ele>939.05</ele>
        <time>2014-01-21T09:54:19Z</time>
      </trkpt>
      <trkpt lat="36.664646" lon="-4.972570">
        <ele>939.45</ele>
        <time>2014-01-21T09:54:20Z</time>
      </trkpt>
      <trkpt lat="36.664658" lon="-4.972561">
        <ele>939.83</ele>
        <time>2014-01-21T09:54:22Z</time>
      </trkpt>
      <trkpt lat="36.664674" lon="-4.972584">
        <ele>940.82</ele>
        <time>2014-01-21T09:54:26Z</time>
      </trkpt>
      <trkpt lat="36.664685" lon="-4.972610">
        <ele>941.45</ele>
        <time>2014-01-21T09:54:30Z</time>
      </trkpt>
      <trkpt lat="36.664711" lon="-4.972642">
        <ele>942.80</ele>
        <time>2014-01-21T09:54:36Z</time>
      </trkpt>
      <trkpt lat="36.664736" lon="-4.972664">
        <ele>944.21</ele>
        <time>2014-01-21T09:54:42Z</time>
      </trkpt>
      <trkpt lat="36.664756" lon="-4.972687">
        <ele>945.49</ele>
        <time>2014-01-21T09:54:46Z</time>
      </trkpt>
      <trkpt lat="36.664768" lon="-4.972699">
        <ele>946.08</ele>
        <time>2014-01-21T09:54:48Z</time>
      </trkpt>
      <trkpt lat="36.664790" lon="-4.972681">
        <ele>947.05</ele>
        <time>2014-01-21T09:54:53Z</time>
      </trkpt>
      <trkpt lat="36.664801" lon="-4.972621">
        <ele>947.46</ele>
        <time>2014-01-21T09:54:59Z</time>
      </trkpt>
      <trkpt lat="36.664803" lon="-4.972612">
        <ele>947.48</ele>
        <time>2014-01-21T09:55:00Z</time>
      </trkpt>
      <trkpt lat="36.664812" lon="-4.972576">
        <ele>947.85</ele>
        <time>2014-01-21T09:55:04Z</time>
      </trkpt>
      <trkpt lat="36.664823" lon="-4.972560">
        <ele>948.43</ele>
        <time>2014-01-21T09:55:06Z</time>
      </trkpt>
      <trkpt lat="36.664836" lon="-4.972575">
        <ele>949.10</ele>
        <time>2014-01-21T09:55:10Z</time>
      </trkpt>
      <trkpt lat="36.664844" lon="-4.972602">
        <ele>949.62</ele>
        <time>2014-01-21T09:55:12Z</time>
      </trkpt>
      <trkpt lat="36.664862" lon="-4.972638">
        <ele>950.63</ele>
        <time>2014-01-21T09:55:17Z</time>
      </trkpt>
      <trkpt lat="36.664871" lon="-4.972663">
        <ele>951.21</ele>
        <time>2014-01-21T09:55:19Z</time>
      </trkpt>
      <trkpt lat="36.664877" lon="-4.972677">
        <ele>951.63</ele>
        <time>2014-01-21T09:55:21Z</time>
      </trkpt>
      <trkpt lat="36.664885" lon="-4.972678">
        <ele>952.04</ele>
        <time>2014-01-21T09:55:22Z</time>
      </trkpt>
      <trkpt lat="36.664891" lon="-4.972684">
        <ele>952.50</ele>
        <time>2014-01-21T09:55:23Z</time>
      </trkpt>
      <trkpt lat="36.664924" lon="-4.972718">
        <ele>954.46</ele>
        <time>2014-01-21T09:55:28Z</time>
      </trkpt>
      <trkpt lat="36.664938" lon="-4.972735">
        <ele>955.25</ele>
        <time>2014-01-21T09:55:30Z</time>
      </trkpt>
      <trkpt lat="36.664944" lon="-4.972744">
        <ele>955.47</ele>
        <time>2014-01-21T09:55:31Z</time>
      </trkpt>
      <trkpt lat="36.664956" lon="-4.972779">
        <ele>956.47</ele>
        <time>2014-01-21T09:55:35Z</time>
      </trkpt>
      <trkpt lat="36.664961" lon="-4.972789">
        <ele>956.65</ele>
        <time>2014-01-21T09:55:36Z</time>
      </trkpt>
      <trkpt lat="36.664978" lon="-4.972811">
        <ele>957.61</ele>
        <time>2014-01-21T09:55:39Z</time>
      </trkpt>
      <trkpt lat="36.664994" lon="-4.972832">
        <ele>958.62</ele>
        <time>2014-01-21T09:55:42Z</time>
      </trkpt>
      <trkpt lat="36.665000" lon="-4.972836">
        <ele>959.01</ele>
        <time>2014-01-21T09:55:43Z</time>
      </trkpt>
      <trkpt lat="36.665027" lon="-4.972869">
        <ele>960.68</ele>
        <time>2014-01-21T09:55:48Z</time>
      </trkpt>
      <trkpt lat="36.665032" lon="-4.972878">
        <ele>960.89</ele>
        <time>2014-01-21T09:55:49Z</time>
      </trkpt>
      <trkpt lat="36.665056" lon="-4.972924">
        <ele>962.49</ele>
        <time>2014-01-21T09:55:55Z</time>
      </trkpt>
      <trkpt lat="36.665061" lon="-4.972936">
        <ele>962.64</ele>
        <time>2014-01-21T09:55:56Z</time>
      </trkpt>
      <trkpt lat="36.665072" lon="-4.972961">
        <ele>963.28</ele>
        <time>2014-01-21T09:55:59Z</time>
      </trkpt>
      <trkpt lat="36.665078" lon="-4.972978">
        <ele>963.65</ele>
        <time>2014-01-21T09:56:01Z</time>
      </trkpt>
      <trkpt lat="36.665081" lon="-4.972996">
        <ele>964.09</ele>
        <time>2014-01-21T09:56:04Z</time>
      </trkpt>
      <trkpt lat="36.665083" lon="-4.973028">
        <ele>964.25</ele>
        <time>2014-01-21T09:56:06Z</time>
      </trkpt>
      <trkpt lat="36.665091" lon="-4.973070">
        <ele>964.80</ele>
        <time>2014-01-21T09:56:11Z</time>
      </trkpt>
      <trkpt lat="36.665096" lon="-4.973077">
        <ele>965.02</ele>
        <time>2014-01-21T09:56:12Z</time>
      </trkpt>
      <trkpt lat="36.665105" lon="-4.973103">
        <ele>965.61</ele>
        <time>2014-01-21T09:56:15Z</time>
      </trkpt>
      <trkpt lat="36.665115" lon="-4.973124">
        <ele>966.29</ele>
        <time>2014-01-21T09:56:18Z</time>
      </trkpt>
      <trkpt lat="36.665117" lon="-4.973159">
        <ele>966.41</ele>
        <time>2014-01-21T09:56:22Z</time>
      </trkpt>
      <trkpt lat="36.665120" lon="-4.973175">
        <ele>966.66</ele>
        <time>2014-01-21T09:56:24Z</time>
      </trkpt>
      <trkpt lat="36.665109" lon="-4.973229">
        <ele>966.47</ele>
        <time>2014-01-21T09:56:29Z</time>
      </trkpt>
      <trkpt lat="36.665104" lon="-4.973279">
        <ele>966.42</ele>
        <time>2014-01-21T09:56:32Z</time>
      </trkpt>
      <trkpt lat="36.665104" lon="-4.973287">
        <ele>966.46</ele>
        <time>2014-01-21T09:56:33Z</time>
      </trkpt>
      <trkpt lat="36.665104" lon="-4.973297">
        <ele>966.49</ele>
        <time>2014-01-21T09:56:34Z</time>
      </trkpt>
      <trkpt lat="36.665106" lon="-4.973333">
        <ele>966.65</ele>
        <time>2014-01-21T09:56:37Z</time>
      </trkpt>
      <trkpt lat="36.665105" lon="-4.973373">
        <ele>965.40</ele>
        <time>2014-01-21T09:56:41Z</time>
      </trkpt>
      <trkpt lat="36.665105" lon="-4.973385">
        <ele>965.01</ele>
        <time>2014-01-21T09:56:42Z</time>
      </trkpt>
      <trkpt lat="36.665104" lon="-4.973409">
        <ele>964.21</ele>
        <time>2014-01-21T09:56:44Z</time>
      </trkpt>
      <trkpt lat="36.665102" lon="-4.973446">
        <ele>963.07</ele>
        <time>2014-01-21T09:56:47Z</time>
      </trkpt>
      <trkpt lat="36.665102" lon="-4.973494">
        <ele>961.42</ele>
        <time>2014-01-21T09:56:52Z</time>
      </trkpt>
      <trkpt lat="36.665103" lon="-4.973504">
        <ele>961.08</ele>
        <time>2014-01-21T09:56:53Z</time>
      </trkpt>
      <trkpt lat="36.665108" lon="-4.973556">
        <ele>959.63</ele>
        <time>2014-01-21T09:56:58Z</time>
      </trkpt>
      <trkpt lat="36.665108" lon="-4.973566">
        <ele>959.49</ele>
        <time>2014-01-21T09:56:59Z</time>
      </trkpt>
      <trkpt lat="36.665115" lon="-4.973599">
        <ele>958.69</ele>
        <time>2014-01-21T09:57:03Z</time>
      </trkpt>
      <trkpt lat="36.665128" lon="-4.973624">
        <ele>958.48</ele>
        <time>2014-01-21T09:57:06Z</time>
      </trkpt>
      <trkpt lat="36.665135" lon="-4.973621">
        <ele>958.83</ele>
        <time>2014-01-21T09:57:07Z</time>
      </trkpt>
      <trkpt lat="36.665152" lon="-4.973619">
        <ele>959.60</ele>
        <time>2014-01-21T09:57:10Z</time>
      </trkpt>
      <trkpt lat="36.665159" lon="-4.973623">
        <ele>959.82</ele>
        <time>2014-01-21T09:57:11Z</time>
      </trkpt>
      <trkpt lat="36.665166" lon="-4.973631">
        <ele>959.81</ele>
        <time>2014-01-21T09:57:12Z</time>
      </trkpt>
      <trkpt lat="36.665183" lon="-4.973655">
        <ele>959.84</ele>
        <time>2014-01-21T09:57:15Z</time>
      </trkpt>
      <trkpt lat="36.665196" lon="-4.973654">
        <ele>960.62</ele>
        <time>2014-01-21T09:57:16Z</time>
      </trkpt>
      <trkpt lat="36.665202" lon="-4.973647">
        <ele>961.01</ele>
        <time>2014-01-21T09:57:17Z</time>
      </trkpt>
      <trkpt lat="36.665207" lon="-4.973584">
        <ele>963.29</ele>
        <time>2014-01-21T09:57:22Z</time>
      </trkpt>
      <trkpt lat="36.665208" lon="-4.973569">
        <ele>963.82</ele>
        <time>2014-01-21T09:57:23Z</time>
      </trkpt>
      <trkpt lat="36.665211" lon="-4.973559">
        <ele>964.29</ele>
        <time>2014-01-21T09:57:24Z</time>
      </trkpt>
      <trkpt lat="36.665218" lon="-4.973520">
        <ele>965.84</ele>
        <time>2014-01-21T09:57:27Z</time>
      </trkpt>
      <trkpt lat="36.665221" lon="-4.973492">
        <ele>966.84</ele>
        <time>2014-01-21T09:57:29Z</time>
      </trkpt>
      <trkpt lat="36.665247" lon="-4.973396">
        <ele>971.01</ele>
        <time>2014-01-21T09:57:36Z</time>
      </trkpt>
      <trkpt lat="36.665251" lon="-4.973372">
        <ele>972.01</ele>
        <time>2014-01-21T09:57:38Z</time>
      </trkpt>
      <trkpt lat="36.665257" lon="-4.973330">
        <ele>973.41</ele>
        <time>2014-01-21T09:57:41Z</time>
      </trkpt>
      <trkpt lat="36.665273" lon="-4.973294">
        <ele>974.08</ele>
        <time>2014-01-21T09:57:44Z</time>
      </trkpt>
      <trkpt lat="36.665276" lon="-4.973282">
        <ele>974.28</ele>
        <time>2014-01-21T09:57:45Z</time>
      </trkpt>
      <trkpt lat="36.665281" lon="-4.973273">
        <ele>974.41</ele>
        <time>2014-01-21T09:57:46Z</time>
      </trkpt>
      <trkpt lat="36.665298" lon="-4.973240">
        <ele>975.05</ele>
        <time>2014-01-21T09:57:50Z</time>
      </trkpt>
      <trkpt lat="36.665302" lon="-4.973232">
        <ele>975.24</ele>
        <time>2014-01-21T09:57:51Z</time>
      </trkpt>
      <trkpt lat="36.665307" lon="-4.973214">
        <ele>975.47</ele>
        <time>2014-01-21T09:57:53Z</time>
      </trkpt>
      <trkpt lat="36.665313" lon="-4.973203">
        <ele>975.68</ele>
        <time>2014-01-21T09:57:55Z</time>
      </trkpt>
      <trkpt lat="36.665322" lon="-4.973188">
        <ele>976.09</ele>
        <time>2014-01-21T09:57:57Z</time>
      </trkpt>
      <trkpt lat="36.665330" lon="-4.973173">
        <ele>976.47</ele>
        <time>2014-01-21T09:57:59Z</time>
      </trkpt>
      <trkpt lat="36.665336" lon="-4.973156">
        <ele>976.62</ele>
        <time>2014-01-21T09:58:01Z</time>
      </trkpt>
      <trkpt lat="36.665349" lon="-4.973116">
        <ele>977.21</ele>
        <time>2014-01-21T09:58:05Z</time>
      </trkpt>
      <trkpt lat="36.665359" lon="-4.973065">
        <ele>977.63</ele>
        <time>2014-01-21T09:58:09Z</time>
      </trkpt>
      <trkpt lat="36.665367" lon="-4.973049">
        <ele>978.10</ele>
        <time>2014-01-21T09:58:11Z</time>
      </trkpt>
      <trkpt lat="36.665374" lon="-4.973043">
        <ele>978.23</ele>
        <time>2014-01-21T09:58:12Z</time>
      </trkpt>
      <trkpt lat="36.665382" lon="-4.973032">
        <ele>978.69</ele>
        <time>2014-01-21T09:58:14Z</time>
      </trkpt>
      <trkpt lat="36.665388" lon="-4.973025">
        <ele>979.01</ele>
        <time>2014-01-21T09:58:17Z</time>
      </trkpt>
      <trkpt lat="36.665394" lon="-4.973014">
        <ele>979.21</ele>
        <time>2014-01-21T09:58:18Z</time>
      </trkpt>
      <trkpt lat="36.665402" lon="-4.972988">
        <ele>979.67</ele>
        <time>2014-01-21T09:58:22Z</time>
      </trkpt>
      <trkpt lat="36.665404" lon="-4.972977">
        <ele>979.68</ele>
        <time>2014-01-21T09:58:23Z</time>
      </trkpt>
      <trkpt lat="36.665414" lon="-4.972960">
        <ele>980.29</ele>
        <time>2014-01-21T09:58:26Z</time>
      </trkpt>
      <trkpt lat="36.665421" lon="-4.972948">
        <ele>980.62</ele>
        <time>2014-01-21T09:58:30Z</time>
      </trkpt>
      <trkpt lat="36.665429" lon="-4.972947">
        <ele>980.89</ele>
        <time>2014-01-21T09:58:54Z</time>
      </trkpt>
      <trkpt lat="36.665440" lon="-4.972974">
        <ele>981.44</ele>
        <time>2014-01-21T09:58:56Z</time>
      </trkpt>
      <trkpt lat="36.665449" lon="-4.973006">
        <ele>981.85</ele>
        <time>2014-01-21T09:58:59Z</time>
      </trkpt>
      <trkpt lat="36.665461" lon="-4.973042">
        <ele>982.41</ele>
        <time>2014-01-21T09:59:05Z</time>
      </trkpt>
      <trkpt lat="36.665461" lon="-4.973050">
        <ele>982.45</ele>
        <time>2014-01-21T09:59:10Z</time>
      </trkpt>
      <trkpt lat="36.665466" lon="-4.973076">
        <ele>982.64</ele>
        <time>2014-01-21T09:59:12Z</time>
      </trkpt>
      <trkpt lat="36.665474" lon="-4.973094">
        <ele>983.09</ele>
        <time>2014-01-21T09:59:14Z</time>
      </trkpt>
      <trkpt lat="36.665489" lon="-4.973124">
        <ele>983.90</ele>
        <time>2014-01-21T09:59:18Z</time>
      </trkpt>
      <trkpt lat="36.665506" lon="-4.973152">
        <ele>984.69</ele>
        <time>2014-01-21T09:59:21Z</time>
      </trkpt>
      <trkpt lat="36.665513" lon="-4.973185">
        <ele>984.85</ele>
        <time>2014-01-21T09:59:24Z</time>
      </trkpt>
      <trkpt lat="36.665517" lon="-4.973207">
        <ele>985.05</ele>
        <time>2014-01-21T09:59:26Z</time>
      </trkpt>
      <trkpt lat="36.665523" lon="-4.973242">
        <ele>985.45</ele>
        <time>2014-01-21T09:59:29Z</time>
      </trkpt>
      <trkpt lat="36.665523" lon="-4.973271">
        <ele>985.26</ele>
        <time>2014-01-21T09:59:31Z</time>
      </trkpt>
      <trkpt lat="36.665520" lon="-4.973301">
        <ele>985.21</ele>
        <time>2014-01-21T09:59:33Z</time>
      </trkpt>
      <trkpt lat="36.665518" lon="-4.973358">
        <ele>984.21</ele>
        <time>2014-01-21T09:59:37Z</time>
      </trkpt>
      <trkpt lat="36.665511" lon="-4.973408">
        <ele>982.46</ele>
        <time>2014-01-21T09:59:40Z</time>
      </trkpt>
      <trkpt lat="36.665509" lon="-4.973464">
        <ele>980.67</ele>
        <time>2014-01-21T09:59:44Z</time>
      </trkpt>
      <trkpt lat="36.665508" lon="-4.973488">
        <ele>979.86</ele>
        <time>2014-01-21T09:59:46Z</time>
      </trkpt>
      <trkpt lat="36.665508" lon="-4.973550">
        <ele>977.88</ele>
        <time>2014-01-21T09:59:50Z</time>
      </trkpt>
      <trkpt lat="36.665518" lon="-4.973635">
        <ele>975.65</ele>
        <time>2014-01-21T09:59:55Z</time>
      </trkpt>
      <trkpt lat="36.665566" lon="-4.973736">
        <ele>974.86</ele>
        <time>2014-01-21T10:00:02Z</time>
      </trkpt>
      <trkpt lat="36.665585" lon="-4.973752">
        <ele>975.27</ele>
        <time>2014-01-21T10:00:04Z</time>
      </trkpt>
      <trkpt lat="36.665603" lon="-4.973763">
        <ele>975.62</ele>
        <time>2014-01-21T10:00:06Z</time>
      </trkpt>
      <trkpt lat="36.665613" lon="-4.973770">
        <ele>975.89</ele>
        <time>2014-01-21T10:00:07Z</time>
      </trkpt>
      <trkpt lat="36.665628" lon="-4.973779">
        <ele>976.22</ele>
        <time>2014-01-21T10:00:09Z</time>
      </trkpt>
      <trkpt lat="36.665651" lon="-4.973811">
        <ele>976.41</ele>
        <time>2014-01-21T10:00:12Z</time>
      </trkpt>
      <trkpt lat="36.665663" lon="-4.973832">
        <ele>976.24</ele>
        <time>2014-01-21T10:00:14Z</time>
      </trkpt>
      <trkpt lat="36.665668" lon="-4.973838">
        <ele>976.48</ele>
        <time>2014-01-21T10:00:18Z</time>
      </trkpt>
      <trkpt lat="36.665692" lon="-4.973860">
        <ele>976.88</ele>
        <time>2014-01-21T10:00:23Z</time>
      </trkpt>
      <trkpt lat="36.665694" lon="-4.973872">
        <ele>976.45</ele>
        <time>2014-01-21T10:00:24Z</time>
      </trkpt>
      <trkpt lat="36.665724" lon="-4.973936">
        <ele>975.81</ele>
        <time>2014-01-21T10:00:29Z</time>
      </trkpt>
      <trkpt lat="36.665749" lon="-4.973987">
        <ele>975.63</ele>
        <time>2014-01-21T10:00:34Z</time>
      </trkpt>
      <trkpt lat="36.665753" lon="-4.973987">
        <ele>975.64</ele>
        <time>2014-01-21T10:00:35Z</time>
      </trkpt>
      <trkpt lat="36.665769" lon="-4.974011">
        <ele>975.63</ele>
        <time>2014-01-21T10:00:36Z</time>
      </trkpt>
      <trkpt lat="36.665797" lon="-4.974038">
        <ele>976.25</ele>
        <time>2014-01-21T10:00:39Z</time>
      </trkpt>
      <trkpt lat="36.665817" lon="-4.974050">
        <ele>976.81</ele>
        <time>2014-01-21T10:00:41Z</time>
      </trkpt>
      <trkpt lat="36.665851" lon="-4.974096">
        <ele>976.41</ele>
        <time>2014-01-21T10:00:44Z</time>
      </trkpt>
      <trkpt lat="36.665862" lon="-4.974116">
        <ele>976.26</ele>
        <time>2014-01-21T10:00:45Z</time>
      </trkpt>
      <trkpt lat="36.665873" lon="-4.974131">
        <ele>975.85</ele>
        <time>2014-01-21T10:00:46Z</time>
      </trkpt>
      <trkpt lat="36.665887" lon="-4.974158">
        <ele>975.41</ele>
        <time>2014-01-21T10:00:48Z</time>
      </trkpt>
      <trkpt lat="36.665904" lon="-4.974195">
        <ele>974.43</ele>
        <time>2014-01-21T10:00:51Z</time>
      </trkpt>
      <trkpt lat="36.665907" lon="-4.974205">
        <ele>974.24</ele>
        <time>2014-01-21T10:00:52Z</time>
      </trkpt>
      <trkpt lat="36.665913" lon="-4.974223">
        <ele>973.68</ele>
        <time>2014-01-21T10:00:54Z</time>
      </trkpt>
      <trkpt lat="36.665917" lon="-4.974268">
        <ele>972.22</ele>
        <time>2014-01-21T10:00:57Z</time>
      </trkpt>
      <trkpt lat="36.665939" lon="-4.974307">
        <ele>971.45</ele>
        <time>2014-01-21T10:01:00Z</time>
      </trkpt>
      <trkpt lat="36.665941" lon="-4.974323">
        <ele>970.85</ele>
        <time>2014-01-21T10:01:01Z</time>
      </trkpt>
      <trkpt lat="36.665958" lon="-4.974349">
        <ele>970.41</ele>
        <time>2014-01-21T10:01:03Z</time>
      </trkpt>
      <trkpt lat="36.665968" lon="-4.974369">
        <ele>969.81</ele>
        <time>2014-01-21T10:01:06Z</time>
      </trkpt>
      <trkpt lat="36.665996" lon="-4.974433">
        <ele>968.41</ele>
        <time>2014-01-21T10:01:08Z</time>
      </trkpt>
      <trkpt lat="36.666007" lon="-4.974455">
        <ele>967.87</ele>
        <time>2014-01-21T10:01:10Z</time>
      </trkpt>
      <trkpt lat="36.666012" lon="-4.974470">
        <ele>967.67</ele>
        <time>2014-01-21T10:01:11Z</time>
      </trkpt>
      <trkpt lat="36.666029" lon="-4.974497">
        <ele>967.03</ele>
        <time>2014-01-21T10:01:13Z</time>
      </trkpt>
      <trkpt lat="36.666046" lon="-4.974506">
        <ele>967.27</ele>
        <time>2014-01-21T10:01:14Z</time>
      </trkpt>
      <trkpt lat="36.666076" lon="-4.974531">
        <ele>967.10</ele>
        <time>2014-01-21T10:01:16Z</time>
      </trkpt>
      <trkpt lat="36.666131" lon="-4.974572">
        <ele>967.06</ele>
        <time>2014-01-21T10:01:19Z</time>
      </trkpt>
      <trkpt lat="36.666163" lon="-4.974576">
        <ele>967.68</ele>
        <time>2014-01-21T10:01:21Z</time>
      </trkpt>
      <trkpt lat="36.666178" lon="-4.974584">
        <ele>967.86</ele>
        <time>2014-01-21T10:01:22Z</time>
      </trkpt>
      <trkpt lat="36.666199" lon="-4.974595">
        <ele>968.02</ele>
        <time>2014-01-21T10:01:23Z</time>
      </trkpt>
      <trkpt lat="36.666230" lon="-4.974619">
        <ele>968.01</ele>
        <time>2014-01-21T10:01:25Z</time>
      </trkpt>
      <trkpt lat="36.666255" lon="-4.974661">
        <ele>967.29</ele>
        <time>2014-01-21T10:01:28Z</time>
      </trkpt>
      <trkpt lat="36.666271" lon="-4.974702">
        <ele>966.48</ele>
        <time>2014-01-21T10:01:30Z</time>
      </trkpt>
      <trkpt lat="36.666319" lon="-4.974766">
        <ele>965.83</ele>
        <time>2014-01-21T10:01:33Z</time>
      </trkpt>
      <trkpt lat="36.666345" lon="-4.974778">
        <ele>966.23</ele>
        <time>2014-01-21T10:01:35Z</time>
      </trkpt>
      <trkpt lat="36.666435" lon="-4.974801">
        <ele>967.88</ele>
        <time>2014-01-21T10:01:42Z</time>
      </trkpt>
      <trkpt lat="36.666517" lon="-4.974821">
        <ele>969.66</ele>
        <time>2014-01-21T10:01:48Z</time>
      </trkpt>
      <trkpt lat="36.666542" lon="-4.974820">
        <ele>970.24</ele>
        <time>2014-01-21T10:01:50Z</time>
      </trkpt>
      <trkpt lat="36.666566" lon="-4.974814">
        <ele>971.02</ele>
        <time>2014-01-21T10:01:52Z</time>
      </trkpt>
      <trkpt lat="36.666606" lon="-4.974784">
        <ele>972.81</ele>
        <time>2014-01-21T10:01:56Z</time>
      </trkpt>
      <trkpt lat="36.666613" lon="-4.974778">
        <ele>973.22</ele>
        <time>2014-01-21T10:01:57Z</time>
      </trkpt>
      <trkpt lat="36.666636" lon="-4.974769">
        <ele>974.01</ele>
        <time>2014-01-21T10:01:59Z</time>
      </trkpt>
      <trkpt lat="36.666654" lon="-4.974781">
        <ele>974.26</ele>
        <time>2014-01-21T10:02:01Z</time>
      </trkpt>
      <trkpt lat="36.666703" lon="-4.974795">
        <ele>975.04</ele>
        <time>2014-01-21T10:02:04Z</time>
      </trkpt>
      <trkpt lat="36.666718" lon="-4.974796">
        <ele>975.46</ele>
        <time>2014-01-21T10:02:06Z</time>
      </trkpt>
      <trkpt lat="36.666731" lon="-4.974792">
        <ele>975.90</ele>
        <time>2014-01-21T10:02:07Z</time>
      </trkpt>
      <trkpt lat="36.666770" lon="-4.974769">
        <ele>977.48</ele>
        <time>2014-01-21T10:02:10Z</time>
      </trkpt>
      <trkpt lat="36.666833" lon="-4.974742">
        <ele>979.67</ele>
        <time>2014-01-21T10:02:15Z</time>
      </trkpt>
      <trkpt lat="36.666840" lon="-4.974735">
        <ele>979.87</ele>
        <time>2014-01-21T10:02:16Z</time>
      </trkpt>
      <trkpt lat="36.666868" lon="-4.974706">
        <ele>981.24</ele>
        <time>2014-01-21T10:02:19Z</time>
      </trkpt>
      <trkpt lat="36.666880" lon="-4.974706">
        <ele>981.42</ele>
        <time>2014-01-21T10:02:21Z</time>
      </trkpt>
      <trkpt lat="36.666915" lon="-4.974700">
        <ele>982.42</ele>
        <time>2014-01-21T10:02:23Z</time>
      </trkpt>
      <trkpt lat="36.666934" lon="-4.974687">
        <ele>983.21</ele>
        <time>2014-01-21T10:02:24Z</time>
      </trkpt>
      <trkpt lat="36.666952" lon="-4.974670">
        <ele>984.04</ele>
        <time>2014-01-21T10:02:25Z</time>
      </trkpt>
      <trkpt lat="36.666981" lon="-4.974634">
        <ele>985.27</ele>
        <time>2014-01-21T10:02:27Z</time>
      </trkpt>
      <trkpt lat="36.667041" lon="-4.974597">
        <ele>987.46</ele>
        <time>2014-01-21T10:02:30Z</time>
      </trkpt>
      <trkpt lat="36.667103" lon="-4.974594">
        <ele>988.86</ele>
        <time>2014-01-21T10:02:34Z</time>
      </trkpt>
      <trkpt lat="36.667113" lon="-4.974601">
        <ele>988.81</ele>
        <time>2014-01-21T10:02:35Z</time>
      </trkpt>
      <trkpt lat="36.667128" lon="-4.974610">
        <ele>989.09</ele>
        <time>2014-01-21T10:02:36Z</time>
      </trkpt>
      <trkpt lat="36.667162" lon="-4.974616">
        <ele>989.63</ele>
        <time>2014-01-21T10:02:39Z</time>
      </trkpt>
      <trkpt lat="36.667177" lon="-4.974616">
        <ele>990.03</ele>
        <time>2014-01-21T10:02:41Z</time>
      </trkpt>
      <trkpt lat="36.667186" lon="-4.974631">
        <ele>990.03</ele>
        <time>2014-01-21T10:02:53Z</time>
      </trkpt>
      <trkpt lat="36.667165" lon="-4.974684">
        <ele>988.69</ele>
        <time>2014-01-21T10:03:43Z</time>
      </trkpt>
      <trkpt lat="36.667165" lon="-4.974700">
        <ele>988.45</ele>
        <time>2014-01-21T10:03:45Z</time>
      </trkpt>
      <trkpt lat="36.667162" lon="-4.974700">
        <ele>988.22</ele>
        <time>2014-01-21T10:03:47Z</time>
      </trkpt>
      <trkpt lat="36.667154" lon="-4.974700">
        <ele>988.09</ele>
        <time>2014-01-21T10:03:49Z</time>
      </trkpt>
      <trkpt lat="36.667150" lon="-4.974697">
        <ele>988.09</ele>
        <time>2014-01-21T10:03:51Z</time>
      </trkpt>
      <trkpt lat="36.667143" lon="-4.974704">
        <ele>987.82</ele>
        <time>2014-01-21T10:03:55Z</time>
      </trkpt>
      <trkpt lat="36.667139" lon="-4.974726">
        <ele>987.21</ele>
        <time>2014-01-21T10:03:57Z</time>
      </trkpt>
      <trkpt lat="36.667122" lon="-4.974761">
        <ele>986.27</ele>
        <time>2014-01-21T10:04:01Z</time>
      </trkpt>
      <trkpt lat="36.667119" lon="-4.974770">
        <ele>986.06</ele>
        <time>2014-01-21T10:04:02Z</time>
      </trkpt>
      <trkpt lat="36.667116" lon="-4.974798">
        <ele>985.41</ele>
        <time>2014-01-21T10:04:05Z</time>
      </trkpt>
      <trkpt lat="36.667114" lon="-4.974817">
        <ele>985.24</ele>
        <time>2014-01-21T10:04:07Z</time>
      </trkpt>
      <trkpt lat="36.667107" lon="-4.974838">
        <ele>984.66</ele>
        <time>2014-01-21T10:04:10Z</time>
      </trkpt>
      <trkpt lat="36.667106" lon="-4.974854">
        <ele>984.27</ele>
        <time>2014-01-21T10:04:12Z</time>
      </trkpt>
      <trkpt lat="36.667090" lon="-4.974876">
        <ele>983.44</ele>
        <time>2014-01-21T10:04:15Z</time>
      </trkpt>
      <trkpt lat="36.667065" lon="-4.974901">
        <ele>982.24</ele>
        <time>2014-01-21T10:04:18Z</time>
      </trkpt>
      <trkpt lat="36.667039" lon="-4.974932">
        <ele>981.09</ele>
        <time>2014-01-21T10:04:23Z</time>
      </trkpt>
      <trkpt lat="36.667034" lon="-4.974948">
        <ele>980.61</ele>
        <time>2014-01-21T10:04:25Z</time>
      </trkpt>
      <trkpt lat="36.667011" lon="-4.974990">
        <ele>979.25</ele>
        <time>2014-01-21T10:04:33Z</time>
      </trkpt>
      <trkpt lat="36.667074" lon="-4.974953">
        <ele>981.68</ele>
        <time>2014-01-21T10:04:39Z</time>
      </trkpt>
      <trkpt lat="36.667105" lon="-4.974931">
        <ele>982.88</ele>
        <time>2014-01-21T10:04:44Z</time>
      </trkpt>
      <trkpt lat="36.667120" lon="-4.974921">
        <ele>983.44</ele>
        <time>2014-01-21T10:04:46Z</time>
      </trkpt>
      <trkpt lat="36.667137" lon="-4.974914">
        <ele>984.09</ele>
        <time>2014-01-21T10:04:49Z</time>
      </trkpt>
      <trkpt lat="36.667144" lon="-4.974909">
        <ele>984.22</ele>
        <time>2014-01-21T10:04:50Z</time>
      </trkpt>
      <trkpt lat="36.667176" lon="-4.974896">
        <ele>985.43</ele>
        <time>2014-01-21T10:04:56Z</time>
      </trkpt>
      <trkpt lat="36.667181" lon="-4.974892">
        <ele>985.65</ele>
        <time>2014-01-21T10:04:57Z</time>
      </trkpt>
      <trkpt lat="36.667185" lon="-4.974890">
        <ele>985.81</ele>
        <time>2014-01-21T10:04:59Z</time>
      </trkpt>
      <trkpt lat="36.667205" lon="-4.974888">
        <ele>986.21</ele>
        <time>2014-01-21T10:05:03Z</time>
      </trkpt>
      <trkpt lat="36.667162" lon="-4.974940">
        <ele>984.28</ele>
        <time>2014-01-21T10:05:14Z</time>
      </trkpt>
      <trkpt lat="36.667119" lon="-4.974996">
        <ele>982.29</ele>
        <time>2014-01-21T10:05:20Z</time>
      </trkpt>
      <trkpt lat="36.667115" lon="-4.975011">
        <ele>982.27</ele>
        <time>2014-01-21T10:05:22Z</time>
      </trkpt>
      <trkpt lat="36.667107" lon="-4.975025">
        <ele>982.45</ele>
        <time>2014-01-21T10:05:24Z</time>
      </trkpt>
      <trkpt lat="36.667085" lon="-4.975056">
        <ele>982.88</ele>
        <time>2014-01-21T10:05:27Z</time>
      </trkpt>
      <trkpt lat="36.667060" lon="-4.975092">
        <ele>983.21</ele>
        <time>2014-01-21T10:05:31Z</time>
      </trkpt>
      <trkpt lat="36.667045" lon="-4.975103">
        <ele>983.07</ele>
        <time>2014-01-21T10:05:33Z</time>
      </trkpt>
      <trkpt lat="36.667040" lon="-4.975111">
        <ele>983.01</ele>
        <time>2014-01-21T10:05:34Z</time>
      </trkpt>
      <trkpt lat="36.667031" lon="-4.975129">
        <ele>983.21</ele>
        <time>2014-01-21T10:05:36Z</time>
      </trkpt>
      <trkpt lat="36.667022" lon="-4.975151">
        <ele>983.61</ele>
        <time>2014-01-21T10:05:39Z</time>
      </trkpt>
      <trkpt lat="36.667019" lon="-4.975159">
        <ele>983.88</ele>
        <time>2014-01-21T10:05:40Z</time>
      </trkpt>
      <trkpt lat="36.667013" lon="-4.975188">
        <ele>984.43</ele>
        <time>2014-01-21T10:05:43Z</time>
      </trkpt>
      <trkpt lat="36.667011" lon="-4.975217">
        <ele>985.25</ele>
        <time>2014-01-21T10:05:46Z</time>
      </trkpt>
      <trkpt lat="36.666958" lon="-4.975273">
        <ele>984.87</ele>
        <time>2014-01-21T10:05:52Z</time>
      </trkpt>
      <trkpt lat="36.666949" lon="-4.975291">
        <ele>984.89</ele>
        <time>2014-01-21T10:05:53Z</time>
      </trkpt>
      <trkpt lat="36.666942" lon="-4.975322">
        <ele>985.48</ele>
        <time>2014-01-21T10:05:56Z</time>
      </trkpt>
      <trkpt lat="36.666938" lon="-4.975353">
        <ele>986.08</ele>
        <time>2014-01-21T10:06:00Z</time>
      </trkpt>
      <trkpt lat="36.666940" lon="-4.975364">
        <ele>986.44</ele>
        <time>2014-01-21T10:06:01Z</time>
      </trkpt>
      <trkpt lat="36.666943" lon="-4.975372">
        <ele>986.86</ele>
        <time>2014-01-21T10:06:02Z</time>
      </trkpt>
      <trkpt lat="36.666957" lon="-4.975383">
        <ele>987.61</ele>
        <time>2014-01-21T10:06:04Z</time>
      </trkpt>
      <trkpt lat="36.666969" lon="-4.975385">
        <ele>988.21</ele>
        <time>2014-01-21T10:06:06Z</time>
      </trkpt>
      <trkpt lat="36.666977" lon="-4.975384">
        <ele>988.62</ele>
        <time>2014-01-21T10:06:07Z</time>
      </trkpt>
      <trkpt lat="36.666985" lon="-4.975384">
        <ele>988.86</ele>
        <time>2014-01-21T10:06:08Z</time>
      </trkpt>
      <trkpt lat="36.667017" lon="-4.975390">
        <ele>990.44</ele>
        <time>2014-01-21T10:06:13Z</time>
      </trkpt>
      <trkpt lat="36.667020" lon="-4.975392">
        <ele>990.64</ele>
        <time>2014-01-21T10:06:15Z</time>
      </trkpt>
      <trkpt lat="36.667036" lon="-4.975403">
        <ele>991.66</ele>
        <time>2014-01-21T10:06:17Z</time>
      </trkpt>
      <trkpt lat="36.667049" lon="-4.975400">
        <ele>992.07</ele>
        <time>2014-01-21T10:06:19Z</time>
      </trkpt>
      <trkpt lat="36.667058" lon="-4.975401">
        <ele>992.42</ele>
        <time>2014-01-21T10:06:21Z</time>
      </trkpt>
      <trkpt lat="36.667058" lon="-4.975426">
        <ele>993.26</ele>
        <time>2014-01-21T10:06:24Z</time>
      </trkpt>
      <trkpt lat="36.667051" lon="-4.975453">
        <ele>993.84</ele>
        <time>2014-01-21T10:06:27Z</time>
      </trkpt>
      <trkpt lat="36.667046" lon="-4.975493">
        <ele>994.62</ele>
        <time>2014-01-21T10:06:32Z</time>
      </trkpt>
      <trkpt lat="36.667024" lon="-4.975550">
        <ele>995.41</ele>
        <time>2014-01-21T10:06:38Z</time>
      </trkpt>
      <trkpt lat="36.667013" lon="-4.975571">
        <ele>995.42</ele>
        <time>2014-01-21T10:06:40Z</time>
      </trkpt>
      <trkpt lat="36.667011" lon="-4.975611">
        <ele>996.49</ele>
        <time>2014-01-21T10:06:45Z</time>
      </trkpt>
      <trkpt lat="36.667014" lon="-4.975622">
        <ele>997.10</ele>
        <time>2014-01-21T10:06:46Z</time>
      </trkpt>
      <trkpt lat="36.667027" lon="-4.975644">
        <ele>998.21</ele>
        <time>2014-01-21T10:06:50Z</time>
      </trkpt>
      <trkpt lat="36.667031" lon="-4.975655">
        <ele>998.83</ele>
        <time>2014-01-21T10:06:51Z</time>
      </trkpt>
      <trkpt lat="36.667035" lon="-4.975664">
        <ele>999.22</ele>
        <time>2014-01-21T10:06:52Z</time>
      </trkpt>
      <trkpt lat="36.667039" lon="-4.975672">
        <ele>999.70</ele>
        <time>2014-01-21T10:06:55Z</time>
      </trkpt>
      <trkpt lat="36.667044" lon="-4.975670">
        <ele>999.88</ele>
        <time>2014-01-21T10:07:15Z</time>
      </trkpt>
      <trkpt lat="36.667048" lon="-4.975674">
        <ele>1000.28</ele>
        <time>2014-01-21T10:07:19Z</time>
      </trkpt>
      <trkpt lat="36.667050" lon="-4.975679">
        <ele>1000.46</ele>
        <time>2014-01-21T10:07:21Z</time>
      </trkpt>
      <trkpt lat="36.667054" lon="-4.975698">
        <ele>1001.24</ele>
        <time>2014-01-21T10:07:23Z</time>
      </trkpt>
      <trkpt lat="36.667052" lon="-4.975743">
        <ele>1002.42</ele>
        <time>2014-01-21T10:07:27Z</time>
      </trkpt>
      <trkpt lat="36.667055" lon="-4.975754">
        <ele>1003.06</ele>
        <time>2014-01-21T10:07:28Z</time>
      </trkpt>
      <trkpt lat="36.667077" lon="-4.975759">
        <ele>1004.43</ele>
        <time>2014-01-21T10:07:30Z</time>
      </trkpt>
      <trkpt lat="36.667095" lon="-4.975757">
        <ele>1005.29</ele>
        <time>2014-01-21T10:07:32Z</time>
      </trkpt>
      <trkpt lat="36.667104" lon="-4.975756">
        <ele>1005.81</ele>
        <time>2014-01-21T10:07:33Z</time>
      </trkpt>
      <trkpt lat="36.667111" lon="-4.975751">
        <ele>1006.01</ele>
        <time>2014-01-21T10:07:34Z</time>
      </trkpt>
      <trkpt lat="36.667136" lon="-4.975733">
        <ele>1006.89</ele>
        <time>2014-01-21T10:07:37Z</time>
      </trkpt>
      <trkpt lat="36.667138" lon="-4.975750">
        <ele>1007.44</ele>
        <time>2014-01-21T10:10:03Z</time>
      </trkpt>
      <trkpt lat="36.667141" lon="-4.975773">
        <ele>1008.20</ele>
        <time>2014-01-21T10:10:06Z</time>
      </trkpt>
      <trkpt lat="36.667146" lon="-4.975794">
        <ele>1009.22</ele>
        <time>2014-01-21T10:10:08Z</time>
      </trkpt>
      <trkpt lat="36.667147" lon="-4.975805">
        <ele>1009.81</ele>
        <time>2014-01-21T10:10:09Z</time>
      </trkpt>
      <trkpt lat="36.667146" lon="-4.975822">
        <ele>1010.24</ele>
        <time>2014-01-21T10:10:11Z</time>
      </trkpt>
      <trkpt lat="36.667141" lon="-4.975851">
        <ele>1011.30</ele>
        <time>2014-01-21T10:10:14Z</time>
      </trkpt>
      <trkpt lat="36.667132" lon="-4.975870">
        <ele>1011.69</ele>
        <time>2014-01-21T10:10:17Z</time>
      </trkpt>
      <trkpt lat="36.667130" lon="-4.975885">
        <ele>1012.22</ele>
        <time>2014-01-21T10:10:18Z</time>
      </trkpt>
      <trkpt lat="36.667128" lon="-4.975894">
        <ele>1012.63</ele>
        <time>2014-01-21T10:10:20Z</time>
      </trkpt>
      <trkpt lat="36.667128" lon="-4.975905">
        <ele>1013.07</ele>
        <time>2014-01-21T10:10:21Z</time>
      </trkpt>
      <trkpt lat="36.667148" lon="-4.975933">
        <ele>1015.64</ele>
        <time>2014-01-21T10:10:27Z</time>
      </trkpt>
      <trkpt lat="36.667154" lon="-4.975937">
        <ele>1016.21</ele>
        <time>2014-01-21T10:10:30Z</time>
      </trkpt>
      <trkpt lat="36.667171" lon="-4.975939">
        <ele>1017.25</ele>
        <time>2014-01-21T10:10:31Z</time>
      </trkpt>
      <trkpt lat="36.667182" lon="-4.975929">
        <ele>1017.47</ele>
        <time>2014-01-21T10:10:33Z</time>
      </trkpt>
      <trkpt lat="36.667187" lon="-4.975930">
        <ele>1017.65</ele>
        <time>2014-01-21T10:10:34Z</time>
      </trkpt>
      <trkpt lat="36.667201" lon="-4.975932">
        <ele>1018.69</ele>
        <time>2014-01-21T10:10:37Z</time>
      </trkpt>
      <trkpt lat="36.667206" lon="-4.975933">
        <ele>1018.88</ele>
        <time>2014-01-21T10:10:38Z</time>
      </trkpt>
      <trkpt lat="36.667228" lon="-4.975925">
        <ele>1019.86</ele>
        <time>2014-01-21T10:10:42Z</time>
      </trkpt>
      <trkpt lat="36.667235" lon="-4.975923">
        <ele>1020.03</ele>
        <time>2014-01-21T10:10:44Z</time>
      </trkpt>
      <trkpt lat="36.667254" lon="-4.975916">
        <ele>1020.83</ele>
        <time>2014-01-21T10:10:48Z</time>
      </trkpt>
      <trkpt lat="36.667261" lon="-4.975913">
        <ele>1021.05</ele>
        <time>2014-01-21T10:10:49Z</time>
      </trkpt>
      <trkpt lat="36.667273" lon="-4.975909">
        <ele>1021.41</ele>
        <time>2014-01-21T10:10:51Z</time>
      </trkpt>
      <trkpt lat="36.667284" lon="-4.975902">
        <ele>1021.81</ele>
        <time>2014-01-21T10:10:55Z</time>
      </trkpt>
      <trkpt lat="36.667294" lon="-4.975893">
        <ele>1022.07</ele>
        <time>2014-01-21T10:10:56Z</time>
      </trkpt>
      <trkpt lat="36.667312" lon="-4.975888">
        <ele>1022.84</ele>
        <time>2014-01-21T10:11:00Z</time>
      </trkpt>
      <trkpt lat="36.667333" lon="-4.975875">
        <ele>1023.43</ele>
        <time>2014-01-21T10:11:04Z</time>
      </trkpt>
      <trkpt lat="36.667351" lon="-4.975849">
        <ele>1023.30</ele>
        <time>2014-01-21T10:11:08Z</time>
      </trkpt>
      <trkpt lat="36.667364" lon="-4.975818">
        <ele>1022.68</ele>
        <time>2014-01-21T10:11:12Z</time>
      </trkpt>
      <trkpt lat="36.667373" lon="-4.975807">
        <ele>1022.64</ele>
        <time>2014-01-21T10:11:14Z</time>
      </trkpt>
      <trkpt lat="36.667383" lon="-4.975794">
        <ele>1022.65</ele>
        <time>2014-01-21T10:11:16Z</time>
      </trkpt>
      <trkpt lat="36.667400" lon="-4.975771">
        <ele>1022.68</ele>
        <time>2014-01-21T10:11:20Z</time>
      </trkpt>
      <trkpt lat="36.667409" lon="-4.975758">
        <ele>1022.66</ele>
        <time>2014-01-21T10:11:22Z</time>
      </trkpt>
      <trkpt lat="36.667419" lon="-4.975763">
        <ele>1023.42</ele>
        <time>2014-01-21T10:11:26Z</time>
      </trkpt>
      <trkpt lat="36.667450" lon="-4.975758">
        <ele>1024.81</ele>
        <time>2014-01-21T10:11:32Z</time>
      </trkpt>
      <trkpt lat="36.667461" lon="-4.975757">
        <ele>1025.49</ele>
        <time>2014-01-21T10:11:34Z</time>
      </trkpt>
      <trkpt lat="36.667466" lon="-4.975760">
        <ele>1025.89</ele>
        <time>2014-01-21T10:11:36Z</time>
      </trkpt>
      <trkpt lat="36.667480" lon="-4.975774">
        <ele>1027.23</ele>
        <time>2014-01-21T10:11:39Z</time>
      </trkpt>
      <trkpt lat="36.667492" lon="-4.975803">
        <ele>1029.27</ele>
        <time>2014-01-21T10:11:43Z</time>
      </trkpt>
      <trkpt lat="36.667499" lon="-4.975820">
        <ele>1030.50</ele>
        <time>2014-01-21T10:11:45Z</time>
      </trkpt>
      <trkpt lat="36.667511" lon="-4.975843">
        <ele>1031.85</ele>
        <time>2014-01-21T10:11:49Z</time>
      </trkpt>
      <trkpt lat="36.667525" lon="-4.975887">
        <ele>1034.09</ele>
        <time>2014-01-21T10:11:54Z</time>
      </trkpt>
      <trkpt lat="36.667530" lon="-4.975888">
        <ele>1034.29</ele>
        <time>2014-01-21T10:11:56Z</time>
      </trkpt>
      <trkpt lat="36.667543" lon="-4.975902">
        <ele>1035.22</ele>
        <time>2014-01-21T10:12:01Z</time>
      </trkpt>
      <trkpt lat="36.667557" lon="-4.975912">
        <ele>1036.01</ele>
        <time>2014-01-21T10:12:04Z</time>
      </trkpt>
      <trkpt lat="36.667566" lon="-4.975972">
        <ele>1038.83</ele>
        <time>2014-01-21T10:12:11Z</time>
      </trkpt>
      <trkpt lat="36.667569" lon="-4.975984">
        <ele>1039.43</ele>
        <time>2014-01-21T10:12:12Z</time>
      </trkpt>
      <trkpt lat="36.667572" lon="-4.976006">
        <ele>1040.69</ele>
        <time>2014-01-21T10:12:15Z</time>
      </trkpt>
      <trkpt lat="36.667578" lon="-4.976014">
        <ele>1041.05</ele>
        <time>2014-01-21T10:12:17Z</time>
      </trkpt>
      <trkpt lat="36.667584" lon="-4.976018">
        <ele>1041.47</ele>
        <time>2014-01-21T10:12:22Z</time>
      </trkpt>
      <trkpt lat="36.667629" lon="-4.975989">
        <ele>1041.21</ele>
        <time>2014-01-21T10:12:33Z</time>
      </trkpt>
      <trkpt lat="36.667640" lon="-4.975986">
        <ele>1041.41</ele>
        <time>2014-01-21T10:12:35Z</time>
      </trkpt>
      <trkpt lat="36.667646" lon="-4.975985">
        <ele>1041.65</ele>
        <time>2014-01-21T10:12:36Z</time>
      </trkpt>
      <trkpt lat="36.667672" lon="-4.975952">
        <ele>1040.85</ele>
        <time>2014-01-21T10:12:41Z</time>
      </trkpt>
      <trkpt lat="36.667677" lon="-4.975945">
        <ele>1040.65</ele>
        <time>2014-01-21T10:12:42Z</time>
      </trkpt>
      <trkpt lat="36.667692" lon="-4.975925">
        <ele>1040.04</ele>
        <time>2014-01-21T10:12:46Z</time>
      </trkpt>
      <trkpt lat="36.667723" lon="-4.975900">
        <ele>1039.66</ele>
        <time>2014-01-21T10:12:51Z</time>
      </trkpt>
      <trkpt lat="36.667728" lon="-4.975895">
        <ele>1039.62</ele>
        <time>2014-01-21T10:12:52Z</time>
      </trkpt>
      <trkpt lat="36.667754" lon="-4.975865">
        <ele>1038.87</ele>
        <time>2014-01-21T10:12:56Z</time>
      </trkpt>
      <trkpt lat="36.667766" lon="-4.975860">
        <ele>1039.09</ele>
        <time>2014-01-21T10:12:58Z</time>
      </trkpt>
      <trkpt lat="36.667773" lon="-4.975852">
        <ele>1038.84</ele>
        <time>2014-01-21T10:12:59Z</time>
      </trkpt>
      <trkpt lat="36.667803" lon="-4.975835">
        <ele>1038.83</ele>
        <time>2014-01-21T10:13:03Z</time>
      </trkpt>
      <trkpt lat="36.667829" lon="-4.975824">
        <ele>1038.81</ele>
        <time>2014-01-21T10:13:06Z</time>
      </trkpt>
      <trkpt lat="36.667836" lon="-4.975817">
        <ele>1038.81</ele>
        <time>2014-01-21T10:13:07Z</time>
      </trkpt>
      <trkpt lat="36.667848" lon="-4.975808">
        <ele>1038.64</ele>
        <time>2014-01-21T10:13:11Z</time>
      </trkpt>
      <trkpt lat="36.667869" lon="-4.975833">
        <ele>1040.43</ele>
        <time>2014-01-21T10:13:17Z</time>
      </trkpt>
      <trkpt lat="36.667862" lon="-4.975867">
        <ele>1041.63</ele>
        <time>2014-01-21T10:13:20Z</time>
      </trkpt>
      <trkpt lat="36.667860" lon="-4.975905">
        <ele>1043.43</ele>
        <time>2014-01-21T10:13:24Z</time>
      </trkpt>
      <trkpt lat="36.667858" lon="-4.975914">
        <ele>1043.87</ele>
        <time>2014-01-21T10:13:25Z</time>
      </trkpt>
      <trkpt lat="36.667854" lon="-4.975937">
        <ele>1044.84</ele>
        <time>2014-01-21T10:13:28Z</time>
      </trkpt>
      <trkpt lat="36.667867" lon="-4.975961">
        <ele>1046.23</ele>
        <time>2014-01-21T10:13:31Z</time>
      </trkpt>
      <trkpt lat="36.667869" lon="-4.975971">
        <ele>1046.81</ele>
        <time>2014-01-21T10:13:33Z</time>
      </trkpt>
      <trkpt lat="36.667882" lon="-4.975992">
        <ele>1048.06</ele>
        <time>2014-01-21T10:13:40Z</time>
      </trkpt>
      <trkpt lat="36.667889" lon="-4.975986">
        <ele>1048.10</ele>
        <time>2014-01-21T10:13:42Z</time>
      </trkpt>
      <trkpt lat="36.667894" lon="-4.975983">
        <ele>1048.05</ele>
        <time>2014-01-21T10:13:43Z</time>
      </trkpt>
      <trkpt lat="36.667928" lon="-4.975953">
        <ele>1047.42</ele>
        <time>2014-01-21T10:13:49Z</time>
      </trkpt>
      <trkpt lat="36.667947" lon="-4.975941">
        <ele>1047.42</ele>
        <time>2014-01-21T10:13:53Z</time>
      </trkpt>
      <trkpt lat="36.667963" lon="-4.975943">
        <ele>1047.87</ele>
        <time>2014-01-21T10:13:57Z</time>
      </trkpt>
      <trkpt lat="36.667964" lon="-4.975953">
        <ele>1048.46</ele>
        <time>2014-01-21T10:14:00Z</time>
      </trkpt>
      <trkpt lat="36.667964" lon="-4.975982">
        <ele>1049.67</ele>
        <time>2014-01-21T10:14:04Z</time>
      </trkpt>
      <trkpt lat="36.667970" lon="-4.975988">
        <ele>1050.21</ele>
        <time>2014-01-21T10:14:06Z</time>
      </trkpt>
      <trkpt lat="36.667978" lon="-4.976009">
        <ele>1051.41</ele>
        <time>2014-01-21T10:14:08Z</time>
      </trkpt>
      <trkpt lat="36.667985" lon="-4.976028">
        <ele>1052.44</ele>
        <time>2014-01-21T10:14:11Z</time>
      </trkpt>
      <trkpt lat="36.667991" lon="-4.976044">
        <ele>1053.46</ele>
        <time>2014-01-21T10:14:13Z</time>
      </trkpt>
      <trkpt lat="36.667992" lon="-4.976050">
        <ele>1053.69</ele>
        <time>2014-01-21T10:14:14Z</time>
      </trkpt>
      <trkpt lat="36.667999" lon="-4.976082">
        <ele>1055.43</ele>
        <time>2014-01-21T10:14:20Z</time>
      </trkpt>
      <trkpt lat="36.668005" lon="-4.976089">
        <ele>1055.82</ele>
        <time>2014-01-21T10:14:21Z</time>
      </trkpt>
      <trkpt lat="36.668014" lon="-4.976097">
        <ele>1056.43</ele>
        <time>2014-01-21T10:14:23Z</time>
      </trkpt>
      <trkpt lat="36.668025" lon="-4.976092">
        <ele>1056.48</ele>
        <time>2014-01-21T10:14:26Z</time>
      </trkpt>
      <trkpt lat="36.668044" lon="-4.976087">
        <ele>1056.89</ele>
        <time>2014-01-21T10:14:30Z</time>
      </trkpt>
      <trkpt lat="36.668056" lon="-4.976091">
        <ele>1057.24</ele>
        <time>2014-01-21T10:14:32Z</time>
      </trkpt>
      <trkpt lat="36.668054" lon="-4.976112">
        <ele>1058.23</ele>
        <time>2014-01-21T10:14:35Z</time>
      </trkpt>
      <trkpt lat="36.668052" lon="-4.976120">
        <ele>1058.61</ele>
        <time>2014-01-21T10:14:36Z</time>
      </trkpt>
      <trkpt lat="36.668036" lon="-4.976177">
        <ele>1060.86</ele>
        <time>2014-01-21T10:14:41Z</time>
      </trkpt>
      <trkpt lat="36.668037" lon="-4.976185">
        <ele>1061.24</ele>
        <time>2014-01-21T10:14:42Z</time>
      </trkpt>
      <trkpt lat="36.668039" lon="-4.976195">
        <ele>1061.89</ele>
        <time>2014-01-21T10:14:43Z</time>
      </trkpt>
      <trkpt lat="36.668046" lon="-4.976220">
        <ele>1063.21</ele>
        <time>2014-01-21T10:14:47Z</time>
      </trkpt>
      <trkpt lat="36.668050" lon="-4.976234">
        <ele>1064.02</ele>
        <time>2014-01-21T10:14:49Z</time>
      </trkpt>
      <trkpt lat="36.668053" lon="-4.976264">
        <ele>1065.44</ele>
        <time>2014-01-21T10:14:53Z</time>
      </trkpt>
      <trkpt lat="36.668049" lon="-4.976278">
        <ele>1066.10</ele>
        <time>2014-01-21T10:14:55Z</time>
      </trkpt>
      <trkpt lat="36.668014" lon="-4.976323">
        <ele>1067.24</ele>
        <time>2014-01-21T10:15:01Z</time>
      </trkpt>
      <trkpt lat="36.667987" lon="-4.976363">
        <ele>1068.22</ele>
        <time>2014-01-21T10:15:05Z</time>
      </trkpt>
      <trkpt lat="36.667983" lon="-4.976376">
        <ele>1068.81</ele>
        <time>2014-01-21T10:15:07Z</time>
      </trkpt>
      <trkpt lat="36.667968" lon="-4.976389">
        <ele>1069.01</ele>
        <time>2014-01-21T10:15:11Z</time>
      </trkpt>
      <trkpt lat="36.667964" lon="-4.976398">
        <ele>1069.27</ele>
        <time>2014-01-21T10:15:13Z</time>
      </trkpt>
      <trkpt lat="36.667969" lon="-4.976409">
        <ele>1070.04</ele>
        <time>2014-01-21T10:15:15Z</time>
      </trkpt>
      <trkpt lat="36.667986" lon="-4.976411">
        <ele>1070.70</ele>
        <time>2014-01-21T10:15:19Z</time>
      </trkpt>
      <trkpt lat="36.667992" lon="-4.976414">
        <ele>1070.89</ele>
        <time>2014-01-21T10:15:20Z</time>
      </trkpt>
      <trkpt lat="36.668019" lon="-4.976412">
        <ele>1071.67</ele>
        <time>2014-01-21T10:15:24Z</time>
      </trkpt>
      <trkpt lat="36.668023" lon="-4.976412">
        <ele>1071.68</ele>
        <time>2014-01-21T10:15:25Z</time>
      </trkpt>
      <trkpt lat="36.668048" lon="-4.976403">
        <ele>1072.05</ele>
        <time>2014-01-21T10:15:29Z</time>
      </trkpt>
      <trkpt lat="36.668059" lon="-4.976402">
        <ele>1072.26</ele>
        <time>2014-01-21T10:15:31Z</time>
      </trkpt>
      <trkpt lat="36.668073" lon="-4.976402">
        <ele>1072.61</ele>
        <time>2014-01-21T10:15:33Z</time>
      </trkpt>
      <trkpt lat="36.668085" lon="-4.976404">
        <ele>1073.01</ele>
        <time>2014-01-21T10:15:36Z</time>
      </trkpt>
      <trkpt lat="36.668098" lon="-4.976411">
        <ele>1073.89</ele>
        <time>2014-01-21T10:15:39Z</time>
      </trkpt>
      <trkpt lat="36.668108" lon="-4.976418">
        <ele>1074.43</ele>
        <time>2014-01-21T10:15:41Z</time>
      </trkpt>
      <trkpt lat="36.668129" lon="-4.976427">
        <ele>1075.43</ele>
        <time>2014-01-21T10:15:44Z</time>
      </trkpt>
      <trkpt lat="36.668150" lon="-4.976430">
        <ele>1076.27</ele>
        <time>2014-01-21T10:15:47Z</time>
      </trkpt>
      <trkpt lat="36.668156" lon="-4.976427">
        <ele>1076.29</ele>
        <time>2014-01-21T10:15:48Z</time>
      </trkpt>
      <trkpt lat="36.668174" lon="-4.976419">
        <ele>1076.22</ele>
        <time>2014-01-21T10:15:51Z</time>
      </trkpt>
      <trkpt lat="36.668186" lon="-4.976411">
        <ele>1076.30</ele>
        <time>2014-01-21T10:15:53Z</time>
      </trkpt>
      <trkpt lat="36.668190" lon="-4.976406">
        <ele>1076.28</ele>
        <time>2014-01-21T10:15:54Z</time>
      </trkpt>
      <trkpt lat="36.668224" lon="-4.976401">
        <ele>1076.84</ele>
        <time>2014-01-21T10:16:00Z</time>
      </trkpt>
      <trkpt lat="36.668237" lon="-4.976393">
        <ele>1076.82</ele>
        <time>2014-01-21T10:16:02Z</time>
      </trkpt>
      <trkpt lat="36.668262" lon="-4.976378">
        <ele>1076.81</ele>
        <time>2014-01-21T10:16:07Z</time>
      </trkpt>
      <trkpt lat="36.668274" lon="-4.976374">
        <ele>1077.08</ele>
        <time>2014-01-21T10:16:12Z</time>
      </trkpt>
      <trkpt lat="36.668276" lon="-4.976372">
        <ele>1076.88</ele>
        <time>2014-01-21T10:16:18Z</time>
      </trkpt>
      <trkpt lat="36.668291" lon="-4.976371">
        <ele>1077.26</ele>
        <time>2014-01-21T10:16:22Z</time>
      </trkpt>
      <trkpt lat="36.668298" lon="-4.976372">
        <ele>1077.45</ele>
        <time>2014-01-21T10:16:23Z</time>
      </trkpt>
      <trkpt lat="36.668322" lon="-4.976380">
        <ele>1078.66</ele>
        <time>2014-01-21T10:16:27Z</time>
      </trkpt>
      <trkpt lat="36.668378" lon="-4.976404">
        <ele>1079.88</ele>
        <time>2014-01-21T10:16:40Z</time>
      </trkpt>
      <trkpt lat="36.668389" lon="-4.976415">
        <ele>1080.22</ele>
        <time>2014-01-21T10:16:42Z</time>
      </trkpt>
      <trkpt lat="36.668417" lon="-4.976438">
        <ele>1081.01</ele>
        <time>2014-01-21T10:16:47Z</time>
      </trkpt>
      <trkpt lat="36.668424" lon="-4.976439">
        <ele>1081.06</ele>
        <time>2014-01-21T10:16:48Z</time>
      </trkpt>
      <trkpt lat="36.668444" lon="-4.976464">
        <ele>1082.02</ele>
        <time>2014-01-21T10:16:52Z</time>
      </trkpt>
      <trkpt lat="36.668459" lon="-4.976470">
        <ele>1082.23</ele>
        <time>2014-01-21T10:16:55Z</time>
      </trkpt>
      <trkpt lat="36.668462" lon="-4.976474">
        <ele>1082.42</ele>
        <time>2014-01-21T10:16:57Z</time>
      </trkpt>
      <trkpt lat="36.668460" lon="-4.976489">
        <ele>1083.21</ele>
        <time>2014-01-21T10:17:21Z</time>
      </trkpt>
      <trkpt lat="36.668454" lon="-4.976524">
        <ele>1085.06</ele>
        <time>2014-01-21T10:17:44Z</time>
      </trkpt>
      <trkpt lat="36.668457" lon="-4.976542">
        <ele>1085.81</ele>
        <time>2014-01-21T10:17:46Z</time>
      </trkpt>
      <trkpt lat="36.668460" lon="-4.976551">
        <ele>1086.21</ele>
        <time>2014-01-21T10:17:47Z</time>
      </trkpt>
      <trkpt lat="36.668443" lon="-4.976601">
        <ele>1088.87</ele>
        <time>2014-01-21T10:17:55Z</time>
      </trkpt>
      <trkpt lat="36.668436" lon="-4.976615">
        <ele>1089.67</ele>
        <time>2014-01-21T10:17:57Z</time>
      </trkpt>
      <trkpt lat="36.668433" lon="-4.976630">
        <ele>1090.46</ele>
        <time>2014-01-21T10:18:00Z</time>
      </trkpt>
      <trkpt lat="36.668423" lon="-4.976641">
        <ele>1091.08</ele>
        <time>2014-01-21T10:18:02Z</time>
      </trkpt>
      <trkpt lat="36.668432" lon="-4.976665">
        <ele>1092.24</ele>
        <time>2014-01-21T10:18:06Z</time>
      </trkpt>
      <trkpt lat="36.668444" lon="-4.976683">
        <ele>1093.06</ele>
        <time>2014-01-21T10:18:09Z</time>
      </trkpt>
      <trkpt lat="36.668458" lon="-4.976688">
        <ele>1093.21</ele>
        <time>2014-01-21T10:18:11Z</time>
      </trkpt>
      <trkpt lat="36.668474" lon="-4.976693">
        <ele>1093.41</ele>
        <time>2014-01-21T10:18:14Z</time>
      </trkpt>
      <trkpt lat="36.668483" lon="-4.976701">
        <ele>1093.88</ele>
        <time>2014-01-21T10:18:17Z</time>
      </trkpt>
      <trkpt lat="36.668496" lon="-4.976716">
        <ele>1094.66</ele>
        <time>2014-01-21T10:18:20Z</time>
      </trkpt>
      <trkpt lat="36.668495" lon="-4.976724">
        <ele>1095.04</ele>
        <time>2014-01-21T10:18:21Z</time>
      </trkpt>
      <trkpt lat="36.668499" lon="-4.976743">
        <ele>1096.27</ele>
        <time>2014-01-21T10:18:26Z</time>
      </trkpt>
      <trkpt lat="36.668501" lon="-4.976748">
        <ele>1096.69</ele>
        <time>2014-01-21T10:18:34Z</time>
      </trkpt>
      <trkpt lat="36.668511" lon="-4.976752">
        <ele>1096.64</ele>
        <time>2014-01-21T10:18:37Z</time>
      </trkpt>
      <trkpt lat="36.668532" lon="-4.976760">
        <ele>1097.08</ele>
        <time>2014-01-21T10:18:40Z</time>
      </trkpt>
      <trkpt lat="36.668553" lon="-4.976763">
        <ele>1097.01</ele>
        <time>2014-01-21T10:18:42Z</time>
      </trkpt>
      <trkpt lat="36.668565" lon="-4.976770">
        <ele>1097.41</ele>
        <time>2014-01-21T10:18:44Z</time>
      </trkpt>
      <trkpt lat="36.668591" lon="-4.976808">
        <ele>1099.68</ele>
        <time>2014-01-21T10:18:48Z</time>
      </trkpt>
      <trkpt lat="36.668597" lon="-4.976815">
        <ele>1100.04</ele>
        <time>2014-01-21T10:18:49Z</time>
      </trkpt>
      <trkpt lat="36.668603" lon="-4.976819">
        <ele>1100.26</ele>
        <time>2014-01-21T10:18:50Z</time>
      </trkpt>
      <trkpt lat="36.668607" lon="-4.976820">
        <ele>1100.26</ele>
        <time>2014-01-21T10:18:54Z</time>
      </trkpt>
      <trkpt lat="36.668623" lon="-4.976836">
        <ele>1101.08</ele>
        <time>2014-01-21T10:18:58Z</time>
      </trkpt>
      <trkpt lat="36.668626" lon="-4.976841">
        <ele>1101.44</ele>
        <time>2014-01-21T10:18:59Z</time>
      </trkpt>
      <trkpt lat="36.668644" lon="-4.976866">
        <ele>1102.82</ele>
        <time>2014-01-21T10:19:02Z</time>
      </trkpt>
      <trkpt lat="36.668660" lon="-4.976887">
        <ele>1104.08</ele>
        <time>2014-01-21T10:19:05Z</time>
      </trkpt>
      <trkpt lat="36.668675" lon="-4.976907">
        <ele>1105.01</ele>
        <time>2014-01-21T10:19:08Z</time>
      </trkpt>
      <trkpt lat="36.668704" lon="-4.976941">
        <ele>1107.01</ele>
        <time>2014-01-21T10:19:13Z</time>
      </trkpt>
      <trkpt lat="36.668706" lon="-4.976950">
        <ele>1107.62</ele>
        <time>2014-01-21T10:19:14Z</time>
      </trkpt>
      <trkpt lat="36.668734" lon="-4.976989">
        <ele>1109.82</ele>
        <time>2014-01-21T10:19:19Z</time>
      </trkpt>
      <trkpt lat="36.668745" lon="-4.976996">
        <ele>1110.22</ele>
        <time>2014-01-21T10:19:20Z</time>
      </trkpt>
      <trkpt lat="36.668782" lon="-4.977031">
        <ele>1112.22</ele>
        <time>2014-01-21T10:19:24Z</time>
      </trkpt>
      <trkpt lat="36.668791" lon="-4.977038">
        <ele>1112.83</ele>
        <time>2014-01-21T10:19:25Z</time>
      </trkpt>
      <trkpt lat="36.668820" lon="-4.977059">
        <ele>1114.05</ele>
        <time>2014-01-21T10:19:29Z</time>
      </trkpt>
      <trkpt lat="36.668849" lon="-4.977077">
        <ele>1115.02</ele>
        <time>2014-01-21T10:19:33Z</time>
      </trkpt>
      <trkpt lat="36.668861" lon="-4.977086">
        <ele>1115.49</ele>
        <time>2014-01-21T10:19:35Z</time>
      </trkpt>
      <trkpt lat="36.668862" lon="-4.977098">
        <ele>1116.28</ele>
        <time>2014-01-21T10:19:36Z</time>
      </trkpt>
      <trkpt lat="36.668870" lon="-4.977112">
        <ele>1117.02</ele>
        <time>2014-01-21T10:19:38Z</time>
      </trkpt>
      <trkpt lat="36.668879" lon="-4.977126">
        <ele>1118.01</ele>
        <time>2014-01-21T10:19:40Z</time>
      </trkpt>
      <trkpt lat="36.668880" lon="-4.977128">
        <ele>1118.04</ele>
        <time>2014-01-21T10:19:41Z</time>
      </trkpt>
      <trkpt lat="36.668903" lon="-4.977159">
        <ele>1120.07</ele>
        <time>2014-01-21T10:19:45Z</time>
      </trkpt>
      <trkpt lat="36.668916" lon="-4.977173">
        <ele>1120.85</ele>
        <time>2014-01-21T10:19:47Z</time>
      </trkpt>
      <trkpt lat="36.668931" lon="-4.977192">
        <ele>1122.04</ele>
        <time>2014-01-21T10:19:50Z</time>
      </trkpt>
      <trkpt lat="36.668934" lon="-4.977210">
        <ele>1123.22</ele>
        <time>2014-01-21T10:19:53Z</time>
      </trkpt>
      <trkpt lat="36.668927" lon="-4.977212">
        <ele>1123.41</ele>
        <time>2014-01-21T10:19:54Z</time>
      </trkpt>
      <trkpt lat="36.668902" lon="-4.977200">
        <ele>1122.69</ele>
        <time>2014-01-21T10:19:57Z</time>
      </trkpt>
      <trkpt lat="36.668897" lon="-4.977197">
        <ele>1122.50</ele>
        <time>2014-01-21T10:19:58Z</time>
      </trkpt>
      <trkpt lat="36.668835" lon="-4.977167">
        <ele>1120.81</ele>
        <time>2014-01-21T10:20:06Z</time>
      </trkpt>
      <trkpt lat="36.668827" lon="-4.977168">
        <ele>1120.83</ele>
        <time>2014-01-21T10:20:07Z</time>
      </trkpt>
      <trkpt lat="36.668802" lon="-4.977170">
        <ele>1121.01</ele>
        <time>2014-01-21T10:20:11Z</time>
      </trkpt>
      <trkpt lat="36.668794" lon="-4.977167">
        <ele>1120.86</ele>
        <time>2014-01-21T10:20:12Z</time>
      </trkpt>
      <trkpt lat="36.668770" lon="-4.977155">
        <ele>1120.26</ele>
        <time>2014-01-21T10:20:15Z</time>
      </trkpt>
      <trkpt lat="36.668755" lon="-4.977163">
        <ele>1120.84</ele>
        <time>2014-01-21T10:20:18Z</time>
      </trkpt>
      <trkpt lat="36.668745" lon="-4.977183">
        <ele>1122.07</ele>
        <time>2014-01-21T10:20:25Z</time>
      </trkpt>
      <trkpt lat="36.668732" lon="-4.977184">
        <ele>1122.29</ele>
        <time>2014-01-21T10:20:27Z</time>
      </trkpt>
      <trkpt lat="36.668716" lon="-4.977188">
        <ele>1122.44</ele>
        <time>2014-01-21T10:20:30Z</time>
      </trkpt>
      <trkpt lat="36.668705" lon="-4.977196">
        <ele>1123.03</ele>
        <time>2014-01-21T10:20:33Z</time>
      </trkpt>
      <trkpt lat="36.668668" lon="-4.977193">
        <ele>1123.01</ele>
        <time>2014-01-21T10:20:40Z</time>
      </trkpt>
      <trkpt lat="36.668632" lon="-4.977196">
        <ele>1123.22</ele>
        <time>2014-01-21T10:20:45Z</time>
      </trkpt>
      <trkpt lat="36.668604" lon="-4.977196">
        <ele>1123.29</ele>
        <time>2014-01-21T10:20:49Z</time>
      </trkpt>
      <trkpt lat="36.668543" lon="-4.977198">
        <ele>1123.62</ele>
        <time>2014-01-21T10:20:54Z</time>
      </trkpt>
      <trkpt lat="36.668530" lon="-4.977202">
        <ele>1123.82</ele>
        <time>2014-01-21T10:20:55Z</time>
      </trkpt>
      <trkpt lat="36.668521" lon="-4.977210">
        <ele>1124.46</ele>
        <time>2014-01-21T10:20:56Z</time>
      </trkpt>
      <trkpt lat="36.668510" lon="-4.977234">
        <ele>1125.90</ele>
        <time>2014-01-21T10:21:01Z</time>
      </trkpt>
      <trkpt lat="36.668508" lon="-4.977233">
        <ele>1125.83</ele>
        <time>2014-01-21T10:21:05Z</time>
      </trkpt>
      <trkpt lat="36.668489" lon="-4.977255">
        <ele>1127.29</ele>
        <time>2014-01-21T10:21:08Z</time>
      </trkpt>
      <trkpt lat="36.668479" lon="-4.977265">
        <ele>1127.82</ele>
        <time>2014-01-21T10:21:12Z</time>
      </trkpt>
      <trkpt lat="36.668477" lon="-4.977268">
        <ele>1128.01</ele>
        <time>2014-01-21T10:21:13Z</time>
      </trkpt>
      <trkpt lat="36.668462" lon="-4.977271">
        <ele>1128.27</ele>
        <time>2014-01-21T10:21:17Z</time>
      </trkpt>
      <trkpt lat="36.668450" lon="-4.977299">
        <ele>1130.10</ele>
        <time>2014-01-21T10:21:20Z</time>
      </trkpt>
      <trkpt lat="36.668439" lon="-4.977311">
        <ele>1130.63</ele>
        <time>2014-01-21T10:21:23Z</time>
      </trkpt>
      <trkpt lat="36.668437" lon="-4.977315">
        <ele>1131.06</ele>
        <time>2014-01-21T10:21:29Z</time>
      </trkpt>
      <trkpt lat="36.668416" lon="-4.977340">
        <ele>1132.44</ele>
        <time>2014-01-21T10:21:35Z</time>
      </trkpt>
      <trkpt lat="36.668412" lon="-4.977347">
        <ele>1132.83</ele>
        <time>2014-01-21T10:21:36Z</time>
      </trkpt>
      <trkpt lat="36.668388" lon="-4.977377">
        <ele>1134.82</ele>
        <time>2014-01-21T10:21:41Z</time>
      </trkpt>
      <trkpt lat="36.668386" lon="-4.977383">
        <ele>1135.01</ele>
        <time>2014-01-21T10:21:42Z</time>
      </trkpt>
      <trkpt lat="36.668384" lon="-4.977400">
        <ele>1136.02</ele>
        <time>2014-01-21T10:21:46Z</time>
      </trkpt>
      <trkpt lat="36.668380" lon="-4.977412">
        <ele>1136.81</ele>
        <time>2014-01-21T10:21:47Z</time>
      </trkpt>
      <trkpt lat="36.668373" lon="-4.977431">
        <ele>1137.86</ele>
        <time>2014-01-21T10:21:49Z</time>
      </trkpt>
      <trkpt lat="36.668359" lon="-4.977448">
        <ele>1139.03</ele>
        <time>2014-01-21T10:21:52Z</time>
      </trkpt>
      <trkpt lat="36.668339" lon="-4.977476">
        <ele>1140.67</ele>
        <time>2014-01-21T10:21:56Z</time>
      </trkpt>
      <trkpt lat="36.668333" lon="-4.977484">
        <ele>1141.02</ele>
        <time>2014-01-21T10:21:59Z</time>
      </trkpt>
      <trkpt lat="36.668321" lon="-4.977495">
        <ele>1141.26</ele>
        <time>2014-01-21T10:22:02Z</time>
      </trkpt>
      <trkpt lat="36.668299" lon="-4.977515">
        <ele>1141.67</ele>
        <time>2014-01-21T10:22:05Z</time>
      </trkpt>
      <trkpt lat="36.668293" lon="-4.977518">
        <ele>1141.67</ele>
        <time>2014-01-21T10:22:06Z</time>
      </trkpt>
      <trkpt lat="36.668273" lon="-4.977551">
        <ele>1142.65</ele>
        <time>2014-01-21T10:22:11Z</time>
      </trkpt>
      <trkpt lat="36.668252" lon="-4.977577">
        <ele>1143.25</ele>
        <time>2014-01-21T10:22:15Z</time>
      </trkpt>
      <trkpt lat="36.668241" lon="-4.977586">
        <ele>1143.41</ele>
        <time>2014-01-21T10:22:17Z</time>
      </trkpt>
      <trkpt lat="36.668235" lon="-4.977591">
        <ele>1143.41</ele>
        <time>2014-01-21T10:22:18Z</time>
      </trkpt>
      <trkpt lat="36.668213" lon="-4.977609">
        <ele>1143.67</ele>
        <time>2014-01-21T10:22:23Z</time>
      </trkpt>
      <trkpt lat="36.668204" lon="-4.977619">
        <ele>1143.83</ele>
        <time>2014-01-21T10:22:25Z</time>
      </trkpt>
      <trkpt lat="36.668174" lon="-4.977634">
        <ele>1143.65</ele>
        <time>2014-01-21T10:22:30Z</time>
      </trkpt>
      <trkpt lat="36.668140" lon="-4.977653">
        <ele>1143.47</ele>
        <time>2014-01-21T10:22:36Z</time>
      </trkpt>
      <trkpt lat="36.668136" lon="-4.977663">
        <ele>1143.85</ele>
        <time>2014-01-21T10:22:39Z</time>
      </trkpt>
      <trkpt lat="36.668130" lon="-4.977671">
        <ele>1143.82</ele>
        <time>2014-01-21T10:22:41Z</time>
      </trkpt>
      <trkpt lat="36.668122" lon="-4.977685">
        <ele>1144.47</ele>
        <time>2014-01-21T10:22:43Z</time>
      </trkpt>
      <trkpt lat="36.668094" lon="-4.977709">
        <ele>1144.66</ele>
        <time>2014-01-21T10:22:48Z</time>
      </trkpt>
      <trkpt lat="36.668059" lon="-4.977739">
        <ele>1144.85</ele>
        <time>2014-01-21T10:22:53Z</time>
      </trkpt>
      <trkpt lat="36.668052" lon="-4.977747">
        <ele>1145.02</ele>
        <time>2014-01-21T10:22:54Z</time>
      </trkpt>
      <trkpt lat="36.668028" lon="-4.977774">
        <ele>1145.61</ele>
        <time>2014-01-21T10:22:58Z</time>
      </trkpt>
      <trkpt lat="36.668010" lon="-4.977797">
        <ele>1146.06</ele>
        <time>2014-01-21T10:23:01Z</time>
      </trkpt>
      <trkpt lat="36.668007" lon="-4.977820">
        <ele>1147.06</ele>
        <time>2014-01-21T10:23:03Z</time>
      </trkpt>
      <trkpt lat="36.668007" lon="-4.977861">
        <ele>1149.09</ele>
        <time>2014-01-21T10:23:07Z</time>
      </trkpt>
      <trkpt lat="36.667996" lon="-4.977932">
        <ele>1152.28</ele>
        <time>2014-01-21T10:23:13Z</time>
      </trkpt>
      <trkpt lat="36.667995" lon="-4.977947">
        <ele>1153.10</ele>
        <time>2014-01-21T10:23:14Z</time>
      </trkpt>
      <trkpt lat="36.667990" lon="-4.977994">
        <ele>1155.06</ele>
        <time>2014-01-21T10:23:18Z</time>
      </trkpt>
      <trkpt lat="36.667992" lon="-4.978028">
        <ele>1156.82</ele>
        <time>2014-01-21T10:23:21Z</time>
      </trkpt>
      <trkpt lat="36.667993" lon="-4.978035">
        <ele>1157.28</ele>
        <time>2014-01-21T10:23:22Z</time>
      </trkpt>
      <trkpt lat="36.667997" lon="-4.978054">
        <ele>1158.41</ele>
        <time>2014-01-21T10:23:24Z</time>
      </trkpt>
      <trkpt lat="36.667999" lon="-4.978075">
        <ele>1159.43</ele>
        <time>2014-01-21T10:23:26Z</time>
      </trkpt>
      <trkpt lat="36.668003" lon="-4.978099">
        <ele>1160.81</ele>
        <time>2014-01-21T10:23:28Z</time>
      </trkpt>
      <trkpt lat="36.668006" lon="-4.978106">
        <ele>1161.23</ele>
        <time>2014-01-21T10:23:29Z</time>
      </trkpt>
      <trkpt lat="36.668020" lon="-4.978148">
        <ele>1164.04</ele>
        <time>2014-01-21T10:23:34Z</time>
      </trkpt>
      <trkpt lat="36.668027" lon="-4.978162">
        <ele>1164.88</ele>
        <time>2014-01-21T10:23:35Z</time>
      </trkpt>
      <trkpt lat="36.668049" lon="-4.978197">
        <ele>1167.68</ele>
        <time>2014-01-21T10:23:40Z</time>
      </trkpt>
      <trkpt lat="36.668053" lon="-4.978203">
        <ele>1168.07</ele>
        <time>2014-01-21T10:23:41Z</time>
      </trkpt>
      <trkpt lat="36.668059" lon="-4.978209">
        <ele>1168.65</ele>
        <time>2014-01-21T10:23:42Z</time>
      </trkpt>
      <trkpt lat="36.668060" lon="-4.978228">
        <ele>1169.70</ele>
        <time>2014-01-21T10:23:46Z</time>
      </trkpt>
      <trkpt lat="36.668064" lon="-4.978234">
        <ele>1170.07</ele>
        <time>2014-01-21T10:23:47Z</time>
      </trkpt>
      <trkpt lat="36.668081" lon="-4.978298">
        <ele>1174.06</ele>
        <time>2014-01-21T10:23:53Z</time>
      </trkpt>
      <trkpt lat="36.668084" lon="-4.978321">
        <ele>1175.22</ele>
        <time>2014-01-21T10:23:55Z</time>
      </trkpt>
      <trkpt lat="36.668072" lon="-4.978379">
        <ele>1176.81</ele>
        <time>2014-01-21T10:23:59Z</time>
      </trkpt>
      <trkpt lat="36.668060" lon="-4.978474">
        <ele>1179.69</ele>
        <time>2014-01-21T10:24:02Z</time>
      </trkpt>
      <trkpt lat="36.668060" lon="-4.978510">
        <ele>1180.90</ele>
        <time>2014-01-21T10:24:05Z</time>
      </trkpt>
      <trkpt lat="36.668060" lon="-4.978524">
        <ele>1181.28</ele>
        <time>2014-01-21T10:24:06Z</time>
      </trkpt>
      <trkpt lat="36.668061" lon="-4.978560">
        <ele>1182.64</ele>
        <time>2014-01-21T10:24:09Z</time>
      </trkpt>
      <trkpt lat="36.668066" lon="-4.978576">
        <ele>1183.43</ele>
        <time>2014-01-21T10:24:11Z</time>
      </trkpt>
      <trkpt lat="36.668062" lon="-4.978599">
        <ele>1184.02</ele>
        <time>2014-01-21T10:24:14Z</time>
      </trkpt>
      <trkpt lat="36.668063" lon="-4.978617">
        <ele>1184.68</ele>
        <time>2014-01-21T10:24:16Z</time>
      </trkpt>
      <trkpt lat="36.668065" lon="-4.978633">
        <ele>1185.23</ele>
        <time>2014-01-21T10:24:19Z</time>
      </trkpt>
      <trkpt lat="36.668065" lon="-4.978643">
        <ele>1185.66</ele>
        <time>2014-01-21T10:24:20Z</time>
      </trkpt>
      <trkpt lat="36.668059" lon="-4.978680">
        <ele>1186.61</ele>
        <time>2014-01-21T10:24:23Z</time>
      </trkpt>
      <trkpt lat="36.668046" lon="-4.978715">
        <ele>1187.21</ele>
        <time>2014-01-21T10:24:26Z</time>
      </trkpt>
      <trkpt lat="36.668020" lon="-4.978756">
        <ele>1187.64</ele>
        <time>2014-01-21T10:24:30Z</time>
      </trkpt>
      <trkpt lat="36.668001" lon="-4.978775">
        <ele>1187.62</ele>
        <time>2014-01-21T10:24:32Z</time>
      </trkpt>
      <trkpt lat="36.667990" lon="-4.978821">
        <ele>1188.81</ele>
        <time>2014-01-21T10:24:36Z</time>
      </trkpt>
      <trkpt lat="36.667982" lon="-4.978841">
        <ele>1189.25</ele>
        <time>2014-01-21T10:24:38Z</time>
      </trkpt>
      <trkpt lat="36.667984" lon="-4.978850">
        <ele>1189.68</ele>
        <time>2014-01-21T10:24:39Z</time>
      </trkpt>
      <trkpt lat="36.668000" lon="-4.978850">
        <ele>1190.22</ele>
        <time>2014-01-21T10:24:41Z</time>
      </trkpt>
      <trkpt lat="36.668007" lon="-4.978848">
        <ele>1190.42</ele>
        <time>2014-01-21T10:24:42Z</time>
      </trkpt>
      <trkpt lat="36.668019" lon="-4.978845">
        <ele>1190.67</ele>
        <time>2014-01-21T10:24:44Z</time>
      </trkpt>
      <trkpt lat="36.668047" lon="-4.978840">
        <ele>1191.67</ele>
        <time>2014-01-21T10:24:48Z</time>
      </trkpt>
      <trkpt lat="36.668083" lon="-4.978821">
        <ele>1192.21</ele>
        <time>2014-01-21T10:24:53Z</time>
      </trkpt>
      <trkpt lat="36.668091" lon="-4.978813">
        <ele>1192.41</ele>
        <time>2014-01-21T10:24:54Z</time>
      </trkpt>
      <trkpt lat="36.668118" lon="-4.978782">
        <ele>1192.48</ele>
        <time>2014-01-21T10:24:59Z</time>
      </trkpt>
      <trkpt lat="36.668141" lon="-4.978760">
        <ele>1192.45</ele>
        <time>2014-01-21T10:25:04Z</time>
      </trkpt>
      <trkpt lat="36.668168" lon="-4.978737">
        <ele>1192.90</ele>
        <time>2014-01-21T10:25:08Z</time>
      </trkpt>
      <trkpt lat="36.668180" lon="-4.978723">
        <ele>1192.82</ele>
        <time>2014-01-21T10:25:10Z</time>
      </trkpt>
      <trkpt lat="36.668199" lon="-4.978700">
        <ele>1192.65</ele>
        <time>2014-01-21T10:25:13Z</time>
      </trkpt>
      <trkpt lat="36.668212" lon="-4.978671">
        <ele>1192.28</ele>
        <time>2014-01-21T10:25:17Z</time>
      </trkpt>
      <trkpt lat="36.668222" lon="-4.978654">
        <ele>1192.05</ele>
        <time>2014-01-21T10:25:19Z</time>
      </trkpt>
      <trkpt lat="36.668249" lon="-4.978615">
        <ele>1191.89</ele>
        <time>2014-01-21T10:25:23Z</time>
      </trkpt>
      <trkpt lat="36.668265" lon="-4.978591">
        <ele>1191.62</ele>
        <time>2014-01-21T10:25:25Z</time>
      </trkpt>
      <trkpt lat="36.668290" lon="-4.978523">
        <ele>1190.43</ele>
        <time>2014-01-21T10:25:31Z</time>
      </trkpt>
      <trkpt lat="36.668296" lon="-4.978507">
        <ele>1190.21</ele>
        <time>2014-01-21T10:25:32Z</time>
      </trkpt>
      <trkpt lat="36.668315" lon="-4.978459">
        <ele>1189.47</ele>
        <time>2014-01-21T10:25:36Z</time>
      </trkpt>
      <trkpt lat="36.668321" lon="-4.978448">
        <ele>1189.29</ele>
        <time>2014-01-21T10:25:37Z</time>
      </trkpt>
      <trkpt lat="36.668339" lon="-4.978408">
        <ele>1188.43</ele>
        <time>2014-01-21T10:25:41Z</time>
      </trkpt>
      <trkpt lat="36.668342" lon="-4.978396">
        <ele>1188.22</ele>
        <time>2014-01-21T10:25:42Z</time>
      </trkpt>
      <trkpt lat="36.668345" lon="-4.978389">
        <ele>1188.09</ele>
        <time>2014-01-21T10:25:43Z</time>
      </trkpt>
      <trkpt lat="36.668359" lon="-4.978366">
        <ele>1187.42</ele>
        <time>2014-01-21T10:25:46Z</time>
      </trkpt>
      <trkpt lat="36.668365" lon="-4.978361">
        <ele>1187.24</ele>
        <time>2014-01-21T10:25:47Z</time>
      </trkpt>
      <trkpt lat="36.668373" lon="-4.978360">
        <ele>1187.25</ele>
        <time>2014-01-21T10:25:48Z</time>
      </trkpt>
      <trkpt lat="36.668379" lon="-4.978359">
        <ele>1187.20</ele>
        <time>2014-01-21T10:25:49Z</time>
      </trkpt>
      <trkpt lat="36.668391" lon="-4.978351">
        <ele>1187.01</ele>
        <time>2014-01-21T10:25:51Z</time>
      </trkpt>
      <trkpt lat="36.668411" lon="-4.978338">
        <ele>1186.81</ele>
        <time>2014-01-21T10:25:55Z</time>
      </trkpt>
      <trkpt lat="36.668412" lon="-4.978329">
        <ele>1186.46</ele>
        <time>2014-01-21T10:25:56Z</time>
      </trkpt>
      <trkpt lat="36.668434" lon="-4.978300">
        <ele>1185.09</ele>
        <time>2014-01-21T10:26:00Z</time>
      </trkpt>
      <trkpt lat="36.668461" lon="-4.978264">
        <ele>1183.42</ele>
        <time>2014-01-21T10:27:05Z</time>
      </trkpt>
      <trkpt lat="36.668476" lon="-4.978261">
        <ele>1183.26</ele>
        <time>2014-01-21T10:27:46Z</time>
      </trkpt>
      <trkpt lat="36.668475" lon="-4.978315">
        <ele>1186.21</ele>
        <time>2014-01-21T10:28:34Z</time>
      </trkpt>
      <trkpt lat="36.668480" lon="-4.978324">
        <ele>1186.88</ele>
        <time>2014-01-21T10:28:36Z</time>
      </trkpt>
      <trkpt lat="36.668485" lon="-4.978337">
        <ele>1187.43</ele>
        <time>2014-01-21T10:28:38Z</time>
      </trkpt>
      <trkpt lat="36.668490" lon="-4.978362">
        <ele>1188.50</ele>
        <time>2014-01-21T10:28:41Z</time>
      </trkpt>
      <trkpt lat="36.668492" lon="-4.978389">
        <ele>1189.47</ele>
        <time>2014-01-21T10:28:43Z</time>
      </trkpt>
      <trkpt lat="36.668496" lon="-4.978396">
        <ele>1189.87</ele>
        <time>2014-01-21T10:28:44Z</time>
      </trkpt>
      <trkpt lat="36.668502" lon="-4.978414">
        <ele>1190.49</ele>
        <time>2014-01-21T10:28:46Z</time>
      </trkpt>
      <trkpt lat="36.668546" lon="-4.978431">
        <ele>1191.61</ele>
        <time>2014-01-21T10:28:57Z</time>
      </trkpt>
      <trkpt lat="36.668546" lon="-4.978508">
        <ele>1194.66</ele>
        <time>2014-01-21T10:29:16Z</time>
      </trkpt>
      <trkpt lat="36.668539" lon="-4.978540">
        <ele>1195.89</ele>
        <time>2014-01-21T10:29:18Z</time>
      </trkpt>
      <trkpt lat="36.668533" lon="-4.978610">
        <ele>1198.43</ele>
        <time>2014-01-21T10:29:22Z</time>
      </trkpt>
      <trkpt lat="36.668533" lon="-4.978628">
        <ele>1199.09</ele>
        <time>2014-01-21T10:29:23Z</time>
      </trkpt>
      <trkpt lat="36.668529" lon="-4.978665">
        <ele>1200.41</ele>
        <time>2014-01-21T10:29:25Z</time>
      </trkpt>
      <trkpt lat="36.668526" lon="-4.978679">
        <ele>1201.04</ele>
        <time>2014-01-21T10:29:26Z</time>
      </trkpt>
      <trkpt lat="36.668497" lon="-4.978764">
        <ele>1203.61</ele>
        <time>2014-01-21T10:29:32Z</time>
      </trkpt>
      <trkpt lat="36.668479" lon="-4.978806">
        <ele>1204.81</ele>
        <time>2014-01-21T10:29:35Z</time>
      </trkpt>
      <trkpt lat="36.668449" lon="-4.978922">
        <ele>1208.23</ele>
        <time>2014-01-21T10:29:43Z</time>
      </trkpt>
      <trkpt lat="36.668444" lon="-4.978935">
        <ele>1208.68</ele>
        <time>2014-01-21T10:29:44Z</time>
      </trkpt>
      <trkpt lat="36.668410" lon="-4.979025">
        <ele>1210.87</ele>
        <time>2014-01-21T10:29:50Z</time>
      </trkpt>
      <trkpt lat="36.668405" lon="-4.979037">
        <ele>1211.06</ele>
        <time>2014-01-21T10:29:51Z</time>
      </trkpt>
      <trkpt lat="36.668405" lon="-4.979055">
        <ele>1211.62</ele>
        <time>2014-01-21T10:29:52Z</time>
      </trkpt>
      <trkpt lat="36.668409" lon="-4.979074">
        <ele>1212.43</ele>
        <time>2014-01-21T10:29:54Z</time>
      </trkpt>
      <trkpt lat="36.668405" lon="-4.979093">
        <ele>1213.02</ele>
        <time>2014-01-21T10:29:56Z</time>
      </trkpt>
      <trkpt lat="36.668388" lon="-4.979128">
        <ele>1213.67</ele>
        <time>2014-01-21T10:29:59Z</time>
      </trkpt>
      <trkpt lat="36.668382" lon="-4.979141">
        <ele>1213.86</ele>
        <time>2014-01-21T10:30:00Z</time>
      </trkpt>
      <trkpt lat="36.668366" lon="-4.979178">
        <ele>1214.62</ele>
        <time>2014-01-21T10:30:03Z</time>
      </trkpt>
      <trkpt lat="36.668336" lon="-4.979241">
        <ele>1216.21</ele>
        <time>2014-01-21T10:30:08Z</time>
      </trkpt>
      <trkpt lat="36.668319" lon="-4.979277">
        <ele>1217.03</ele>
        <time>2014-01-21T10:30:11Z</time>
      </trkpt>
      <trkpt lat="36.668296" lon="-4.979333">
        <ele>1218.68</ele>
        <time>2014-01-21T10:30:15Z</time>
      </trkpt>
      <trkpt lat="36.668284" lon="-4.979359">
        <ele>1219.47</ele>
        <time>2014-01-21T10:30:18Z</time>
      </trkpt>
      <trkpt lat="36.668278" lon="-4.979383">
        <ele>1220.29</ele>
        <time>2014-01-21T10:30:20Z</time>
      </trkpt>
      <trkpt lat="36.668261" lon="-4.979441">
        <ele>1222.09</ele>
        <time>2014-01-21T10:30:25Z</time>
      </trkpt>
      <trkpt lat="36.668263" lon="-4.979456">
        <ele>1222.88</ele>
        <time>2014-01-21T10:30:26Z</time>
      </trkpt>
      <trkpt lat="36.668258" lon="-4.979466">
        <ele>1223.03</ele>
        <time>2014-01-21T10:30:27Z</time>
      </trkpt>
      <trkpt lat="36.668250" lon="-4.979498">
        <ele>1224.01</ele>
        <time>2014-01-21T10:30:30Z</time>
      </trkpt>
      <trkpt lat="36.668245" lon="-4.979509">
        <ele>1224.45</ele>
        <time>2014-01-21T10:30:31Z</time>
      </trkpt>
      <trkpt lat="36.668236" lon="-4.979532">
        <ele>1225.01</ele>
        <time>2014-01-21T10:30:33Z</time>
      </trkpt>
      <trkpt lat="36.668210" lon="-4.979578">
        <ele>1226.01</ele>
        <time>2014-01-21T10:30:37Z</time>
      </trkpt>
      <trkpt lat="36.668185" lon="-4.979659">
        <ele>1228.64</ele>
        <time>2014-01-21T10:30:43Z</time>
      </trkpt>
      <trkpt lat="36.668174" lon="-4.979686">
        <ele>1229.46</ele>
        <time>2014-01-21T10:30:45Z</time>
      </trkpt>
      <trkpt lat="36.668150" lon="-4.979712">
        <ele>1229.83</ele>
        <time>2014-01-21T10:30:48Z</time>
      </trkpt>
      <trkpt lat="36.668132" lon="-4.979730">
        <ele>1229.85</ele>
        <time>2014-01-21T10:30:50Z</time>
      </trkpt>
      <trkpt lat="36.668097" lon="-4.979782">
        <ele>1231.06</ele>
        <time>2014-01-21T10:30:55Z</time>
      </trkpt>
      <trkpt lat="36.668073" lon="-4.979814">
        <ele>1231.68</ele>
        <time>2014-01-21T10:30:58Z</time>
      </trkpt>
      <trkpt lat="36.668058" lon="-4.979837">
        <ele>1232.05</ele>
        <time>2014-01-21T10:31:00Z</time>
      </trkpt>
      <trkpt lat="36.668023" lon="-4.979865">
        <ele>1232.08</ele>
        <time>2014-01-21T10:31:04Z</time>
      </trkpt>
      <trkpt lat="36.668006" lon="-4.979883">
        <ele>1232.29</ele>
        <time>2014-01-21T10:31:06Z</time>
      </trkpt>
      <trkpt lat="36.667966" lon="-4.979919">
        <ele>1232.62</ele>
        <time>2014-01-21T10:31:10Z</time>
      </trkpt>
      <trkpt lat="36.667941" lon="-4.979926">
        <ele>1232.01</ele>
        <time>2014-01-21T10:31:12Z</time>
      </trkpt>
      <trkpt lat="36.667907" lon="-4.979936">
        <ele>1231.48</ele>
        <time>2014-01-21T10:31:15Z</time>
      </trkpt>
      <trkpt lat="36.667859" lon="-4.979942">
        <ele>1230.07</ele>
        <time>2014-01-21T10:31:19Z</time>
      </trkpt>
      <trkpt lat="36.667782" lon="-4.979964">
        <ele>1228.63</ele>
        <time>2014-01-21T10:31:25Z</time>
      </trkpt>
      <trkpt lat="36.667771" lon="-4.979967">
        <ele>1228.47</ele>
        <time>2014-01-21T10:31:26Z</time>
      </trkpt>
      <trkpt lat="36.667720" lon="-4.979993">
        <ele>1227.87</ele>
        <time>2014-01-21T10:31:31Z</time>
      </trkpt>
      <trkpt lat="36.667696" lon="-4.979997">
        <ele>1227.25</ele>
        <time>2014-01-21T10:31:33Z</time>
      </trkpt>
      <trkpt lat="36.667631" lon="-4.980021">
        <ele>1225.86</ele>
        <time>2014-01-21T10:31:38Z</time>
      </trkpt>
      <trkpt lat="36.667598" lon="-4.980051">
        <ele>1225.61</ele>
        <time>2014-01-21T10:31:42Z</time>
      </trkpt>
      <trkpt lat="36.667578" lon="-4.980053">
        <ele>1225.04</ele>
        <time>2014-01-21T10:31:44Z</time>
      </trkpt>
      <trkpt lat="36.667510" lon="-4.980084">
        <ele>1223.41</ele>
        <time>2014-01-21T10:31:50Z</time>
      </trkpt>
      <trkpt lat="36.667492" lon="-4.980087">
        <ele>1222.81</ele>
        <time>2014-01-21T10:31:52Z</time>
      </trkpt>
      <trkpt lat="36.667440" lon="-4.980089">
        <ele>1221.25</ele>
        <time>2014-01-21T10:31:56Z</time>
      </trkpt>
      <trkpt lat="36.667427" lon="-4.980094">
        <ele>1220.84</ele>
        <time>2014-01-21T10:31:57Z</time>
      </trkpt>
      <trkpt lat="36.667351" lon="-4.980094">
        <ele>1218.21</ele>
        <time>2014-01-21T10:32:03Z</time>
      </trkpt>
      <trkpt lat="36.667280" lon="-4.980127">
        <ele>1216.43</ele>
        <time>2014-01-21T10:32:10Z</time>
      </trkpt>
      <trkpt lat="36.667273" lon="-4.980133">
        <ele>1216.28</ele>
        <time>2014-01-21T10:32:15Z</time>
      </trkpt>
      <trkpt lat="36.667299" lon="-4.980147">
        <ele>1217.42</ele>
        <time>2014-01-21T10:32:22Z</time>
      </trkpt>
      <trkpt lat="36.667325" lon="-4.980161">
        <ele>1218.49</ele>
        <time>2014-01-21T10:32:25Z</time>
      </trkpt>
      <trkpt lat="36.667354" lon="-4.980166">
        <ele>1219.67</ele>
        <time>2014-01-21T10:32:28Z</time>
      </trkpt>
      <trkpt lat="36.667379" lon="-4.980174">
        <ele>1220.82</ele>
        <time>2014-01-21T10:32:31Z</time>
      </trkpt>
      <trkpt lat="36.667424" lon="-4.980186">
        <ele>1222.61</ele>
        <time>2014-01-21T10:32:36Z</time>
      </trkpt>
      <trkpt lat="36.667434" lon="-4.980182">
        <ele>1222.86</ele>
        <time>2014-01-21T10:32:37Z</time>
      </trkpt>
      <trkpt lat="36.667456" lon="-4.980183">
        <ele>1223.90</ele>
        <time>2014-01-21T10:32:39Z</time>
      </trkpt>
      <trkpt lat="36.667473" lon="-4.980172">
        <ele>1224.29</ele>
        <time>2014-01-21T10:32:45Z</time>
      </trkpt>
      <trkpt lat="36.667512" lon="-4.980173">
        <ele>1225.69</ele>
        <time>2014-01-21T10:32:53Z</time>
      </trkpt>
      <trkpt lat="36.667601" lon="-4.980148">
        <ele>1228.49</ele>
        <time>2014-01-21T10:32:58Z</time>
      </trkpt>
      <trkpt lat="36.667646" lon="-4.980135">
        <ele>1229.62</ele>
        <time>2014-01-21T10:33:00Z</time>
      </trkpt>
      <trkpt lat="36.667704" lon="-4.980129">
        <ele>1231.61</ele>
        <time>2014-01-21T10:33:03Z</time>
      </trkpt>
      <trkpt lat="36.667722" lon="-4.980125">
        <ele>1232.28</ele>
        <time>2014-01-21T10:33:04Z</time>
      </trkpt>
      <trkpt lat="36.667808" lon="-4.980127">
        <ele>1235.43</ele>
        <time>2014-01-21T10:33:08Z</time>
      </trkpt>
      <trkpt lat="36.667824" lon="-4.980131">
        <ele>1236.02</ele>
        <time>2014-01-21T10:33:09Z</time>
      </trkpt>
      <trkpt lat="36.667875" lon="-4.980148">
        <ele>1238.61</ele>
        <time>2014-01-21T10:33:12Z</time>
      </trkpt>
      <trkpt lat="36.667915" lon="-4.980150">
        <ele>1240.21</ele>
        <time>2014-01-21T10:33:14Z</time>
      </trkpt>
      <trkpt lat="36.668036" lon="-4.980092">
        <ele>1242.22</ele>
        <time>2014-01-21T10:33:19Z</time>
      </trkpt>
      <trkpt lat="36.668088" lon="-4.980036">
        <ele>1241.70</ele>
        <time>2014-01-21T10:33:23Z</time>
      </trkpt>
      <trkpt lat="36.668102" lon="-4.980031">
        <ele>1241.88</ele>
        <time>2014-01-21T10:33:24Z</time>
      </trkpt>
      <trkpt lat="36.668176" lon="-4.979961">
        <ele>1241.25</ele>
        <time>2014-01-21T10:33:28Z</time>
      </trkpt>
      <trkpt lat="36.668235" lon="-4.979892">
        <ele>1240.23</ele>
        <time>2014-01-21T10:33:32Z</time>
      </trkpt>
      <trkpt lat="36.668248" lon="-4.979867">
        <ele>1239.67</ele>
        <time>2014-01-21T10:33:33Z</time>
      </trkpt>
      <trkpt lat="36.668289" lon="-4.979814">
        <ele>1238.86</ele>
        <time>2014-01-21T10:33:35Z</time>
      </trkpt>
      <trkpt lat="36.668301" lon="-4.979784">
        <ele>1237.80</ele>
        <time>2014-01-21T10:33:36Z</time>
      </trkpt>
      <trkpt lat="36.668335" lon="-4.979740">
        <ele>1237.22</ele>
        <time>2014-01-21T10:33:38Z</time>
      </trkpt>
      <trkpt lat="36.668400" lon="-4.979663">
        <ele>1236.41</ele>
        <time>2014-01-21T10:33:42Z</time>
      </trkpt>
      <trkpt lat="36.668439" lon="-4.979640">
        <ele>1237.05</ele>
        <time>2014-01-21T10:33:45Z</time>
      </trkpt>
      <trkpt lat="36.668463" lon="-4.979627">
        <ele>1237.43</ele>
        <time>2014-01-21T10:33:47Z</time>
      </trkpt>
      <trkpt lat="36.668475" lon="-4.979621">
        <ele>1237.66</ele>
        <time>2014-01-21T10:33:49Z</time>
      </trkpt>
      <trkpt lat="36.668481" lon="-4.979621">
        <ele>1238.02</ele>
        <time>2014-01-21T10:33:50Z</time>
      </trkpt>
      <trkpt lat="36.668495" lon="-4.979608">
        <ele>1237.84</ele>
        <time>2014-01-21T10:33:52Z</time>
      </trkpt>
      <trkpt lat="36.668516" lon="-4.979588">
        <ele>1237.83</ele>
        <time>2014-01-21T10:33:56Z</time>
      </trkpt>
      <trkpt lat="36.668540" lon="-4.979570">
        <ele>1238.03</ele>
        <time>2014-01-21T10:33:59Z</time>
      </trkpt>
      <trkpt lat="36.668546" lon="-4.979565">
        <ele>1238.06</ele>
        <time>2014-01-21T10:34:00Z</time>
      </trkpt>
      <trkpt lat="36.668594" lon="-4.979512">
        <ele>1237.61</ele>
        <time>2014-01-21T10:34:07Z</time>
      </trkpt>
      <trkpt lat="36.668610" lon="-4.979504">
        <ele>1237.81</ele>
        <time>2014-01-21T10:34:09Z</time>
      </trkpt>
      <trkpt lat="36.668611" lon="-4.979495">
        <ele>1237.46</ele>
        <time>2014-01-21T10:34:13Z</time>
      </trkpt>
      <trkpt lat="36.668616" lon="-4.979484">
        <ele>1237.02</ele>
        <time>2014-01-21T10:34:14Z</time>
      </trkpt>
      <trkpt lat="36.668654" lon="-4.979457">
        <ele>1237.45</ele>
        <time>2014-01-21T10:34:18Z</time>
      </trkpt>
      <trkpt lat="36.668659" lon="-4.979450">
        <ele>1237.30</ele>
        <time>2014-01-21T10:34:19Z</time>
      </trkpt>
      <trkpt lat="36.668693" lon="-4.979408">
        <ele>1236.47</ele>
        <time>2014-01-21T10:34:23Z</time>
      </trkpt>
      <trkpt lat="36.668721" lon="-4.979380">
        <ele>1236.44</ele>
        <time>2014-01-21T10:34:26Z</time>
      </trkpt>
      <trkpt lat="36.668737" lon="-4.979364">
        <ele>1236.25</ele>
        <time>2014-01-21T10:34:29Z</time>
      </trkpt>
      <trkpt lat="36.668750" lon="-4.979347">
        <ele>1235.81</ele>
        <time>2014-01-21T10:34:31Z</time>
      </trkpt>
      <trkpt lat="36.668757" lon="-4.979339">
        <ele>1235.81</ele>
        <time>2014-01-21T10:34:32Z</time>
      </trkpt>
      <trkpt lat="36.668771" lon="-4.979309">
        <ele>1234.88</ele>
        <time>2014-01-21T10:34:35Z</time>
      </trkpt>
      <trkpt lat="36.668780" lon="-4.979301">
        <ele>1234.87</ele>
        <time>2014-01-21T10:34:36Z</time>
      </trkpt>
      <trkpt lat="36.668797" lon="-4.979283">
        <ele>1234.63</ele>
        <time>2014-01-21T10:34:39Z</time>
      </trkpt>
      <trkpt lat="36.668824" lon="-4.979261">
        <ele>1234.43</ele>
        <time>2014-01-21T10:34:42Z</time>
      </trkpt>
      <trkpt lat="36.668863" lon="-4.979239">
        <ele>1234.82</ele>
        <time>2014-01-21T10:34:46Z</time>
      </trkpt>
      <trkpt lat="36.668870" lon="-4.979233">
        <ele>1234.88</ele>
        <time>2014-01-21T10:34:47Z</time>
      </trkpt>
      <trkpt lat="36.668902" lon="-4.979221">
        <ele>1235.45</ele>
        <time>2014-01-21T10:34:50Z</time>
      </trkpt>
      <trkpt lat="36.668919" lon="-4.979213">
        <ele>1235.63</ele>
        <time>2014-01-21T10:34:52Z</time>
      </trkpt>
      <trkpt lat="36.668928" lon="-4.979211">
        <ele>1235.85</ele>
        <time>2014-01-21T10:34:53Z</time>
      </trkpt>
      <trkpt lat="36.668961" lon="-4.979194">
        <ele>1236.21</ele>
        <time>2014-01-21T10:34:56Z</time>
      </trkpt>
      <trkpt lat="36.668993" lon="-4.979178">
        <ele>1236.61</ele>
        <time>2014-01-21T10:34:59Z</time>
      </trkpt>
      <trkpt lat="36.669013" lon="-4.979166">
        <ele>1236.70</ele>
        <time>2014-01-21T10:35:02Z</time>
      </trkpt>
      <trkpt lat="36.669036" lon="-4.979156">
        <ele>1236.84</ele>
        <time>2014-01-21T10:35:04Z</time>
      </trkpt>
      <trkpt lat="36.669047" lon="-4.979152">
        <ele>1237.02</ele>
        <time>2014-01-21T10:35:05Z</time>
      </trkpt>
      <trkpt lat="36.669120" lon="-4.979111">
        <ele>1237.30</ele>
        <time>2014-01-21T10:35:11Z</time>
      </trkpt>
      <trkpt lat="36.669138" lon="-4.979101">
        <ele>1237.24</ele>
        <time>2014-01-21T10:35:12Z</time>
      </trkpt>
      <trkpt lat="36.669193" lon="-4.979112">
        <ele>1238.05</ele>
        <time>2014-01-21T10:35:17Z</time>
      </trkpt>
      <trkpt lat="36.669197" lon="-4.979107">
        <ele>1237.62</ele>
        <time>2014-01-21T10:35:18Z</time>
      </trkpt>
      <trkpt lat="36.669225" lon="-4.979095">
        <ele>1236.27</ele>
        <time>2014-01-21T10:35:22Z</time>
      </trkpt>
      <trkpt lat="36.669233" lon="-4.979083">
        <ele>1235.47</ele>
        <time>2014-01-21T10:35:23Z</time>
      </trkpt>
      <trkpt lat="36.669307" lon="-4.979041">
        <ele>1230.81</ele>
        <time>2014-01-21T10:35:29Z</time>
      </trkpt>
      <trkpt lat="36.669341" lon="-4.979037">
        <ele>1229.81</ele>
        <time>2014-01-21T10:35:32Z</time>
      </trkpt>
      <trkpt lat="36.669382" lon="-4.979043">
        <ele>1229.05</ele>
        <time>2014-01-21T10:35:36Z</time>
      </trkpt>
      <trkpt lat="36.669466" lon="-4.979024">
        <ele>1225.65</ele>
        <time>2014-01-21T10:35:43Z</time>
      </trkpt>
      <trkpt lat="36.669461" lon="-4.979009">
        <ele>1225.06</ele>
        <time>2014-01-21T10:35:44Z</time>
      </trkpt>
      <trkpt lat="36.669463" lon="-4.978995">
        <ele>1224.02</ele>
        <time>2014-01-21T10:35:46Z</time>
      </trkpt>
      <trkpt lat="36.669463" lon="-4.978974">
        <ele>1222.87</ele>
        <time>2014-01-21T10:35:47Z</time>
      </trkpt>
      <trkpt lat="36.669463" lon="-4.978970">
        <ele>1222.63</ele>
        <time>2014-01-21T10:35:48Z</time>
      </trkpt>
      <trkpt lat="36.669480" lon="-4.978958">
        <ele>1221.43</ele>
        <time>2014-01-21T10:35:51Z</time>
      </trkpt>
      <trkpt lat="36.669528" lon="-4.978976">
        <ele>1221.26</ele>
        <time>2014-01-21T10:35:55Z</time>
      </trkpt>
      <trkpt lat="36.669538" lon="-4.978985">
        <ele>1221.61</ele>
        <time>2014-01-21T10:35:56Z</time>
      </trkpt>
      <trkpt lat="36.669562" lon="-4.978995">
        <ele>1221.41</ele>
        <time>2014-01-21T10:35:58Z</time>
      </trkpt>
      <trkpt lat="36.669582" lon="-4.978989">
        <ele>1220.63</ele>
        <time>2014-01-21T10:36:00Z</time>
      </trkpt>
      <trkpt lat="36.669592" lon="-4.978987">
        <ele>1220.22</ele>
        <time>2014-01-21T10:36:02Z</time>
      </trkpt>
      <trkpt lat="36.669599" lon="-4.978976">
        <ele>1219.49</ele>
        <time>2014-01-21T10:36:03Z</time>
      </trkpt>
      <trkpt lat="36.669604" lon="-4.978969">
        <ele>1218.88</ele>
        <time>2014-01-21T10:36:06Z</time>
      </trkpt>
      <trkpt lat="36.669607" lon="-4.978970">
        <ele>1218.88</ele>
        <time>2014-01-21T10:36:07Z</time>
      </trkpt>
      <trkpt lat="36.669625" lon="-4.978976">
        <ele>1218.62</ele>
        <time>2014-01-21T10:36:11Z</time>
      </trkpt>
      <trkpt lat="36.669638" lon="-4.978968">
        <ele>1217.88</ele>
        <time>2014-01-21T10:36:13Z</time>
      </trkpt>
      <trkpt lat="36.669664" lon="-4.978985">
        <ele>1218.23</ele>
        <time>2014-01-21T10:36:22Z</time>
      </trkpt>
      <trkpt lat="36.669673" lon="-4.978985">
        <ele>1218.03</ele>
        <time>2014-01-21T10:36:23Z</time>
      </trkpt>
      <trkpt lat="36.669685" lon="-4.978989">
        <ele>1217.81</ele>
        <time>2014-01-21T10:36:25Z</time>
      </trkpt>
      <trkpt lat="36.669692" lon="-4.979008">
        <ele>1218.83</ele>
        <time>2014-01-21T10:36:27Z</time>
      </trkpt>
      <trkpt lat="36.669706" lon="-4.979045">
        <ele>1220.69</ele>
        <time>2014-01-21T10:36:29Z</time>
      </trkpt>
      <trkpt lat="36.669712" lon="-4.979095">
        <ele>1223.45</ele>
        <time>2014-01-21T10:36:32Z</time>
      </trkpt>
      <trkpt lat="36.669715" lon="-4.979100">
        <ele>1223.69</ele>
        <time>2014-01-21T10:36:33Z</time>
      </trkpt>
      <trkpt lat="36.669727" lon="-4.979123">
        <ele>1224.70</ele>
        <time>2014-01-21T10:36:36Z</time>
      </trkpt>
      <trkpt lat="36.669730" lon="-4.979142">
        <ele>1225.89</ele>
        <time>2014-01-21T10:36:40Z</time>
      </trkpt>
      <trkpt lat="36.669711" lon="-4.979180">
        <ele>1228.63</ele>
        <time>2014-01-21T10:36:44Z</time>
      </trkpt>
      <trkpt lat="36.669714" lon="-4.979202">
        <ele>1230.27</ele>
        <time>2014-01-21T10:36:45Z</time>
      </trkpt>
      <trkpt lat="36.669734" lon="-4.979239">
        <ele>1232.44</ele>
        <time>2014-01-21T10:36:48Z</time>
      </trkpt>
      <trkpt lat="36.669741" lon="-4.979268">
        <ele>1234.43</ele>
        <time>2014-01-21T10:36:50Z</time>
      </trkpt>
      <trkpt lat="36.669779" lon="-4.979350">
        <ele>1240.01</ele>
        <time>2014-01-21T10:36:56Z</time>
      </trkpt>
      <trkpt lat="36.669807" lon="-4.979386">
        <ele>1242.25</ele>
        <time>2014-01-21T10:37:02Z</time>
      </trkpt>
      <trkpt lat="36.669819" lon="-4.979405">
        <ele>1243.49</ele>
        <time>2014-01-21T10:37:03Z</time>
      </trkpt>
      <trkpt lat="36.669836" lon="-4.979452">
        <ele>1247.03</ele>
        <time>2014-01-21T10:37:05Z</time>
      </trkpt>
      <trkpt lat="36.669865" lon="-4.979514">
        <ele>1251.67</ele>
        <time>2014-01-21T10:37:07Z</time>
      </trkpt>
      <trkpt lat="36.669925" lon="-4.979569">
        <ele>1255.45</ele>
        <time>2014-01-21T10:37:10Z</time>
      </trkpt>
      <trkpt lat="36.669939" lon="-4.979574">
        <ele>1255.90</ele>
        <time>2014-01-21T10:37:11Z</time>
      </trkpt>
      <trkpt lat="36.669956" lon="-4.979589">
        <ele>1256.82</ele>
        <time>2014-01-21T10:37:12Z</time>
      </trkpt>
      <trkpt lat="36.669996" lon="-4.979643">
        <ele>1261.21</ele>
        <time>2014-01-21T10:37:14Z</time>
      </trkpt>
      <trkpt lat="36.670019" lon="-4.979658">
        <ele>1262.04</ele>
        <time>2014-01-21T10:37:15Z</time>
      </trkpt>
      <trkpt lat="36.670075" lon="-4.979670">
        <ele>1261.81</ele>
        <time>2014-01-21T10:37:17Z</time>
      </trkpt>
      <trkpt lat="36.670084" lon="-4.979666">
        <ele>1261.21</ele>
        <time>2014-01-21T10:37:19Z</time>
      </trkpt>
      <trkpt lat="36.670087" lon="-4.979674">
        <ele>1261.88</ele>
        <time>2014-01-21T10:37:22Z</time>
      </trkpt>
      <trkpt lat="36.670106" lon="-4.979672">
        <ele>1261.29</ele>
        <time>2014-01-21T10:37:24Z</time>
      </trkpt>
      <trkpt lat="36.670119" lon="-4.979670">
        <ele>1260.68</ele>
        <time>2014-01-21T10:37:26Z</time>
      </trkpt>
      <trkpt lat="36.670126" lon="-4.979631">
        <ele>1257.04</ele>
        <time>2014-01-21T10:37:34Z</time>
      </trkpt>
      <trkpt lat="36.670126" lon="-4.979626">
        <ele>1256.81</ele>
        <time>2014-01-21T10:37:35Z</time>
      </trkpt>
      <trkpt lat="36.670126" lon="-4.979618">
        <ele>1256.04</ele>
        <time>2014-01-21T10:37:37Z</time>
      </trkpt>
      <trkpt lat="36.670137" lon="-4.979614">
        <ele>1255.47</ele>
        <time>2014-01-21T10:37:40Z</time>
      </trkpt>
      <trkpt lat="36.670152" lon="-4.979602">
        <ele>1254.02</ele>
        <time>2014-01-21T10:37:42Z</time>
      </trkpt>
      <trkpt lat="36.670175" lon="-4.979617">
        <ele>1254.81</ele>
        <time>2014-01-21T10:37:44Z</time>
      </trkpt>
      <trkpt lat="36.670198" lon="-4.979614">
        <ele>1253.83</ele>
        <time>2014-01-21T10:37:46Z</time>
      </trkpt>
      <trkpt lat="36.670234" lon="-4.979619">
        <ele>1253.63</ele>
        <time>2014-01-21T10:37:50Z</time>
      </trkpt>
      <trkpt lat="36.670251" lon="-4.979623">
        <ele>1253.44</ele>
        <time>2014-01-21T10:37:51Z</time>
      </trkpt>
      <trkpt lat="36.670261" lon="-4.979627">
        <ele>1253.69</ele>
        <time>2014-01-21T10:37:52Z</time>
      </trkpt>
      <trkpt lat="36.670268" lon="-4.979631">
        <ele>1253.82</ele>
        <time>2014-01-21T10:37:54Z</time>
      </trkpt>
      <trkpt lat="36.670304" lon="-4.979658">
        <ele>1255.24</ele>
        <time>2014-01-21T10:37:59Z</time>
      </trkpt>
      <trkpt lat="36.670345" lon="-4.979641">
        <ele>1252.84</ele>
        <time>2014-01-21T10:38:03Z</time>
      </trkpt>
      <trkpt lat="36.670433" lon="-4.979566">
        <ele>1244.05</ele>
        <time>2014-01-21T10:38:07Z</time>
      </trkpt>
      <trkpt lat="36.670472" lon="-4.979528">
        <ele>1239.85</ele>
        <time>2014-01-21T10:38:10Z</time>
      </trkpt>
      <trkpt lat="36.670509" lon="-4.979528">
        <ele>1238.82</ele>
        <time>2014-01-21T10:38:48Z</time>
      </trkpt>
      <trkpt lat="36.670574" lon="-4.979504">
        <ele>1235.29</ele>
        <time>2014-01-21T10:38:53Z</time>
      </trkpt>
      <trkpt lat="36.670583" lon="-4.979504">
        <ele>1235.09</ele>
        <time>2014-01-21T10:38:54Z</time>
      </trkpt>
      <trkpt lat="36.670607" lon="-4.979506">
        <ele>1234.67</ele>
        <time>2014-01-21T10:38:56Z</time>
      </trkpt>
      <trkpt lat="36.670626" lon="-4.979504">
        <ele>1234.10</ele>
        <time>2014-01-21T10:38:58Z</time>
      </trkpt>
      <trkpt lat="36.670626" lon="-4.979504">
        <ele>1234.05</ele>
        <time>2014-01-21T10:38:59Z</time>
      </trkpt>
      <trkpt lat="36.670646" lon="-4.979499">
        <ele>1233.05</ele>
        <time>2014-01-21T10:39:02Z</time>
      </trkpt>
      <trkpt lat="36.670653" lon="-4.979497">
        <ele>1232.62</ele>
        <time>2014-01-21T10:39:04Z</time>
      </trkpt>
      <trkpt lat="36.670655" lon="-4.979492">
        <ele>1232.23</ele>
        <time>2014-01-21T10:39:06Z</time>
      </trkpt>
      <trkpt lat="36.670673" lon="-4.979491">
        <ele>1231.61</ele>
        <time>2014-01-21T10:39:09Z</time>
      </trkpt>
      <trkpt lat="36.670680" lon="-4.979490">
        <ele>1231.43</ele>
        <time>2014-01-21T10:39:10Z</time>
      </trkpt>
      <trkpt lat="36.670692" lon="-4.979487">
        <ele>1230.86</ele>
        <time>2014-01-21T10:39:11Z</time>
      </trkpt>
      <trkpt lat="36.670724" lon="-4.979483">
        <ele>1229.85</ele>
        <time>2014-01-21T10:39:13Z</time>
      </trkpt>
      <trkpt lat="36.670761" lon="-4.979497">
        <ele>1230.23</ele>
        <time>2014-01-21T10:39:16Z</time>
      </trkpt>
      <trkpt lat="36.670780" lon="-4.979516">
        <ele>1231.42</ele>
        <time>2014-01-21T10:39:18Z</time>
      </trkpt>
      <trkpt lat="36.670795" lon="-4.979526">
        <ele>1231.83</ele>
        <time>2014-01-21T10:39:21Z</time>
      </trkpt>
      <trkpt lat="36.670859" lon="-4.979538">
        <ele>1231.85</ele>
        <time>2014-01-21T10:39:24Z</time>
      </trkpt>
      <trkpt lat="36.670916" lon="-4.979569">
        <ele>1234.28</ele>
        <time>2014-01-21T10:39:27Z</time>
      </trkpt>
      <trkpt lat="36.670927" lon="-4.979574">
        <ele>1234.43</ele>
        <time>2014-01-21T10:39:28Z</time>
      </trkpt>
      <trkpt lat="36.670937" lon="-4.979581">
        <ele>1235.02</ele>
        <time>2014-01-21T10:39:29Z</time>
      </trkpt>
      <trkpt lat="36.670949" lon="-4.979590">
        <ele>1235.61</ele>
        <time>2014-01-21T10:39:31Z</time>
      </trkpt>
      <trkpt lat="36.670965" lon="-4.979617">
        <ele>1237.86</ele>
        <time>2014-01-21T10:39:34Z</time>
      </trkpt>
      <trkpt lat="36.670975" lon="-4.979630">
        <ele>1238.90</ele>
        <time>2014-01-21T10:39:35Z</time>
      </trkpt>
      <trkpt lat="36.670995" lon="-4.979638">
        <ele>1239.46</ele>
        <time>2014-01-21T10:39:38Z</time>
      </trkpt>
      <trkpt lat="36.670999" lon="-4.979643">
        <ele>1239.88</ele>
        <time>2014-01-21T10:39:39Z</time>
      </trkpt>
      <trkpt lat="36.671023" lon="-4.979664">
        <ele>1241.42</ele>
        <time>2014-01-21T10:39:43Z</time>
      </trkpt>
      <trkpt lat="36.671030" lon="-4.979669">
        <ele>1241.62</ele>
        <time>2014-01-21T10:39:44Z</time>
      </trkpt>
      <trkpt lat="36.671042" lon="-4.979684">
        <ele>1242.90</ele>
        <time>2014-01-21T10:39:47Z</time>
      </trkpt>
      <trkpt lat="36.671056" lon="-4.979701">
        <ele>1244.05</ele>
        <time>2014-01-21T10:39:49Z</time>
      </trkpt>
      <trkpt lat="36.671072" lon="-4.979711">
        <ele>1244.80</ele>
        <time>2014-01-21T10:39:51Z</time>
      </trkpt>
      <trkpt lat="36.671084" lon="-4.979712">
        <ele>1244.61</ele>
        <time>2014-01-21T10:39:54Z</time>
      </trkpt>
      <trkpt lat="36.671110" lon="-4.979725">
        <ele>1245.61</ele>
        <time>2014-01-21T10:39:58Z</time>
      </trkpt>
      <trkpt lat="36.671122" lon="-4.979733">
        <ele>1246.04</ele>
        <time>2014-01-21T10:40:00Z</time>
      </trkpt>
      <trkpt lat="36.671131" lon="-4.979735">
        <ele>1246.07</ele>
        <time>2014-01-21T10:40:01Z</time>
      </trkpt>
      <trkpt lat="36.671147" lon="-4.979752">
        <ele>1247.23</ele>
        <time>2014-01-21T10:40:04Z</time>
      </trkpt>
      <trkpt lat="36.671158" lon="-4.979759">
        <ele>1247.68</ele>
        <time>2014-01-21T10:40:05Z</time>
      </trkpt>
      <trkpt lat="36.671188" lon="-4.979758">
        <ele>1247.22</ele>
        <time>2014-01-21T10:40:09Z</time>
      </trkpt>
      <trkpt lat="36.671199" lon="-4.979756">
        <ele>1247.08</ele>
        <time>2014-01-21T10:40:10Z</time>
      </trkpt>
      <trkpt lat="36.671226" lon="-4.979759">
        <ele>1246.89</ele>
        <time>2014-01-21T10:40:15Z</time>
      </trkpt>
      <trkpt lat="36.671234" lon="-4.979764">
        <ele>1247.25</ele>
        <time>2014-01-21T10:40:16Z</time>
      </trkpt>
      <trkpt lat="36.671294" lon="-4.979753">
        <ele>1245.65</ele>
        <time>2014-01-21T10:40:21Z</time>
      </trkpt>
      <trkpt lat="36.671323" lon="-4.979736">
        <ele>1243.81</ele>
        <time>2014-01-21T10:40:23Z</time>
      </trkpt>
      <trkpt lat="36.671356" lon="-4.979698">
        <ele>1240.61</ele>
        <time>2014-01-21T10:40:26Z</time>
      </trkpt>
      <trkpt lat="36.671368" lon="-4.979680">
        <ele>1239.23</ele>
        <time>2014-01-21T10:40:27Z</time>
      </trkpt>
      <trkpt lat="36.671424" lon="-4.979612">
        <ele>1233.63</ele>
        <time>2014-01-21T10:40:33Z</time>
      </trkpt>
      <trkpt lat="36.671457" lon="-4.979586">
        <ele>1231.49</ele>
        <time>2014-01-21T10:40:36Z</time>
      </trkpt>
      <trkpt lat="36.671486" lon="-4.979570">
        <ele>1230.09</ele>
        <time>2014-01-21T10:40:39Z</time>
      </trkpt>
      <trkpt lat="36.671497" lon="-4.979571">
        <ele>1230.06</ele>
        <time>2014-01-21T10:40:41Z</time>
      </trkpt>
      <trkpt lat="36.671517" lon="-4.979573">
        <ele>1229.84</ele>
        <time>2014-01-21T10:40:44Z</time>
      </trkpt>
      <trkpt lat="36.671561" lon="-4.979588">
        <ele>1230.68</ele>
        <time>2014-01-21T10:40:49Z</time>
      </trkpt>
      <trkpt lat="36.671580" lon="-4.979597">
        <ele>1231.23</ele>
        <time>2014-01-21T10:40:51Z</time>
      </trkpt>
      <trkpt lat="36.671615" lon="-4.979614">
        <ele>1232.07</ele>
        <time>2014-01-21T10:40:54Z</time>
      </trkpt>
      <trkpt lat="36.671625" lon="-4.979619">
        <ele>1232.21</ele>
        <time>2014-01-21T10:40:55Z</time>
      </trkpt>
      <trkpt lat="36.671636" lon="-4.979624">
        <ele>1232.61</ele>
        <time>2014-01-21T10:40:56Z</time>
      </trkpt>
      <trkpt lat="36.671691" lon="-4.979649">
        <ele>1234.46</ele>
        <time>2014-01-21T10:41:02Z</time>
      </trkpt>
      <trkpt lat="36.671751" lon="-4.979676">
        <ele>1237.49</ele>
        <time>2014-01-21T10:41:08Z</time>
      </trkpt>
      <trkpt lat="36.671769" lon="-4.979686">
        <ele>1238.42</ele>
        <time>2014-01-21T10:41:10Z</time>
      </trkpt>
      <trkpt lat="36.671812" lon="-4.979717">
        <ele>1241.29</ele>
        <time>2014-01-21T10:41:14Z</time>
      </trkpt>
      <trkpt lat="36.671854" lon="-4.979757">
        <ele>1244.46</ele>
        <time>2014-01-21T10:41:19Z</time>
      </trkpt>
      <trkpt lat="36.671885" lon="-4.979770">
        <ele>1245.89</ele>
        <time>2014-01-21T10:41:22Z</time>
      </trkpt>
      <trkpt lat="36.671894" lon="-4.979768">
        <ele>1245.88</ele>
        <time>2014-01-21T10:41:23Z</time>
      </trkpt>
      <trkpt lat="36.671933" lon="-4.979683">
        <ele>1241.24</ele>
        <time>2014-01-21T10:41:28Z</time>
      </trkpt>
      <trkpt lat="36.671945" lon="-4.979674">
        <ele>1240.85</ele>
        <time>2014-01-21T10:41:31Z</time>
      </trkpt>
      <trkpt lat="36.672000" lon="-4.979649">
        <ele>1240.21</ele>
        <time>2014-01-21T10:41:37Z</time>
      </trkpt>
      <trkpt lat="36.672060" lon="-4.979609">
        <ele>1239.01</ele>
        <time>2014-01-21T10:41:43Z</time>
      </trkpt>
      <trkpt lat="36.672073" lon="-4.979599">
        <ele>1238.83</ele>
        <time>2014-01-21T10:41:44Z</time>
      </trkpt>
      <trkpt lat="36.672121" lon="-4.979572">
        <ele>1238.24</ele>
        <time>2014-01-21T10:41:48Z</time>
      </trkpt>
      <trkpt lat="36.672133" lon="-4.979570">
        <ele>1238.21</ele>
        <time>2014-01-21T10:41:49Z</time>
      </trkpt>
      <trkpt lat="36.672142" lon="-4.979565">
        <ele>1238.28</ele>
        <time>2014-01-21T10:41:50Z</time>
      </trkpt>
      <trkpt lat="36.672191" lon="-4.979550">
        <ele>1238.41</ele>
        <time>2014-01-21T10:41:54Z</time>
      </trkpt>
      <trkpt lat="36.672248" lon="-4.979535">
        <ele>1238.85</ele>
        <time>2014-01-21T10:41:59Z</time>
      </trkpt>
      <trkpt lat="36.672264" lon="-4.979530">
        <ele>1238.88</ele>
        <time>2014-01-21T10:42:01Z</time>
      </trkpt>
      <trkpt lat="36.672281" lon="-4.979518">
        <ele>1238.45</ele>
        <time>2014-01-21T10:42:03Z</time>
      </trkpt>
      <trkpt lat="36.672292" lon="-4.979505">
        <ele>1238.00</ele>
        <time>2014-01-21T10:42:05Z</time>
      </trkpt>
      <trkpt lat="36.672310" lon="-4.979494">
        <ele>1237.81</ele>
        <time>2014-01-21T10:42:07Z</time>
      </trkpt>
      <trkpt lat="36.672366" lon="-4.979440">
        <ele>1236.41</ele>
        <time>2014-01-21T10:42:12Z</time>
      </trkpt>
      <trkpt lat="36.672379" lon="-4.979431">
        <ele>1236.01</ele>
        <time>2014-01-21T10:42:13Z</time>
      </trkpt>
      <trkpt lat="36.672408" lon="-4.979409">
        <ele>1235.85</ele>
        <time>2014-01-21T10:42:16Z</time>
      </trkpt>
      <trkpt lat="36.672418" lon="-4.979407">
        <ele>1235.83</ele>
        <time>2014-01-21T10:42:17Z</time>
      </trkpt>
      <trkpt lat="36.672425" lon="-4.979401">
        <ele>1235.82</ele>
        <time>2014-01-21T10:42:18Z</time>
      </trkpt>
      <trkpt lat="36.672443" lon="-4.979393">
        <ele>1235.88</ele>
        <time>2014-01-21T10:42:20Z</time>
      </trkpt>
      <trkpt lat="36.672457" lon="-4.979392">
        <ele>1236.05</ele>
        <time>2014-01-21T10:42:23Z</time>
      </trkpt>
      <trkpt lat="36.672468" lon="-4.979393">
        <ele>1236.41</ele>
        <time>2014-01-21T10:42:39Z</time>
      </trkpt>
      <trkpt lat="36.672475" lon="-4.979400">
        <ele>1236.89</ele>
        <time>2014-01-21T10:42:51Z</time>
      </trkpt>
      <trkpt lat="36.672495" lon="-4.979403">
        <ele>1237.68</ele>
        <time>2014-01-21T10:42:56Z</time>
      </trkpt>
      <trkpt lat="36.672508" lon="-4.979407">
        <ele>1238.08</ele>
        <time>2014-01-21T10:42:57Z</time>
      </trkpt>
      <trkpt lat="36.672538" lon="-4.979422">
        <ele>1239.41</ele>
        <time>2014-01-21T10:43:01Z</time>
      </trkpt>
      <trkpt lat="36.672545" lon="-4.979420">
        <ele>1239.50</ele>
        <time>2014-01-21T10:43:02Z</time>
      </trkpt>
      <trkpt lat="36.672585" lon="-4.979420">
        <ele>1240.26</ele>
        <time>2014-01-21T10:43:06Z</time>
      </trkpt>
      <trkpt lat="36.672655" lon="-4.979458">
        <ele>1243.21</ele>
        <time>2014-01-21T10:43:13Z</time>
      </trkpt>
      <trkpt lat="36.672677" lon="-4.979471">
        <ele>1244.22</ele>
        <time>2014-01-21T10:43:15Z</time>
      </trkpt>
      <trkpt lat="36.672725" lon="-4.979513">
        <ele>1246.61</ele>
        <time>2014-01-21T10:43:20Z</time>
      </trkpt>
      <trkpt lat="36.672756" lon="-4.979551">
        <ele>1248.65</ele>
        <time>2014-01-21T10:43:24Z</time>
      </trkpt>
      <trkpt lat="36.672762" lon="-4.979558">
        <ele>1248.86</ele>
        <time>2014-01-21T10:43:25Z</time>
      </trkpt>
      <trkpt lat="36.672768" lon="-4.979564">
        <ele>1249.22</ele>
        <time>2014-01-21T10:43:26Z</time>
      </trkpt>
      <trkpt lat="36.672779" lon="-4.979573">
        <ele>1249.66</ele>
        <time>2014-01-21T10:43:27Z</time>
      </trkpt>
      <trkpt lat="36.672815" lon="-4.979611">
        <ele>1251.49</ele>
        <time>2014-01-21T10:43:31Z</time>
      </trkpt>
      <trkpt lat="36.672852" lon="-4.979651">
        <ele>1253.29</ele>
        <time>2014-01-21T10:43:35Z</time>
      </trkpt>
      <trkpt lat="36.672874" lon="-4.979681">
        <ele>1254.30</ele>
        <time>2014-01-21T10:43:38Z</time>
      </trkpt>
      <trkpt lat="36.672911" lon="-4.979718">
        <ele>1255.65</ele>
        <time>2014-01-21T10:43:42Z</time>
      </trkpt>
      <trkpt lat="36.672922" lon="-4.979727">
        <ele>1256.05</ele>
        <time>2014-01-21T10:43:43Z</time>
      </trkpt>
      <trkpt lat="36.672947" lon="-4.979745">
        <ele>1256.61</ele>
        <time>2014-01-21T10:43:45Z</time>
      </trkpt>
      <trkpt lat="36.672965" lon="-4.979755">
        <ele>1257.01</ele>
        <time>2014-01-21T10:43:47Z</time>
      </trkpt>
      <trkpt lat="36.672991" lon="-4.979781">
        <ele>1257.82</ele>
        <time>2014-01-21T10:43:50Z</time>
      </trkpt>
      <trkpt lat="36.672998" lon="-4.979792">
        <ele>1258.24</ele>
        <time>2014-01-21T10:43:51Z</time>
      </trkpt>
      <trkpt lat="36.673006" lon="-4.979802">
        <ele>1258.45</ele>
        <time>2014-01-21T10:43:52Z</time>
      </trkpt>
      <trkpt lat="36.673058" lon="-4.979837">
        <ele>1259.27</ele>
        <time>2014-01-21T10:43:57Z</time>
      </trkpt>
      <trkpt lat="36.673123" lon="-4.979873">
        <ele>1260.02</ele>
        <time>2014-01-21T10:44:03Z</time>
      </trkpt>
      <trkpt lat="36.673193" lon="-4.979912">
        <ele>1260.68</ele>
        <time>2014-01-21T10:44:09Z</time>
      </trkpt>
      <trkpt lat="36.673202" lon="-4.979913">
        <ele>1260.63</ele>
        <time>2014-01-21T10:44:10Z</time>
      </trkpt>
      <trkpt lat="36.673259" lon="-4.979919">
        <ele>1260.47</ele>
        <time>2014-01-21T10:44:14Z</time>
      </trkpt>
      <trkpt lat="36.673267" lon="-4.979920">
        <ele>1260.43</ele>
        <time>2014-01-21T10:44:15Z</time>
      </trkpt>
      <trkpt lat="36.673292" lon="-4.979917">
        <ele>1260.42</ele>
        <time>2014-01-21T10:44:18Z</time>
      </trkpt>
      <trkpt lat="36.673329" lon="-4.979916">
        <ele>1260.21</ele>
        <time>2014-01-21T10:44:21Z</time>
      </trkpt>
      <trkpt lat="36.673342" lon="-4.979922">
        <ele>1260.64</ele>
        <time>2014-01-21T10:44:22Z</time>
      </trkpt>
      <trkpt lat="36.673352" lon="-4.979932">
        <ele>1261.06</ele>
        <time>2014-01-21T10:44:23Z</time>
      </trkpt>
      <trkpt lat="36.673380" lon="-4.979959">
        <ele>1262.04</ele>
        <time>2014-01-21T10:44:26Z</time>
      </trkpt>
      <trkpt lat="36.673392" lon="-4.979976">
        <ele>1262.69</ele>
        <time>2014-01-21T10:44:31Z</time>
      </trkpt>
      <trkpt lat="36.673395" lon="-4.979987">
        <ele>1262.85</ele>
        <time>2014-01-21T10:44:36Z</time>
      </trkpt>
      <trkpt lat="36.673402" lon="-4.979989">
        <ele>1263.03</ele>
        <time>2014-01-21T10:44:37Z</time>
      </trkpt>
      <trkpt lat="36.673456" lon="-4.980036">
        <ele>1266.02</ele>
        <time>2014-01-21T10:44:43Z</time>
      </trkpt>
      <trkpt lat="36.673472" lon="-4.980063">
        <ele>1267.27</ele>
        <time>2014-01-21T10:44:45Z</time>
      </trkpt>
      <trkpt lat="36.673487" lon="-4.980092">
        <ele>1268.66</ele>
        <time>2014-01-21T10:44:47Z</time>
      </trkpt>
      <trkpt lat="36.673510" lon="-4.980119">
        <ele>1270.02</ele>
        <time>2014-01-21T10:44:49Z</time>
      </trkpt>
      <trkpt lat="36.673525" lon="-4.980147">
        <ele>1271.41</ele>
        <time>2014-01-21T10:44:51Z</time>
      </trkpt>
      <trkpt lat="36.673543" lon="-4.980184">
        <ele>1272.82</ele>
        <time>2014-01-21T10:44:53Z</time>
      </trkpt>
      <trkpt lat="36.673554" lon="-4.980208">
        <ele>1273.84</ele>
        <time>2014-01-21T10:44:54Z</time>
      </trkpt>
      <trkpt lat="36.673583" lon="-4.980270">
        <ele>1276.25</ele>
        <time>2014-01-21T10:44:57Z</time>
      </trkpt>
      <trkpt lat="36.673609" lon="-4.980317">
        <ele>1278.09</ele>
        <time>2014-01-21T10:44:59Z</time>
      </trkpt>
      <trkpt lat="36.673647" lon="-4.980381">
        <ele>1280.28</ele>
        <time>2014-01-21T10:45:03Z</time>
      </trkpt>
      <trkpt lat="36.673655" lon="-4.980385">
        <ele>1280.50</ele>
        <time>2014-01-21T10:45:07Z</time>
      </trkpt>
      <trkpt lat="36.673663" lon="-4.980389">
        <ele>1280.69</ele>
        <time>2014-01-21T10:45:09Z</time>
      </trkpt>
      <trkpt lat="36.673701" lon="-4.980427">
        <ele>1282.04</ele>
        <time>2014-01-21T10:45:13Z</time>
      </trkpt>
      <trkpt lat="36.673738" lon="-4.980472">
        <ele>1283.43</ele>
        <time>2014-01-21T10:45:18Z</time>
      </trkpt>
      <trkpt lat="36.673759" lon="-4.980518">
        <ele>1284.41</ele>
        <time>2014-01-21T10:45:22Z</time>
      </trkpt>
      <trkpt lat="36.673770" lon="-4.980555">
        <ele>1285.29</ele>
        <time>2014-01-21T10:45:25Z</time>
      </trkpt>
      <trkpt lat="36.673777" lon="-4.980577">
        <ele>1285.83</ele>
        <time>2014-01-21T10:45:27Z</time>
      </trkpt>
      <trkpt lat="36.673791" lon="-4.980594">
        <ele>1286.26</ele>
        <time>2014-01-21T10:45:29Z</time>
      </trkpt>
      <trkpt lat="36.673798" lon="-4.980604">
        <ele>1286.43</ele>
        <time>2014-01-21T10:45:30Z</time>
      </trkpt>
      <trkpt lat="36.673810" lon="-4.980632">
        <ele>1286.82</ele>
        <time>2014-01-21T10:45:33Z</time>
      </trkpt>
      <trkpt lat="36.673836" lon="-4.980665">
        <ele>1287.42</ele>
        <time>2014-01-21T10:45:37Z</time>
      </trkpt>
      <trkpt lat="36.673846" lon="-4.980687">
        <ele>1287.82</ele>
        <time>2014-01-21T10:45:39Z</time>
      </trkpt>
      <trkpt lat="36.673848" lon="-4.980700">
        <ele>1288.02</ele>
        <time>2014-01-21T10:45:40Z</time>
      </trkpt>
      <trkpt lat="36.673864" lon="-4.980718">
        <ele>1288.46</ele>
        <time>2014-01-21T10:45:42Z</time>
      </trkpt>
      <trkpt lat="36.673876" lon="-4.980726">
        <ele>1288.41</ele>
        <time>2014-01-21T10:45:44Z</time>
      </trkpt>
      <trkpt lat="36.673879" lon="-4.980714">
        <ele>1288.21</ele>
        <time>2014-01-21T10:45:48Z</time>
      </trkpt>
      <trkpt lat="36.673907" lon="-4.980689">
        <ele>1287.84</ele>
        <time>2014-01-21T10:45:52Z</time>
      </trkpt>
      <trkpt lat="36.673965" lon="-4.980707">
        <ele>1288.05</ele>
        <time>2014-01-21T10:45:56Z</time>
      </trkpt>
      <trkpt lat="36.673995" lon="-4.980696">
        <ele>1287.81</ele>
        <time>2014-01-21T10:46:00Z</time>
      </trkpt>
      <trkpt lat="36.674008" lon="-4.980690">
        <ele>1287.89</ele>
        <time>2014-01-21T10:46:02Z</time>
      </trkpt>
      <trkpt lat="36.674022" lon="-4.980693">
        <ele>1287.88</ele>
        <time>2014-01-21T10:46:04Z</time>
      </trkpt>
      <trkpt lat="36.674028" lon="-4.980701">
        <ele>1287.87</ele>
        <time>2014-01-21T10:46:05Z</time>
      </trkpt>
      <trkpt lat="36.674050" lon="-4.980731">
        <ele>1288.08</ele>
        <time>2014-01-21T10:46:08Z</time>
      </trkpt>
      <trkpt lat="36.674063" lon="-4.980701">
        <ele>1287.81</ele>
        <time>2014-01-21T10:46:10Z</time>
      </trkpt>
      <trkpt lat="36.674056" lon="-4.980680">
        <ele>1287.63</ele>
        <time>2014-01-21T10:46:12Z</time>
      </trkpt>
      <trkpt lat="36.674051" lon="-4.980669">
        <ele>1287.61</ele>
        <time>2014-01-21T10:46:13Z</time>
      </trkpt>
      <trkpt lat="36.674044" lon="-4.980657">
        <ele>1287.45</ele>
        <time>2014-01-21T10:46:14Z</time>
      </trkpt>
      <trkpt lat="36.674036" lon="-4.980647">
        <ele>1287.49</ele>
        <time>2014-01-21T10:46:15Z</time>
      </trkpt>
      <trkpt lat="36.674031" lon="-4.980639">
        <ele>1287.42</ele>
        <time>2014-01-21T10:46:16Z</time>
      </trkpt>
      <trkpt lat="36.674018" lon="-4.980624">
        <ele>1287.27</ele>
        <time>2014-01-21T10:46:18Z</time>
      </trkpt>
      <trkpt lat="36.674009" lon="-4.980606">
        <ele>1287.10</ele>
        <time>2014-01-21T10:46:20Z</time>
      </trkpt>
      <trkpt lat="36.674001" lon="-4.980588">
        <ele>1286.89</ele>
        <time>2014-01-21T10:46:22Z</time>
      </trkpt>
      <trkpt lat="36.673979" lon="-4.980526">
        <ele>1286.05</ele>
        <time>2014-01-21T10:46:28Z</time>
      </trkpt>
      <trkpt lat="36.673982" lon="-4.980515">
        <ele>1286.08</ele>
        <time>2014-01-21T10:46:29Z</time>
      </trkpt>
      <trkpt lat="36.673991" lon="-4.980504">
        <ele>1285.82</ele>
        <time>2014-01-21T10:46:33Z</time>
      </trkpt>
      <trkpt lat="36.673994" lon="-4.980429">
        <ele>1285.22</ele>
        <time>2014-01-21T10:46:46Z</time>
      </trkpt>
      <trkpt lat="36.673994" lon="-4.980417">
        <ele>1285.05</ele>
        <time>2014-01-21T10:46:47Z</time>
      </trkpt>
      <trkpt lat="36.673992" lon="-4.980407">
        <ele>1285.07</ele>
        <time>2014-01-21T10:46:48Z</time>
      </trkpt>
      <trkpt lat="36.673990" lon="-4.980394">
        <ele>1284.85</ele>
        <time>2014-01-21T10:46:49Z</time>
      </trkpt>
      <trkpt lat="36.673977" lon="-4.980332">
        <ele>1284.02</ele>
        <time>2014-01-21T10:46:54Z</time>
      </trkpt>
      <trkpt lat="36.673974" lon="-4.980321">
        <ele>1283.88</ele>
        <time>2014-01-21T10:46:55Z</time>
      </trkpt>
      <trkpt lat="36.673973" lon="-4.980280">
        <ele>1283.25</ele>
        <time>2014-01-21T10:46:58Z</time>
      </trkpt>
      <trkpt lat="36.673969" lon="-4.980255">
        <ele>1283.06</ele>
        <time>2014-01-21T10:47:00Z</time>
      </trkpt>
      <trkpt lat="36.673961" lon="-4.980216">
        <ele>1282.45</ele>
        <time>2014-01-21T10:47:03Z</time>
      </trkpt>
      <trkpt lat="36.673944" lon="-4.980170">
        <ele>1281.42</ele>
        <time>2014-01-21T10:47:06Z</time>
      </trkpt>
      <trkpt lat="36.673940" lon="-4.980152">
        <ele>1281.21</ele>
        <time>2014-01-21T10:47:07Z</time>
      </trkpt>
      <trkpt lat="36.673915" lon="-4.980083">
        <ele>1279.62</ele>
        <time>2014-01-21T10:47:11Z</time>
      </trkpt>
      <trkpt lat="36.673893" lon="-4.980014">
        <ele>1278.05</ele>
        <time>2014-01-21T10:47:16Z</time>
      </trkpt>
      <trkpt lat="36.673891" lon="-4.979998">
        <ele>1277.89</ele>
        <time>2014-01-21T10:47:17Z</time>
      </trkpt>
      <trkpt lat="36.673869" lon="-4.979925">
        <ele>1278.22</ele>
        <time>2014-01-21T10:47:22Z</time>
      </trkpt>
      <trkpt lat="36.673856" lon="-4.979845">
        <ele>1278.86</ele>
        <time>2014-01-21T10:47:27Z</time>
      </trkpt>
      <trkpt lat="36.673842" lon="-4.979774">
        <ele>1279.24</ele>
        <time>2014-01-21T10:47:32Z</time>
      </trkpt>
      <trkpt lat="36.673861" lon="-4.979788">
        <ele>1279.89</ele>
        <time>2014-01-21T10:47:35Z</time>
      </trkpt>
      <trkpt lat="36.673874" lon="-4.979812">
        <ele>1280.01</ele>
        <time>2014-01-21T10:47:37Z</time>
      </trkpt>
      <trkpt lat="36.673879" lon="-4.979823">
        <ele>1280.01</ele>
        <time>2014-01-21T10:47:41Z</time>
      </trkpt>
      <trkpt lat="36.673887" lon="-4.979836">
        <ele>1280.09</ele>
        <time>2014-01-21T10:47:50Z</time>
      </trkpt>
      <trkpt lat="36.673893" lon="-4.979847">
        <ele>1280.26</ele>
        <time>2014-01-21T10:47:55Z</time>
      </trkpt>
      <trkpt lat="36.673900" lon="-4.979854">
        <ele>1280.43</ele>
        <time>2014-01-21T10:47:56Z</time>
      </trkpt>
      <trkpt lat="36.673916" lon="-4.979875">
        <ele>1280.62</ele>
        <time>2014-01-21T10:47:59Z</time>
      </trkpt>
      <trkpt lat="36.673939" lon="-4.979902">
        <ele>1280.88</ele>
        <time>2014-01-21T10:48:02Z</time>
      </trkpt>
      <trkpt lat="36.673946" lon="-4.979911">
        <ele>1281.03</ele>
        <time>2014-01-21T10:48:03Z</time>
      </trkpt>
      <trkpt lat="36.673974" lon="-4.979955">
        <ele>1281.02</ele>
        <time>2014-01-21T10:48:07Z</time>
      </trkpt>
      <trkpt lat="36.673987" lon="-4.979980">
        <ele>1281.08</ele>
        <time>2014-01-21T10:48:09Z</time>
      </trkpt>
      <trkpt lat="36.673998" lon="-4.980001">
        <ele>1281.01</ele>
        <time>2014-01-21T10:48:11Z</time>
      </trkpt>
      <trkpt lat="36.674005" lon="-4.980017">
        <ele>1281.41</ele>
        <time>2014-01-21T10:48:13Z</time>
      </trkpt>
      <trkpt lat="36.674018" lon="-4.980035">
        <ele>1281.82</ele>
        <time>2014-01-21T10:48:15Z</time>
      </trkpt>
      <trkpt lat="36.674052" lon="-4.980059">
        <ele>1283.05</ele>
        <time>2014-01-21T10:48:19Z</time>
      </trkpt>
      <trkpt lat="36.674065" lon="-4.980070">
        <ele>1283.43</ele>
        <time>2014-01-21T10:48:21Z</time>
      </trkpt>
      <trkpt lat="36.674079" lon="-4.980095">
        <ele>1284.06</ele>
        <time>2014-01-21T10:48:24Z</time>
      </trkpt>
      <trkpt lat="36.674085" lon="-4.980099">
        <ele>1284.24</ele>
        <time>2014-01-21T10:48:25Z</time>
      </trkpt>
      <trkpt lat="36.674097" lon="-4.980117">
        <ele>1284.68</ele>
        <time>2014-01-21T10:48:27Z</time>
      </trkpt>
      <trkpt lat="36.674105" lon="-4.980126">
        <ele>1284.84</ele>
        <time>2014-01-21T10:48:28Z</time>
      </trkpt>
      <trkpt lat="36.674125" lon="-4.980142">
        <ele>1285.47</ele>
        <time>2014-01-21T10:48:30Z</time>
      </trkpt>
      <trkpt lat="36.674132" lon="-4.980149">
        <ele>1285.64</ele>
        <time>2014-01-21T10:48:31Z</time>
      </trkpt>
      <trkpt lat="36.674146" lon="-4.980158">
        <ele>1286.03</ele>
        <time>2014-01-21T10:48:33Z</time>
      </trkpt>
      <trkpt lat="36.674157" lon="-4.980170">
        <ele>1286.21</ele>
        <time>2014-01-21T10:48:35Z</time>
      </trkpt>
      <trkpt lat="36.674168" lon="-4.980185">
        <ele>1286.62</ele>
        <time>2014-01-21T10:48:37Z</time>
      </trkpt>
      <trkpt lat="36.674184" lon="-4.980181">
        <ele>1287.45</ele>
        <time>2014-01-21T10:48:40Z</time>
      </trkpt>
      <trkpt lat="36.674182" lon="-4.980158">
        <ele>1287.26</ele>
        <time>2014-01-21T10:48:42Z</time>
      </trkpt>
      <trkpt lat="36.674174" lon="-4.980120">
        <ele>1286.83</ele>
        <time>2014-01-21T10:48:45Z</time>
      </trkpt>
      <trkpt lat="36.674162" lon="-4.980087">
        <ele>1286.02</ele>
        <time>2014-01-21T10:48:48Z</time>
      </trkpt>
      <trkpt lat="36.674155" lon="-4.980070">
        <ele>1285.89</ele>
        <time>2014-01-21T10:48:50Z</time>
      </trkpt>
      <trkpt lat="36.674136" lon="-4.980028">
        <ele>1285.30</ele>
        <time>2014-01-21T10:48:54Z</time>
      </trkpt>
      <trkpt lat="36.674130" lon="-4.980014">
        <ele>1285.06</ele>
        <time>2014-01-21T10:48:55Z</time>
      </trkpt>
      <trkpt lat="36.674090" lon="-4.979931">
        <ele>1285.44</ele>
        <time>2014-01-21T10:48:59Z</time>
      </trkpt>
      <trkpt lat="36.674027" lon="-4.979777">
        <ele>1286.62</ele>
        <time>2014-01-21T10:49:05Z</time>
      </trkpt>
      <trkpt lat="36.673967" lon="-4.979596">
        <ele>1287.61</ele>
        <time>2014-01-21T10:49:12Z</time>
      </trkpt>
      <trkpt lat="36.673922" lon="-4.979449">
        <ele>1287.83</ele>
        <time>2014-01-21T10:49:18Z</time>
      </trkpt>
      <trkpt lat="36.673891" lon="-4.979339">
        <ele>1287.89</ele>
        <time>2014-01-21T10:49:23Z</time>
      </trkpt>
      <trkpt lat="36.673891" lon="-4.979319">
        <ele>1288.26</ele>
        <time>2014-01-21T10:49:24Z</time>
      </trkpt>
      <trkpt lat="36.673886" lon="-4.979300">
        <ele>1288.27</ele>
        <time>2014-01-21T10:49:25Z</time>
      </trkpt>
      <trkpt lat="36.673880" lon="-4.979260">
        <ele>1288.46</ele>
        <time>2014-01-21T10:49:28Z</time>
      </trkpt>
      <trkpt lat="36.673872" lon="-4.979232">
        <ele>1288.22</ele>
        <time>2014-01-21T10:49:30Z</time>
      </trkpt>
      <trkpt lat="36.673874" lon="-4.979222">
        <ele>1288.42</ele>
        <time>2014-01-21T10:49:31Z</time>
      </trkpt>
      <trkpt lat="36.673865" lon="-4.979183">
        <ele>1288.48</ele>
        <time>2014-01-21T10:49:34Z</time>
      </trkpt>
      <trkpt lat="36.673823" lon="-4.979074">
        <ele>1288.01</ele>
        <time>2014-01-21T10:49:39Z</time>
      </trkpt>
      <trkpt lat="36.673816" lon="-4.979049">
        <ele>1288.22</ele>
        <time>2014-01-21T10:49:40Z</time>
      </trkpt>
      <trkpt lat="36.673803" lon="-4.978960">
        <ele>1289.41</ele>
        <time>2014-01-21T10:49:44Z</time>
      </trkpt>
      <trkpt lat="36.673795" lon="-4.978883">
        <ele>1290.67</ele>
        <time>2014-01-21T10:49:49Z</time>
      </trkpt>
      <trkpt lat="36.673791" lon="-4.978866">
        <ele>1290.67</ele>
        <time>2014-01-21T10:49:50Z</time>
      </trkpt>
      <trkpt lat="36.673781" lon="-4.978826">
        <ele>1290.90</ele>
        <time>2014-01-21T10:49:53Z</time>
      </trkpt>
      <trkpt lat="36.673771" lon="-4.978782">
        <ele>1291.01</ele>
        <time>2014-01-21T10:49:56Z</time>
      </trkpt>
      <trkpt lat="36.673750" lon="-4.978715">
        <ele>1291.08</ele>
        <time>2014-01-21T10:50:01Z</time>
      </trkpt>
      <trkpt lat="36.673746" lon="-4.978702">
        <ele>1291.04</ele>
        <time>2014-01-21T10:50:02Z</time>
      </trkpt>
      <trkpt lat="36.673704" lon="-4.978602">
        <ele>1290.06</ele>
        <time>2014-01-21T10:50:09Z</time>
      </trkpt>
      <trkpt lat="36.673700" lon="-4.978592">
        <ele>1290.03</ele>
        <time>2014-01-21T10:50:10Z</time>
      </trkpt>
      <trkpt lat="36.673692" lon="-4.978574">
        <ele>1289.69</ele>
        <time>2014-01-21T10:50:12Z</time>
      </trkpt>
      <trkpt lat="36.673680" lon="-4.978514">
        <ele>1290.02</ele>
        <time>2014-01-21T10:50:16Z</time>
      </trkpt>
      <trkpt lat="36.673653" lon="-4.978436">
        <ele>1289.61</ele>
        <time>2014-01-21T10:50:21Z</time>
      </trkpt>
      <trkpt lat="36.673648" lon="-4.978426">
        <ele>1289.50</ele>
        <time>2014-01-21T10:50:22Z</time>
      </trkpt>
      <trkpt lat="36.673618" lon="-4.978357">
        <ele>1288.42</ele>
        <time>2014-01-21T10:50:27Z</time>
      </trkpt>
      <trkpt lat="36.673578" lon="-4.978279">
        <ele>1286.61</ele>
        <time>2014-01-21T10:50:32Z</time>
      </trkpt>
      <trkpt lat="36.673568" lon="-4.978257">
        <ele>1286.30</ele>
        <time>2014-01-21T10:50:33Z</time>
      </trkpt>
      <trkpt lat="36.673558" lon="-4.978163">
        <ele>1287.29</ele>
        <time>2014-01-21T10:50:37Z</time>
      </trkpt>
      <trkpt lat="36.673554" lon="-4.978116">
        <ele>1287.87</ele>
        <time>2014-01-21T10:50:39Z</time>
      </trkpt>
      <trkpt lat="36.673530" lon="-4.978046">
        <ele>1287.23</ele>
        <time>2014-01-21T10:50:42Z</time>
      </trkpt>
      <trkpt lat="36.673495" lon="-4.977980">
        <ele>1286.09</ele>
        <time>2014-01-21T10:50:45Z</time>
      </trkpt>
      <trkpt lat="36.673483" lon="-4.977923">
        <ele>1286.26</ele>
        <time>2014-01-21T10:50:47Z</time>
      </trkpt>
      <trkpt lat="36.673470" lon="-4.977812">
        <ele>1287.42</ele>
        <time>2014-01-21T10:50:51Z</time>
      </trkpt>
      <trkpt lat="36.673466" lon="-4.977697">
        <ele>1289.41</ele>
        <time>2014-01-21T10:50:56Z</time>
      </trkpt>
      <trkpt lat="36.673469" lon="-4.977673">
        <ele>1290.07</ele>
        <time>2014-01-21T10:50:58Z</time>
      </trkpt>
      <trkpt lat="36.673470" lon="-4.977651">
        <ele>1290.65</ele>
        <time>2014-01-21T10:51:00Z</time>
      </trkpt>
      <trkpt lat="36.673463" lon="-4.977592">
        <ele>1291.22</ele>
        <time>2014-01-21T10:51:04Z</time>
      </trkpt>
      <trkpt lat="36.673458" lon="-4.977563">
        <ele>1291.47</ele>
        <time>2014-01-21T10:51:06Z</time>
      </trkpt>
      <trkpt lat="36.673435" lon="-4.977464">
        <ele>1290.87</ele>
        <time>2014-01-21T10:51:12Z</time>
      </trkpt>
      <trkpt lat="36.673429" lon="-4.977456">
        <ele>1290.44</ele>
        <time>2014-01-21T10:51:13Z</time>
      </trkpt>
      <trkpt lat="36.673420" lon="-4.977416">
        <ele>1289.65</ele>
        <time>2014-01-21T10:51:16Z</time>
      </trkpt>
      <trkpt lat="36.673420" lon="-4.977400">
        <ele>1289.63</ele>
        <time>2014-01-21T10:51:17Z</time>
      </trkpt>
      <trkpt lat="36.673424" lon="-4.977351">
        <ele>1289.66</ele>
        <time>2014-01-21T10:51:21Z</time>
      </trkpt>
      <trkpt lat="36.673424" lon="-4.977338">
        <ele>1289.61</ele>
        <time>2014-01-21T10:51:22Z</time>
      </trkpt>
      <trkpt lat="36.673421" lon="-4.977308">
        <ele>1289.21</ele>
        <time>2014-01-21T10:51:26Z</time>
      </trkpt>
      <trkpt lat="36.673387" lon="-4.977257">
        <ele>1286.82</ele>
        <time>2014-01-21T10:51:30Z</time>
      </trkpt>
      <trkpt lat="36.673362" lon="-4.977235">
        <ele>1285.22</ele>
        <time>2014-01-21T10:51:32Z</time>
      </trkpt>
      <trkpt lat="36.673339" lon="-4.977217">
        <ele>1283.64</ele>
        <time>2014-01-21T10:51:35Z</time>
      </trkpt>
      <trkpt lat="36.673333" lon="-4.977213">
        <ele>1283.46</ele>
        <time>2014-01-21T10:51:52Z</time>
      </trkpt>
      <trkpt lat="36.673330" lon="-4.977198">
        <ele>1283.26</ele>
        <time>2014-01-21T10:51:56Z</time>
      </trkpt>
      <trkpt lat="36.673324" lon="-4.977192">
        <ele>1282.81</ele>
        <time>2014-01-21T10:51:58Z</time>
      </trkpt>
      <trkpt lat="36.673312" lon="-4.977190">
        <ele>1282.01</ele>
        <time>2014-01-21T10:52:01Z</time>
      </trkpt>
      <trkpt lat="36.673304" lon="-4.977186">
        <ele>1281.69</ele>
        <time>2014-01-21T10:52:05Z</time>
      </trkpt>
      <trkpt lat="36.673304" lon="-4.977181">
        <ele>1281.64</ele>
        <time>2014-01-21T10:52:14Z</time>
      </trkpt>
      <trkpt lat="36.673311" lon="-4.977178">
        <ele>1282.04</ele>
        <time>2014-01-21T10:52:18Z</time>
      </trkpt>
      <trkpt lat="36.673319" lon="-4.977174">
        <ele>1282.50</ele>
        <time>2014-01-21T10:52:19Z</time>
      </trkpt>
      <trkpt lat="36.673326" lon="-4.977163">
        <ele>1282.87</ele>
        <time>2014-01-21T10:52:21Z</time>
      </trkpt>
      <trkpt lat="36.673326" lon="-4.977153">
        <ele>1282.81</ele>
        <time>2014-01-21T10:52:28Z</time>
      </trkpt>
      <trkpt lat="36.673320" lon="-4.977134">
        <ele>1282.45</ele>
        <time>2014-01-21T10:52:30Z</time>
      </trkpt>
      <trkpt lat="36.673332" lon="-4.977107">
        <ele>1283.07</ele>
        <time>2014-01-21T10:52:39Z</time>
      </trkpt>
      <trkpt lat="36.673364" lon="-4.977064">
        <ele>1284.90</ele>
        <time>2014-01-21T10:52:44Z</time>
      </trkpt>
      <trkpt lat="36.673365" lon="-4.977047">
        <ele>1284.85</ele>
        <time>2014-01-21T10:52:45Z</time>
      </trkpt>
      <trkpt lat="36.673356" lon="-4.977025">
        <ele>1284.26</ele>
        <time>2014-01-21T10:52:47Z</time>
      </trkpt>
      <trkpt lat="36.673350" lon="-4.977003">
        <ele>1283.82</ele>
        <time>2014-01-21T10:52:49Z</time>
      </trkpt>
      <trkpt lat="36.673353" lon="-4.976995">
        <ele>1283.81</ele>
        <time>2014-01-21T10:52:50Z</time>
      </trkpt>
      <trkpt lat="36.673366" lon="-4.976982">
        <ele>1284.61</ele>
        <time>2014-01-21T10:52:53Z</time>
      </trkpt>
      <trkpt lat="36.673370" lon="-4.976984">
        <ele>1284.81</ele>
        <time>2014-01-21T10:52:54Z</time>
      </trkpt>
      <trkpt lat="36.673383" lon="-4.976999">
        <ele>1285.66</ele>
        <time>2014-01-21T10:53:12Z</time>
      </trkpt>
      <trkpt lat="36.673382" lon="-4.977017">
        <ele>1285.63</ele>
        <time>2014-01-21T10:53:15Z</time>
      </trkpt>
      <trkpt lat="36.673388" lon="-4.977021">
        <ele>1286.05</ele>
        <time>2014-01-21T10:53:17Z</time>
      </trkpt>
      <trkpt lat="36.673393" lon="-4.977020">
        <ele>1286.21</ele>
        <time>2014-01-21T10:53:18Z</time>
      </trkpt>
      <trkpt lat="36.673450" lon="-4.977039">
        <ele>1289.61</ele>
        <time>2014-01-21T10:53:25Z</time>
      </trkpt>
      <trkpt lat="36.673462" lon="-4.977039">
        <ele>1290.44</ele>
        <time>2014-01-21T10:53:27Z</time>
      </trkpt>
      <trkpt lat="36.673474" lon="-4.977033">
        <ele>1291.07</ele>
        <time>2014-01-21T10:53:29Z</time>
      </trkpt>
      <trkpt lat="36.673536" lon="-4.977010">
        <ele>1294.45</ele>
        <time>2014-01-21T10:53:36Z</time>
      </trkpt>
      <trkpt lat="36.673555" lon="-4.977007">
        <ele>1295.44</ele>
        <time>2014-01-21T10:53:38Z</time>
      </trkpt>
      <trkpt lat="36.673567" lon="-4.977003">
        <ele>1296.08</ele>
        <time>2014-01-21T10:53:39Z</time>
      </trkpt>
      <trkpt lat="36.673596" lon="-4.976983">
        <ele>1297.64</ele>
        <time>2014-01-21T10:53:42Z</time>
      </trkpt>
      <trkpt lat="36.673604" lon="-4.976977">
        <ele>1298.04</ele>
        <time>2014-01-21T10:53:43Z</time>
      </trkpt>
      <trkpt lat="36.673671" lon="-4.976945">
        <ele>1301.46</ele>
        <time>2014-01-21T10:53:49Z</time>
      </trkpt>
      <trkpt lat="36.673723" lon="-4.976913">
        <ele>1303.81</ele>
        <time>2014-01-21T10:53:55Z</time>
      </trkpt>
      <trkpt lat="36.673763" lon="-4.976894">
        <ele>1305.61</ele>
        <time>2014-01-21T10:54:01Z</time>
      </trkpt>
      <trkpt lat="36.673775" lon="-4.976893">
        <ele>1306.41</ele>
        <time>2014-01-21T10:54:02Z</time>
      </trkpt>
      <trkpt lat="36.673792" lon="-4.976887">
        <ele>1307.22</ele>
        <time>2014-01-21T10:54:04Z</time>
      </trkpt>
      <trkpt lat="36.673802" lon="-4.976864">
        <ele>1307.49</ele>
        <time>2014-01-21T10:54:06Z</time>
      </trkpt>
      <trkpt lat="36.673809" lon="-4.976856">
        <ele>1307.63</ele>
        <time>2014-01-21T10:54:07Z</time>
      </trkpt>
      <trkpt lat="36.673849" lon="-4.976813">
        <ele>1309.02</ele>
        <time>2014-01-21T10:54:12Z</time>
      </trkpt>
      <trkpt lat="36.673867" lon="-4.976795">
        <ele>1309.89</ele>
        <time>2014-01-21T10:54:14Z</time>
      </trkpt>
      <trkpt lat="36.673898" lon="-4.976782">
        <ele>1311.05</ele>
        <time>2014-01-21T10:54:18Z</time>
      </trkpt>
      <trkpt lat="36.673907" lon="-4.976773">
        <ele>1311.49</ele>
        <time>2014-01-21T10:54:23Z</time>
      </trkpt>
      <trkpt lat="36.673932" lon="-4.976768">
        <ele>1312.64</ele>
        <time>2014-01-21T10:54:29Z</time>
      </trkpt>
      <trkpt lat="36.673957" lon="-4.976743">
        <ele>1313.43</ele>
        <time>2014-01-21T10:54:32Z</time>
      </trkpt>
      <trkpt lat="36.673980" lon="-4.976720">
        <ele>1314.01</ele>
        <time>2014-01-21T10:54:34Z</time>
      </trkpt>
      <trkpt lat="36.673989" lon="-4.976710">
        <ele>1314.44</ele>
        <time>2014-01-21T10:54:35Z</time>
      </trkpt>
      <trkpt lat="36.674038" lon="-4.976685">
        <ele>1316.27</ele>
        <time>2014-01-21T10:54:40Z</time>
      </trkpt>
      <trkpt lat="36.674081" lon="-4.976625">
        <ele>1315.86</ele>
        <time>2014-01-21T10:54:45Z</time>
      </trkpt>
      <trkpt lat="36.674094" lon="-4.976615">
        <ele>1316.01</ele>
        <time>2014-01-21T10:54:46Z</time>
      </trkpt>
      <trkpt lat="36.674131" lon="-4.976599">
        <ele>1317.25</ele>
        <time>2014-01-21T10:54:49Z</time>
      </trkpt>
      <trkpt lat="36.674140" lon="-4.976587">
        <ele>1317.07</ele>
        <time>2014-01-21T10:54:50Z</time>
      </trkpt>
      <trkpt lat="36.674149" lon="-4.976571">
        <ele>1316.67</ele>
        <time>2014-01-21T10:54:51Z</time>
      </trkpt>
      <trkpt lat="36.674190" lon="-4.976497">
        <ele>1314.05</ele>
        <time>2014-01-21T10:54:55Z</time>
      </trkpt>
      <trkpt lat="36.674216" lon="-4.976438">
        <ele>1311.20</ele>
        <time>2014-01-21T10:54:59Z</time>
      </trkpt>
      <trkpt lat="36.674213" lon="-4.976397">
        <ele>1309.21</ele>
        <time>2014-01-21T10:55:02Z</time>
      </trkpt>
      <trkpt lat="36.674217" lon="-4.976388">
        <ele>1308.81</ele>
        <time>2014-01-21T10:55:03Z</time>
      </trkpt>
      <trkpt lat="36.674227" lon="-4.976369">
        <ele>1308.01</ele>
        <time>2014-01-21T10:55:05Z</time>
      </trkpt>
      <trkpt lat="36.674266" lon="-4.976334">
        <ele>1306.43</ele>
        <time>2014-01-21T10:55:10Z</time>
      </trkpt>
      <trkpt lat="36.674285" lon="-4.976319">
        <ele>1305.68</ele>
        <time>2014-01-21T10:55:15Z</time>
      </trkpt>
      <trkpt lat="36.674290" lon="-4.976317">
        <ele>1305.69</ele>
        <time>2014-01-21T10:55:21Z</time>
      </trkpt>
      <trkpt lat="36.674308" lon="-4.976312">
        <ele>1305.28</ele>
        <time>2014-01-21T10:55:23Z</time>
      </trkpt>
      <trkpt lat="36.674321" lon="-4.976305">
        <ele>1305.07</ele>
        <time>2014-01-21T10:55:28Z</time>
      </trkpt>
      <trkpt lat="36.674327" lon="-4.976301">
        <ele>1304.85</ele>
        <time>2014-01-21T10:55:37Z</time>
      </trkpt>
      <trkpt lat="36.674341" lon="-4.976306">
        <ele>1305.02</ele>
        <time>2014-01-21T10:55:42Z</time>
      </trkpt>
      <trkpt lat="36.674351" lon="-4.976306">
        <ele>1305.01</ele>
        <time>2014-01-21T10:55:43Z</time>
      </trkpt>
      <trkpt lat="36.674396" lon="-4.976337">
        <ele>1306.49</ele>
        <time>2014-01-21T10:55:48Z</time>
      </trkpt>
      <trkpt lat="36.674414" lon="-4.976332">
        <ele>1306.08</ele>
        <time>2014-01-21T10:55:50Z</time>
      </trkpt>
      <trkpt lat="36.674435" lon="-4.976330">
        <ele>1306.02</ele>
        <time>2014-01-21T10:55:52Z</time>
      </trkpt>
      <trkpt lat="36.674454" lon="-4.976336">
        <ele>1306.25</ele>
        <time>2014-01-21T10:55:54Z</time>
      </trkpt>
      <trkpt lat="36.674465" lon="-4.976361">
        <ele>1307.26</ele>
        <time>2014-01-21T10:55:57Z</time>
      </trkpt>
      <trkpt lat="36.674443" lon="-4.976374">
        <ele>1307.90</ele>
        <time>2014-01-21T10:56:00Z</time>
      </trkpt>
      <trkpt lat="36.674432" lon="-4.976379">
        <ele>1308.09</ele>
        <time>2014-01-21T10:56:01Z</time>
      </trkpt>
      <trkpt lat="36.674421" lon="-4.976386">
        <ele>1308.47</ele>
        <time>2014-01-21T10:56:02Z</time>
      </trkpt>
      <trkpt lat="36.674410" lon="-4.976396">
        <ele>1308.89</ele>
        <time>2014-01-21T10:56:03Z</time>
      </trkpt>
      <trkpt lat="36.674392" lon="-4.976416">
        <ele>1309.81</ele>
        <time>2014-01-21T10:56:05Z</time>
      </trkpt>
      <trkpt lat="36.674388" lon="-4.976428">
        <ele>1310.21</ele>
        <time>2014-01-21T10:56:06Z</time>
      </trkpt>
      <trkpt lat="36.674405" lon="-4.976456">
        <ele>1311.47</ele>
        <time>2014-01-21T10:56:09Z</time>
      </trkpt>
      <trkpt lat="36.674412" lon="-4.976463">
        <ele>1311.83</ele>
        <time>2014-01-21T10:56:10Z</time>
      </trkpt>
      <trkpt lat="36.674420" lon="-4.976479">
        <ele>1312.43</ele>
        <time>2014-01-21T10:56:15Z</time>
      </trkpt>
      <trkpt lat="36.674432" lon="-4.976487">
        <ele>1312.69</ele>
        <time>2014-01-21T10:56:20Z</time>
      </trkpt>
      <trkpt lat="36.674460" lon="-4.976501">
        <ele>1313.24</ele>
        <time>2014-01-21T10:56:23Z</time>
      </trkpt>
      <trkpt lat="36.674468" lon="-4.976513">
        <ele>1313.64</ele>
        <time>2014-01-21T10:56:25Z</time>
      </trkpt>
      <trkpt lat="36.674487" lon="-4.976535">
        <ele>1314.64</ele>
        <time>2014-01-21T10:56:28Z</time>
      </trkpt>
      <trkpt lat="36.674514" lon="-4.976553">
        <ele>1315.21</ele>
        <time>2014-01-21T10:56:32Z</time>
      </trkpt>
      <trkpt lat="36.674494" lon="-4.976581">
        <ele>1316.41</ele>
        <time>2014-01-21T10:56:37Z</time>
      </trkpt>
      <trkpt lat="36.674481" lon="-4.976621">
        <ele>1318.24</ele>
        <time>2014-01-21T10:56:43Z</time>
      </trkpt>
      <trkpt lat="36.674486" lon="-4.976625">
        <ele>1318.46</ele>
        <time>2014-01-21T10:56:44Z</time>
      </trkpt>
      <trkpt lat="36.674515" lon="-4.976645">
        <ele>1319.07</ele>
        <time>2014-01-21T10:56:49Z</time>
      </trkpt>
      <trkpt lat="36.674531" lon="-4.976656">
        <ele>1319.47</ele>
        <time>2014-01-21T10:56:52Z</time>
      </trkpt>
      <trkpt lat="36.674541" lon="-4.976666">
        <ele>1319.83</ele>
        <time>2014-01-21T10:56:55Z</time>
      </trkpt>
      <trkpt lat="36.674555" lon="-4.976691">
        <ele>1320.42</ele>
        <time>2014-01-21T10:56:59Z</time>
      </trkpt>
      <trkpt lat="36.674553" lon="-4.976702">
        <ele>1320.86</ele>
        <time>2014-01-21T10:57:00Z</time>
      </trkpt>
      <trkpt lat="36.674518" lon="-4.976723">
        <ele>1321.63</ele>
        <time>2014-01-21T10:57:05Z</time>
      </trkpt>
      <trkpt lat="36.674503" lon="-4.976727">
        <ele>1321.83</ele>
        <time>2014-01-21T10:57:07Z</time>
      </trkpt>
      <trkpt lat="36.674477" lon="-4.976751">
        <ele>1322.61</ele>
        <time>2014-01-21T10:57:11Z</time>
      </trkpt>
      <trkpt lat="36.674469" lon="-4.976767">
        <ele>1323.21</ele>
        <time>2014-01-21T10:57:13Z</time>
      </trkpt>
      <trkpt lat="36.674462" lon="-4.976786">
        <ele>1323.88</ele>
        <time>2014-01-21T10:57:16Z</time>
      </trkpt>
      <trkpt lat="36.674471" lon="-4.976812">
        <ele>1324.65</ele>
        <time>2014-01-21T10:57:19Z</time>
      </trkpt>
      <trkpt lat="36.674486" lon="-4.976818">
        <ele>1324.85</ele>
        <time>2014-01-21T10:57:21Z</time>
      </trkpt>
      <trkpt lat="36.674491" lon="-4.976822">
        <ele>1324.89</ele>
        <time>2014-01-21T10:57:22Z</time>
      </trkpt>
      <trkpt lat="36.674527" lon="-4.976839">
        <ele>1325.23</ele>
        <time>2014-01-21T10:57:27Z</time>
      </trkpt>
      <trkpt lat="36.674530" lon="-4.976841">
        <ele>1325.23</ele>
        <time>2014-01-21T10:57:28Z</time>
      </trkpt>
      <trkpt lat="36.674557" lon="-4.976845">
        <ele>1325.44</ele>
        <time>2014-01-21T10:57:33Z</time>
      </trkpt>
      <trkpt lat="36.674579" lon="-4.976851">
        <ele>1325.48</ele>
        <time>2014-01-21T10:57:36Z</time>
      </trkpt>
      <trkpt lat="36.674585" lon="-4.976855">
        <ele>1325.69</ele>
        <time>2014-01-21T10:57:37Z</time>
      </trkpt>
      <trkpt lat="36.674597" lon="-4.976863">
        <ele>1325.82</ele>
        <time>2014-01-21T10:57:39Z</time>
      </trkpt>
      <trkpt lat="36.674637" lon="-4.976879">
        <ele>1326.21</ele>
        <time>2014-01-21T10:57:44Z</time>
      </trkpt>
      <trkpt lat="36.674646" lon="-4.976884">
        <ele>1326.42</ele>
        <time>2014-01-21T10:57:45Z</time>
      </trkpt>
      <trkpt lat="36.674661" lon="-4.976890">
        <ele>1326.64</ele>
        <time>2014-01-21T10:57:47Z</time>
      </trkpt>
      <trkpt lat="36.674660" lon="-4.976895">
        <ele>1326.87</ele>
        <time>2014-01-21T10:57:50Z</time>
      </trkpt>
      <trkpt lat="36.674637" lon="-4.976910">
        <ele>1327.45</ele>
        <time>2014-01-21T10:57:53Z</time>
      </trkpt>
      <trkpt lat="36.674608" lon="-4.976919">
        <ele>1327.66</ele>
        <time>2014-01-21T10:57:56Z</time>
      </trkpt>
      <trkpt lat="36.674559" lon="-4.976935">
        <ele>1328.29</ele>
        <time>2014-01-21T10:58:01Z</time>
      </trkpt>
      <trkpt lat="36.674522" lon="-4.976973">
        <ele>1329.49</ele>
        <time>2014-01-21T10:58:07Z</time>
      </trkpt>
      <trkpt lat="36.674514" lon="-4.976978">
        <ele>1329.66</ele>
        <time>2014-01-21T10:58:08Z</time>
      </trkpt>
      <trkpt lat="36.674507" lon="-4.976984">
        <ele>1329.80</ele>
        <time>2014-01-21T10:58:09Z</time>
      </trkpt>
      <trkpt lat="36.674485" lon="-4.977007">
        <ele>1330.42</ele>
        <time>2014-01-21T10:58:12Z</time>
      </trkpt>
      <trkpt lat="36.674479" lon="-4.977015">
        <ele>1330.61</ele>
        <time>2014-01-21T10:58:13Z</time>
      </trkpt>
      <trkpt lat="36.674463" lon="-4.977027">
        <ele>1331.02</ele>
        <time>2014-01-21T10:58:15Z</time>
      </trkpt>
      <trkpt lat="36.674451" lon="-4.977045">
        <ele>1331.66</ele>
        <time>2014-01-21T10:58:17Z</time>
      </trkpt>
      <trkpt lat="36.674440" lon="-4.977075">
        <ele>1332.44</ele>
        <time>2014-01-21T10:58:20Z</time>
      </trkpt>
      <trkpt lat="36.674435" lon="-4.977085">
        <ele>1332.69</ele>
        <time>2014-01-21T10:58:21Z</time>
      </trkpt>
      <trkpt lat="36.674431" lon="-4.977093">
        <ele>1333.10</ele>
        <time>2014-01-21T10:58:22Z</time>
      </trkpt>
      <trkpt lat="36.674411" lon="-4.977117">
        <ele>1333.66</ele>
        <time>2014-01-21T10:58:25Z</time>
      </trkpt>
      <trkpt lat="36.674393" lon="-4.977142">
        <ele>1334.22</ele>
        <time>2014-01-21T10:58:28Z</time>
      </trkpt>
      <trkpt lat="36.674386" lon="-4.977153">
        <ele>1334.61</ele>
        <time>2014-01-21T10:58:29Z</time>
      </trkpt>
      <trkpt lat="36.674380" lon="-4.977163">
        <ele>1334.83</ele>
        <time>2014-01-21T10:58:30Z</time>
      </trkpt>
      <trkpt lat="36.674361" lon="-4.977199">
        <ele>1335.61</ele>
        <time>2014-01-21T10:58:34Z</time>
      </trkpt>
      <trkpt lat="36.674336" lon="-4.977236">
        <ele>1336.61</ele>
        <time>2014-01-21T10:58:38Z</time>
      </trkpt>
      <trkpt lat="36.674319" lon="-4.977271">
        <ele>1337.47</ele>
        <time>2014-01-21T10:58:42Z</time>
      </trkpt>
      <trkpt lat="36.674308" lon="-4.977287">
        <ele>1337.83</ele>
        <time>2014-01-21T10:58:44Z</time>
      </trkpt>
      <trkpt lat="36.674304" lon="-4.977297">
        <ele>1338.05</ele>
        <time>2014-01-21T10:58:46Z</time>
      </trkpt>
      <trkpt lat="36.674302" lon="-4.977305">
        <ele>1338.30</ele>
        <time>2014-01-21T10:58:47Z</time>
      </trkpt>
      <trkpt lat="36.674329" lon="-4.977358">
        <ele>1339.89</ele>
        <time>2014-01-21T10:58:59Z</time>
      </trkpt>
      <trkpt lat="36.674345" lon="-4.977380">
        <ele>1340.66</ele>
        <time>2014-01-21T10:59:04Z</time>
      </trkpt>
      <trkpt lat="36.674337" lon="-4.977408">
        <ele>1341.41</ele>
        <time>2014-01-21T10:59:09Z</time>
      </trkpt>
      <trkpt lat="36.674337" lon="-4.977411">
        <ele>1341.49</ele>
        <time>2014-01-21T10:59:11Z</time>
      </trkpt>
      <trkpt lat="36.674339" lon="-4.977421">
        <ele>1341.68</ele>
        <time>2014-01-21T10:59:15Z</time>
      </trkpt>
      <trkpt lat="36.674341" lon="-4.977429">
        <ele>1342.09</ele>
        <time>2014-01-21T10:59:18Z</time>
      </trkpt>
      <trkpt lat="36.674335" lon="-4.977470">
        <ele>1343.06</ele>
        <time>2014-01-21T10:59:21Z</time>
      </trkpt>
      <trkpt lat="36.674330" lon="-4.977505">
        <ele>1343.84</ele>
        <time>2014-01-21T10:59:26Z</time>
      </trkpt>
      <trkpt lat="36.674350" lon="-4.977539">
        <ele>1343.89</ele>
        <time>2014-01-21T10:59:30Z</time>
      </trkpt>
      <trkpt lat="36.674379" lon="-4.977534">
        <ele>1344.21</ele>
        <time>2014-01-21T10:59:46Z</time>
      </trkpt>
      <trkpt lat="36.674389" lon="-4.977533">
        <ele>1344.48</ele>
        <time>2014-01-21T10:59:47Z</time>
      </trkpt>
      <trkpt lat="36.674408" lon="-4.977542">
        <ele>1344.64</ele>
        <time>2014-01-21T10:59:50Z</time>
      </trkpt>
      <trkpt lat="36.674415" lon="-4.977546">
        <ele>1344.66</ele>
        <time>2014-01-21T10:59:51Z</time>
      </trkpt>
      <trkpt lat="36.674434" lon="-4.977564">
        <ele>1345.07</ele>
        <time>2014-01-21T10:59:54Z</time>
      </trkpt>
      <trkpt lat="36.674440" lon="-4.977568">
        <ele>1345.06</ele>
        <time>2014-01-21T10:59:56Z</time>
      </trkpt>
      <trkpt lat="36.674450" lon="-4.977579">
        <ele>1345.30</ele>
        <time>2014-01-21T10:59:57Z</time>
      </trkpt>
      <trkpt lat="36.674459" lon="-4.977591">
        <ele>1345.50</ele>
        <time>2014-01-21T11:00:00Z</time>
      </trkpt>
      <trkpt lat="36.674464" lon="-4.977603">
        <ele>1345.47</ele>
        <time>2014-01-21T11:00:01Z</time>
      </trkpt>
      <trkpt lat="36.674490" lon="-4.977611">
        <ele>1345.84</ele>
        <time>2014-01-21T11:00:05Z</time>
      </trkpt>
      <trkpt lat="36.674497" lon="-4.977649">
        <ele>1346.21</ele>
        <time>2014-01-21T11:00:09Z</time>
      </trkpt>
      <trkpt lat="36.674497" lon="-4.977659">
        <ele>1346.21</ele>
        <time>2014-01-21T11:00:10Z</time>
      </trkpt>
      <trkpt lat="36.674499" lon="-4.977679">
        <ele>1346.46</ele>
        <time>2014-01-21T11:00:12Z</time>
      </trkpt>
      <trkpt lat="36.674512" lon="-4.977744">
        <ele>1346.90</ele>
        <time>2014-01-21T11:00:17Z</time>
      </trkpt>
      <trkpt lat="36.674526" lon="-4.977781">
        <ele>1347.44</ele>
        <time>2014-01-21T11:00:21Z</time>
      </trkpt>
      <trkpt lat="36.674528" lon="-4.977808">
        <ele>1347.67</ele>
        <time>2014-01-21T11:00:24Z</time>
      </trkpt>
      <trkpt lat="36.674532" lon="-4.977858">
        <ele>1348.01</ele>
        <time>2014-01-21T11:00:47Z</time>
      </trkpt>
      <trkpt lat="36.674559" lon="-4.977894">
        <ele>1348.90</ele>
        <time>2014-01-21T11:00:52Z</time>
      </trkpt>
      <trkpt lat="36.674574" lon="-4.977913">
        <ele>1349.46</ele>
        <time>2014-01-21T11:00:54Z</time>
      </trkpt>
      <trkpt lat="36.674601" lon="-4.977933">
        <ele>1350.46</ele>
        <time>2014-01-21T11:00:58Z</time>
      </trkpt>
      <trkpt lat="36.674611" lon="-4.977944">
        <ele>1350.88</ele>
        <time>2014-01-21T11:01:01Z</time>
      </trkpt>
      <trkpt lat="36.674614" lon="-4.977959">
        <ele>1351.09</ele>
        <time>2014-01-21T11:01:02Z</time>
      </trkpt>
      <trkpt lat="36.674642" lon="-4.977997">
        <ele>1352.42</ele>
        <time>2014-01-21T11:01:07Z</time>
      </trkpt>
      <trkpt lat="36.674654" lon="-4.978013">
        <ele>1352.89</ele>
        <time>2014-01-21T11:01:09Z</time>
      </trkpt>
      <trkpt lat="36.674668" lon="-4.978039">
        <ele>1353.68</ele>
        <time>2014-01-21T11:01:12Z</time>
      </trkpt>
      <trkpt lat="36.674673" lon="-4.978047">
        <ele>1354.02</ele>
        <time>2014-01-21T11:01:13Z</time>
      </trkpt>
      <trkpt lat="36.674690" lon="-4.978073">
        <ele>1354.81</ele>
        <time>2014-01-21T11:01:16Z</time>
      </trkpt>
      <trkpt lat="36.674716" lon="-4.978100">
        <ele>1356.27</ele>
        <time>2014-01-21T11:01:20Z</time>
      </trkpt>
      <trkpt lat="36.674743" lon="-4.978112">
        <ele>1357.43</ele>
        <time>2014-01-21T11:01:23Z</time>
      </trkpt>
      <trkpt lat="36.674753" lon="-4.978117">
        <ele>1357.83</ele>
        <time>2014-01-21T11:01:24Z</time>
      </trkpt>
      <trkpt lat="36.674789" lon="-4.978167">
        <ele>1360.04</ele>
        <time>2014-01-21T11:01:29Z</time>
      </trkpt>
      <trkpt lat="36.674801" lon="-4.978192">
        <ele>1361.09</ele>
        <time>2014-01-21T11:01:31Z</time>
      </trkpt>
      <trkpt lat="36.674820" lon="-4.978228">
        <ele>1362.42</ele>
        <time>2014-01-21T11:01:34Z</time>
      </trkpt>
      <trkpt lat="36.674843" lon="-4.978253">
        <ele>1363.81</ele>
        <time>2014-01-21T11:01:37Z</time>
      </trkpt>
      <trkpt lat="36.674859" lon="-4.978266">
        <ele>1364.85</ele>
        <time>2014-01-21T11:01:39Z</time>
      </trkpt>
      <trkpt lat="36.674863" lon="-4.978273">
        <ele>1365.20</ele>
        <time>2014-01-21T11:01:40Z</time>
      </trkpt>
      <trkpt lat="36.674870" lon="-4.978293">
        <ele>1366.02</ele>
        <time>2014-01-21T11:01:42Z</time>
      </trkpt>
      <trkpt lat="36.674877" lon="-4.978302">
        <ele>1366.41</ele>
        <time>2014-01-21T11:01:43Z</time>
      </trkpt>
      <trkpt lat="36.674906" lon="-4.978343">
        <ele>1368.49</ele>
        <time>2014-01-21T11:01:47Z</time>
      </trkpt>
      <trkpt lat="36.674921" lon="-4.978373">
        <ele>1368.88</ele>
        <time>2014-01-21T11:01:50Z</time>
      </trkpt>
      <trkpt lat="36.674924" lon="-4.978381">
        <ele>1369.06</ele>
        <time>2014-01-21T11:01:51Z</time>
      </trkpt>
      <trkpt lat="36.674937" lon="-4.978397">
        <ele>1369.44</ele>
        <time>2014-01-21T11:01:54Z</time>
      </trkpt>
      <trkpt lat="36.674950" lon="-4.978393">
        <ele>1370.02</ele>
        <time>2014-01-21T11:01:56Z</time>
      </trkpt>
      <trkpt lat="36.674964" lon="-4.978372">
        <ele>1371.08</ele>
        <time>2014-01-21T11:02:00Z</time>
      </trkpt>
      <trkpt lat="36.674973" lon="-4.978375">
        <ele>1371.46</ele>
        <time>2014-01-21T11:02:02Z</time>
      </trkpt>
      <trkpt lat="36.674978" lon="-4.978389">
        <ele>1371.68</ele>
        <time>2014-01-21T11:02:04Z</time>
      </trkpt>
      <trkpt lat="36.674989" lon="-4.978399">
        <ele>1372.09</ele>
        <time>2014-01-21T11:02:05Z</time>
      </trkpt>
      <trkpt lat="36.675008" lon="-4.978402">
        <ele>1372.42</ele>
        <time>2014-01-21T11:02:06Z</time>
      </trkpt>
      <trkpt lat="36.675020" lon="-4.978407">
        <ele>1372.41</ele>
        <time>2014-01-21T11:02:07Z</time>
      </trkpt>
      <trkpt lat="36.675056" lon="-4.978436">
        <ele>1372.27</ele>
        <time>2014-01-21T11:02:12Z</time>
      </trkpt>
      <trkpt lat="36.675060" lon="-4.978445">
        <ele>1372.23</ele>
        <time>2014-01-21T11:02:13Z</time>
      </trkpt>
      <trkpt lat="36.675059" lon="-4.978450">
        <ele>1372.27</ele>
        <time>2014-01-21T11:02:14Z</time>
      </trkpt>
      <trkpt lat="36.675070" lon="-4.978464">
        <ele>1372.28</ele>
        <time>2014-01-21T11:02:17Z</time>
      </trkpt>
      <trkpt lat="36.675093" lon="-4.978477">
        <ele>1372.09</ele>
        <time>2014-01-21T11:02:20Z</time>
      </trkpt>
      <trkpt lat="36.675121" lon="-4.978499">
        <ele>1372.01</ele>
        <time>2014-01-21T11:02:24Z</time>
      </trkpt>
      <trkpt lat="36.675140" lon="-4.978511">
        <ele>1372.04</ele>
        <time>2014-01-21T11:02:26Z</time>
      </trkpt>
      <trkpt lat="36.675154" lon="-4.978523">
        <ele>1372.21</ele>
        <time>2014-01-21T11:02:28Z</time>
      </trkpt>
      <trkpt lat="36.675172" lon="-4.978529">
        <ele>1372.22</ele>
        <time>2014-01-21T11:02:30Z</time>
      </trkpt>
      <trkpt lat="36.675187" lon="-4.978560">
        <ele>1372.21</ele>
        <time>2014-01-21T11:02:38Z</time>
      </trkpt>
      <trkpt lat="36.675200" lon="-4.978607">
        <ele>1372.49</ele>
        <time>2014-01-21T11:02:42Z</time>
      </trkpt>
      <trkpt lat="36.675207" lon="-4.978632">
        <ele>1372.46</ele>
        <time>2014-01-21T11:02:44Z</time>
      </trkpt>
      <trkpt lat="36.675231" lon="-4.978697">
        <ele>1372.84</ele>
        <time>2014-01-21T11:02:50Z</time>
      </trkpt>
      <trkpt lat="36.675235" lon="-4.978705">
        <ele>1372.85</ele>
        <time>2014-01-21T11:02:51Z</time>
      </trkpt>
      <trkpt lat="36.675257" lon="-4.978742">
        <ele>1373.24</ele>
        <time>2014-01-21T11:02:55Z</time>
      </trkpt>
      <trkpt lat="36.675260" lon="-4.978752">
        <ele>1373.25</ele>
        <time>2014-01-21T11:02:56Z</time>
      </trkpt>
      <trkpt lat="36.675264" lon="-4.978764">
        <ele>1373.46</ele>
        <time>2014-01-21T11:02:57Z</time>
      </trkpt>
      <trkpt lat="36.675281" lon="-4.978790">
        <ele>1373.88</ele>
        <time>2014-01-21T11:03:00Z</time>
      </trkpt>
      <trkpt lat="36.675295" lon="-4.978810">
        <ele>1374.04</ele>
        <time>2014-01-21T11:03:03Z</time>
      </trkpt>
      <trkpt lat="36.675301" lon="-4.978814">
        <ele>1374.22</ele>
        <time>2014-01-21T11:03:04Z</time>
      </trkpt>
      <trkpt lat="36.675312" lon="-4.978825">
        <ele>1374.41</ele>
        <time>2014-01-21T11:03:06Z</time>
      </trkpt>
      <trkpt lat="36.675338" lon="-4.978848">
        <ele>1375.01</ele>
        <time>2014-01-21T11:03:10Z</time>
      </trkpt>
      <trkpt lat="36.675351" lon="-4.978857">
        <ele>1375.27</ele>
        <time>2014-01-21T11:03:12Z</time>
      </trkpt>
      <trkpt lat="36.675363" lon="-4.978860">
        <ele>1375.45</ele>
        <time>2014-01-21T11:03:14Z</time>
      </trkpt>
      <trkpt lat="36.675377" lon="-4.978874">
        <ele>1375.82</ele>
        <time>2014-01-21T11:03:17Z</time>
      </trkpt>
      <trkpt lat="36.675385" lon="-4.978884">
        <ele>1376.03</ele>
        <time>2014-01-21T11:03:19Z</time>
      </trkpt>
      <trkpt lat="36.675397" lon="-4.978897">
        <ele>1376.47</ele>
        <time>2014-01-21T11:03:22Z</time>
      </trkpt>
      <trkpt lat="36.675417" lon="-4.978905">
        <ele>1376.83</ele>
        <time>2014-01-21T11:03:25Z</time>
      </trkpt>
      <trkpt lat="36.675434" lon="-4.978912">
        <ele>1377.25</ele>
        <time>2014-01-21T11:03:27Z</time>
      </trkpt>
      <trkpt lat="36.675460" lon="-4.978915">
        <ele>1377.80</ele>
        <time>2014-01-21T11:03:31Z</time>
      </trkpt>
      <trkpt lat="36.675464" lon="-4.978915">
        <ele>1377.81</ele>
        <time>2014-01-21T11:03:33Z</time>
      </trkpt>
      <trkpt lat="36.675484" lon="-4.978906">
        <ele>1378.21</ele>
        <time>2014-01-21T11:03:37Z</time>
      </trkpt>
      <trkpt lat="36.675509" lon="-4.978911">
        <ele>1378.68</ele>
        <time>2014-01-21T11:03:39Z</time>
      </trkpt>
      <trkpt lat="36.675535" lon="-4.978924">
        <ele>1379.46</ele>
        <time>2014-01-21T11:03:42Z</time>
      </trkpt>
      <trkpt lat="36.675591" lon="-4.978947">
        <ele>1380.85</ele>
        <time>2014-01-21T11:03:47Z</time>
      </trkpt>
      <trkpt lat="36.675606" lon="-4.978948">
        <ele>1381.24</ele>
        <time>2014-01-21T11:03:48Z</time>
      </trkpt>
      <trkpt lat="36.675617" lon="-4.978953">
        <ele>1381.69</ele>
        <time>2014-01-21T11:03:49Z</time>
      </trkpt>
      <trkpt lat="36.675682" lon="-4.978974">
        <ele>1383.49</ele>
        <time>2014-01-21T11:03:54Z</time>
      </trkpt>
      <trkpt lat="36.675737" lon="-4.978996">
        <ele>1385.05</ele>
        <time>2014-01-21T11:03:58Z</time>
      </trkpt>
      <trkpt lat="36.675747" lon="-4.979000">
        <ele>1385.46</ele>
        <time>2014-01-21T11:03:59Z</time>
      </trkpt>
      <trkpt lat="36.675774" lon="-4.979008">
        <ele>1386.26</ele>
        <time>2014-01-21T11:04:01Z</time>
      </trkpt>
      <trkpt lat="36.675865" lon="-4.979043">
        <ele>1388.81</ele>
        <time>2014-01-21T11:04:09Z</time>
      </trkpt>
      <trkpt lat="36.675922" lon="-4.979069">
        <ele>1389.81</ele>
        <time>2014-01-21T11:04:14Z</time>
      </trkpt>
      <trkpt lat="36.675935" lon="-4.979075">
        <ele>1390.07</ele>
        <time>2014-01-21T11:04:15Z</time>
      </trkpt>
      <trkpt lat="36.675962" lon="-4.979081">
        <ele>1390.46</ele>
        <time>2014-01-21T11:04:17Z</time>
      </trkpt>
      <trkpt lat="36.675987" lon="-4.979092">
        <ele>1390.83</ele>
        <time>2014-01-21T11:04:21Z</time>
      </trkpt>
      <trkpt lat="36.676002" lon="-4.979099">
        <ele>1391.25</ele>
        <time>2014-01-21T11:04:23Z</time>
      </trkpt>
      <trkpt lat="36.676009" lon="-4.979101">
        <ele>1391.30</ele>
        <time>2014-01-21T11:04:24Z</time>
      </trkpt>
      <trkpt lat="36.676036" lon="-4.979119">
        <ele>1392.06</ele>
        <time>2014-01-21T11:04:27Z</time>
      </trkpt>
      <trkpt lat="36.676046" lon="-4.979126">
        <ele>1392.44</ele>
        <time>2014-01-21T11:04:28Z</time>
      </trkpt>
      <trkpt lat="36.676071" lon="-4.979143">
        <ele>1393.28</ele>
        <time>2014-01-21T11:04:31Z</time>
      </trkpt>
      <trkpt lat="36.676086" lon="-4.979160">
        <ele>1394.06</ele>
        <time>2014-01-21T11:04:34Z</time>
      </trkpt>
      <trkpt lat="36.676093" lon="-4.979165">
        <ele>1394.23</ele>
        <time>2014-01-21T11:04:35Z</time>
      </trkpt>
      <trkpt lat="36.676123" lon="-4.979187">
        <ele>1394.41</ele>
        <time>2014-01-21T11:04:39Z</time>
      </trkpt>
      <trkpt lat="36.676133" lon="-4.979191">
        <ele>1394.42</ele>
        <time>2014-01-21T11:04:40Z</time>
      </trkpt>
      <trkpt lat="36.676152" lon="-4.979203">
        <ele>1394.66</ele>
        <time>2014-01-21T11:04:42Z</time>
      </trkpt>
      <trkpt lat="36.676182" lon="-4.979230">
        <ele>1394.88</ele>
        <time>2014-01-21T11:04:46Z</time>
      </trkpt>
      <trkpt lat="36.676199" lon="-4.979249">
        <ele>1394.86</ele>
        <time>2014-01-21T11:04:49Z</time>
      </trkpt>
      <trkpt lat="36.676208" lon="-4.979258">
        <ele>1395.05</ele>
        <time>2014-01-21T11:04:50Z</time>
      </trkpt>
      <trkpt lat="36.676219" lon="-4.979261">
        <ele>1395.27</ele>
        <time>2014-01-21T11:04:51Z</time>
      </trkpt>
      <trkpt lat="36.676239" lon="-4.979281">
        <ele>1395.47</ele>
        <time>2014-01-21T11:04:54Z</time>
      </trkpt>
      <trkpt lat="36.676262" lon="-4.979293">
        <ele>1395.67</ele>
        <time>2014-01-21T11:04:57Z</time>
      </trkpt>
      <trkpt lat="36.676273" lon="-4.979304">
        <ele>1395.87</ele>
        <time>2014-01-21T11:04:59Z</time>
      </trkpt>
      <trkpt lat="36.676287" lon="-4.979315">
        <ele>1396.01</ele>
        <time>2014-01-21T11:05:01Z</time>
      </trkpt>
      <trkpt lat="36.676303" lon="-4.979328">
        <ele>1396.41</ele>
        <time>2014-01-21T11:05:03Z</time>
      </trkpt>
      <trkpt lat="36.676339" lon="-4.979354">
        <ele>1397.01</ele>
        <time>2014-01-21T11:05:07Z</time>
      </trkpt>
      <trkpt lat="36.676368" lon="-4.979380">
        <ele>1397.70</ele>
        <time>2014-01-21T11:05:11Z</time>
      </trkpt>
      <trkpt lat="36.676385" lon="-4.979391">
        <ele>1398.06</ele>
        <time>2014-01-21T11:05:13Z</time>
      </trkpt>
      <trkpt lat="36.676410" lon="-4.979414">
        <ele>1398.62</ele>
        <time>2014-01-21T11:05:16Z</time>
      </trkpt>
      <trkpt lat="36.676435" lon="-4.979431">
        <ele>1399.26</ele>
        <time>2014-01-21T11:05:20Z</time>
      </trkpt>
      <trkpt lat="36.676444" lon="-4.979433">
        <ele>1399.43</ele>
        <time>2014-01-21T11:05:21Z</time>
      </trkpt>
      <trkpt lat="36.676449" lon="-4.979436">
        <ele>1399.48</ele>
        <time>2014-01-21T11:05:22Z</time>
      </trkpt>
      <trkpt lat="36.676430" lon="-4.979451">
        <ele>1399.24</ele>
        <time>2014-01-21T11:05:26Z</time>
      </trkpt>
      <trkpt lat="36.676388" lon="-4.979482">
        <ele>1398.66</ele>
        <time>2014-01-21T11:05:31Z</time>
      </trkpt>
      <trkpt lat="36.676380" lon="-4.979485">
        <ele>1398.41</ele>
        <time>2014-01-21T11:05:32Z</time>
      </trkpt>
      <trkpt lat="36.676364" lon="-4.979498">
        <ele>1398.01</ele>
        <time>2014-01-21T11:05:34Z</time>
      </trkpt>
      <trkpt lat="36.676347" lon="-4.979508">
        <ele>1397.87</ele>
        <time>2014-01-21T11:05:36Z</time>
      </trkpt>
      <trkpt lat="36.676332" lon="-4.979514">
        <ele>1397.45</ele>
        <time>2014-01-21T11:05:38Z</time>
      </trkpt>
      <trkpt lat="36.676324" lon="-4.979517">
        <ele>1397.23</ele>
        <time>2014-01-21T11:05:39Z</time>
      </trkpt>
      <trkpt lat="36.676317" lon="-4.979550">
        <ele>1397.30</ele>
        <time>2014-01-21T11:05:44Z</time>
      </trkpt>
      <trkpt lat="36.676343" lon="-4.979561">
        <ele>1397.82</ele>
        <time>2014-01-21T11:05:47Z</time>
      </trkpt>
      <trkpt lat="36.676352" lon="-4.979567">
        <ele>1398.26</ele>
        <time>2014-01-21T11:05:48Z</time>
      </trkpt>
      <trkpt lat="36.676382" lon="-4.979585">
        <ele>1399.04</ele>
        <time>2014-01-21T11:05:52Z</time>
      </trkpt>
      <trkpt lat="36.676389" lon="-4.979587">
        <ele>1399.20</ele>
        <time>2014-01-21T11:05:53Z</time>
      </trkpt>
      <trkpt lat="36.676434" lon="-4.979591">
        <ele>1400.42</ele>
        <time>2014-01-21T11:05:57Z</time>
      </trkpt>
      <trkpt lat="36.676461" lon="-4.979590">
        <ele>1401.21</ele>
        <time>2014-01-21T11:06:00Z</time>
      </trkpt>
      <trkpt lat="36.676490" lon="-4.979597">
        <ele>1402.08</ele>
        <time>2014-01-21T11:06:04Z</time>
      </trkpt>
      <trkpt lat="36.676509" lon="-4.979600">
        <ele>1402.67</ele>
        <time>2014-01-21T11:06:06Z</time>
      </trkpt>
      <trkpt lat="36.676519" lon="-4.979602">
        <ele>1402.86</ele>
        <time>2014-01-21T11:06:07Z</time>
      </trkpt>
      <trkpt lat="36.676543" lon="-4.979612">
        <ele>1403.64</ele>
        <time>2014-01-21T11:06:10Z</time>
      </trkpt>
      <trkpt lat="36.676581" lon="-4.979619">
        <ele>1404.84</ele>
        <time>2014-01-21T11:06:14Z</time>
      </trkpt>
      <trkpt lat="36.676588" lon="-4.979620">
        <ele>1405.10</ele>
        <time>2014-01-21T11:06:15Z</time>
      </trkpt>
      <trkpt lat="36.676595" lon="-4.979625">
        <ele>1405.24</ele>
        <time>2014-01-21T11:06:16Z</time>
      </trkpt>
      <trkpt lat="36.676600" lon="-4.979626">
        <ele>1405.46</ele>
        <time>2014-01-21T11:06:18Z</time>
      </trkpt>
      <trkpt lat="36.676600" lon="-4.979646">
        <ele>1405.62</ele>
        <time>2014-01-21T11:06:23Z</time>
      </trkpt>
      <trkpt lat="36.676619" lon="-4.979671">
        <ele>1406.61</ele>
        <time>2014-01-21T11:06:25Z</time>
      </trkpt>
      <trkpt lat="36.676627" lon="-4.979678">
        <ele>1407.07</ele>
        <time>2014-01-21T11:06:28Z</time>
      </trkpt>
      <trkpt lat="36.676648" lon="-4.979686">
        <ele>1407.84</ele>
        <time>2014-01-21T11:06:34Z</time>
      </trkpt>
      <trkpt lat="36.676675" lon="-4.979711">
        <ele>1409.07</ele>
        <time>2014-01-21T11:06:36Z</time>
      </trkpt>
      <trkpt lat="36.676683" lon="-4.979718">
        <ele>1409.45</ele>
        <time>2014-01-21T11:06:39Z</time>
      </trkpt>
      <trkpt lat="36.676704" lon="-4.979734">
        <ele>1410.48</ele>
        <time>2014-01-21T11:06:45Z</time>
      </trkpt>
      <trkpt lat="36.676705" lon="-4.979735">
        <ele>1410.46</ele>
        <time>2014-01-21T11:06:46Z</time>
      </trkpt>
      <trkpt lat="36.676720" lon="-4.979732">
        <ele>1410.88</ele>
        <time>2014-01-21T11:06:54Z</time>
      </trkpt>
      <trkpt lat="36.676753" lon="-4.979721">
        <ele>1411.61</ele>
        <time>2014-01-21T11:06:57Z</time>
      </trkpt>
      <trkpt lat="36.676771" lon="-4.979724">
        <ele>1412.21</ele>
        <time>2014-01-21T11:06:59Z</time>
      </trkpt>
      <trkpt lat="36.676818" lon="-4.979742">
        <ele>1414.05</ele>
        <time>2014-01-21T11:07:03Z</time>
      </trkpt>
      <trkpt lat="36.676871" lon="-4.979775">
        <ele>1416.64</ele>
        <time>2014-01-21T11:07:08Z</time>
      </trkpt>
      <trkpt lat="36.676880" lon="-4.979781">
        <ele>1417.06</ele>
        <time>2014-01-21T11:07:09Z</time>
      </trkpt>
      <trkpt lat="36.676895" lon="-4.979787">
        <ele>1417.87</ele>
        <time>2014-01-21T11:07:11Z</time>
      </trkpt>
      <trkpt lat="36.676910" lon="-4.979786">
        <ele>1418.24</ele>
        <time>2014-01-21T11:07:14Z</time>
      </trkpt>
      <trkpt lat="36.676917" lon="-4.979784">
        <ele>1418.47</ele>
        <time>2014-01-21T11:07:21Z</time>
      </trkpt>
      <trkpt lat="36.676921" lon="-4.979785">
        <ele>1418.64</ele>
        <time>2014-01-21T11:07:23Z</time>
      </trkpt>
      <trkpt lat="36.676935" lon="-4.979784">
        <ele>1419.00</ele>
        <time>2014-01-21T11:07:27Z</time>
      </trkpt>
      <trkpt lat="36.676956" lon="-4.979790">
        <ele>1419.82</ele>
        <time>2014-01-21T11:07:30Z</time>
      </trkpt>
      <trkpt lat="36.676971" lon="-4.979794">
        <ele>1420.41</ele>
        <time>2014-01-21T11:07:32Z</time>
      </trkpt>
      <trkpt lat="36.676988" lon="-4.979810">
        <ele>1421.62</ele>
        <time>2014-01-21T11:07:36Z</time>
      </trkpt>
      <trkpt lat="36.676991" lon="-4.979818">
        <ele>1422.05</ele>
        <time>2014-01-21T11:07:37Z</time>
      </trkpt>
      <trkpt lat="36.677012" lon="-4.979861">
        <ele>1424.28</ele>
        <time>2014-01-21T11:07:42Z</time>
      </trkpt>
      <trkpt lat="36.677022" lon="-4.979865">
        <ele>1424.66</ele>
        <time>2014-01-21T11:07:43Z</time>
      </trkpt>
      <trkpt lat="36.677047" lon="-4.979890">
        <ele>1426.43</ele>
        <time>2014-01-21T11:07:48Z</time>
      </trkpt>
      <trkpt lat="36.677048" lon="-4.979895">
        <ele>1426.63</ele>
        <time>2014-01-21T11:07:49Z</time>
      </trkpt>
      <trkpt lat="36.677079" lon="-4.979949">
        <ele>1430.01</ele>
        <time>2014-01-21T11:07:54Z</time>
      </trkpt>
      <trkpt lat="36.677100" lon="-4.979988">
        <ele>1432.28</ele>
        <time>2014-01-21T11:07:58Z</time>
      </trkpt>
      <trkpt lat="36.677120" lon="-4.980003">
        <ele>1433.63</ele>
        <time>2014-01-21T11:08:00Z</time>
      </trkpt>
      <trkpt lat="36.677141" lon="-4.979988">
        <ele>1434.01</ele>
        <time>2014-01-21T11:08:06Z</time>
      </trkpt>
      <trkpt lat="36.677146" lon="-4.979982">
        <ele>1434.07</ele>
        <time>2014-01-21T11:08:07Z</time>
      </trkpt>
      <trkpt lat="36.677171" lon="-4.979975">
        <ele>1434.82</ele>
        <time>2014-01-21T11:08:13Z</time>
      </trkpt>
      <trkpt lat="36.677179" lon="-4.979968">
        <ele>1434.90</ele>
        <time>2014-01-21T11:08:14Z</time>
      </trkpt>
      <trkpt lat="36.677208" lon="-4.979967">
        <ele>1436.04</ele>
        <time>2014-01-21T11:08:19Z</time>
      </trkpt>
      <trkpt lat="36.677242" lon="-4.979955">
        <ele>1436.87</ele>
        <time>2014-01-21T11:08:25Z</time>
      </trkpt>
      <trkpt lat="36.677267" lon="-4.979945">
        <ele>1437.46</ele>
        <time>2014-01-21T11:08:28Z</time>
      </trkpt>
      <trkpt lat="36.677290" lon="-4.979957">
        <ele>1438.88</ele>
        <time>2014-01-21T11:08:31Z</time>
      </trkpt>
      <trkpt lat="36.677301" lon="-4.979962">
        <ele>1439.63</ele>
        <time>2014-01-21T11:08:33Z</time>
      </trkpt>
      <trkpt lat="36.677322" lon="-4.979970">
        <ele>1440.83</ele>
        <time>2014-01-21T11:08:36Z</time>
      </trkpt>
      <trkpt lat="36.677332" lon="-4.979968">
        <ele>1441.21</ele>
        <time>2014-01-21T11:08:37Z</time>
      </trkpt>
      <trkpt lat="36.677359" lon="-4.979966">
        <ele>1442.21</ele>
        <time>2014-01-21T11:08:41Z</time>
      </trkpt>
      <trkpt lat="36.677380" lon="-4.979987">
        <ele>1444.26</ele>
        <time>2014-01-21T11:08:45Z</time>
      </trkpt>
      <trkpt lat="36.677406" lon="-4.979991">
        <ele>1445.44</ele>
        <time>2014-01-21T11:08:47Z</time>
      </trkpt>
      <trkpt lat="36.677411" lon="-4.979997">
        <ele>1446.02</ele>
        <time>2014-01-21T11:08:48Z</time>
      </trkpt>
      <trkpt lat="36.677414" lon="-4.980003">
        <ele>1446.27</ele>
        <time>2014-01-21T11:08:50Z</time>
      </trkpt>
      <trkpt lat="36.677422" lon="-4.980019">
        <ele>1446.68</ele>
        <time>2014-01-21T11:08:51Z</time>
      </trkpt>
      <trkpt lat="36.677442" lon="-4.980023">
        <ele>1447.43</ele>
        <time>2014-01-21T11:08:55Z</time>
      </trkpt>
      <trkpt lat="36.677446" lon="-4.980027">
        <ele>1447.66</ele>
        <time>2014-01-21T11:08:56Z</time>
      </trkpt>
      <trkpt lat="36.677460" lon="-4.980037">
        <ele>1448.23</ele>
        <time>2014-01-21T11:09:00Z</time>
      </trkpt>
      <trkpt lat="36.677477" lon="-4.980081">
        <ele>1448.86</ele>
        <time>2014-01-21T11:09:05Z</time>
      </trkpt>
      <trkpt lat="36.677482" lon="-4.980089">
        <ele>1448.81</ele>
        <time>2014-01-21T11:09:06Z</time>
      </trkpt>
      <trkpt lat="36.677506" lon="-4.980106">
        <ele>1449.81</ele>
        <time>2014-01-21T11:09:12Z</time>
      </trkpt>
      <trkpt lat="36.677530" lon="-4.980132">
        <ele>1450.67</ele>
        <time>2014-01-21T11:09:15Z</time>
      </trkpt>
      <trkpt lat="36.677565" lon="-4.980156">
        <ele>1451.87</ele>
        <time>2014-01-21T11:09:19Z</time>
      </trkpt>
      <trkpt lat="36.677576" lon="-4.980173">
        <ele>1452.27</ele>
        <time>2014-01-21T11:09:21Z</time>
      </trkpt>
      <trkpt lat="36.677586" lon="-4.980190">
        <ele>1452.68</ele>
        <time>2014-01-21T11:09:23Z</time>
      </trkpt>
      <trkpt lat="36.677596" lon="-4.980204">
        <ele>1452.88</ele>
        <time>2014-01-21T11:09:25Z</time>
      </trkpt>
      <trkpt lat="36.677603" lon="-4.980212">
        <ele>1453.28</ele>
        <time>2014-01-21T11:09:26Z</time>
      </trkpt>
      <trkpt lat="36.677629" lon="-4.980227">
        <ele>1454.24</ele>
        <time>2014-01-21T11:09:29Z</time>
      </trkpt>
      <trkpt lat="36.677635" lon="-4.980232">
        <ele>1454.47</ele>
        <time>2014-01-21T11:09:30Z</time>
      </trkpt>
      <trkpt lat="36.677642" lon="-4.980241">
        <ele>1454.68</ele>
        <time>2014-01-21T11:09:32Z</time>
      </trkpt>
      <trkpt lat="36.677647" lon="-4.980250">
        <ele>1454.81</ele>
        <time>2014-01-21T11:09:33Z</time>
      </trkpt>
      <trkpt lat="36.677671" lon="-4.980275">
        <ele>1455.81</ele>
        <time>2014-01-21T11:09:37Z</time>
      </trkpt>
      <trkpt lat="36.677677" lon="-4.980281">
        <ele>1456.07</ele>
        <time>2014-01-21T11:09:38Z</time>
      </trkpt>
      <trkpt lat="36.677700" lon="-4.980319">
        <ele>1457.22</ele>
        <time>2014-01-21T11:09:43Z</time>
      </trkpt>
      <trkpt lat="36.677731" lon="-4.980339">
        <ele>1458.49</ele>
        <time>2014-01-21T11:09:48Z</time>
      </trkpt>
      <trkpt lat="36.677766" lon="-4.980357">
        <ele>1460.04</ele>
        <time>2014-01-21T11:09:52Z</time>
      </trkpt>
      <trkpt lat="36.677782" lon="-4.980364">
        <ele>1460.85</ele>
        <time>2014-01-21T11:09:54Z</time>
      </trkpt>
      <trkpt lat="36.677788" lon="-4.980363">
        <ele>1461.05</ele>
        <time>2014-01-21T11:09:55Z</time>
      </trkpt>
      <trkpt lat="36.677807" lon="-4.980357">
        <ele>1461.88</ele>
        <time>2014-01-21T11:09:58Z</time>
      </trkpt>
      <trkpt lat="36.677814" lon="-4.980358">
        <ele>1462.04</ele>
        <time>2014-01-21T11:09:59Z</time>
      </trkpt>
      <trkpt lat="36.677824" lon="-4.980357">
        <ele>1462.49</ele>
        <time>2014-01-21T11:10:00Z</time>
      </trkpt>
      <trkpt lat="36.677841" lon="-4.980354">
        <ele>1463.21</ele>
        <time>2014-01-21T11:10:03Z</time>
      </trkpt>
      <trkpt lat="36.677850" lon="-4.980364">
        <ele>1463.61</ele>
        <time>2014-01-21T11:10:05Z</time>
      </trkpt>
      <trkpt lat="36.677874" lon="-4.980388">
        <ele>1464.85</ele>
        <time>2014-01-21T11:10:09Z</time>
      </trkpt>
      <trkpt lat="36.677892" lon="-4.980413">
        <ele>1465.81</ele>
        <time>2014-01-21T11:10:12Z</time>
      </trkpt>
      <trkpt lat="36.677907" lon="-4.980432">
        <ele>1466.81</ele>
        <time>2014-01-21T11:10:17Z</time>
      </trkpt>
      <trkpt lat="36.677909" lon="-4.980437">
        <ele>1466.82</ele>
        <time>2014-01-21T11:10:19Z</time>
      </trkpt>
      <trkpt lat="36.677917" lon="-4.980448">
        <ele>1467.28</ele>
        <time>2014-01-21T11:10:26Z</time>
      </trkpt>
      <trkpt lat="36.677953" lon="-4.980479">
        <ele>1469.30</ele>
        <time>2014-01-21T11:10:31Z</time>
      </trkpt>
      <trkpt lat="36.677959" lon="-4.980480">
        <ele>1469.67</ele>
        <time>2014-01-21T11:10:33Z</time>
      </trkpt>
      <trkpt lat="36.677987" lon="-4.980495">
        <ele>1471.05</ele>
        <time>2014-01-21T11:10:36Z</time>
      </trkpt>
      <trkpt lat="36.677995" lon="-4.980504">
        <ele>1471.66</ele>
        <time>2014-01-21T11:10:37Z</time>
      </trkpt>
      <trkpt lat="36.678023" lon="-4.980532">
        <ele>1473.22</ele>
        <time>2014-01-21T11:10:41Z</time>
      </trkpt>
      <trkpt lat="36.678037" lon="-4.980543">
        <ele>1474.01</ele>
        <time>2014-01-21T11:10:43Z</time>
      </trkpt>
      <trkpt lat="36.678046" lon="-4.980549">
        <ele>1474.61</ele>
        <time>2014-01-21T11:10:44Z</time>
      </trkpt>
      <trkpt lat="36.678070" lon="-4.980570">
        <ele>1476.08</ele>
        <time>2014-01-21T11:10:47Z</time>
      </trkpt>
      <trkpt lat="36.678071" lon="-4.980578">
        <ele>1476.27</ele>
        <time>2014-01-21T11:10:48Z</time>
      </trkpt>
      <trkpt lat="36.678076" lon="-4.980583">
        <ele>1476.69</ele>
        <time>2014-01-21T11:10:49Z</time>
      </trkpt>
      <trkpt lat="36.678084" lon="-4.980588">
        <ele>1477.03</ele>
        <time>2014-01-21T11:10:50Z</time>
      </trkpt>
      <trkpt lat="36.678104" lon="-4.980602">
        <ele>1478.26</ele>
        <time>2014-01-21T11:10:54Z</time>
      </trkpt>
      <trkpt lat="36.678110" lon="-4.980609">
        <ele>1478.67</ele>
        <time>2014-01-21T11:10:55Z</time>
      </trkpt>
      <trkpt lat="36.678125" lon="-4.980635">
        <ele>1479.84</ele>
        <time>2014-01-21T11:10:58Z</time>
      </trkpt>
      <trkpt lat="36.678139" lon="-4.980652">
        <ele>1480.85</ele>
        <time>2014-01-21T11:11:00Z</time>
      </trkpt>
      <trkpt lat="36.678153" lon="-4.980661">
        <ele>1481.61</ele>
        <time>2014-01-21T11:11:02Z</time>
      </trkpt>
      <trkpt lat="36.678177" lon="-4.980680">
        <ele>1483.21</ele>
        <time>2014-01-21T11:11:06Z</time>
      </trkpt>
      <trkpt lat="36.678207" lon="-4.980698">
        <ele>1485.23</ele>
        <time>2014-01-21T11:11:11Z</time>
      </trkpt>
      <trkpt lat="36.678215" lon="-4.980708">
        <ele>1485.89</ele>
        <time>2014-01-21T11:11:13Z</time>
      </trkpt>
      <trkpt lat="36.678230" lon="-4.980730">
        <ele>1487.07</ele>
        <time>2014-01-21T11:11:16Z</time>
      </trkpt>
      <trkpt lat="36.678243" lon="-4.980746">
        <ele>1488.03</ele>
        <time>2014-01-21T11:11:18Z</time>
      </trkpt>
      <trkpt lat="36.678260" lon="-4.980757">
        <ele>1489.29</ele>
        <time>2014-01-21T11:11:20Z</time>
      </trkpt>
      <trkpt lat="36.678266" lon="-4.980761">
        <ele>1489.67</ele>
        <time>2014-01-21T11:11:23Z</time>
      </trkpt>
      <trkpt lat="36.678276" lon="-4.980771">
        <ele>1490.44</ele>
        <time>2014-01-21T11:11:24Z</time>
      </trkpt>
      <trkpt lat="36.678296" lon="-4.980800">
        <ele>1492.23</ele>
        <time>2014-01-21T11:11:29Z</time>
      </trkpt>
      <trkpt lat="36.678315" lon="-4.980817">
        <ele>1493.65</ele>
        <time>2014-01-21T11:11:35Z</time>
      </trkpt>
      <trkpt lat="36.678319" lon="-4.980812">
        <ele>1493.66</ele>
        <time>2014-01-21T11:11:44Z</time>
      </trkpt>
      <trkpt lat="36.678320" lon="-4.980802">
        <ele>1493.66</ele>
        <time>2014-01-21T11:11:53Z</time>
      </trkpt>
      <trkpt lat="36.678321" lon="-4.980799">
        <ele>1493.43</ele>
        <time>2014-01-21T11:11:58Z</time>
      </trkpt>
      <trkpt lat="36.678337" lon="-4.980810">
        <ele>1494.68</ele>
        <time>2014-01-21T11:12:02Z</time>
      </trkpt>
      <trkpt lat="36.678361" lon="-4.980816">
        <ele>1495.64</ele>
        <time>2014-01-21T11:12:05Z</time>
      </trkpt>
      <trkpt lat="36.678375" lon="-4.980833">
        <ele>1496.62</ele>
        <time>2014-01-21T11:12:08Z</time>
      </trkpt>
      <trkpt lat="36.678382" lon="-4.980839">
        <ele>1496.86</ele>
        <time>2014-01-21T11:12:09Z</time>
      </trkpt>
      <trkpt lat="36.678388" lon="-4.980843">
        <ele>1497.20</ele>
        <time>2014-01-21T11:12:10Z</time>
      </trkpt>
      <trkpt lat="36.678404" lon="-4.980868">
        <ele>1497.62</ele>
        <time>2014-01-21T11:12:14Z</time>
      </trkpt>
      <trkpt lat="36.678423" lon="-4.980891">
        <ele>1498.21</ele>
        <time>2014-01-21T11:12:16Z</time>
      </trkpt>
      <trkpt lat="36.678427" lon="-4.980909">
        <ele>1498.44</ele>
        <time>2014-01-21T11:12:18Z</time>
      </trkpt>
      <trkpt lat="36.678447" lon="-4.980936">
        <ele>1499.05</ele>
        <time>2014-01-21T11:12:21Z</time>
      </trkpt>
      <trkpt lat="36.678451" lon="-4.980943">
        <ele>1499.29</ele>
        <time>2014-01-21T11:12:22Z</time>
      </trkpt>
      <trkpt lat="36.678477" lon="-4.980976">
        <ele>1500.05</ele>
        <time>2014-01-21T11:12:26Z</time>
      </trkpt>
      <trkpt lat="36.678493" lon="-4.981004">
        <ele>1500.66</ele>
        <time>2014-01-21T11:12:29Z</time>
      </trkpt>
      <trkpt lat="36.678500" lon="-4.981018">
        <ele>1500.85</ele>
        <time>2014-01-21T11:12:30Z</time>
      </trkpt>
      <trkpt lat="36.678518" lon="-4.981045">
        <ele>1501.44</ele>
        <time>2014-01-21T11:12:33Z</time>
      </trkpt>
      <trkpt lat="36.678533" lon="-4.981081">
        <ele>1502.05</ele>
        <time>2014-01-21T11:12:36Z</time>
      </trkpt>
      <trkpt lat="36.678540" lon="-4.981091">
        <ele>1502.23</ele>
        <time>2014-01-21T11:12:37Z</time>
      </trkpt>
      <trkpt lat="36.678557" lon="-4.981117">
        <ele>1502.82</ele>
        <time>2014-01-21T11:12:40Z</time>
      </trkpt>
      <trkpt lat="36.678565" lon="-4.981122">
        <ele>1503.21</ele>
        <time>2014-01-21T11:12:41Z</time>
      </trkpt>
      <trkpt lat="36.678575" lon="-4.981137">
        <ele>1503.48</ele>
        <time>2014-01-21T11:12:43Z</time>
      </trkpt>
      <trkpt lat="36.678583" lon="-4.981145">
        <ele>1503.88</ele>
        <time>2014-01-21T11:12:46Z</time>
      </trkpt>
      <trkpt lat="36.678601" lon="-4.981165">
        <ele>1504.63</ele>
        <time>2014-01-21T11:12:50Z</time>
      </trkpt>
      <trkpt lat="36.678605" lon="-4.981169">
        <ele>1504.62</ele>
        <time>2014-01-21T11:12:51Z</time>
      </trkpt>
      <trkpt lat="36.678624" lon="-4.981208">
        <ele>1505.45</ele>
        <time>2014-01-21T11:12:56Z</time>
      </trkpt>
      <trkpt lat="36.678629" lon="-4.981215">
        <ele>1505.69</ele>
        <time>2014-01-21T11:12:57Z</time>
      </trkpt>
      <trkpt lat="36.678633" lon="-4.981218">
        <ele>1505.90</ele>
        <time>2014-01-21T11:12:59Z</time>
      </trkpt>
      <trkpt lat="36.678645" lon="-4.981239">
        <ele>1506.28</ele>
        <time>2014-01-21T11:13:03Z</time>
      </trkpt>
      <trkpt lat="36.678660" lon="-4.981255">
        <ele>1506.84</ele>
        <time>2014-01-21T11:13:05Z</time>
      </trkpt>
      <trkpt lat="36.678667" lon="-4.981286">
        <ele>1507.02</ele>
        <time>2014-01-21T11:13:08Z</time>
      </trkpt>
      <trkpt lat="36.678667" lon="-4.981293">
        <ele>1507.01</ele>
        <time>2014-01-21T11:13:10Z</time>
      </trkpt>
      <trkpt lat="36.678672" lon="-4.981300">
        <ele>1507.23</ele>
        <time>2014-01-21T11:13:12Z</time>
      </trkpt>
      <trkpt lat="36.678676" lon="-4.981331">
        <ele>1507.50</ele>
        <time>2014-01-21T11:13:31Z</time>
      </trkpt>
      <trkpt lat="36.678680" lon="-4.981331">
        <ele>1507.48</ele>
        <time>2014-01-21T11:13:33Z</time>
      </trkpt>
      <trkpt lat="36.678688" lon="-4.981330">
        <ele>1507.85</ele>
        <time>2014-01-21T11:13:34Z</time>
      </trkpt>
      <trkpt lat="36.678701" lon="-4.981328">
        <ele>1508.43</ele>
        <time>2014-01-21T11:13:35Z</time>
      </trkpt>
      <trkpt lat="36.678714" lon="-4.981337">
        <ele>1509.02</ele>
        <time>2014-01-21T11:13:37Z</time>
      </trkpt>
      <trkpt lat="36.678723" lon="-4.981334">
        <ele>1509.42</ele>
        <time>2014-01-21T11:13:39Z</time>
      </trkpt>
      <trkpt lat="36.678738" lon="-4.981327">
        <ele>1510.01</ele>
        <time>2014-01-21T11:13:43Z</time>
      </trkpt>
      <trkpt lat="36.678745" lon="-4.981332">
        <ele>1510.43</ele>
        <time>2014-01-21T11:13:44Z</time>
      </trkpt>
      <trkpt lat="36.678781" lon="-4.981342">
        <ele>1512.03</ele>
        <time>2014-01-21T11:13:49Z</time>
      </trkpt>
      <trkpt lat="36.678786" lon="-4.981335">
        <ele>1512.30</ele>
        <time>2014-01-21T11:13:52Z</time>
      </trkpt>
      <trkpt lat="36.678800" lon="-4.981317">
        <ele>1512.84</ele>
        <time>2014-01-21T11:13:55Z</time>
      </trkpt>
      <trkpt lat="36.678803" lon="-4.981313">
        <ele>1513.04</ele>
        <time>2014-01-21T11:14:01Z</time>
      </trkpt>
      <trkpt lat="36.678809" lon="-4.981300">
        <ele>1513.24</ele>
        <time>2014-01-21T11:14:08Z</time>
      </trkpt>
      <trkpt lat="36.678807" lon="-4.981292">
        <ele>1513.20</ele>
        <time>2014-01-21T11:14:09Z</time>
      </trkpt>
      <trkpt lat="36.678804" lon="-4.981276">
        <ele>1513.02</ele>
        <time>2014-01-21T11:14:11Z</time>
      </trkpt>
      <trkpt lat="36.678802" lon="-4.981237">
        <ele>1513.01</ele>
        <time>2014-01-21T11:14:15Z</time>
      </trkpt>
      <trkpt lat="36.678801" lon="-4.981226">
        <ele>1513.02</ele>
        <time>2014-01-21T11:14:16Z</time>
      </trkpt>
      <trkpt lat="36.678796" lon="-4.981183">
        <ele>1512.81</ele>
        <time>2014-01-21T11:14:21Z</time>
      </trkpt>
      <trkpt lat="36.678801" lon="-4.981175">
        <ele>1513.05</ele>
        <time>2014-01-21T11:14:22Z</time>
      </trkpt>
      <trkpt lat="36.678806" lon="-4.981165">
        <ele>1513.42</ele>
        <time>2014-01-21T11:14:27Z</time>
      </trkpt>
      <trkpt lat="36.678819" lon="-4.981150">
        <ele>1513.89</ele>
        <time>2014-01-21T11:14:35Z</time>
      </trkpt>
      <trkpt lat="36.678821" lon="-4.981143">
        <ele>1514.08</ele>
        <time>2014-01-21T11:14:36Z</time>
      </trkpt>
      <trkpt lat="36.678829" lon="-4.981140">
        <ele>1514.41</ele>
        <time>2014-01-21T11:14:50Z</time>
      </trkpt>
      <trkpt lat="36.678831" lon="-4.981141">
        <ele>1514.45</ele>
        <time>2014-01-21T11:15:17Z</time>
      </trkpt>
      <trkpt lat="36.678845" lon="-4.981112">
        <ele>1515.02</ele>
        <time>2014-01-21T11:15:23Z</time>
      </trkpt>
      <trkpt lat="36.678858" lon="-4.981107">
        <ele>1515.61</ele>
        <time>2014-01-21T11:15:26Z</time>
      </trkpt>
      <trkpt lat="36.678872" lon="-4.981099">
        <ele>1516.27</ele>
        <time>2014-01-21T11:15:28Z</time>
      </trkpt>
      <trkpt lat="36.678880" lon="-4.981097">
        <ele>1516.68</ele>
        <time>2014-01-21T11:15:30Z</time>
      </trkpt>
      <trkpt lat="36.678909" lon="-4.981112">
        <ele>1517.84</ele>
        <time>2014-01-21T11:15:33Z</time>
      </trkpt>
      <trkpt lat="36.678918" lon="-4.981112">
        <ele>1518.22</ele>
        <time>2014-01-21T11:15:34Z</time>
      </trkpt>
      <trkpt lat="36.678923" lon="-4.981113">
        <ele>1518.45</ele>
        <time>2014-01-21T11:15:36Z</time>
      </trkpt>
      <trkpt lat="36.678948" lon="-4.981112">
        <ele>1519.45</ele>
        <time>2014-01-21T11:15:38Z</time>
      </trkpt>
      <trkpt lat="36.678958" lon="-4.981111">
        <ele>1519.83</ele>
        <time>2014-01-21T11:15:39Z</time>
      </trkpt>
      <trkpt lat="36.678970" lon="-4.981103">
        <ele>1520.45</ele>
        <time>2014-01-21T11:15:41Z</time>
      </trkpt>
      <trkpt lat="36.678982" lon="-4.981102">
        <ele>1520.81</ele>
        <time>2014-01-21T11:15:44Z</time>
      </trkpt>
      <trkpt lat="36.679012" lon="-4.981131">
        <ele>1522.22</ele>
        <time>2014-01-21T11:15:50Z</time>
      </trkpt>
      <trkpt lat="36.679020" lon="-4.981133">
        <ele>1522.41</ele>
        <time>2014-01-21T11:15:54Z</time>
      </trkpt>
      <trkpt lat="36.679022" lon="-4.981133">
        <ele>1522.61</ele>
        <time>2014-01-21T11:15:55Z</time>
      </trkpt>
      <trkpt lat="36.679032" lon="-4.981132">
        <ele>1523.03</ele>
        <time>2014-01-21T11:15:56Z</time>
      </trkpt>
      <trkpt lat="36.679040" lon="-4.981129">
        <ele>1523.43</ele>
        <time>2014-01-21T11:15:59Z</time>
      </trkpt>
      <trkpt lat="36.679057" lon="-4.981124">
        <ele>1524.03</ele>
        <time>2014-01-21T11:16:04Z</time>
      </trkpt>
      <trkpt lat="36.679064" lon="-4.981128">
        <ele>1524.41</ele>
        <time>2014-01-21T11:16:20Z</time>
      </trkpt>
      <trkpt lat="36.679078" lon="-4.981150">
        <ele>1525.08</ele>
        <time>2014-01-21T11:16:42Z</time>
      </trkpt>
      <trkpt lat="36.679081" lon="-4.981153">
        <ele>1525.22</ele>
        <time>2014-01-21T11:16:44Z</time>
      </trkpt>
      <trkpt lat="36.679087" lon="-4.981167">
        <ele>1525.50</ele>
        <time>2014-01-21T11:16:46Z</time>
      </trkpt>
      <trkpt lat="36.679086" lon="-4.981174">
        <ele>1525.42</ele>
        <time>2014-01-21T11:16:47Z</time>
      </trkpt>
      <trkpt lat="36.679113" lon="-4.981204">
        <ele>1526.63</ele>
        <time>2014-01-21T11:16:55Z</time>
      </trkpt>
      <trkpt lat="36.679132" lon="-4.981201">
        <ele>1527.43</ele>
        <time>2014-01-21T11:16:58Z</time>
      </trkpt>
      <trkpt lat="36.679150" lon="-4.981202">
        <ele>1528.26</ele>
        <time>2014-01-21T11:17:01Z</time>
      </trkpt>
      <trkpt lat="36.679172" lon="-4.981213">
        <ele>1529.01</ele>
        <time>2014-01-21T11:17:05Z</time>
      </trkpt>
      <trkpt lat="36.679182" lon="-4.981219">
        <ele>1529.29</ele>
        <time>2014-01-21T11:17:07Z</time>
      </trkpt>
      <trkpt lat="36.679184" lon="-4.981224">
        <ele>1529.21</ele>
        <time>2014-01-21T11:17:22Z</time>
      </trkpt>
      <trkpt lat="36.679202" lon="-4.981246">
        <ele>1529.62</ele>
        <time>2014-01-21T11:17:28Z</time>
      </trkpt>
      <trkpt lat="36.679208" lon="-4.981251">
        <ele>1529.87</ele>
        <time>2014-01-21T11:17:29Z</time>
      </trkpt>
      <trkpt lat="36.679217" lon="-4.981256">
        <ele>1530.05</ele>
        <time>2014-01-21T11:17:30Z</time>
      </trkpt>
      <trkpt lat="36.679242" lon="-4.981244">
        <ele>1530.27</ele>
        <time>2014-01-21T11:17:39Z</time>
      </trkpt>
      <trkpt lat="36.679249" lon="-4.981238">
        <ele>1530.46</ele>
        <time>2014-01-21T11:17:40Z</time>
      </trkpt>
      <trkpt lat="36.679311" lon="-4.981243">
        <ele>1531.41</ele>
        <time>2014-01-21T11:17:50Z</time>
      </trkpt>
      <trkpt lat="36.679318" lon="-4.981244">
        <ele>1531.65</ele>
        <time>2014-01-21T11:17:51Z</time>
      </trkpt>
      <trkpt lat="36.679337" lon="-4.981237">
        <ele>1531.86</ele>
        <time>2014-01-21T11:17:54Z</time>
      </trkpt>
      <trkpt lat="36.679362" lon="-4.981243">
        <ele>1532.42</ele>
        <time>2014-01-21T11:17:57Z</time>
      </trkpt>
      <trkpt lat="36.679371" lon="-4.981252">
        <ele>1532.66</ele>
        <time>2014-01-21T11:17:59Z</time>
      </trkpt>
      <trkpt lat="36.679392" lon="-4.981268">
        <ele>1533.27</ele>
        <time>2014-01-21T11:18:02Z</time>
      </trkpt>
      <trkpt lat="36.679405" lon="-4.981267">
        <ele>1533.42</ele>
        <time>2014-01-21T11:18:03Z</time>
      </trkpt>
      <trkpt lat="36.679425" lon="-4.981259">
        <ele>1533.67</ele>
        <time>2014-01-21T11:18:06Z</time>
      </trkpt>
      <trkpt lat="36.679433" lon="-4.981251">
        <ele>1533.68</ele>
        <time>2014-01-21T11:18:07Z</time>
      </trkpt>
      <trkpt lat="36.679460" lon="-4.981230">
        <ele>1533.83</ele>
        <time>2014-01-21T11:18:11Z</time>
      </trkpt>
      <trkpt lat="36.679482" lon="-4.981229">
        <ele>1534.22</ele>
        <time>2014-01-21T11:18:14Z</time>
      </trkpt>
      <trkpt lat="36.679491" lon="-4.981234">
        <ele>1534.41</ele>
        <time>2014-01-21T11:18:15Z</time>
      </trkpt>
      <trkpt lat="36.679496" lon="-4.981237">
        <ele>1534.66</ele>
        <time>2014-01-21T11:18:25Z</time>
      </trkpt>
      <trkpt lat="36.679533" lon="-4.981247">
        <ele>1535.43</ele>
        <time>2014-01-21T11:18:34Z</time>
      </trkpt>
      <trkpt lat="36.679551" lon="-4.981258">
        <ele>1535.89</ele>
        <time>2014-01-21T11:18:36Z</time>
      </trkpt>
      <trkpt lat="36.679581" lon="-4.981259">
        <ele>1536.44</ele>
        <time>2014-01-21T11:18:39Z</time>
      </trkpt>
      <trkpt lat="36.679601" lon="-4.981260">
        <ele>1536.90</ele>
        <time>2014-01-21T11:18:41Z</time>
      </trkpt>
      <trkpt lat="36.679621" lon="-4.981265">
        <ele>1537.21</ele>
        <time>2014-01-21T11:18:43Z</time>
      </trkpt>
      <trkpt lat="36.679672" lon="-4.981287">
        <ele>1538.67</ele>
        <time>2014-01-21T11:18:49Z</time>
      </trkpt>
      <trkpt lat="36.679679" lon="-4.981284">
        <ele>1538.81</ele>
        <time>2014-01-21T11:18:50Z</time>
      </trkpt>
      <trkpt lat="36.679709" lon="-4.981284">
        <ele>1539.21</ele>
        <time>2014-01-21T11:18:53Z</time>
      </trkpt>
      <trkpt lat="36.679727" lon="-4.981282">
        <ele>1539.65</ele>
        <time>2014-01-21T11:18:55Z</time>
      </trkpt>
      <trkpt lat="36.679750" lon="-4.981279">
        <ele>1540.08</ele>
        <time>2014-01-21T11:18:58Z</time>
      </trkpt>
      <trkpt lat="36.679779" lon="-4.981271">
        <ele>1540.26</ele>
        <time>2014-01-21T11:19:02Z</time>
      </trkpt>
      <trkpt lat="36.679800" lon="-4.981265">
        <ele>1540.42</ele>
        <time>2014-01-21T11:19:08Z</time>
      </trkpt>
      <trkpt lat="36.679816" lon="-4.981261">
        <ele>1540.68</ele>
        <time>2014-01-21T11:19:15Z</time>
      </trkpt>
      <trkpt lat="36.679830" lon="-4.981257">
        <ele>1540.85</ele>
        <time>2014-01-21T11:19:17Z</time>
      </trkpt>
      <trkpt lat="36.679873" lon="-4.981258">
        <ele>1541.64</ele>
        <time>2014-01-21T11:19:21Z</time>
      </trkpt>
      <trkpt lat="36.679892" lon="-4.981259">
        <ele>1542.04</ele>
        <time>2014-01-21T11:19:24Z</time>
      </trkpt>
      <trkpt lat="36.679903" lon="-4.981259">
        <ele>1542.29</ele>
        <time>2014-01-21T11:19:28Z</time>
      </trkpt>
      <trkpt lat="36.679906" lon="-4.981260">
        <ele>1542.21</ele>
        <time>2014-01-21T11:19:33Z</time>
      </trkpt>
      <trkpt lat="36.679926" lon="-4.981267">
        <ele>1542.85</ele>
        <time>2014-01-21T11:19:35Z</time>
      </trkpt>
      <trkpt lat="36.679939" lon="-4.981273">
        <ele>1543.28</ele>
        <time>2014-01-21T11:19:36Z</time>
      </trkpt>
      <trkpt lat="36.679998" lon="-4.981279">
        <ele>1544.69</ele>
        <time>2014-01-21T11:19:41Z</time>
      </trkpt>
      <trkpt lat="36.680059" lon="-4.981297">
        <ele>1547.10</ele>
        <time>2014-01-21T11:19:47Z</time>
      </trkpt>
      <trkpt lat="36.680076" lon="-4.981302">
        <ele>1547.83</ele>
        <time>2014-01-21T11:19:49Z</time>
      </trkpt>
      <trkpt lat="36.680112" lon="-4.981304">
        <ele>1549.06</ele>
        <time>2014-01-21T11:19:53Z</time>
      </trkpt>
      <trkpt lat="36.680121" lon="-4.981305">
        <ele>1549.24</ele>
        <time>2014-01-21T11:19:54Z</time>
      </trkpt>
      <trkpt lat="36.680141" lon="-4.981320">
        <ele>1550.63</ele>
        <time>2014-01-21T11:19:58Z</time>
      </trkpt>
      <trkpt lat="36.680144" lon="-4.981326">
        <ele>1550.82</ele>
        <time>2014-01-21T11:20:00Z</time>
      </trkpt>
      <trkpt lat="36.680164" lon="-4.981400">
        <ele>1554.44</ele>
        <time>2014-01-21T11:20:15Z</time>
      </trkpt>
      <trkpt lat="36.680184" lon="-4.981421">
        <ele>1556.05</ele>
        <time>2014-01-21T11:20:18Z</time>
      </trkpt>
      <trkpt lat="36.680185" lon="-4.981422">
        <ele>1556.07</ele>
        <time>2014-01-21T11:20:20Z</time>
      </trkpt>
      <trkpt lat="36.680227" lon="-4.981452">
        <ele>1558.61</ele>
        <time>2014-01-21T11:20:26Z</time>
      </trkpt>
      <trkpt lat="36.680239" lon="-4.981461">
        <ele>1559.44</ele>
        <time>2014-01-21T11:20:30Z</time>
      </trkpt>
      <trkpt lat="36.680266" lon="-4.981490">
        <ele>1561.47</ele>
        <time>2014-01-21T11:20:36Z</time>
      </trkpt>
      <trkpt lat="36.680281" lon="-4.981525">
        <ele>1563.62</ele>
        <time>2014-01-21T11:20:42Z</time>
      </trkpt>
      <trkpt lat="36.680292" lon="-4.981550">
        <ele>1565.01</ele>
        <time>2014-01-21T11:20:45Z</time>
      </trkpt>
      <trkpt lat="36.680306" lon="-4.981573">
        <ele>1566.43</ele>
        <time>2014-01-21T11:20:48Z</time>
      </trkpt>
      <trkpt lat="36.680334" lon="-4.981621">
        <ele>1569.46</ele>
        <time>2014-01-21T11:20:54Z</time>
      </trkpt>
      <trkpt lat="36.680339" lon="-4.981630">
        <ele>1570.08</ele>
        <time>2014-01-21T11:20:55Z</time>
      </trkpt>
      <trkpt lat="36.680361" lon="-4.981690">
        <ele>1572.89</ele>
        <time>2014-01-21T11:21:01Z</time>
      </trkpt>
      <trkpt lat="36.680364" lon="-4.981700">
        <ele>1573.05</ele>
        <time>2014-01-21T11:21:02Z</time>
      </trkpt>
      <trkpt lat="36.680382" lon="-4.981739">
        <ele>1574.28</ele>
        <time>2014-01-21T11:21:06Z</time>
      </trkpt>
      <trkpt lat="36.680383" lon="-4.981746">
        <ele>1574.43</ele>
        <time>2014-01-21T11:21:07Z</time>
      </trkpt>
      <trkpt lat="36.680390" lon="-4.981774">
        <ele>1575.03</ele>
        <time>2014-01-21T11:21:13Z</time>
      </trkpt>
      <trkpt lat="36.680386" lon="-4.981784">
        <ele>1575.01</ele>
        <time>2014-01-21T11:21:53Z</time>
      </trkpt>
      <trkpt lat="36.680383" lon="-4.981782">
        <ele>1574.88</ele>
        <time>2014-01-21T11:25:48Z</time>
      </trkpt>
      <trkpt lat="36.680375" lon="-4.981834">
        <ele>1575.21</ele>
        <time>2014-01-21T11:26:28Z</time>
      </trkpt>
      <trkpt lat="36.680379" lon="-4.981885">
        <ele>1576.30</ele>
        <time>2014-01-21T11:26:30Z</time>
      </trkpt>
      <trkpt lat="36.680379" lon="-4.981910">
        <ele>1576.41</ele>
        <time>2014-01-21T11:26:32Z</time>
      </trkpt>
      <trkpt lat="36.680373" lon="-4.981941">
        <ele>1576.66</ele>
        <time>2014-01-21T11:26:34Z</time>
      </trkpt>
      <trkpt lat="36.680371" lon="-4.981955">
        <ele>1576.88</ele>
        <time>2014-01-21T11:26:35Z</time>
      </trkpt>
      <trkpt lat="36.680372" lon="-4.981976">
        <ele>1577.28</ele>
        <time>2014-01-21T11:26:36Z</time>
      </trkpt>
      <trkpt lat="36.680369" lon="-4.982015">
        <ele>1577.63</ele>
        <time>2014-01-21T11:26:38Z</time>
      </trkpt>
      <trkpt lat="36.680370" lon="-4.982027">
        <ele>1577.82</ele>
        <time>2014-01-21T11:26:39Z</time>
      </trkpt>
      <trkpt lat="36.680367" lon="-4.982070">
        <ele>1578.21</ele>
        <time>2014-01-21T11:26:42Z</time>
      </trkpt>
      <trkpt lat="36.680365" lon="-4.982078">
        <ele>1578.22</ele>
        <time>2014-01-21T11:26:43Z</time>
      </trkpt>
      <trkpt lat="36.680366" lon="-4.982121">
        <ele>1578.89</ele>
        <time>2014-01-21T11:26:47Z</time>
      </trkpt>
      <trkpt lat="36.680367" lon="-4.982138">
        <ele>1579.24</ele>
        <time>2014-01-21T11:26:49Z</time>
      </trkpt>
      <trkpt lat="36.680367" lon="-4.982155">
        <ele>1579.45</ele>
        <time>2014-01-21T11:26:51Z</time>
      </trkpt>
      <trkpt lat="36.680347" lon="-4.982188">
        <ele>1579.05</ele>
        <time>2014-01-21T11:26:55Z</time>
      </trkpt>
      <trkpt lat="36.680329" lon="-4.982207">
        <ele>1578.49</ele>
        <time>2014-01-21T11:26:59Z</time>
      </trkpt>
      <trkpt lat="36.680327" lon="-4.982216">
        <ele>1578.45</ele>
        <time>2014-01-21T11:27:01Z</time>
      </trkpt>
      <trkpt lat="36.680304" lon="-4.982230">
        <ele>1577.67</ele>
        <time>2014-01-21T11:27:05Z</time>
      </trkpt>
      <trkpt lat="36.680283" lon="-4.982239">
        <ele>1577.07</ele>
        <time>2014-01-21T11:27:08Z</time>
      </trkpt>
      <trkpt lat="36.680254" lon="-4.982266">
        <ele>1576.01</ele>
        <time>2014-01-21T11:27:14Z</time>
      </trkpt>
      <trkpt lat="36.680243" lon="-4.982300">
        <ele>1575.81</ele>
        <time>2014-01-21T11:27:17Z</time>
      </trkpt>
      <trkpt lat="36.680233" lon="-4.982334">
        <ele>1575.86</ele>
        <time>2014-01-21T11:27:20Z</time>
      </trkpt>
      <trkpt lat="36.680207" lon="-4.982389">
        <ele>1575.50</ele>
        <time>2014-01-21T11:27:25Z</time>
      </trkpt>
      <trkpt lat="36.680188" lon="-4.982429">
        <ele>1575.04</ele>
        <time>2014-01-21T11:27:30Z</time>
      </trkpt>
      <trkpt lat="36.680187" lon="-4.982465">
        <ele>1575.43</ele>
        <time>2014-01-21T11:27:33Z</time>
      </trkpt>
      <trkpt lat="36.680194" lon="-4.982478">
        <ele>1575.83</ele>
        <time>2014-01-21T11:27:35Z</time>
      </trkpt>
      <trkpt lat="36.680208" lon="-4.982523">
        <ele>1577.46</ele>
        <time>2014-01-21T11:27:39Z</time>
      </trkpt>
      <trkpt lat="36.680212" lon="-4.982532">
        <ele>1577.90</ele>
        <time>2014-01-21T11:27:40Z</time>
      </trkpt>
      <trkpt lat="36.680217" lon="-4.982548">
        <ele>1578.49</ele>
        <time>2014-01-21T11:27:42Z</time>
      </trkpt>
      <trkpt lat="36.680216" lon="-4.982556">
        <ele>1578.61</ele>
        <time>2014-01-21T11:27:43Z</time>
      </trkpt>
      <trkpt lat="36.680216" lon="-4.982585">
        <ele>1579.23</ele>
        <time>2014-01-21T11:27:46Z</time>
      </trkpt>
      <trkpt lat="36.680214" lon="-4.982595">
        <ele>1579.41</ele>
        <time>2014-01-21T11:27:47Z</time>
      </trkpt>
      <trkpt lat="36.680185" lon="-4.982644">
        <ele>1579.49</ele>
        <time>2014-01-21T11:27:53Z</time>
      </trkpt>
      <trkpt lat="36.680151" lon="-4.982669">
        <ele>1578.49</ele>
        <time>2014-01-21T11:27:57Z</time>
      </trkpt>
      <trkpt lat="36.680146" lon="-4.982687">
        <ele>1578.67</ele>
        <time>2014-01-21T11:27:59Z</time>
      </trkpt>
      <trkpt lat="36.680141" lon="-4.982691">
        <ele>1578.41</ele>
        <time>2014-01-21T11:28:00Z</time>
      </trkpt>
      <trkpt lat="36.680126" lon="-4.982732">
        <ele>1578.89</ele>
        <time>2014-01-21T11:28:05Z</time>
      </trkpt>
      <trkpt lat="36.680130" lon="-4.982771">
        <ele>1580.02</ele>
        <time>2014-01-21T11:28:10Z</time>
      </trkpt>
      <trkpt lat="36.680127" lon="-4.982782">
        <ele>1580.27</ele>
        <time>2014-01-21T11:28:12Z</time>
      </trkpt>
      <trkpt lat="36.680117" lon="-4.982807">
        <ele>1580.49</ele>
        <time>2014-01-21T11:28:15Z</time>
      </trkpt>
      <trkpt lat="36.680108" lon="-4.982839">
        <ele>1580.87</ele>
        <time>2014-01-21T11:28:18Z</time>
      </trkpt>
      <trkpt lat="36.680096" lon="-4.982880">
        <ele>1581.22</ele>
        <time>2014-01-21T11:28:23Z</time>
      </trkpt>
      <trkpt lat="36.680096" lon="-4.982887">
        <ele>1581.61</ele>
        <time>2014-01-21T11:28:24Z</time>
      </trkpt>
      <trkpt lat="36.680104" lon="-4.982896">
        <ele>1582.03</ele>
        <time>2014-01-21T11:28:25Z</time>
      </trkpt>
      <trkpt lat="36.680121" lon="-4.982921">
        <ele>1583.44</ele>
        <time>2014-01-21T11:28:29Z</time>
      </trkpt>
      <trkpt lat="36.680149" lon="-4.982914">
        <ele>1584.62</ele>
        <time>2014-01-21T11:28:33Z</time>
      </trkpt>
      <trkpt lat="36.680172" lon="-4.982903">
        <ele>1585.21</ele>
        <time>2014-01-21T11:28:36Z</time>
      </trkpt>
      <trkpt lat="36.680216" lon="-4.982872">
        <ele>1586.43</ele>
        <time>2014-01-21T11:28:43Z</time>
      </trkpt>
      <trkpt lat="36.680235" lon="-4.982881">
        <ele>1587.68</ele>
        <time>2014-01-21T11:28:47Z</time>
      </trkpt>
      <trkpt lat="36.680236" lon="-4.982879">
        <ele>1587.68</ele>
        <time>2014-01-21T11:28:48Z</time>
      </trkpt>
      <trkpt lat="36.680227" lon="-4.982890">
        <ele>1587.43</ele>
        <time>2014-01-21T11:28:51Z</time>
      </trkpt>
      <trkpt lat="36.680226" lon="-4.982901">
        <ele>1587.67</ele>
        <time>2014-01-21T11:28:52Z</time>
      </trkpt>
      <trkpt lat="36.680211" lon="-4.982931">
        <ele>1587.61</ele>
        <time>2014-01-21T11:28:56Z</time>
      </trkpt>
      <trkpt lat="36.680206" lon="-4.982940">
        <ele>1587.81</ele>
        <time>2014-01-21T11:28:57Z</time>
      </trkpt>
      <trkpt lat="36.680198" lon="-4.982979">
        <ele>1588.47</ele>
        <time>2014-01-21T11:29:01Z</time>
      </trkpt>
      <trkpt lat="36.680200" lon="-4.982987">
        <ele>1588.61</ele>
        <time>2014-01-21T11:29:02Z</time>
      </trkpt>
      <trkpt lat="36.680188" lon="-4.983017">
        <ele>1588.81</ele>
        <time>2014-01-21T11:29:07Z</time>
      </trkpt>
      <trkpt lat="36.680180" lon="-4.983028">
        <ele>1588.85</ele>
        <time>2014-01-21T11:29:08Z</time>
      </trkpt>
      <trkpt lat="36.680156" lon="-4.983103">
        <ele>1589.64</ele>
        <time>2014-01-21T11:29:14Z</time>
      </trkpt>
      <trkpt lat="36.680157" lon="-4.983116">
        <ele>1590.06</ele>
        <time>2014-01-21T11:29:15Z</time>
      </trkpt>
      <trkpt lat="36.680158" lon="-4.983126">
        <ele>1590.45</ele>
        <time>2014-01-21T11:29:16Z</time>
      </trkpt>
      <trkpt lat="36.680164" lon="-4.983135">
        <ele>1590.88</ele>
        <time>2014-01-21T11:29:17Z</time>
      </trkpt>
      <trkpt lat="36.680181" lon="-4.983145">
        <ele>1591.81</ele>
        <time>2014-01-21T11:29:19Z</time>
      </trkpt>
      <trkpt lat="36.680188" lon="-4.983143">
        <ele>1592.02</ele>
        <time>2014-01-21T11:29:20Z</time>
      </trkpt>
      <trkpt lat="36.680208" lon="-4.983135">
        <ele>1592.81</ele>
        <time>2014-01-21T11:29:23Z</time>
      </trkpt>
      <trkpt lat="36.680235" lon="-4.983133">
        <ele>1593.87</ele>
        <time>2014-01-21T11:29:27Z</time>
      </trkpt>
      <trkpt lat="36.680254" lon="-4.983128">
        <ele>1594.68</ele>
        <time>2014-01-21T11:29:30Z</time>
      </trkpt>
      <trkpt lat="36.680258" lon="-4.983130">
        <ele>1594.84</ele>
        <time>2014-01-21T11:29:32Z</time>
      </trkpt>
      <trkpt lat="36.680271" lon="-4.983135">
        <ele>1595.42</ele>
        <time>2014-01-21T11:29:35Z</time>
      </trkpt>
      <trkpt lat="36.680296" lon="-4.983126">
        <ele>1596.22</ele>
        <time>2014-01-21T11:29:39Z</time>
      </trkpt>
      <trkpt lat="36.680307" lon="-4.983127">
        <ele>1596.83</ele>
        <time>2014-01-21T11:29:41Z</time>
      </trkpt>
      <trkpt lat="36.680322" lon="-4.983169">
        <ele>1598.46</ele>
        <time>2014-01-21T11:29:46Z</time>
      </trkpt>
      <trkpt lat="36.680321" lon="-4.983224">
        <ele>1599.81</ele>
        <time>2014-01-21T11:29:51Z</time>
      </trkpt>
      <trkpt lat="36.680324" lon="-4.983232">
        <ele>1600.22</ele>
        <time>2014-01-21T11:29:52Z</time>
      </trkpt>
      <trkpt lat="36.680323" lon="-4.983274">
        <ele>1601.20</ele>
        <time>2014-01-21T11:29:56Z</time>
      </trkpt>
      <trkpt lat="36.680326" lon="-4.983302">
        <ele>1602.01</ele>
        <time>2014-01-21T11:29:59Z</time>
      </trkpt>
      <trkpt lat="36.680327" lon="-4.983347">
        <ele>1603.03</ele>
        <time>2014-01-21T11:30:04Z</time>
      </trkpt>
      <trkpt lat="36.680330" lon="-4.983404">
        <ele>1604.41</ele>
        <time>2014-01-21T11:30:10Z</time>
      </trkpt>
      <trkpt lat="36.680329" lon="-4.983412">
        <ele>1604.66</ele>
        <time>2014-01-21T11:30:11Z</time>
      </trkpt>
      <trkpt lat="36.680320" lon="-4.983441">
        <ele>1604.90</ele>
        <time>2014-01-21T11:30:16Z</time>
      </trkpt>
      <trkpt lat="36.680311" lon="-4.983472">
        <ele>1605.09</ele>
        <time>2014-01-21T11:30:22Z</time>
      </trkpt>
      <trkpt lat="36.680307" lon="-4.983496">
        <ele>1605.47</ele>
        <time>2014-01-21T11:30:24Z</time>
      </trkpt>
      <trkpt lat="36.680307" lon="-4.983519">
        <ele>1606.06</ele>
        <time>2014-01-21T11:30:26Z</time>
      </trkpt>
      <trkpt lat="36.680300" lon="-4.983568">
        <ele>1606.67</ele>
        <time>2014-01-21T11:30:31Z</time>
      </trkpt>
      <trkpt lat="36.680288" lon="-4.983602">
        <ele>1607.04</ele>
        <time>2014-01-21T11:30:34Z</time>
      </trkpt>
      <trkpt lat="36.680271" lon="-4.983650">
        <ele>1607.23</ele>
        <time>2014-01-21T11:30:39Z</time>
      </trkpt>
      <trkpt lat="36.680226" lon="-4.983713">
        <ele>1606.81</ele>
        <time>2014-01-21T11:30:47Z</time>
      </trkpt>
      <trkpt lat="36.680205" lon="-4.983772">
        <ele>1607.04</ele>
        <time>2014-01-21T11:30:53Z</time>
      </trkpt>
      <trkpt lat="36.680190" lon="-4.983805">
        <ele>1607.22</ele>
        <time>2014-01-21T11:30:56Z</time>
      </trkpt>
      <trkpt lat="36.680177" lon="-4.983824">
        <ele>1607.08</ele>
        <time>2014-01-21T11:30:58Z</time>
      </trkpt>
      <trkpt lat="36.680150" lon="-4.983848">
        <ele>1606.47</ele>
        <time>2014-01-21T11:31:01Z</time>
      </trkpt>
      <trkpt lat="36.680142" lon="-4.983865">
        <ele>1606.48</ele>
        <time>2014-01-21T11:31:03Z</time>
      </trkpt>
      <trkpt lat="36.680111" lon="-4.983904">
        <ele>1606.03</ele>
        <time>2014-01-21T11:31:08Z</time>
      </trkpt>
      <trkpt lat="36.680105" lon="-4.983911">
        <ele>1605.88</ele>
        <time>2014-01-21T11:31:09Z</time>
      </trkpt>
      <trkpt lat="36.680097" lon="-4.983919">
        <ele>1605.82</ele>
        <time>2014-01-21T11:31:10Z</time>
      </trkpt>
      <trkpt lat="36.680043" lon="-4.983997">
        <ele>1605.28</ele>
        <time>2014-01-21T11:31:19Z</time>
      </trkpt>
      <trkpt lat="36.680023" lon="-4.984043">
        <ele>1605.21</ele>
        <time>2014-01-21T11:31:24Z</time>
      </trkpt>
      <trkpt lat="36.680016" lon="-4.984049">
        <ele>1605.21</ele>
        <time>2014-01-21T11:31:25Z</time>
      </trkpt>
      <trkpt lat="36.679998" lon="-4.984071">
        <ele>1604.87</ele>
        <time>2014-01-21T11:31:28Z</time>
      </trkpt>
      <trkpt lat="36.679982" lon="-4.984091">
        <ele>1604.46</ele>
        <time>2014-01-21T11:31:30Z</time>
      </trkpt>
      <trkpt lat="36.679976" lon="-4.984103">
        <ele>1604.46</ele>
        <time>2014-01-21T11:31:31Z</time>
      </trkpt>
      <trkpt lat="36.679961" lon="-4.984131">
        <ele>1604.25</ele>
        <time>2014-01-21T11:31:34Z</time>
      </trkpt>
      <trkpt lat="36.679917" lon="-4.984177">
        <ele>1602.67</ele>
        <time>2014-01-21T11:31:39Z</time>
      </trkpt>
      <trkpt lat="36.679881" lon="-4.984231">
        <ele>1601.04</ele>
        <time>2014-01-21T11:31:45Z</time>
      </trkpt>
      <trkpt lat="36.679860" lon="-4.984266">
        <ele>1600.47</ele>
        <time>2014-01-21T11:31:49Z</time>
      </trkpt>
      <trkpt lat="36.679833" lon="-4.984287">
        <ele>1599.06</ele>
        <time>2014-01-21T11:31:52Z</time>
      </trkpt>
      <trkpt lat="36.679826" lon="-4.984293">
        <ele>1598.81</ele>
        <time>2014-01-21T11:31:53Z</time>
      </trkpt>
      <trkpt lat="36.679797" lon="-4.984320">
        <ele>1597.62</ele>
        <time>2014-01-21T11:31:57Z</time>
      </trkpt>
      <trkpt lat="36.679788" lon="-4.984350">
        <ele>1597.41</ele>
        <time>2014-01-21T11:32:00Z</time>
      </trkpt>
      <trkpt lat="36.679757" lon="-4.984413">
        <ele>1596.61</ele>
        <time>2014-01-21T11:32:06Z</time>
      </trkpt>
      <trkpt lat="36.679764" lon="-4.984431">
        <ele>1597.06</ele>
        <time>2014-01-21T11:32:08Z</time>
      </trkpt>
      <trkpt lat="36.679787" lon="-4.984443">
        <ele>1598.27</ele>
        <time>2014-01-21T11:32:11Z</time>
      </trkpt>
      <trkpt lat="36.679821" lon="-4.984435">
        <ele>1599.82</ele>
        <time>2014-01-21T11:32:17Z</time>
      </trkpt>
      <trkpt lat="36.679869" lon="-4.984416">
        <ele>1602.02</ele>
        <time>2014-01-21T11:32:22Z</time>
      </trkpt>
      <trkpt lat="36.679878" lon="-4.984417">
        <ele>1602.49</ele>
        <time>2014-01-21T11:32:23Z</time>
      </trkpt>
      <trkpt lat="36.679925" lon="-4.984426">
        <ele>1604.83</ele>
        <time>2014-01-21T11:32:29Z</time>
      </trkpt>
      <trkpt lat="36.679934" lon="-4.984429">
        <ele>1605.46</ele>
        <time>2014-01-21T11:32:30Z</time>
      </trkpt>
      <trkpt lat="36.679989" lon="-4.984441">
        <ele>1608.25</ele>
        <time>2014-01-21T11:32:37Z</time>
      </trkpt>
      <trkpt lat="36.680015" lon="-4.984438">
        <ele>1609.22</ele>
        <time>2014-01-21T11:32:40Z</time>
      </trkpt>
      <trkpt lat="36.680055" lon="-4.984432">
        <ele>1611.01</ele>
        <time>2014-01-21T11:32:45Z</time>
      </trkpt>
      <trkpt lat="36.680061" lon="-4.984432">
        <ele>1611.25</ele>
        <time>2014-01-21T11:32:46Z</time>
      </trkpt>
      <trkpt lat="36.680101" lon="-4.984444">
        <ele>1613.03</ele>
        <time>2014-01-21T11:32:50Z</time>
      </trkpt>
      <trkpt lat="36.680115" lon="-4.984450">
        <ele>1613.68</ele>
        <time>2014-01-21T11:32:52Z</time>
      </trkpt>
      <trkpt lat="36.680133" lon="-4.984453">
        <ele>1614.50</ele>
        <time>2014-01-21T11:32:56Z</time>
      </trkpt>
      <trkpt lat="36.680168" lon="-4.984445">
        <ele>1616.08</ele>
        <time>2014-01-21T11:33:01Z</time>
      </trkpt>
      <trkpt lat="36.680171" lon="-4.984447">
        <ele>1616.09</ele>
        <time>2014-01-21T11:33:22Z</time>
      </trkpt>
      <trkpt lat="36.680191" lon="-4.984444">
        <ele>1616.87</ele>
        <time>2014-01-21T11:33:25Z</time>
      </trkpt>
      <trkpt lat="36.680207" lon="-4.984445">
        <ele>1617.70</ele>
        <time>2014-01-21T11:33:27Z</time>
      </trkpt>
      <trkpt lat="36.680232" lon="-4.984431">
        <ele>1618.63</ele>
        <time>2014-01-21T11:33:31Z</time>
      </trkpt>
      <trkpt lat="36.680236" lon="-4.984426">
        <ele>1618.85</ele>
        <time>2014-01-21T11:33:32Z</time>
      </trkpt>
      <trkpt lat="36.680243" lon="-4.984415">
        <ele>1619.06</ele>
        <time>2014-01-21T11:33:35Z</time>
      </trkpt>
      <trkpt lat="36.680250" lon="-4.984408">
        <ele>1619.24</ele>
        <time>2014-01-21T11:33:42Z</time>
      </trkpt>
      <trkpt lat="36.680258" lon="-4.984397">
        <ele>1619.45</ele>
        <time>2014-01-21T11:33:46Z</time>
      </trkpt>
      <trkpt lat="36.680264" lon="-4.984401">
        <ele>1619.86</ele>
        <time>2014-01-21T11:34:06Z</time>
      </trkpt>
      <trkpt lat="36.680268" lon="-4.984410">
        <ele>1620.09</ele>
        <time>2014-01-21T11:34:07Z</time>
      </trkpt>
      <trkpt lat="36.680273" lon="-4.984416">
        <ele>1620.27</ele>
        <time>2014-01-21T11:34:08Z</time>
      </trkpt>
      <trkpt lat="36.680279" lon="-4.984418">
        <ele>1620.62</ele>
        <time>2014-01-21T11:34:10Z</time>
      </trkpt>
      <trkpt lat="36.680289" lon="-4.984417">
        <ele>1621.01</ele>
        <time>2014-01-21T11:34:12Z</time>
      </trkpt>
      <trkpt lat="36.680317" lon="-4.984417">
        <ele>1622.27</ele>
        <time>2014-01-21T11:34:16Z</time>
      </trkpt>
      <trkpt lat="36.680323" lon="-4.984418">
        <ele>1622.43</ele>
        <time>2014-01-21T11:34:17Z</time>
      </trkpt>
      <trkpt lat="36.680345" lon="-4.984395">
        <ele>1623.26</ele>
        <time>2014-01-21T11:34:21Z</time>
      </trkpt>
      <trkpt lat="36.680359" lon="-4.984368">
        <ele>1623.66</ele>
        <time>2014-01-21T11:34:24Z</time>
      </trkpt>
      <trkpt lat="36.680363" lon="-4.984362">
        <ele>1623.85</ele>
        <time>2014-01-21T11:34:26Z</time>
      </trkpt>
      <trkpt lat="36.680383" lon="-4.984353">
        <ele>1624.66</ele>
        <time>2014-01-21T11:34:29Z</time>
      </trkpt>
      <trkpt lat="36.680387" lon="-4.984351">
        <ele>1624.70</ele>
        <time>2014-01-21T11:34:30Z</time>
      </trkpt>
      <trkpt lat="36.680415" lon="-4.984353">
        <ele>1625.87</ele>
        <time>2014-01-21T11:34:34Z</time>
      </trkpt>
      <trkpt lat="36.680423" lon="-4.984354">
        <ele>1626.28</ele>
        <time>2014-01-21T11:34:35Z</time>
      </trkpt>
      <trkpt lat="36.680432" lon="-4.984357">
        <ele>1626.62</ele>
        <time>2014-01-21T11:34:36Z</time>
      </trkpt>
      <trkpt lat="36.680450" lon="-4.984362">
        <ele>1627.41</ele>
        <time>2014-01-21T11:34:40Z</time>
      </trkpt>
      <trkpt lat="36.680465" lon="-4.984370">
        <ele>1628.21</ele>
        <time>2014-01-21T11:34:42Z</time>
      </trkpt>
      <trkpt lat="36.680489" lon="-4.984388">
        <ele>1629.47</ele>
        <time>2014-01-21T11:34:46Z</time>
      </trkpt>
      <trkpt lat="36.680508" lon="-4.984394">
        <ele>1630.28</ele>
        <time>2014-01-21T11:34:49Z</time>
      </trkpt>
      <trkpt lat="36.680533" lon="-4.984395">
        <ele>1631.24</ele>
        <time>2014-01-21T11:34:54Z</time>
      </trkpt>
      <trkpt lat="36.680538" lon="-4.984394">
        <ele>1631.48</ele>
        <time>2014-01-21T11:34:55Z</time>
      </trkpt>
      <trkpt lat="36.680544" lon="-4.984395">
        <ele>1631.87</ele>
        <time>2014-01-21T11:34:57Z</time>
      </trkpt>
      <trkpt lat="36.680576" lon="-4.984431">
        <ele>1633.45</ele>
        <time>2014-01-21T11:35:02Z</time>
      </trkpt>
      <trkpt lat="36.680587" lon="-4.984446">
        <ele>1634.09</ele>
        <time>2014-01-21T11:35:04Z</time>
      </trkpt>
      <trkpt lat="36.680605" lon="-4.984500">
        <ele>1635.27</ele>
        <time>2014-01-21T11:35:09Z</time>
      </trkpt>
      <trkpt lat="36.680606" lon="-4.984515">
        <ele>1635.42</ele>
        <time>2014-01-21T11:35:10Z</time>
      </trkpt>
      <trkpt lat="36.680605" lon="-4.984547">
        <ele>1635.61</ele>
        <time>2014-01-21T11:35:13Z</time>
      </trkpt>
      <trkpt lat="36.680605" lon="-4.984569">
        <ele>1635.84</ele>
        <time>2014-01-21T11:35:15Z</time>
      </trkpt>
      <trkpt lat="36.680611" lon="-4.984608">
        <ele>1636.43</ele>
        <time>2014-01-21T11:35:19Z</time>
      </trkpt>
      <trkpt lat="36.680611" lon="-4.984658">
        <ele>1636.90</ele>
        <time>2014-01-21T11:35:24Z</time>
      </trkpt>
      <trkpt lat="36.680612" lon="-4.984666">
        <ele>1637.06</ele>
        <time>2014-01-21T11:35:25Z</time>
      </trkpt>
      <trkpt lat="36.680613" lon="-4.984694">
        <ele>1637.27</ele>
        <time>2014-01-21T11:35:30Z</time>
      </trkpt>
      <trkpt lat="36.680603" lon="-4.984748">
        <ele>1637.41</ele>
        <time>2014-01-21T11:35:36Z</time>
      </trkpt>
      <trkpt lat="36.680578" lon="-4.984825">
        <ele>1636.82</ele>
        <time>2014-01-21T11:35:42Z</time>
      </trkpt>
      <trkpt lat="36.680589" lon="-4.984877">
        <ele>1637.87</ele>
        <time>2014-01-21T11:35:47Z</time>
      </trkpt>
      <trkpt lat="36.680594" lon="-4.984885">
        <ele>1638.26</ele>
        <time>2014-01-21T11:35:48Z</time>
      </trkpt>
      <trkpt lat="36.680605" lon="-4.984898">
        <ele>1638.62</ele>
        <time>2014-01-21T11:35:50Z</time>
      </trkpt>
      <trkpt lat="36.680619" lon="-4.984917">
        <ele>1639.42</ele>
        <time>2014-01-21T11:35:54Z</time>
      </trkpt>
      <trkpt lat="36.680639" lon="-4.984941">
        <ele>1640.69</ele>
        <time>2014-01-21T11:35:59Z</time>
      </trkpt>
      <trkpt lat="36.680649" lon="-4.984958">
        <ele>1641.24</ele>
        <time>2014-01-21T11:36:02Z</time>
      </trkpt>
      <trkpt lat="36.680650" lon="-4.984981">
        <ele>1641.41</ele>
        <time>2014-01-21T11:36:04Z</time>
      </trkpt>
      <trkpt lat="36.680652" lon="-4.985022">
        <ele>1642.08</ele>
        <time>2014-01-21T11:36:08Z</time>
      </trkpt>
      <trkpt lat="36.680652" lon="-4.985032">
        <ele>1642.03</ele>
        <time>2014-01-21T11:36:09Z</time>
      </trkpt>
      <trkpt lat="36.680653" lon="-4.985039">
        <ele>1642.06</ele>
        <time>2014-01-21T11:36:10Z</time>
      </trkpt>
      <trkpt lat="36.680663" lon="-4.985062">
        <ele>1642.63</ele>
        <time>2014-01-21T11:36:13Z</time>
      </trkpt>
      <trkpt lat="36.680662" lon="-4.985075">
        <ele>1642.66</ele>
        <time>2014-01-21T11:36:15Z</time>
      </trkpt>
      <trkpt lat="36.680647" lon="-4.985128">
        <ele>1642.41</ele>
        <time>2014-01-21T11:36:21Z</time>
      </trkpt>
      <trkpt lat="36.680664" lon="-4.985167">
        <ele>1643.41</ele>
        <time>2014-01-21T11:36:27Z</time>
      </trkpt>
      <trkpt lat="36.680669" lon="-4.985193">
        <ele>1643.90</ele>
        <time>2014-01-21T11:36:31Z</time>
      </trkpt>
      <trkpt lat="36.680667" lon="-4.985205">
        <ele>1643.87</ele>
        <time>2014-01-21T11:36:33Z</time>
      </trkpt>
      <trkpt lat="36.680668" lon="-4.985218">
        <ele>1644.01</ele>
        <time>2014-01-21T11:36:35Z</time>
      </trkpt>
      <trkpt lat="36.680667" lon="-4.985244">
        <ele>1644.08</ele>
        <time>2014-01-21T11:36:38Z</time>
      </trkpt>
      <trkpt lat="36.680692" lon="-4.985287">
        <ele>1645.47</ele>
        <time>2014-01-21T11:36:43Z</time>
      </trkpt>
      <trkpt lat="36.680700" lon="-4.985317">
        <ele>1646.09</ele>
        <time>2014-01-21T11:36:46Z</time>
      </trkpt>
      <trkpt lat="36.680707" lon="-4.985337">
        <ele>1646.45</ele>
        <time>2014-01-21T11:36:48Z</time>
      </trkpt>
      <trkpt lat="36.680719" lon="-4.985362">
        <ele>1647.23</ele>
        <time>2014-01-21T11:36:51Z</time>
      </trkpt>
      <trkpt lat="36.680725" lon="-4.985393">
        <ele>1647.65</ele>
        <time>2014-01-21T11:36:54Z</time>
      </trkpt>
      <trkpt lat="36.680721" lon="-4.985406">
        <ele>1647.61</ele>
        <time>2014-01-21T11:36:56Z</time>
      </trkpt>
      <trkpt lat="36.680730" lon="-4.985418">
        <ele>1648.01</ele>
        <time>2014-01-21T11:36:58Z</time>
      </trkpt>
      <trkpt lat="36.680746" lon="-4.985446">
        <ele>1648.83</ele>
        <time>2014-01-21T11:37:02Z</time>
      </trkpt>
      <trkpt lat="36.680770" lon="-4.985479">
        <ele>1650.29</ele>
        <time>2014-01-21T11:37:06Z</time>
      </trkpt>
      <trkpt lat="36.680771" lon="-4.985478">
        <ele>1650.24</ele>
        <time>2014-01-21T11:37:07Z</time>
      </trkpt>
      <trkpt lat="36.680776" lon="-4.985514">
        <ele>1650.67</ele>
        <time>2014-01-21T11:37:12Z</time>
      </trkpt>
      <trkpt lat="36.680781" lon="-4.985530">
        <ele>1650.85</ele>
        <time>2014-01-21T11:37:14Z</time>
      </trkpt>
      <trkpt lat="36.680796" lon="-4.985551">
        <ele>1651.63</ele>
        <time>2014-01-21T11:37:17Z</time>
      </trkpt>
      <trkpt lat="36.680797" lon="-4.985557">
        <ele>1651.87</ele>
        <time>2014-01-21T11:37:18Z</time>
      </trkpt>
      <trkpt lat="36.680807" lon="-4.985593">
        <ele>1652.44</ele>
        <time>2014-01-21T11:37:22Z</time>
      </trkpt>
      <trkpt lat="36.680816" lon="-4.985606">
        <ele>1652.81</ele>
        <time>2014-01-21T11:37:24Z</time>
      </trkpt>
      <trkpt lat="36.680832" lon="-4.985626">
        <ele>1653.62</ele>
        <time>2014-01-21T11:37:28Z</time>
      </trkpt>
      <trkpt lat="36.680832" lon="-4.985635">
        <ele>1653.86</ele>
        <time>2014-01-21T11:37:33Z</time>
      </trkpt>
      <trkpt lat="36.680850" lon="-4.985663">
        <ele>1654.88</ele>
        <time>2014-01-21T11:37:38Z</time>
      </trkpt>
      <trkpt lat="36.680859" lon="-4.985681">
        <ele>1655.44</ele>
        <time>2014-01-21T11:37:43Z</time>
      </trkpt>
      <trkpt lat="36.680861" lon="-4.985702">
        <ele>1655.68</ele>
        <time>2014-01-21T11:37:47Z</time>
      </trkpt>
      <trkpt lat="36.680860" lon="-4.985732">
        <ele>1655.62</ele>
        <time>2014-01-21T11:37:51Z</time>
      </trkpt>
      <trkpt lat="36.680859" lon="-4.985745">
        <ele>1655.88</ele>
        <time>2014-01-21T11:37:53Z</time>
      </trkpt>
      <trkpt lat="36.680865" lon="-4.985817">
        <ele>1656.48</ele>
        <time>2014-01-21T11:38:00Z</time>
      </trkpt>
      <trkpt lat="36.680859" lon="-4.985876">
        <ele>1656.49</ele>
        <time>2014-01-21T11:38:07Z</time>
      </trkpt>
      <trkpt lat="36.680868" lon="-4.985909">
        <ele>1657.02</ele>
        <time>2014-01-21T11:38:11Z</time>
      </trkpt>
      <trkpt lat="36.680872" lon="-4.985915">
        <ele>1657.21</ele>
        <time>2014-01-21T11:38:12Z</time>
      </trkpt>
      <trkpt lat="36.680910" lon="-4.985938">
        <ele>1659.23</ele>
        <time>2014-01-21T11:38:21Z</time>
      </trkpt>
      <trkpt lat="36.680928" lon="-4.985949">
        <ele>1660.04</ele>
        <time>2014-01-21T11:38:41Z</time>
      </trkpt>
      <trkpt lat="36.680945" lon="-4.985971">
        <ele>1660.85</ele>
        <time>2014-01-21T11:38:45Z</time>
      </trkpt>
      <trkpt lat="36.680971" lon="-4.985972">
        <ele>1662.01</ele>
        <time>2014-01-21T11:38:50Z</time>
      </trkpt>
      <trkpt lat="36.680975" lon="-4.985973">
        <ele>1662.21</ele>
        <time>2014-01-21T11:38:51Z</time>
      </trkpt>
      <trkpt lat="36.680985" lon="-4.986004">
        <ele>1662.81</ele>
        <time>2014-01-21T11:38:55Z</time>
      </trkpt>
      <trkpt lat="36.680988" lon="-4.986011">
        <ele>1663.07</ele>
        <time>2014-01-21T11:38:57Z</time>
      </trkpt>
      <trkpt lat="36.681013" lon="-4.986029">
        <ele>1664.27</ele>
        <time>2014-01-21T11:39:03Z</time>
      </trkpt>
      <trkpt lat="36.681035" lon="-4.986019">
        <ele>1665.30</ele>
        <time>2014-01-21T11:39:19Z</time>
      </trkpt>
      <trkpt lat="36.681041" lon="-4.986008">
        <ele>1665.42</ele>
        <time>2014-01-21T11:39:22Z</time>
      </trkpt>
      <trkpt lat="36.681052" lon="-4.986003">
        <ele>1665.88</ele>
        <time>2014-01-21T11:39:23Z</time>
      </trkpt>
      <trkpt lat="36.681059" lon="-4.986000">
        <ele>1666.26</ele>
        <time>2014-01-21T11:39:25Z</time>
      </trkpt>
      <trkpt lat="36.681075" lon="-4.986000">
        <ele>1667.02</ele>
        <time>2014-01-21T11:39:28Z</time>
      </trkpt>
      <trkpt lat="36.681082" lon="-4.986000">
        <ele>1667.21</ele>
        <time>2014-01-21T11:39:31Z</time>
      </trkpt>
      <trkpt lat="36.681095" lon="-4.986001">
        <ele>1667.84</ele>
        <time>2014-01-21T11:39:35Z</time>
      </trkpt>
      <trkpt lat="36.681094" lon="-4.986000">
        <ele>1667.86</ele>
        <time>2014-01-21T11:39:36Z</time>
      </trkpt>
      <trkpt lat="36.681114" lon="-4.986026">
        <ele>1668.84</ele>
        <time>2014-01-21T11:39:41Z</time>
      </trkpt>
      <trkpt lat="36.681113" lon="-4.986065">
        <ele>1668.85</ele>
        <time>2014-01-21T11:39:45Z</time>
      </trkpt>
      <trkpt lat="36.681117" lon="-4.986083">
        <ele>1669.06</ele>
        <time>2014-01-21T11:39:47Z</time>
      </trkpt>
      <trkpt lat="36.681127" lon="-4.986130">
        <ele>1669.61</ele>
        <time>2014-01-21T11:39:54Z</time>
      </trkpt>
      <trkpt lat="36.681142" lon="-4.986164">
        <ele>1670.44</ele>
        <time>2014-01-21T11:40:00Z</time>
      </trkpt>
      <trkpt lat="36.681147" lon="-4.986173">
        <ele>1670.67</ele>
        <time>2014-01-21T11:40:01Z</time>
      </trkpt>
      <trkpt lat="36.681162" lon="-4.986194">
        <ele>1671.44</ele>
        <time>2014-01-21T11:40:06Z</time>
      </trkpt>
      <trkpt lat="36.681178" lon="-4.986208">
        <ele>1672.02</ele>
        <time>2014-01-21T11:40:09Z</time>
      </trkpt>
      <trkpt lat="36.681182" lon="-4.986211">
        <ele>1672.21</ele>
        <time>2014-01-21T11:40:11Z</time>
      </trkpt>
      <trkpt lat="36.681182" lon="-4.986229">
        <ele>1672.41</ele>
        <time>2014-01-21T11:40:14Z</time>
      </trkpt>
      <trkpt lat="36.681181" lon="-4.986229">
        <ele>1672.26</ele>
        <time>2014-01-21T11:40:15Z</time>
      </trkpt>
      <trkpt lat="36.681207" lon="-4.986248">
        <ele>1673.43</ele>
        <time>2014-01-21T11:40:19Z</time>
      </trkpt>
      <trkpt lat="36.681212" lon="-4.986249">
        <ele>1673.64</ele>
        <time>2014-01-21T11:40:20Z</time>
      </trkpt>
      <trkpt lat="36.681220" lon="-4.986258">
        <ele>1674.03</ele>
        <time>2014-01-21T11:40:22Z</time>
      </trkpt>
      <trkpt lat="36.681225" lon="-4.986263">
        <ele>1674.24</ele>
        <time>2014-01-21T11:40:27Z</time>
      </trkpt>
      <trkpt lat="36.681245" lon="-4.986266">
        <ele>1675.02</ele>
        <time>2014-01-21T11:40:33Z</time>
      </trkpt>
      <trkpt lat="36.681257" lon="-4.986263">
        <ele>1675.68</ele>
        <time>2014-01-21T11:40:37Z</time>
      </trkpt>
      <trkpt lat="36.681264" lon="-4.986258">
        <ele>1675.86</ele>
        <time>2014-01-21T11:40:38Z</time>
      </trkpt>
      <trkpt lat="36.681275" lon="-4.986259">
        <ele>1676.42</ele>
        <time>2014-01-21T11:40:45Z</time>
      </trkpt>
      <trkpt lat="36.681284" lon="-4.986259">
        <ele>1676.81</ele>
        <time>2014-01-21T11:40:47Z</time>
      </trkpt>
      <trkpt lat="36.681286" lon="-4.986262">
        <ele>1676.85</ele>
        <time>2014-01-21T11:40:49Z</time>
      </trkpt>
      <trkpt lat="36.681304" lon="-4.986277">
        <ele>1677.70</ele>
        <time>2014-01-21T11:40:52Z</time>
      </trkpt>
      <trkpt lat="36.681314" lon="-4.986291">
        <ele>1678.03</ele>
        <time>2014-01-21T11:40:54Z</time>
      </trkpt>
      <trkpt lat="36.681340" lon="-4.986316">
        <ele>1679.26</ele>
        <time>2014-01-21T11:40:58Z</time>
      </trkpt>
      <trkpt lat="36.681349" lon="-4.986328">
        <ele>1679.70</ele>
        <time>2014-01-21T11:41:00Z</time>
      </trkpt>
      <trkpt lat="36.681357" lon="-4.986351">
        <ele>1679.84</ele>
        <time>2014-01-21T11:41:06Z</time>
      </trkpt>
      <trkpt lat="36.681359" lon="-4.986359">
        <ele>1680.08</ele>
        <time>2014-01-21T11:41:07Z</time>
      </trkpt>
      <trkpt lat="36.681379" lon="-4.986384">
        <ele>1680.85</ele>
        <time>2014-01-21T11:41:12Z</time>
      </trkpt>
      <trkpt lat="36.681390" lon="-4.986401">
        <ele>1681.20</ele>
        <time>2014-01-21T11:41:15Z</time>
      </trkpt>
      <trkpt lat="36.681394" lon="-4.986404">
        <ele>1681.42</ele>
        <time>2014-01-21T11:41:17Z</time>
      </trkpt>
      <trkpt lat="36.681408" lon="-4.986420">
        <ele>1682.01</ele>
        <time>2014-01-21T11:41:19Z</time>
      </trkpt>
      <trkpt lat="36.681413" lon="-4.986436">
        <ele>1682.25</ele>
        <time>2014-01-21T11:41:22Z</time>
      </trkpt>
      <trkpt lat="36.681416" lon="-4.986441">
        <ele>1682.42</ele>
        <time>2014-01-21T11:41:27Z</time>
      </trkpt>
      <trkpt lat="36.681441" lon="-4.986461">
        <ele>1683.48</ele>
        <time>2014-01-21T11:41:33Z</time>
      </trkpt>
      <trkpt lat="36.681472" lon="-4.986455">
        <ele>1684.67</ele>
        <time>2014-01-21T11:41:39Z</time>
      </trkpt>
      <trkpt lat="36.681482" lon="-4.986465">
        <ele>1685.08</ele>
        <time>2014-01-21T11:41:41Z</time>
      </trkpt>
      <trkpt lat="36.681504" lon="-4.986472">
        <ele>1685.89</ele>
        <time>2014-01-21T11:41:44Z</time>
      </trkpt>
      <trkpt lat="36.681507" lon="-4.986477">
        <ele>1686.06</ele>
        <time>2014-01-21T11:41:45Z</time>
      </trkpt>
      <trkpt lat="36.681528" lon="-4.986476">
        <ele>1686.80</ele>
        <time>2014-01-21T11:41:48Z</time>
      </trkpt>
      <trkpt lat="36.681542" lon="-4.986466">
        <ele>1687.42</ele>
        <time>2014-01-21T11:41:50Z</time>
      </trkpt>
      <trkpt lat="36.681554" lon="-4.986459">
        <ele>1688.01</ele>
        <time>2014-01-21T11:41:54Z</time>
      </trkpt>
      <trkpt lat="36.681565" lon="-4.986454">
        <ele>1688.45</ele>
        <time>2014-01-21T11:41:55Z</time>
      </trkpt>
      <trkpt lat="36.681595" lon="-4.986455">
        <ele>1689.68</ele>
        <time>2014-01-21T11:42:00Z</time>
      </trkpt>
      <trkpt lat="36.681613" lon="-4.986497">
        <ele>1690.22</ele>
        <time>2014-01-21T11:42:06Z</time>
      </trkpt>
      <trkpt lat="36.681630" lon="-4.986512">
        <ele>1691.03</ele>
        <time>2014-01-21T11:42:12Z</time>
      </trkpt>
      <trkpt lat="36.681644" lon="-4.986518">
        <ele>1691.43</ele>
        <time>2014-01-21T11:42:14Z</time>
      </trkpt>
      <trkpt lat="36.681648" lon="-4.986527">
        <ele>1691.66</ele>
        <time>2014-01-21T11:43:06Z</time>
      </trkpt>
      <trkpt lat="36.681653" lon="-4.986536">
        <ele>1691.82</ele>
        <time>2014-01-21T11:44:10Z</time>
      </trkpt>
      <trkpt lat="36.681660" lon="-4.986542">
        <ele>1692.08</ele>
        <time>2014-01-21T11:44:22Z</time>
      </trkpt>
      <trkpt lat="36.681678" lon="-4.986530">
        <ele>1692.69</ele>
        <time>2014-01-21T11:45:02Z</time>
      </trkpt>
      <trkpt lat="36.681680" lon="-4.986521">
        <ele>1692.69</ele>
        <time>2014-01-21T11:46:05Z</time>
      </trkpt>
      <trkpt lat="36.681681" lon="-4.986513">
        <ele>1692.88</ele>
        <time>2014-01-21T11:46:39Z</time>
      </trkpt>
      <trkpt lat="36.681684" lon="-4.986504">
        <ele>1692.87</ele>
        <time>2014-01-21T11:46:51Z</time>
      </trkpt>
      <trkpt lat="36.681692" lon="-4.986499">
        <ele>1693.01</ele>
        <time>2014-01-21T11:47:02Z</time>
      </trkpt>
      <trkpt lat="36.681700" lon="-4.986496">
        <ele>1693.22</ele>
        <time>2014-01-21T11:47:15Z</time>
      </trkpt>
      <trkpt lat="36.681712" lon="-4.986517">
        <ele>1693.43</ele>
        <time>2014-01-21T11:47:20Z</time>
      </trkpt>
      <trkpt lat="36.681734" lon="-4.986536">
        <ele>1693.83</ele>
        <time>2014-01-21T11:47:25Z</time>
      </trkpt>
      <trkpt lat="36.681754" lon="-4.986575">
        <ele>1694.30</ele>
        <time>2014-01-21T11:47:28Z</time>
      </trkpt>
      <trkpt lat="36.681758" lon="-4.986583">
        <ele>1694.44</ele>
        <time>2014-01-21T11:47:30Z</time>
      </trkpt>
      <trkpt lat="36.681761" lon="-4.986597">
        <ele>1694.42</ele>
        <time>2014-01-21T11:47:32Z</time>
      </trkpt>
      <trkpt lat="36.681781" lon="-4.986614">
        <ele>1694.90</ele>
        <time>2014-01-21T11:47:36Z</time>
      </trkpt>
      <trkpt lat="36.681789" lon="-4.986615">
        <ele>1695.06</ele>
        <time>2014-01-21T11:47:37Z</time>
      </trkpt>
      <trkpt lat="36.681819" lon="-4.986606">
        <ele>1695.64</ele>
        <time>2014-01-21T11:47:42Z</time>
      </trkpt>
      <trkpt lat="36.681827" lon="-4.986608">
        <ele>1695.82</ele>
        <time>2014-01-21T11:47:43Z</time>
      </trkpt>
      <trkpt lat="36.681843" lon="-4.986611">
        <ele>1696.21</ele>
        <time>2014-01-21T11:47:45Z</time>
      </trkpt>
      <trkpt lat="36.681877" lon="-4.986624">
        <ele>1697.03</ele>
        <time>2014-01-21T11:47:50Z</time>
      </trkpt>
      <trkpt lat="36.681885" lon="-4.986623">
        <ele>1697.22</ele>
        <time>2014-01-21T11:47:51Z</time>
      </trkpt>
      <trkpt lat="36.681901" lon="-4.986610">
        <ele>1697.69</ele>
        <time>2014-01-21T11:47:54Z</time>
      </trkpt>
      <trkpt lat="36.681907" lon="-4.986604">
        <ele>1697.69</ele>
        <time>2014-01-21T11:47:55Z</time>
      </trkpt>
      <trkpt lat="36.681924" lon="-4.986586">
        <ele>1698.26</ele>
        <time>2014-01-21T11:47:59Z</time>
      </trkpt>
      <trkpt lat="36.681934" lon="-4.986584">
        <ele>1698.49</ele>
        <time>2014-01-21T11:48:00Z</time>
      </trkpt>
      <trkpt lat="36.681940" lon="-4.986581">
        <ele>1698.68</ele>
        <time>2014-01-21T11:48:01Z</time>
      </trkpt>
      <trkpt lat="36.681950" lon="-4.986580">
        <ele>1698.85</ele>
        <time>2014-01-21T11:48:04Z</time>
      </trkpt>
      <trkpt lat="36.681959" lon="-4.986587">
        <ele>1699.03</ele>
        <time>2014-01-21T11:48:05Z</time>
      </trkpt>
      <trkpt lat="36.681975" lon="-4.986624">
        <ele>1699.22</ele>
        <time>2014-01-21T11:48:09Z</time>
      </trkpt>
      <trkpt lat="36.681986" lon="-4.986653">
        <ele>1699.41</ele>
        <time>2014-01-21T11:48:12Z</time>
      </trkpt>
      <trkpt lat="36.681995" lon="-4.986660">
        <ele>1699.61</ele>
        <time>2014-01-21T11:48:13Z</time>
      </trkpt>
      <trkpt lat="36.682001" lon="-4.986682">
        <ele>1699.82</ele>
        <time>2014-01-21T11:48:16Z</time>
      </trkpt>
      <trkpt lat="36.682004" lon="-4.986687">
        <ele>1700.05</ele>
        <time>2014-01-21T11:48:18Z</time>
      </trkpt>
      <trkpt lat="36.682019" lon="-4.986712">
        <ele>1700.63</ele>
        <time>2014-01-21T11:48:21Z</time>
      </trkpt>
      <trkpt lat="36.682047" lon="-4.986733">
        <ele>1701.48</ele>
        <time>2014-01-21T11:48:25Z</time>
      </trkpt>
      <trkpt lat="36.682051" lon="-4.986740">
        <ele>1701.65</ele>
        <time>2014-01-21T11:48:26Z</time>
      </trkpt>
      <trkpt lat="36.682079" lon="-4.986747">
        <ele>1702.49</ele>
        <time>2014-01-21T11:48:30Z</time>
      </trkpt>
      <trkpt lat="36.682084" lon="-4.986751">
        <ele>1702.62</ele>
        <time>2014-01-21T11:48:31Z</time>
      </trkpt>
      <trkpt lat="36.682090" lon="-4.986757">
        <ele>1702.88</ele>
        <time>2014-01-21T11:48:32Z</time>
      </trkpt>
      <trkpt lat="36.682122" lon="-4.986785">
        <ele>1704.01</ele>
        <time>2014-01-21T11:48:37Z</time>
      </trkpt>
      <trkpt lat="36.682144" lon="-4.986797">
        <ele>1704.61</ele>
        <time>2014-01-21T11:48:41Z</time>
      </trkpt>
      <trkpt lat="36.682174" lon="-4.986814">
        <ele>1705.69</ele>
        <time>2014-01-21T11:48:45Z</time>
      </trkpt>
      <trkpt lat="36.682195" lon="-4.986821">
        <ele>1706.22</ele>
        <time>2014-01-21T11:48:48Z</time>
      </trkpt>
      <trkpt lat="36.682222" lon="-4.986827">
        <ele>1707.03</ele>
        <time>2014-01-21T11:48:51Z</time>
      </trkpt>
      <trkpt lat="36.682255" lon="-4.986839">
        <ele>1708.08</ele>
        <time>2014-01-21T11:48:55Z</time>
      </trkpt>
      <trkpt lat="36.682284" lon="-4.986845">
        <ele>1708.82</ele>
        <time>2014-01-21T11:48:58Z</time>
      </trkpt>
      <trkpt lat="36.682335" lon="-4.986862">
        <ele>1710.47</ele>
        <time>2014-01-21T11:49:05Z</time>
      </trkpt>
      <trkpt lat="36.682341" lon="-4.986868">
        <ele>1710.82</ele>
        <time>2014-01-21T11:49:11Z</time>
      </trkpt>
      <trkpt lat="36.682357" lon="-4.986878">
        <ele>1711.45</ele>
        <time>2014-01-21T11:49:15Z</time>
      </trkpt>
      <trkpt lat="36.682381" lon="-4.986896">
        <ele>1712.25</ele>
        <time>2014-01-21T11:49:18Z</time>
      </trkpt>
      <trkpt lat="36.682438" lon="-4.986893">
        <ele>1713.81</ele>
        <time>2014-01-21T11:49:23Z</time>
      </trkpt>
      <trkpt lat="36.682450" lon="-4.986889">
        <ele>1714.01</ele>
        <time>2014-01-21T11:49:24Z</time>
      </trkpt>
      <trkpt lat="36.682501" lon="-4.986881">
        <ele>1715.02</ele>
        <time>2014-01-21T11:49:29Z</time>
      </trkpt>
      <trkpt lat="36.682515" lon="-4.986879">
        <ele>1714.83</ele>
        <time>2014-01-21T11:49:30Z</time>
      </trkpt>
      <trkpt lat="36.681888" lon="-4.986524">
        <ele>1694.42</ele>
        <time>2022-03-06T14:49:25Z</time>
      </trkpt>
      <trkpt lat="36.681887" lon="-4.986519">
        <ele>1694.46</ele>
        <time>2022-03-06T14:49:28Z</time>
      </trkpt>
      <trkpt lat="36.681916" lon="-4.986527">
        <ele>1695.49</ele>
        <time>2022-03-06T14:49:43Z</time>
      </trkpt>
      <trkpt lat="36.681962" lon="-4.986608">
        <ele>1697.86</ele>
        <time>2022-03-06T14:49:59Z</time>
      </trkpt>
      <trkpt lat="36.682001" lon="-4.986678">
        <ele>1700.29</ele>
        <time>2022-03-06T14:50:06Z</time>
      </trkpt>
      <trkpt lat="36.682007" lon="-4.986687">
        <ele>1701.63</ele>
        <time>2022-03-06T14:50:07Z</time>
      </trkpt>
      <trkpt lat="36.682063" lon="-4.986812">
        <ele>1700.21</ele>
        <time>2022-03-06T14:50:22Z</time>
      </trkpt>
      <trkpt lat="36.682064" lon="-4.986816">
        <ele>1700.22</ele>
        <time>2022-03-06T14:50:24Z</time>
      </trkpt>
      <trkpt lat="36.682077" lon="-4.987181">
        <ele>1700.27</ele>
        <time>2022-03-06T14:50:55Z</time>
      </trkpt>
      <trkpt lat="36.682080" lon="-4.987240">
        <ele>1700.71</ele>
        <time>2022-03-06T14:50:59Z</time>
      </trkpt>
      <trkpt lat="36.682086" lon="-4.987265">
        <ele>1701.61</ele>
        <time>2022-03-06T14:51:05Z</time>
      </trkpt>
      <trkpt lat="36.682085" lon="-4.987357">
        <ele>1703.52</ele>
        <time>2022-03-06T14:51:19Z</time>
      </trkpt>
      <trkpt lat="36.682084" lon="-4.987371">
        <ele>1703.51</ele>
        <time>2022-03-06T14:51:20Z</time>
      </trkpt>
      <trkpt lat="36.682056" lon="-4.987488">
        <ele>1706.95</ele>
        <time>2022-03-06T14:51:31Z</time>
      </trkpt>
      <trkpt lat="36.682050" lon="-4.987497">
        <ele>1706.93</ele>
        <time>2022-03-06T14:51:32Z</time>
      </trkpt>
      <trkpt lat="36.682001" lon="-4.987619">
        <ele>1706.07</ele>
        <time>2022-03-06T14:51:45Z</time>
      </trkpt>
      <trkpt lat="36.681985" lon="-4.987653">
        <ele>1706.92</ele>
        <time>2022-03-06T14:51:49Z</time>
      </trkpt>
      <trkpt lat="36.681918" lon="-4.987746">
        <ele>1706.45</ele>
        <time>2022-03-06T14:52:02Z</time>
      </trkpt>
      <trkpt lat="36.681777" lon="-4.987957">
        <ele>1706.49</ele>
        <time>2022-03-06T14:52:19Z</time>
      </trkpt>
      <trkpt lat="36.681705" lon="-4.988029">
        <ele>1706.92</ele>
        <time>2022-03-06T14:52:26Z</time>
      </trkpt>
      <trkpt lat="36.681696" lon="-4.988031">
        <ele>1706.96</ele>
        <time>2022-03-06T14:52:28Z</time>
      </trkpt>
      <trkpt lat="36.681648" lon="-4.988095">
        <ele>1706.05</ele>
        <time>2022-03-06T14:52:42Z</time>
      </trkpt>
      <trkpt lat="36.681617" lon="-4.988168">
        <ele>1705.01</ele>
        <time>2022-03-06T14:52:51Z</time>
      </trkpt>
      <trkpt lat="36.681617" lon="-4.988259">
        <ele>1705.01</ele>
        <time>2022-03-06T14:53:00Z</time>
      </trkpt>
      <trkpt lat="36.681564" lon="-4.988391">
        <ele>1706.42</ele>
        <time>2022-03-06T14:53:10Z</time>
      </trkpt>
      <trkpt lat="36.681504" lon="-4.988503">
        <ele>1705.54</ele>
        <time>2022-03-06T14:53:27Z</time>
      </trkpt>
      <trkpt lat="36.681503" lon="-4.988525">
        <ele>1705.56</ele>
        <time>2022-03-06T14:53:52Z</time>
      </trkpt>
      <trkpt lat="36.681485" lon="-4.988557">
        <ele>1705.52</ele>
        <time>2022-03-06T14:54:11Z</time>
      </trkpt>
      <trkpt lat="36.681388" lon="-4.988689">
        <ele>1703.18</ele>
        <time>2022-03-06T14:54:25Z</time>
      </trkpt>
      <trkpt lat="36.681325" lon="-4.988794">
        <ele>1701.68</ele>
        <time>2022-03-06T14:54:36Z</time>
      </trkpt>
      <trkpt lat="36.681253" lon="-4.988948">
        <ele>1702.68</ele>
        <time>2022-03-06T14:54:50Z</time>
      </trkpt>
      <trkpt lat="36.681224" lon="-4.989158">
        <ele>1705.57</ele>
        <time>2022-03-06T14:55:06Z</time>
      </trkpt>
      <trkpt lat="36.681200" lon="-4.989327">
        <ele>1708.47</ele>
        <time>2022-03-06T14:55:19Z</time>
      </trkpt>
      <trkpt lat="36.681147" lon="-4.989493">
        <ele>1710.85</ele>
        <time>2022-03-06T14:55:33Z</time>
      </trkpt>
      <trkpt lat="36.681120" lon="-4.989628">
        <ele>1713.61</ele>
        <time>2022-03-06T14:55:47Z</time>
      </trkpt>
      <trkpt lat="36.681069" lon="-4.989781">
        <ele>1716.03</ele>
        <time>2022-03-06T14:56:01Z</time>
      </trkpt>
      <trkpt lat="36.681052" lon="-4.989824">
        <ele>1717.03</ele>
        <time>2022-03-06T14:56:05Z</time>
      </trkpt>
      <trkpt lat="36.680961" lon="-4.990004">
        <ele>1718.98</ele>
        <time>2022-03-06T14:56:19Z</time>
      </trkpt>
      <trkpt lat="36.680852" lon="-4.990128">
        <ele>1720.49</ele>
        <time>2022-03-06T14:56:33Z</time>
      </trkpt>
      <trkpt lat="36.680683" lon="-4.990265">
        <ele>1722.32</ele>
        <time>2022-03-06T14:56:49Z</time>
      </trkpt>
      <trkpt lat="36.680558" lon="-4.990374">
        <ele>1724.79</ele>
        <time>2022-03-06T14:57:02Z</time>
      </trkpt>
      <trkpt lat="36.680467" lon="-4.990505">
        <ele>1726.16</ele>
        <time>2022-03-06T14:57:16Z</time>
      </trkpt>
      <trkpt lat="36.680450" lon="-4.990545">
        <ele>1728.52</ele>
        <time>2022-03-06T14:57:19Z</time>
      </trkpt>
      <trkpt lat="36.680437" lon="-4.990568">
        <ele>1729.01</ele>
        <time>2022-03-06T14:57:21Z</time>
      </trkpt>
      <trkpt lat="36.680367" lon="-4.990678">
        <ele>1732.49</ele>
        <time>2022-03-06T14:57:31Z</time>
      </trkpt>
      <trkpt lat="36.680174" lon="-4.990754">
        <ele>1733.88</ele>
        <time>2022-03-06T14:57:48Z</time>
      </trkpt>
      <trkpt lat="36.680122" lon="-4.990786">
        <ele>1735.31</ele>
        <time>2022-03-06T14:57:52Z</time>
      </trkpt>
      <trkpt lat="36.680044" lon="-4.990791">
        <ele>1736.71</ele>
        <time>2022-03-06T14:57:58Z</time>
      </trkpt>
      <trkpt lat="36.679957" lon="-4.990807">
        <ele>1738.26</ele>
        <time>2022-03-06T14:58:11Z</time>
      </trkpt>
      <trkpt lat="36.679903" lon="-4.990837">
        <ele>1740.13</ele>
        <time>2022-03-06T14:58:17Z</time>
      </trkpt>
      <trkpt lat="36.679893" lon="-4.990844">
        <ele>1741.06</ele>
        <time>2022-03-06T14:58:18Z</time>
      </trkpt>
      <trkpt lat="36.679753" lon="-4.990917">
        <ele>1743.93</ele>
        <time>2022-03-06T14:58:34Z</time>
      </trkpt>
      <trkpt lat="36.679622" lon="-4.990961">
        <ele>1745.45</ele>
        <time>2022-03-06T14:58:46Z</time>
      </trkpt>
      <trkpt lat="36.679591" lon="-4.990983">
        <ele>1746.39</ele>
        <time>2022-03-06T14:58:50Z</time>
      </trkpt>
      <trkpt lat="36.679579" lon="-4.990983">
        <ele>1747.37</ele>
        <time>2022-03-06T14:58:52Z</time>
      </trkpt>
      <trkpt lat="36.679510" lon="-4.990962">
        <ele>1747.84</ele>
        <time>2022-03-06T14:59:00Z</time>
      </trkpt>
      <trkpt lat="36.679501" lon="-4.990959">
        <ele>1749.22</ele>
        <time>2022-03-06T14:59:01Z</time>
      </trkpt>
      <trkpt lat="36.679492" lon="-4.990958">
        <ele>1745.81</ele>
        <time>2022-03-06T14:59:02Z</time>
      </trkpt>
      <trkpt lat="36.679464" lon="-4.990956">
        <ele>1748.71</ele>
        <time>2022-03-06T14:59:05Z</time>
      </trkpt>
      <trkpt lat="36.679414" lon="-4.991014">
        <ele>1748.71</ele>
        <time>2022-03-06T14:59:23Z</time>
      </trkpt>
      <trkpt lat="36.679411" lon="-4.991019">
        <ele>1748.76</ele>
        <time>2022-03-06T14:59:40Z</time>
      </trkpt>
      <trkpt lat="36.679401" lon="-4.991041">
        <ele>1749.73</ele>
        <time>2022-03-06T14:59:56Z</time>
      </trkpt>
      <trkpt lat="36.679394" lon="-4.991061">
        <ele>1749.71</ele>
        <time>2022-03-06T14:59:58Z</time>
      </trkpt>
      <trkpt lat="36.679355" lon="-4.991168">
        <ele>1753.15</ele>
        <time>2022-03-06T15:00:08Z</time>
      </trkpt>
      <trkpt lat="36.679347" lon="-4.991187">
        <ele>1754.02</ele>
        <time>2022-03-06T15:00:10Z</time>
      </trkpt>
      <trkpt lat="36.679341" lon="-4.991197">
        <ele>1756.45</ele>
        <time>2022-03-06T15:00:11Z</time>
      </trkpt>
      <trkpt lat="36.679334" lon="-4.991207">
        <ele>1751.11</ele>
        <time>2022-03-06T15:00:12Z</time>
      </trkpt>
      <trkpt lat="36.679324" lon="-4.991219">
        <ele>1751.13</ele>
        <time>2022-03-06T15:00:13Z</time>
      </trkpt>
      <trkpt lat="36.679239" lon="-4.991341">
        <ele>1756.47</ele>
        <time>2022-03-06T15:00:26Z</time>
      </trkpt>
      <trkpt lat="36.679188" lon="-4.991421">
        <ele>1759.32</ele>
        <time>2022-03-06T15:00:37Z</time>
      </trkpt>
      <trkpt lat="36.679138" lon="-4.991472">
        <ele>1761.21</ele>
        <time>2022-03-06T15:00:48Z</time>
      </trkpt>
      <trkpt lat="36.679064" lon="-4.991556">
        <ele>1761.72</ele>
        <time>2022-03-06T15:00:58Z</time>
      </trkpt>
      <trkpt lat="36.679010" lon="-4.991573">
        <ele>1761.71</ele>
        <time>2022-03-06T15:01:03Z</time>
      </trkpt>
      <trkpt lat="36.678969" lon="-4.991672">
        <ele>1764.68</ele>
        <time>2022-03-06T15:01:13Z</time>
      </trkpt>
      <trkpt lat="36.678965" lon="-4.991688">
        <ele>1767.08</ele>
        <time>2022-03-06T15:01:16Z</time>
      </trkpt>
      <trkpt lat="36.678963" lon="-4.991692">
        <ele>1767.08</ele>
        <time>2022-03-06T15:01:17Z</time>
      </trkpt>
      <trkpt lat="36.678923" lon="-4.991772">
        <ele>1768.06</ele>
        <time>2022-03-06T15:01:32Z</time>
      </trkpt>
      <trkpt lat="36.678910" lon="-4.991837">
        <ele>1769.97</ele>
        <time>2022-03-06T15:01:38Z</time>
      </trkpt>
      <trkpt lat="36.678894" lon="-4.991930">
        <ele>1773.21</ele>
        <time>2022-03-06T15:01:50Z</time>
      </trkpt>
      <trkpt lat="36.678864" lon="-4.992037">
        <ele>1776.18</ele>
        <time>2022-03-06T15:02:00Z</time>
      </trkpt>
      <trkpt lat="36.678822" lon="-4.992144">
        <ele>1779.04</ele>
        <time>2022-03-06T15:02:12Z</time>
      </trkpt>
      <trkpt lat="36.678766" lon="-4.992232">
        <ele>1781.97</ele>
        <time>2022-03-06T15:02:25Z</time>
      </trkpt>
      <trkpt lat="36.678721" lon="-4.992280">
        <ele>1784.31</ele>
        <time>2022-03-06T15:02:38Z</time>
      </trkpt>
      <trkpt lat="36.678612" lon="-4.992355">
        <ele>1785.71</ele>
        <time>2022-03-06T15:02:53Z</time>
      </trkpt>
      <trkpt lat="36.678496" lon="-4.992423">
        <ele>1788.61</ele>
        <time>2022-03-06T15:03:10Z</time>
      </trkpt>
      <trkpt lat="36.678436" lon="-4.992462">
        <ele>1791.07</ele>
        <time>2022-03-06T15:03:23Z</time>
      </trkpt>
      <trkpt lat="36.678416" lon="-4.992548">
        <ele>1794.42</ele>
        <time>2022-03-06T15:03:35Z</time>
      </trkpt>
      <trkpt lat="36.678414" lon="-4.992622">
        <ele>1796.90</ele>
        <time>2022-03-06T15:03:50Z</time>
      </trkpt>
      <trkpt lat="36.678407" lon="-4.992719">
        <ele>1800.26</ele>
        <time>2022-03-06T15:04:02Z</time>
      </trkpt>
      <trkpt lat="36.678385" lon="-4.992851">
        <ele>1802.15</ele>
        <time>2022-03-06T15:04:16Z</time>
      </trkpt>
      <trkpt lat="36.678372" lon="-4.992972">
        <ele>1805.02</ele>
        <time>2022-03-06T15:04:31Z</time>
      </trkpt>
      <trkpt lat="36.678364" lon="-4.993096">
        <ele>1806.49</ele>
        <time>2022-03-06T15:04:52Z</time>
      </trkpt>
      <trkpt lat="36.678353" lon="-4.993131">
        <ele>1806.41</ele>
        <time>2022-03-06T15:05:14Z</time>
      </trkpt>
      <trkpt lat="36.678356" lon="-4.993181">
        <ele>1808.36</ele>
        <time>2022-03-06T15:05:29Z</time>
      </trkpt>
      <trkpt lat="36.678356" lon="-4.993282">
        <ele>1811.71</ele>
        <time>2022-03-06T15:05:41Z</time>
      </trkpt>
      <trkpt lat="36.678355" lon="-4.993387">
        <ele>1814.62</ele>
        <time>2022-03-06T15:05:53Z</time>
      </trkpt>
      <trkpt lat="36.678340" lon="-4.993490">
        <ele>1817.94</ele>
        <time>2022-03-06T15:06:05Z</time>
      </trkpt>
      <trkpt lat="36.678308" lon="-4.993603">
        <ele>1820.86</ele>
        <time>2022-03-06T15:06:20Z</time>
      </trkpt>
      <trkpt lat="36.678305" lon="-4.993667">
        <ele>1823.24</ele>
        <time>2022-03-06T15:06:27Z</time>
      </trkpt>
      <trkpt lat="36.678247" lon="-4.993831">
        <ele>1826.66</ele>
        <time>2022-03-06T15:06:44Z</time>
      </trkpt>
      <trkpt lat="36.678197" lon="-4.993943">
        <ele>1829.55</ele>
        <time>2022-03-06T15:06:58Z</time>
      </trkpt>
      <trkpt lat="36.678145" lon="-4.994055">
        <ele>1832.46</ele>
        <time>2022-03-06T15:07:10Z</time>
      </trkpt>
      <trkpt lat="36.678134" lon="-4.994134">
        <ele>1834.86</ele>
        <time>2022-03-06T15:07:20Z</time>
      </trkpt>
      <trkpt lat="36.678107" lon="-4.994227">
        <ele>1838.15</ele>
        <time>2022-03-06T15:07:31Z</time>
      </trkpt>
      <trkpt lat="36.678076" lon="-4.994317">
        <ele>1840.59</ele>
        <time>2022-03-06T15:07:45Z</time>
      </trkpt>
      <trkpt lat="36.678041" lon="-4.994432">
        <ele>1843.44</ele>
        <time>2022-03-06T15:07:58Z</time>
      </trkpt>
      <trkpt lat="36.678006" lon="-4.994553">
        <ele>1846.81</ele>
        <time>2022-03-06T15:08:12Z</time>
      </trkpt>
      <trkpt lat="36.677971" lon="-4.994668">
        <ele>1850.63</ele>
        <time>2022-03-06T15:08:26Z</time>
      </trkpt>
      <trkpt lat="36.677954" lon="-4.994713">
        <ele>1851.62</ele>
        <time>2022-03-06T15:08:30Z</time>
      </trkpt>
      <trkpt lat="36.677882" lon="-4.994838">
        <ele>1854.10</ele>
        <time>2022-03-06T15:08:43Z</time>
      </trkpt>
      <trkpt lat="36.677833" lon="-4.994969">
        <ele>1856.93</ele>
        <time>2022-03-06T15:08:56Z</time>
      </trkpt>
      <trkpt lat="36.677836" lon="-4.995028">
        <ele>1858.35</ele>
        <time>2022-03-06T15:09:01Z</time>
      </trkpt>
      <trkpt lat="36.677796" lon="-4.995108">
        <ele>1859.83</ele>
        <time>2022-03-06T15:09:08Z</time>
      </trkpt>
      <trkpt lat="36.677699" lon="-4.995270">
        <ele>1862.63</ele>
        <time>2022-03-06T15:09:24Z</time>
      </trkpt>
      <trkpt lat="36.677610" lon="-4.995412">
        <ele>1866.57</ele>
        <time>2022-03-06T15:09:38Z</time>
      </trkpt>
      <trkpt lat="36.677529" lon="-4.995471">
        <ele>1869.47</ele>
        <time>2022-03-06T15:09:47Z</time>
      </trkpt>
      <trkpt lat="36.677514" lon="-4.995476">
        <ele>1870.36</ele>
        <time>2022-03-06T15:09:50Z</time>
      </trkpt>
      <trkpt lat="36.677407" lon="-4.995473">
        <ele>1872.72</ele>
        <time>2022-03-06T15:10:04Z</time>
      </trkpt>
      <trkpt lat="36.677347" lon="-4.995436">
        <ele>1873.21</ele>
        <time>2022-03-06T15:10:10Z</time>
      </trkpt>
      <trkpt lat="36.677307" lon="-4.995455">
        <ele>1873.72</ele>
        <time>2022-03-06T15:10:14Z</time>
      </trkpt>
      <trkpt lat="36.677270" lon="-4.995513">
        <ele>1875.61</ele>
        <time>2022-03-06T15:10:19Z</time>
      </trkpt>
      <trkpt lat="36.677242" lon="-4.995544">
        <ele>1876.12</ele>
        <time>2022-03-06T15:10:22Z</time>
      </trkpt>
      <trkpt lat="36.677117" lon="-4.995692">
        <ele>1880.05</ele>
        <time>2022-03-06T15:10:37Z</time>
      </trkpt>
      <trkpt lat="36.677068" lon="-4.995774">
        <ele>1881.41</ele>
        <time>2022-03-06T15:10:45Z</time>
      </trkpt>
      <trkpt lat="36.677001" lon="-4.995877">
        <ele>1884.89</ele>
        <time>2022-03-06T15:10:55Z</time>
      </trkpt>
      <trkpt lat="36.676925" lon="-4.995988">
        <ele>1888.19</ele>
        <time>2022-03-06T15:11:05Z</time>
      </trkpt>
      <trkpt lat="36.676887" lon="-4.996025">
        <ele>1888.66</ele>
        <time>2022-03-06T15:11:12Z</time>
      </trkpt>
      <trkpt lat="36.676869" lon="-4.996021">
        <ele>1889.15</ele>
        <time>2022-03-06T15:11:29Z</time>
      </trkpt>
      <trkpt lat="36.676847" lon="-4.996035">
        <ele>1890.51</ele>
        <time>2022-03-06T15:12:23Z</time>
      </trkpt>
      <trkpt lat="36.676807" lon="-4.996142">
        <ele>1895.35</ele>
        <time>2022-03-06T15:13:25Z</time>
      </trkpt>
      <trkpt lat="36.676795" lon="-4.996146">
        <ele>1896.32</ele>
        <time>2022-03-06T15:13:40Z</time>
      </trkpt>
      <trkpt lat="36.676711" lon="-4.996196">
        <ele>1898.29</ele>
        <time>2022-03-06T15:13:54Z</time>
      </trkpt>
      <trkpt lat="36.676703" lon="-4.996197">
        <ele>1898.24</ele>
        <time>2022-03-06T15:13:55Z</time>
      </trkpt>
      <trkpt lat="36.676671" lon="-4.996151">
        <ele>1900.61</ele>
        <time>2022-03-06T15:14:11Z</time>
      </trkpt>
      <trkpt lat="36.676655" lon="-4.996146">
        <ele>1902.11</ele>
        <time>2022-03-06T15:14:45Z</time>
      </trkpt>
      <trkpt lat="36.676625" lon="-4.996139">
        <ele>1904.08</ele>
        <time>2022-03-06T15:14:58Z</time>
      </trkpt>
      <trkpt lat="36.676591" lon="-4.996179">
        <ele>1905.44</ele>
        <time>2022-03-06T15:15:07Z</time>
      </trkpt>
      <trkpt lat="36.676566" lon="-4.996193">
        <ele>1906.50</ele>
        <time>2022-03-06T15:15:29Z</time>
      </trkpt>
      <trkpt lat="36.676518" lon="-4.996178">
        <ele>1907.89</ele>
        <time>2022-03-06T15:15:41Z</time>
      </trkpt>
      <trkpt lat="36.676486" lon="-4.996179">
        <ele>1908.86</ele>
        <time>2022-03-06T15:15:47Z</time>
      </trkpt>
      <trkpt lat="36.676394" lon="-4.996180">
        <ele>1910.28</ele>
        <time>2022-03-06T15:16:00Z</time>
      </trkpt>
      <trkpt lat="36.676384" lon="-4.996181">
        <ele>1910.21</ele>
        <time>2022-03-06T15:16:01Z</time>
      </trkpt>
      <trkpt lat="36.676344" lon="-4.996186">
        <ele>1911.79</ele>
        <time>2022-03-06T15:16:39Z</time>
      </trkpt>
      <trkpt lat="36.676309" lon="-4.996194">
        <ele>1912.61</ele>
        <time>2022-03-06T15:16:52Z</time>
      </trkpt>
      <trkpt lat="36.676225" lon="-4.996196">
        <ele>1912.61</ele>
        <time>2022-03-06T15:17:02Z</time>
      </trkpt>
      <trkpt lat="36.676150" lon="-4.996254">
        <ele>1912.69</ele>
        <time>2022-03-06T15:17:15Z</time>
      </trkpt>
      <trkpt lat="36.676080" lon="-4.996269">
        <ele>1915.53</ele>
        <time>2022-03-06T15:17:28Z</time>
      </trkpt>
      <trkpt lat="36.676051" lon="-4.996243">
        <ele>1916.52</ele>
        <time>2022-03-06T15:17:35Z</time>
      </trkpt>
      <trkpt lat="36.676027" lon="-4.996245">
        <ele>1917.41</ele>
        <time>2022-03-06T15:17:40Z</time>
      </trkpt>
      <trkpt lat="36.676007" lon="-4.996213">
        <ele>1917.49</ele>
        <time>2022-03-06T15:17:54Z</time>
      </trkpt>
      <trkpt lat="36.676004" lon="-4.996200">
        <ele>1917.98</ele>
        <time>2022-03-06T15:18:12Z</time>
      </trkpt>
      <trkpt lat="36.675996" lon="-4.996202">
        <ele>1917.92</ele>
        <time>2022-03-06T15:18:30Z</time>
      </trkpt>
      <trkpt lat="36.675975" lon="-4.996203">
        <ele>1917.96</ele>
        <time>2022-03-06T15:18:45Z</time>
      </trkpt>
      <trkpt lat="36.675948" lon="-4.996212">
        <ele>1916.58</ele>
        <time>2022-03-06T15:19:08Z</time>
      </trkpt>
      <trkpt lat="36.675949" lon="-4.996241">
        <ele>1911.03</ele>
        <time>2016-01-16T15:16:01Z</time>
      </trkpt>
      <trkpt lat="36.676134" lon="-4.996259">
        <ele>1915.75</ele>
        <time>2016-01-16T15:26:34Z</time>
      </trkpt>
      <trkpt lat="36.676305" lon="-4.996357">
        <ele>1908.31</ele>
        <time>2016-01-16T15:27:10Z</time>
      </trkpt>
      <trkpt lat="36.676490" lon="-4.996361">
        <ele>1900.01</ele>
        <time>2016-01-16T15:27:39Z</time>
      </trkpt>
      <trkpt lat="36.676668" lon="-4.996296">
        <ele>1899.21</ele>
        <time>2016-01-16T15:27:53Z</time>
      </trkpt>
      <trkpt lat="36.676843" lon="-4.996228">
        <ele>1895.81</ele>
        <time>2016-01-16T15:28:15Z</time>
      </trkpt>
      <trkpt lat="36.676996" lon="-4.996093">
        <ele>1893.02</ele>
        <time>2016-01-16T15:28:34Z</time>
      </trkpt>
      <trkpt lat="36.677158" lon="-4.995968">
        <ele>1890.82</ele>
        <time>2016-01-16T15:28:53Z</time>
      </trkpt>
      <trkpt lat="36.677288" lon="-4.995805">
        <ele>1888.22</ele>
        <time>2016-01-16T15:29:14Z</time>
      </trkpt>
      <trkpt lat="36.677455" lon="-4.995714">
        <ele>1884.82</ele>
        <time>2016-01-16T15:30:10Z</time>
      </trkpt>
      <trkpt lat="36.677642" lon="-4.995678">
        <ele>1878.33</ele>
        <time>2016-01-16T15:30:41Z</time>
      </trkpt>
      <trkpt lat="36.677802" lon="-4.995573">
        <ele>1879.39</ele>
        <time>2016-01-16T15:31:01Z</time>
      </trkpt>
      <trkpt lat="36.677955" lon="-4.995441">
        <ele>1876.02</ele>
        <time>2016-01-16T15:31:25Z</time>
      </trkpt>
      <trkpt lat="36.678101" lon="-4.995308">
        <ele>1876.48</ele>
        <time>2016-01-16T15:31:39Z</time>
      </trkpt>
      <trkpt lat="36.678263" lon="-4.995195">
        <ele>1877.21</ele>
        <time>2016-01-16T15:31:54Z</time>
      </trkpt>
      <trkpt lat="36.678401" lon="-4.995039">
        <ele>1872.61</ele>
        <time>2016-01-16T15:32:13Z</time>
      </trkpt>
      <trkpt lat="36.678533" lon="-4.994884">
        <ele>1870.51</ele>
        <time>2016-01-16T15:32:28Z</time>
      </trkpt>
      <trkpt lat="36.678695" lon="-4.994786">
        <ele>1869.53</ele>
        <time>2016-01-16T15:32:43Z</time>
      </trkpt>
      <trkpt lat="36.678829" lon="-4.994631">
        <ele>1871.47</ele>
        <time>2016-01-16T15:32:59Z</time>
      </trkpt>
      <trkpt lat="36.678982" lon="-4.994490">
        <ele>1873.24</ele>
        <time>2016-01-16T15:33:19Z</time>
      </trkpt>
      <trkpt lat="36.679133" lon="-4.994352">
        <ele>1872.54</ele>
        <time>2016-01-16T15:33:38Z</time>
      </trkpt>
      <trkpt lat="36.679184" lon="-4.994127">
        <ele>1875.76</ele>
        <time>2016-01-16T15:33:56Z</time>
      </trkpt>
      <trkpt lat="36.679333" lon="-4.993997">
        <ele>1871.59</ele>
        <time>2016-01-16T15:34:14Z</time>
      </trkpt>
      <trkpt lat="36.679509" lon="-4.993916">
        <ele>1872.48</ele>
        <time>2016-01-16T15:34:31Z</time>
      </trkpt>
      <trkpt lat="36.679641" lon="-4.993754">
        <ele>1871.54</ele>
        <time>2016-01-16T15:34:47Z</time>
      </trkpt>
      <trkpt lat="36.679788" lon="-4.993623">
        <ele>1874.58</ele>
        <time>2016-01-16T15:35:06Z</time>
      </trkpt>
      <trkpt lat="36.679941" lon="-4.993488">
        <ele>1873.51</ele>
        <time>2016-01-16T15:35:24Z</time>
      </trkpt>
      <trkpt lat="36.680084" lon="-4.993351">
        <ele>1871.51</ele>
        <time>2016-01-16T15:35:51Z</time>
      </trkpt>
      <trkpt lat="36.680241" lon="-4.993229">
        <ele>1866.52</ele>
        <time>2016-01-16T15:36:15Z</time>
      </trkpt>
      <trkpt lat="36.680382" lon="-4.993078">
        <ele>1857.42</ele>
        <time>2016-01-16T15:37:10Z</time>
      </trkpt>
      <trkpt lat="36.680511" lon="-4.992912">
        <ele>1856.59</ele>
        <time>2016-01-16T15:37:38Z</time>
      </trkpt>
      <trkpt lat="36.680677" lon="-4.992817">
        <ele>1854.47</ele>
        <time>2016-01-16T15:38:06Z</time>
      </trkpt>
      <trkpt lat="36.680768" lon="-4.992618">
        <ele>1847.60</ele>
        <time>2016-01-16T15:38:48Z</time>
      </trkpt>
      <trkpt lat="36.680920" lon="-4.992497">
        <ele>1847.39</ele>
        <time>2016-01-16T15:39:08Z</time>
      </trkpt>
      <trkpt lat="36.681067" lon="-4.992352">
        <ele>1842.27</ele>
        <time>2016-01-16T15:39:45Z</time>
      </trkpt>
      <trkpt lat="36.681186" lon="-4.992180">
        <ele>1839.05</ele>
        <time>2016-01-16T15:40:07Z</time>
      </trkpt>
      <trkpt lat="36.681276" lon="-4.991979">
        <ele>1831.59</ele>
        <time>2016-01-16T15:41:22Z</time>
      </trkpt>
      <trkpt lat="36.681430" lon="-4.991846">
        <ele>1827.62</ele>
        <time>2016-01-16T15:41:48Z</time>
      </trkpt>
      <trkpt lat="36.681601" lon="-4.991753">
        <ele>1823.53</ele>
        <time>2016-01-16T15:42:16Z</time>
      </trkpt>
      <trkpt lat="36.681694" lon="-4.991549">
        <ele>1823.71</ele>
        <time>2016-01-16T15:42:59Z</time>
      </trkpt>
      <trkpt lat="36.681801" lon="-4.991358">
        <ele>1816.02</ele>
        <time>2016-01-16T15:43:37Z</time>
      </trkpt>
      <trkpt lat="36.681905" lon="-4.991174">
        <ele>1808.59</ele>
        <time>2016-01-16T15:44:42Z</time>
      </trkpt>
      <trkpt lat="36.682039" lon="-4.991022">
        <ele>1803.99</ele>
        <time>2016-01-16T15:45:25Z</time>
      </trkpt>
      <trkpt lat="36.682208" lon="-4.990944">
        <ele>1801.77</ele>
        <time>2016-01-16T15:46:10Z</time>
      </trkpt>
      <trkpt lat="36.682396" lon="-4.990964">
        <ele>1791.43</ele>
        <time>2016-01-16T15:47:46Z</time>
      </trkpt>
      <trkpt lat="36.682558" lon="-4.990859">
        <ele>1787.12</ele>
        <time>2016-01-16T15:48:52Z</time>
      </trkpt>
      <trkpt lat="36.682727" lon="-4.990770">
        <ele>1779.57</ele>
        <time>2016-01-16T15:49:39Z</time>
      </trkpt>
      <trkpt lat="36.682878" lon="-4.990646">
        <ele>1775.72</ele>
        <time>2016-01-16T15:50:14Z</time>
      </trkpt>
      <trkpt lat="36.683018" lon="-4.990504">
        <ele>1775.59</ele>
        <time>2016-01-16T15:50:50Z</time>
      </trkpt>
      <trkpt lat="36.683135" lon="-4.990332">
        <ele>1769.16</ele>
        <time>2016-01-16T15:51:44Z</time>
      </trkpt>
      <trkpt lat="36.683233" lon="-4.990136">
        <ele>1767.63</ele>
        <time>2016-01-16T15:53:21Z</time>
      </trkpt>
      <trkpt lat="36.683325" lon="-4.989938">
        <ele>1766.71</ele>
        <time>2016-01-16T15:53:47Z</time>
      </trkpt>
      <trkpt lat="36.683467" lon="-4.989792">
        <ele>1768.10</ele>
        <time>2016-01-16T15:54:20Z</time>
      </trkpt>
      <trkpt lat="36.683608" lon="-4.989645">
        <ele>1765.98</ele>
        <time>2016-01-16T15:54:48Z</time>
      </trkpt>
      <trkpt lat="36.683734" lon="-4.989484">
        <ele>1761.66</ele>
        <time>2016-01-16T15:55:23Z</time>
      </trkpt>
      <trkpt lat="36.683880" lon="-4.989347">
        <ele>1760.14</ele>
        <time>2016-01-16T15:56:16Z</time>
      </trkpt>
      <trkpt lat="36.684019" lon="-4.989189">
        <ele>1759.17</ele>
        <time>2016-01-16T15:56:48Z</time>
      </trkpt>
      <trkpt lat="36.684148" lon="-4.989022">
        <ele>1759.24</ele>
        <time>2016-01-16T15:57:12Z</time>
      </trkpt>
      <trkpt lat="36.684402" lon="-4.988769">
        <ele>1751.22</ele>
        <time>2016-01-16T15:59:54Z</time>
      </trkpt>
      <trkpt lat="36.684237" lon="-4.988518">
        <ele>1746.99</ele>
        <time>2016-01-16T16:02:39Z</time>
      </trkpt>
      <trkpt lat="36.684150" lon="-4.988334">
        <ele>1725.35</ele>
        <time>2016-01-16T16:04:02Z</time>
      </trkpt>
      <trkpt lat="36.684164" lon="-4.988159">
        <ele>1720.65</ele>
        <time>2016-01-16T16:04:22Z</time>
      </trkpt>
      <trkpt lat="36.684161" lon="-4.987937">
        <ele>1712.91</ele>
        <time>2016-01-16T16:04:50Z</time>
      </trkpt>
      <trkpt lat="36.684196" lon="-4.987709">
        <ele>1702.11</ele>
        <time>2016-01-16T16:05:25Z</time>
      </trkpt>
      <trkpt lat="36.684222" lon="-4.987487">
        <ele>1694.43</ele>
        <time>2016-01-16T16:05:44Z</time>
      </trkpt>
      <trkpt lat="36.684279" lon="-4.987268">
        <ele>1689.62</ele>
        <time>2016-01-16T16:06:11Z</time>
      </trkpt>
      <trkpt lat="36.684357" lon="-4.987059">
        <ele>1678.76</ele>
        <time>2016-01-16T16:06:43Z</time>
      </trkpt>
      <trkpt lat="36.684469" lon="-4.986881">
        <ele>1675.91</ele>
        <time>2016-01-16T16:07:01Z</time>
      </trkpt>
      <trkpt lat="36.684589" lon="-4.986711">
        <ele>1666.56</ele>
        <time>2016-01-16T16:08:11Z</time>
      </trkpt>
      <trkpt lat="36.684665" lon="-4.986501">
        <ele>1664.18</ele>
        <time>2016-01-16T16:08:45Z</time>
      </trkpt>
      <trkpt lat="36.684793" lon="-4.986337">
        <ele>1662.00</ele>
        <time>2016-01-16T16:09:32Z</time>
      </trkpt>
      <trkpt lat="36.684901" lon="-4.986151">
        <ele>1653.09</ele>
        <time>2016-01-16T16:10:12Z</time>
      </trkpt>
      <trkpt lat="36.684860" lon="-4.985927">
        <ele>1636.62</ele>
        <time>2016-01-16T16:10:52Z</time>
      </trkpt>
      <trkpt lat="36.684936" lon="-4.985717">
        <ele>1634.74</ele>
        <time>2016-01-16T16:11:12Z</time>
      </trkpt>
      <trkpt lat="36.685054" lon="-4.985541">
        <ele>1632.91</ele>
        <time>2016-01-16T16:11:36Z</time>
      </trkpt>
      <trkpt lat="36.685029" lon="-4.985315">
        <ele>1617.01</ele>
        <time>2016-01-16T16:13:07Z</time>
      </trkpt>
      <trkpt lat="36.685023" lon="-4.985085">
        <ele>1612.51</ele>
        <time>2016-01-16T16:13:59Z</time>
      </trkpt>
      <trkpt lat="36.685101" lon="-4.984877">
        <ele>1610.09</ele>
        <time>2016-01-16T16:14:35Z</time>
      </trkpt>
      <trkpt lat="36.685255" lon="-4.984749">
        <ele>1613.06</ele>
        <time>2016-01-16T16:15:51Z</time>
      </trkpt>
      <trkpt lat="36.685339" lon="-4.984547">
        <ele>1596.78</ele>
        <time>2016-01-16T16:17:20Z</time>
      </trkpt>
      <trkpt lat="36.685413" lon="-4.984339">
        <ele>1583.68</ele>
        <time>2016-01-16T16:19:02Z</time>
      </trkpt>
      <trkpt lat="36.685430" lon="-4.984113">
        <ele>1579.84</ele>
        <time>2016-01-16T16:19:56Z</time>
      </trkpt>
      <trkpt lat="36.685492" lon="-4.983901">
        <ele>1572.04</ele>
        <time>2016-01-16T16:20:23Z</time>
      </trkpt>
      <trkpt lat="36.685649" lon="-4.983777">
        <ele>1571.41</ele>
        <time>2016-01-16T16:21:11Z</time>
      </trkpt>
      <trkpt lat="36.685786" lon="-4.983618">
        <ele>1564.68</ele>
        <time>2016-01-16T16:21:37Z</time>
      </trkpt>
      <trkpt lat="36.685926" lon="-4.983474">
        <ele>1562.06</ele>
        <time>2016-01-16T16:22:08Z</time>
      </trkpt>
      <trkpt lat="36.686010" lon="-4.983272">
        <ele>1553.92</ele>
        <time>2016-01-16T16:22:48Z</time>
      </trkpt>
      <trkpt lat="36.686071" lon="-4.983051">
        <ele>1550.01</ele>
        <time>2016-01-16T16:23:10Z</time>
      </trkpt>
      <trkpt lat="36.686036" lon="-4.982824">
        <ele>1547.14</ele>
        <time>2016-01-16T16:23:24Z</time>
      </trkpt>
      <trkpt lat="36.685980" lon="-4.982607">
        <ele>1545.25</ele>
        <time>2016-01-16T16:23:38Z</time>
      </trkpt>
      <trkpt lat="36.685880" lon="-4.982419">
        <ele>1540.38</ele>
        <time>2016-01-16T16:23:53Z</time>
      </trkpt>
      <trkpt lat="36.685785" lon="-4.982222">
        <ele>1540.40</ele>
        <time>2016-01-16T16:24:44Z</time>
      </trkpt>
      <trkpt lat="36.685663" lon="-4.982042">
        <ele>1544.33</ele>
        <time>2016-01-16T16:25:05Z</time>
      </trkpt>
      <trkpt lat="36.685558" lon="-4.981836">
        <ele>1535.47</ele>
        <time>2016-01-16T16:25:44Z</time>
      </trkpt>
      <trkpt lat="36.685443" lon="-4.981660">
        <ele>1531.93</ele>
        <time>2016-01-16T16:26:00Z</time>
      </trkpt>
      <trkpt lat="36.685361" lon="-4.981446">
        <ele>1526.47</ele>
        <time>2016-01-16T16:26:21Z</time>
      </trkpt>
      <trkpt lat="36.685260" lon="-4.981255">
        <ele>1514.10</ele>
        <time>2016-01-16T16:27:31Z</time>
      </trkpt>
      <trkpt lat="36.685179" lon="-4.981041">
        <ele>1514.82</ele>
        <time>2016-01-16T16:28:08Z</time>
      </trkpt>
      <trkpt lat="36.685115" lon="-4.980827">
        <ele>1508.03</ele>
        <time>2016-01-16T16:28:52Z</time>
      </trkpt>
      <trkpt lat="36.685029" lon="-4.980625">
        <ele>1505.51</ele>
        <time>2016-01-16T16:30:11Z</time>
      </trkpt>
      <trkpt lat="36.684949" lon="-4.980422">
        <ele>1493.18</ele>
        <time>2016-01-16T16:31:02Z</time>
      </trkpt>
      <trkpt lat="36.684775" lon="-4.980359">
        <ele>1492.97</ele>
        <time>2016-01-16T16:31:35Z</time>
      </trkpt>
      <trkpt lat="36.684751" lon="-4.980131">
        <ele>1485.05</ele>
        <time>2016-01-16T16:32:17Z</time>
      </trkpt>
      <trkpt lat="36.684721" lon="-4.979909">
        <ele>1483.27</ele>
        <time>2016-01-16T16:32:48Z</time>
      </trkpt>
      <trkpt lat="36.684576" lon="-4.979775">
        <ele>1488.98</ele>
        <time>2016-01-16T16:33:34Z</time>
      </trkpt>
      <trkpt lat="36.684570" lon="-4.979547">
        <ele>1488.75</ele>
        <time>2016-01-16T16:34:00Z</time>
      </trkpt>
      <trkpt lat="36.684642" lon="-4.979339">
        <ele>1488.35</ele>
        <time>2016-01-16T16:34:47Z</time>
      </trkpt>
      <trkpt lat="36.684689" lon="-4.979114">
        <ele>1489.20</ele>
        <time>2016-01-16T16:35:18Z</time>
      </trkpt>
      <trkpt lat="36.684767" lon="-4.978908">
        <ele>1483.37</ele>
        <time>2016-01-16T16:35:32Z</time>
      </trkpt>
      <trkpt lat="36.684844" lon="-4.978704">
        <ele>1475.59</ele>
        <time>2016-01-16T16:36:34Z</time>
      </trkpt>
      <trkpt lat="36.684940" lon="-4.978505">
        <ele>1480.31</ele>
        <time>2016-01-16T16:37:29Z</time>
      </trkpt>
      <trkpt lat="36.684908" lon="-4.978275">
        <ele>1473.21</ele>
        <time>2016-01-16T16:37:42Z</time>
      </trkpt>
      <trkpt lat="36.684816" lon="-4.978077">
        <ele>1472.79</ele>
        <time>2016-01-16T16:39:46Z</time>
      </trkpt>
      <trkpt lat="36.684681" lon="-4.977916">
        <ele>1465.18</ele>
        <time>2016-01-16T16:44:51Z</time>
      </trkpt>
      <trkpt lat="36.684520" lon="-4.977804">
        <ele>1459.05</ele>
        <time>2016-01-16T16:45:29Z</time>
      </trkpt>
      <trkpt lat="36.684356" lon="-4.977697">
        <ele>1457.30</ele>
        <time>2016-01-16T16:46:29Z</time>
      </trkpt>
      <trkpt lat="36.684310" lon="-4.977478">
        <ele>1441.65</ele>
        <time>2016-01-16T16:47:44Z</time>
      </trkpt>
      <trkpt lat="36.684136" lon="-4.977407">
        <ele>1436.37</ele>
        <time>2016-01-16T16:48:24Z</time>
      </trkpt>
      <trkpt lat="36.684134" lon="-4.977180">
        <ele>1413.66</ele>
        <time>2016-01-16T16:49:47Z</time>
      </trkpt>
      <trkpt lat="36.684133" lon="-4.976955">
        <ele>1404.70</ele>
        <time>2016-01-16T16:50:29Z</time>
      </trkpt>
      <trkpt lat="36.683996" lon="-4.976808">
        <ele>1405.03</ele>
        <time>2016-01-16T16:52:16Z</time>
      </trkpt>
      <trkpt lat="36.683901" lon="-4.976611">
        <ele>1389.57</ele>
        <time>2016-01-16T16:53:45Z</time>
      </trkpt>
      <trkpt lat="36.683726" lon="-4.976522">
        <ele>1382.81</ele>
        <time>2016-01-16T16:54:23Z</time>
      </trkpt>
      <trkpt lat="36.683566" lon="-4.976420">
        <ele>1392.71</ele>
        <time>2016-01-16T16:55:02Z</time>
      </trkpt>
      <trkpt lat="36.683405" lon="-4.976313">
        <ele>1367.38</ele>
        <time>2016-01-16T16:56:00Z</time>
      </trkpt>
      <trkpt lat="36.683251" lon="-4.976176">
        <ele>1360.19</ele>
        <time>2016-01-16T16:56:27Z</time>
      </trkpt>
      <trkpt lat="36.683107" lon="-4.976027">
        <ele>1354.82</ele>
        <time>2016-01-16T16:56:50Z</time>
      </trkpt>
      <trkpt lat="36.682981" lon="-4.975860">
        <ele>1349.81</ele>
        <time>2016-01-16T16:57:20Z</time>
      </trkpt>
      <trkpt lat="36.682866" lon="-4.975674">
        <ele>1350.78</ele>
        <time>2016-01-16T16:57:32Z</time>
      </trkpt>
      <trkpt lat="36.682726" lon="-4.975523">
        <ele>1344.76</ele>
        <time>2016-01-16T16:58:00Z</time>
      </trkpt>
      <trkpt lat="36.682646" lon="-4.975320">
        <ele>1336.94</ele>
        <time>2016-01-16T16:58:18Z</time>
      </trkpt>
      <trkpt lat="36.682557" lon="-4.975123">
        <ele>1331.73</ele>
        <time>2016-01-16T16:58:30Z</time>
      </trkpt>
      <trkpt lat="36.682528" lon="-4.974900">
        <ele>1323.17</ele>
        <time>2016-01-16T16:58:59Z</time>
      </trkpt>
      <trkpt lat="36.682457" lon="-4.974692">
        <ele>1320.34</ele>
        <time>2016-01-16T16:59:11Z</time>
      </trkpt>
      <trkpt lat="36.682363" lon="-4.974496">
        <ele>1315.21</ele>
        <time>2016-01-16T17:00:26Z</time>
      </trkpt>
      <trkpt lat="36.682198" lon="-4.974400">
        <ele>1309.81</ele>
        <time>2016-01-16T17:01:08Z</time>
      </trkpt>
      <trkpt lat="36.682012" lon="-4.974396">
        <ele>1307.38</ele>
        <time>2016-01-16T17:01:40Z</time>
      </trkpt>
      <trkpt lat="36.681839" lon="-4.974328">
        <ele>1301.59</ele>
        <time>2016-01-16T17:02:27Z</time>
      </trkpt>
      <trkpt lat="36.681680" lon="-4.974218">
        <ele>1288.58</ele>
        <time>2016-01-16T17:03:07Z</time>
      </trkpt>
      <trkpt lat="36.681520" lon="-4.974114">
        <ele>1285.55</ele>
        <time>2016-01-16T17:03:45Z</time>
      </trkpt>
      <trkpt lat="36.681407" lon="-4.973933">
        <ele>1276.69</ele>
        <time>2016-01-16T17:04:25Z</time>
      </trkpt>
      <trkpt lat="36.681268" lon="-4.973777">
        <ele>1274.67</ele>
        <time>2016-01-16T17:04:48Z</time>
      </trkpt>
      <trkpt lat="36.681114" lon="-4.973642">
        <ele>1267.74</ele>
        <time>2016-01-16T17:05:09Z</time>
      </trkpt>
      <trkpt lat="36.680966" lon="-4.973495">
        <ele>1263.09</ele>
        <time>2016-01-16T17:05:27Z</time>
      </trkpt>
      <trkpt lat="36.680884" lon="-4.973285">
        <ele>1254.58</ele>
        <time>2016-01-16T17:06:47Z</time>
      </trkpt>
      <trkpt lat="36.680830" lon="-4.973056">
        <ele>1251.36</ele>
        <time>2016-01-16T17:07:03Z</time>
      </trkpt>
      <trkpt lat="36.680767" lon="-4.972842">
        <ele>1251.52</ele>
        <time>2016-01-16T17:07:17Z</time>
      </trkpt>
      <trkpt lat="36.680740" lon="-4.972611">
        <ele>1249.41</ele>
        <time>2016-01-16T17:07:53Z</time>
      </trkpt>
      <trkpt lat="36.680719" lon="-4.972381">
        <ele>1246.66</ele>
        <time>2016-01-16T17:08:16Z</time>
      </trkpt>
      <trkpt lat="36.680720" lon="-4.972156">
        <ele>1243.79</ele>
        <time>2016-01-16T17:08:52Z</time>
      </trkpt>
      <trkpt lat="36.680728" lon="-4.971930">
        <ele>1239.23</ele>
        <time>2016-01-16T17:09:24Z</time>
      </trkpt>
      <trkpt lat="36.680718" lon="-4.971703">
        <ele>1233.89</ele>
        <time>2016-01-16T17:09:56Z</time>
      </trkpt>
      <trkpt lat="36.680731" lon="-4.971473">
        <ele>1225.52</ele>
        <time>2016-01-16T17:10:22Z</time>
      </trkpt>
      <trkpt lat="36.680736" lon="-4.971243">
        <ele>1222.77</ele>
        <time>2016-01-16T17:10:37Z</time>
      </trkpt>
      <trkpt lat="36.680737" lon="-4.971016">
        <ele>1219.03</ele>
        <time>2016-01-16T17:10:55Z</time>
      </trkpt>
      <trkpt lat="36.680771" lon="-4.970788">
        <ele>1208.64</ele>
        <time>2016-01-16T17:11:26Z</time>
      </trkpt>
      <trkpt lat="36.680837" lon="-4.970572">
        <ele>1201.64</ele>
        <time>2016-01-16T17:11:48Z</time>
      </trkpt>
      <trkpt lat="36.680906" lon="-4.970362">
        <ele>1196.80</ele>
        <time>2016-01-16T17:12:10Z</time>
      </trkpt>
      <trkpt lat="36.680958" lon="-4.970140">
        <ele>1189.12</ele>
        <time>2016-01-16T17:12:41Z</time>
      </trkpt>
      <trkpt lat="36.680957" lon="-4.969914">
        <ele>1183.11</ele>
        <time>2016-01-16T17:13:04Z</time>
      </trkpt>
      <trkpt lat="36.680972" lon="-4.969687">
        <ele>1177.95</ele>
        <time>2016-01-16T17:13:25Z</time>
      </trkpt>
      <trkpt lat="36.681001" lon="-4.969464">
        <ele>1171.82</ele>
        <time>2016-01-16T17:13:49Z</time>
      </trkpt>
      <trkpt lat="36.681015" lon="-4.969230">
        <ele>1168.67</ele>
        <time>2016-01-16T17:14:07Z</time>
      </trkpt>
      <trkpt lat="36.681037" lon="-4.968995">
        <ele>1164.66</ele>
        <time>2016-01-16T17:14:28Z</time>
      </trkpt>
      <trkpt lat="36.681008" lon="-4.968773">
        <ele>1161.62</ele>
        <time>2016-01-16T17:14:46Z</time>
      </trkpt>
      <trkpt lat="36.680887" lon="-4.968604">
        <ele>1157.87</ele>
        <time>2016-01-16T17:16:31Z</time>
      </trkpt>
      <trkpt lat="36.680745" lon="-4.968428">
        <ele>1158.95</ele>
        <time>2016-01-16T17:16:38Z</time>
      </trkpt>
      <trkpt lat="36.680599" lon="-4.968298">
        <ele>1161.39</ele>
        <time>2016-01-16T17:16:46Z</time>
      </trkpt>
      <trkpt lat="36.680448" lon="-4.968154">
        <ele>1162.39</ele>
        <time>2016-01-16T17:17:02Z</time>
      </trkpt>
      <trkpt lat="36.680330" lon="-4.967963">
        <ele>1159.97</ele>
        <time>2016-01-16T17:17:17Z</time>
      </trkpt>
      <trkpt lat="36.680200" lon="-4.967796">
        <ele>1156.42</ele>
        <time>2016-01-16T17:17:32Z</time>
      </trkpt>
      <trkpt lat="36.680070" lon="-4.967622">
        <ele>1155.01</ele>
        <time>2016-01-16T17:17:51Z</time>
      </trkpt>
      <trkpt lat="36.679941" lon="-4.967448">
        <ele>1157.42</ele>
        <time>2016-01-16T17:18:19Z</time>
      </trkpt>
      <trkpt lat="36.679761" lon="-4.967411">
        <ele>1158.58</ele>
        <time>2016-01-16T17:18:37Z</time>
      </trkpt>
      <trkpt lat="36.679597" lon="-4.967315">
        <ele>1157.19</ele>
        <time>2016-01-16T17:18:46Z</time>
      </trkpt>
      <trkpt lat="36.679425" lon="-4.967239">
        <ele>1160.18</ele>
        <time>2016-01-16T17:19:03Z</time>
      </trkpt>
      <trkpt lat="36.679284" lon="-4.967095">
        <ele>1160.67</ele>
        <time>2016-01-16T17:19:19Z</time>
      </trkpt>
      <trkpt lat="36.679176" lon="-4.966912">
        <ele>1160.68</ele>
        <time>2016-01-16T17:19:34Z</time>
      </trkpt>
      <trkpt lat="36.679105" lon="-4.966704">
        <ele>1158.97</ele>
        <time>2016-01-16T17:19:48Z</time>
      </trkpt>
      <trkpt lat="36.679045" lon="-4.966482">
        <ele>1158.74</ele>
        <time>2016-01-16T17:20:03Z</time>
      </trkpt>
      <trkpt lat="36.678985" lon="-4.966265">
        <ele>1159.66</ele>
        <time>2016-01-16T17:20:18Z</time>
      </trkpt>
      <trkpt lat="36.678992" lon="-4.966039">
        <ele>1161.22</ele>
        <time>2016-01-16T17:20:37Z</time>
      </trkpt>
      <trkpt lat="36.678900" lon="-4.965841">
        <ele>1161.81</ele>
        <time>2016-01-16T17:20:56Z</time>
      </trkpt>
      <trkpt lat="36.678765" lon="-4.965675">
        <ele>1163.61</ele>
        <time>2016-01-16T17:21:15Z</time>
      </trkpt>
      <trkpt lat="36.678634" lon="-4.965510">
        <ele>1168.75</ele>
        <time>2016-01-16T17:21:32Z</time>
      </trkpt>
      <trkpt lat="36.678484" lon="-4.965386">
        <ele>1170.43</ele>
        <time>2016-01-16T17:21:46Z</time>
      </trkpt>
      <trkpt lat="36.678356" lon="-4.965220">
        <ele>1170.45</ele>
        <time>2016-01-16T17:22:01Z</time>
      </trkpt>
      <trkpt lat="36.678273" lon="-4.965014">
        <ele>1174.26</ele>
        <time>2016-01-16T17:22:35Z</time>
      </trkpt>
      <trkpt lat="36.678370" lon="-4.964811">
        <ele>1170.12</ele>
        <time>2016-01-16T17:22:51Z</time>
      </trkpt>
      <trkpt lat="36.678474" lon="-4.964628">
        <ele>1168.28</ele>
        <time>2016-01-16T17:23:25Z</time>
      </trkpt>
      <trkpt lat="36.678622" lon="-4.964493">
        <ele>1165.63</ele>
        <time>2016-01-16T17:23:47Z</time>
      </trkpt>
      <trkpt lat="36.678705" lon="-4.964289">
        <ele>1166.29</ele>
        <time>2016-01-16T17:24:00Z</time>
      </trkpt>
      <trkpt lat="36.678842" lon="-4.964142">
        <ele>1162.39</ele>
        <time>2016-01-16T17:24:13Z</time>
      </trkpt>
      <trkpt lat="36.678879" lon="-4.963916">
        <ele>1164.54</ele>
        <time>2016-01-16T17:24:29Z</time>
      </trkpt>
      <trkpt lat="36.678849" lon="-4.963689">
        <ele>1168.83</ele>
        <time>2016-01-16T17:24:48Z</time>
      </trkpt>
      <trkpt lat="36.678919" lon="-4.963470">
        <ele>1166.61</ele>
        <time>2016-01-16T17:24:59Z</time>
      </trkpt>
      <trkpt lat="36.679018" lon="-4.963274">
        <ele>1166.80</ele>
        <time>2016-01-16T17:25:20Z</time>
      </trkpt>
      <trkpt lat="36.679180" lon="-4.963161">
        <ele>1163.77</ele>
        <time>2016-01-16T17:25:35Z</time>
      </trkpt>
      <trkpt lat="36.679350" lon="-4.963071">
        <ele>1158.37</ele>
        <time>2016-01-16T17:25:48Z</time>
      </trkpt>
      <trkpt lat="36.679463" lon="-4.962885">
        <ele>1158.46</ele>
        <time>2016-01-16T17:26:11Z</time>
      </trkpt>
      <trkpt lat="36.679605" lon="-4.962743">
        <ele>1157.66</ele>
        <time>2016-01-16T17:26:35Z</time>
      </trkpt>
      <trkpt lat="36.679635" lon="-4.962497">
        <ele>1158.90</ele>
        <time>2016-01-16T17:26:43Z</time>
      </trkpt>
      <trkpt lat="36.679713" lon="-4.962289">
        <ele>1157.24</ele>
        <time>2016-01-16T17:26:57Z</time>
      </trkpt>
      <trkpt lat="36.679755" lon="-4.962061">
        <ele>1154.19</ele>
        <time>2016-01-16T17:27:13Z</time>
      </trkpt>
      <trkpt lat="36.679742" lon="-4.961830">
        <ele>1151.22</ele>
        <time>2016-01-16T17:27:28Z</time>
      </trkpt>
      <trkpt lat="36.679744" lon="-4.961593">
        <ele>1147.70</ele>
        <time>2016-01-16T17:27:42Z</time>
      </trkpt>
      <trkpt lat="36.679733" lon="-4.961352">
        <ele>1147.62</ele>
        <time>2016-01-16T17:28:02Z</time>
      </trkpt>
      <trkpt lat="36.679711" lon="-4.961120">
        <ele>1146.31</ele>
        <time>2016-01-16T17:28:13Z</time>
      </trkpt>
      <trkpt lat="36.679590" lon="-4.960946">
        <ele>1141.54</ele>
        <time>2016-01-16T17:28:25Z</time>
      </trkpt>
      <trkpt lat="36.679479" lon="-4.960756">
        <ele>1139.48</ele>
        <time>2016-01-16T17:28:39Z</time>
      </trkpt>
      <trkpt lat="36.679392" lon="-4.960552">
        <ele>1135.13</ele>
        <time>2016-01-16T17:28:55Z</time>
      </trkpt>
      <trkpt lat="36.679317" lon="-4.960333">
        <ele>1130.99</ele>
        <time>2016-01-16T17:29:11Z</time>
      </trkpt>
      <trkpt lat="36.679285" lon="-4.960108">
        <ele>1129.01</ele>
        <time>2016-01-16T17:29:24Z</time>
      </trkpt>
      <trkpt lat="36.679230" lon="-4.959890">
        <ele>1126.68</ele>
        <time>2016-01-16T17:29:39Z</time>
      </trkpt>
      <trkpt lat="36.679167" lon="-4.959666">
        <ele>1125.55</ele>
        <time>2016-01-16T17:29:53Z</time>
      </trkpt>
      <trkpt lat="36.679145" lon="-4.959434">
        <ele>1125.12</ele>
        <time>2016-01-16T17:30:06Z</time>
      </trkpt>
      <trkpt lat="36.679114" lon="-4.959209">
        <ele>1121.63</ele>
        <time>2016-01-16T17:30:19Z</time>
      </trkpt>
      <trkpt lat="36.679032" lon="-4.958994">
        <ele>1121.47</ele>
        <time>2016-01-16T17:30:31Z</time>
      </trkpt>
      <trkpt lat="36.678913" lon="-4.958807">
        <ele>1116.91</ele>
        <time>2016-01-16T17:30:44Z</time>
      </trkpt>
      <trkpt lat="36.678818" lon="-4.958600">
        <ele>1115.91</ele>
        <time>2016-01-16T17:30:58Z</time>
      </trkpt>
      <trkpt lat="36.678741" lon="-4.958384">
        <ele>1113.29</ele>
        <time>2016-01-16T17:31:13Z</time>
      </trkpt>
      <trkpt lat="36.678644" lon="-4.958176">
        <ele>1112.74</ele>
        <time>2016-01-16T17:31:27Z</time>
      </trkpt>
      <trkpt lat="36.678564" lon="-4.957975">
        <ele>1107.56</ele>
        <time>2016-01-16T17:31:42Z</time>
      </trkpt>
      <trkpt lat="36.678468" lon="-4.957775">
        <ele>1106.08</ele>
        <time>2016-01-16T17:31:57Z</time>
      </trkpt>
      <trkpt lat="36.678344" lon="-4.957596">
        <ele>1106.48</ele>
        <time>2016-01-16T17:32:11Z</time>
      </trkpt>
      <trkpt lat="36.678223" lon="-4.957428">
        <ele>1107.03</ele>
        <time>2016-01-16T17:32:22Z</time>
      </trkpt>
      <trkpt lat="36.678130" lon="-4.957234">
        <ele>1102.87</ele>
        <time>2016-01-16T17:32:37Z</time>
      </trkpt>
      <trkpt lat="36.678013" lon="-4.957053">
        <ele>1103.19</ele>
        <time>2016-01-16T17:32:50Z</time>
      </trkpt>
      <trkpt lat="36.677880" lon="-4.956884">
        <ele>1101.18</ele>
        <time>2016-01-16T17:33:06Z</time>
      </trkpt>
      <trkpt lat="36.677774" lon="-4.956694">
        <ele>1101.70</ele>
        <time>2016-01-16T17:33:21Z</time>
      </trkpt>
      <trkpt lat="36.677639" lon="-4.956541">
        <ele>1099.03</ele>
        <time>2016-01-16T17:33:36Z</time>
      </trkpt>
      <trkpt lat="36.677514" lon="-4.956379">
        <ele>1098.11</ele>
        <time>2016-01-16T17:33:51Z</time>
      </trkpt>
      <trkpt lat="36.677356" lon="-4.956251">
        <ele>1097.79</ele>
        <time>2016-01-16T17:34:06Z</time>
      </trkpt>
      <trkpt lat="36.677230" lon="-4.956075">
        <ele>1100.34</ele>
        <time>2016-01-16T17:34:21Z</time>
      </trkpt>
      <trkpt lat="36.677173" lon="-4.955860">
        <ele>1097.52</ele>
        <time>2016-01-16T17:34:36Z</time>
      </trkpt>
      <trkpt lat="36.677124" lon="-4.955639">
        <ele>1097.83</ele>
        <time>2016-01-16T17:34:51Z</time>
      </trkpt>
      <trkpt lat="36.677062" lon="-4.955427">
        <ele>1097.35</ele>
        <time>2016-01-16T17:35:04Z</time>
      </trkpt>
      <trkpt lat="36.677001" lon="-4.955208">
        <ele>1098.68</ele>
        <time>2016-01-16T17:35:19Z</time>
      </trkpt>
      <trkpt lat="36.676973" lon="-4.954982">
        <ele>1100.25</ele>
        <time>2016-01-16T17:35:35Z</time>
      </trkpt>
      <trkpt lat="36.676920" lon="-4.954765">
        <ele>1098.37</ele>
        <time>2016-01-16T17:35:48Z</time>
      </trkpt>
      <trkpt lat="36.676893" lon="-4.954533">
        <ele>1098.75</ele>
        <time>2016-01-16T17:36:01Z</time>
      </trkpt>
      <trkpt lat="36.676889" lon="-4.954300">
        <ele>1097.75</ele>
        <time>2016-01-16T17:36:16Z</time>
      </trkpt>
      <trkpt lat="36.676836" lon="-4.954073">
        <ele>1093.71</ele>
        <time>2016-01-16T17:36:33Z</time>
      </trkpt>
      <trkpt lat="36.676729" lon="-4.953889">
        <ele>1093.61</ele>
        <time>2016-01-16T17:36:47Z</time>
      </trkpt>
      <trkpt lat="36.676632" lon="-4.953695">
        <ele>1094.07</ele>
        <time>2016-01-16T17:37:02Z</time>
      </trkpt>
      <trkpt lat="36.676547" lon="-4.953484">
        <ele>1090.55</ele>
        <time>2016-01-16T17:37:18Z</time>
      </trkpt>
      <trkpt lat="36.676439" lon="-4.953293">
        <ele>1087.22</ele>
        <time>2016-01-16T17:37:30Z</time>
      </trkpt>
      <trkpt lat="36.676326" lon="-4.953107">
        <ele>1085.16</ele>
        <time>2016-01-16T17:37:43Z</time>
      </trkpt>
      <trkpt lat="36.676210" lon="-4.952925">
        <ele>1081.73</ele>
        <time>2016-01-16T17:37:57Z</time>
      </trkpt>
      <trkpt lat="36.676099" lon="-4.952739">
        <ele>1080.59</ele>
        <time>2016-01-16T17:38:12Z</time>
      </trkpt>
      <trkpt lat="36.675951" lon="-4.952594">
        <ele>1076.55</ele>
        <time>2016-01-16T17:38:27Z</time>
      </trkpt>
      <trkpt lat="36.675803" lon="-4.952449">
        <ele>1076.56</ele>
        <time>2016-01-16T17:38:41Z</time>
      </trkpt>
      <trkpt lat="36.675629" lon="-4.952360">
        <ele>1073.66</ele>
        <time>2016-01-16T17:38:55Z</time>
      </trkpt>
      <trkpt lat="36.675491" lon="-4.952210">
        <ele>1070.74</ele>
        <time>2016-01-16T17:39:16Z</time>
      </trkpt>
      <trkpt lat="36.675324" lon="-4.952128">
        <ele>1070.22</ele>
        <time>2016-01-16T17:39:30Z</time>
      </trkpt>
      <trkpt lat="36.675155" lon="-4.952041">
        <ele>1069.01</ele>
        <time>2016-01-16T17:39:46Z</time>
      </trkpt>
      <trkpt lat="36.674989" lon="-4.951938">
        <ele>1064.18</ele>
        <time>2016-01-16T17:40:01Z</time>
      </trkpt>
      <trkpt lat="36.674861" lon="-4.951767">
        <ele>1063.54</ele>
        <time>2016-01-16T17:40:17Z</time>
      </trkpt>
      <trkpt lat="36.674751" lon="-4.951588">
        <ele>1060.62</ele>
        <time>2016-01-16T17:40:30Z</time>
      </trkpt>
      <trkpt lat="36.674662" lon="-4.951375">
        <ele>1060.56</ele>
        <time>2016-01-16T17:40:45Z</time>
      </trkpt>
      <trkpt lat="36.674580" lon="-4.951171">
        <ele>1063.46</ele>
        <time>2016-01-16T17:41:02Z</time>
      </trkpt>
      <trkpt lat="36.674482" lon="-4.950973">
        <ele>1064.95</ele>
        <time>2016-01-16T17:41:18Z</time>
      </trkpt>
      <trkpt lat="36.674368" lon="-4.950796">
        <ele>1067.94</ele>
        <time>2016-01-16T17:41:32Z</time>
      </trkpt>
      <trkpt lat="36.674269" lon="-4.950601">
        <ele>1065.58</ele>
        <time>2016-01-16T17:41:46Z</time>
      </trkpt>
      <trkpt lat="36.674179" lon="-4.950406">
        <ele>1068.37</ele>
        <time>2016-01-16T17:42:02Z</time>
      </trkpt>
      <trkpt lat="36.674084" lon="-4.950215">
        <ele>1071.53</ele>
        <time>2016-01-16T17:42:17Z</time>
      </trkpt>
      <trkpt lat="36.674020" lon="-4.950000">
        <ele>1073.52</ele>
        <time>2016-01-16T17:43:00Z</time>
      </trkpt>
      <trkpt lat="36.673958" lon="-4.949790">
        <ele>1065.51</ele>
        <time>2016-01-16T17:43:29Z</time>
      </trkpt>
      <trkpt lat="36.673973" lon="-4.949561">
        <ele>1053.67</ele>
        <time>2016-01-16T17:44:03Z</time>
      </trkpt>
      <trkpt lat="36.673972" lon="-4.949332">
        <ele>1045.24</ele>
        <time>2016-01-16T17:44:30Z</time>
      </trkpt>
      <trkpt lat="36.673945" lon="-4.949109">
        <ele>1039.16</ele>
        <time>2016-01-16T17:44:55Z</time>
      </trkpt>
      <trkpt lat="36.673938" lon="-4.948876">
        <ele>1034.73</ele>
        <time>2016-01-16T17:45:16Z</time>
      </trkpt>
      <trkpt lat="36.673936" lon="-4.948643">
        <ele>1033.07</ele>
        <time>2016-01-16T17:45:35Z</time>
      </trkpt>
      <trkpt lat="36.673940" lon="-4.948416">
        <ele>1028.53</ele>
        <time>2016-01-16T17:45:55Z</time>
      </trkpt>
      <trkpt lat="36.673924" lon="-4.948179">
        <ele>1025.22</ele>
        <time>2016-01-16T17:46:11Z</time>
      </trkpt>
      <trkpt lat="36.673885" lon="-4.947951">
        <ele>1021.16</ele>
        <time>2016-01-16T17:46:26Z</time>
      </trkpt>
      <trkpt lat="36.673870" lon="-4.947714">
        <ele>1016.53</ele>
        <time>2016-01-16T17:46:44Z</time>
      </trkpt>
      <trkpt lat="36.673839" lon="-4.947486">
        <ele>1014.03</ele>
        <time>2016-01-16T17:47:01Z</time>
      </trkpt>
      <trkpt lat="36.673816" lon="-4.947251">
        <ele>1008.61</ele>
        <time>2016-01-16T17:47:20Z</time>
      </trkpt>
      <trkpt lat="36.673769" lon="-4.947024">
        <ele>1004.61</ele>
        <time>2016-01-16T17:47:47Z</time>
      </trkpt>
      <trkpt lat="36.673691" lon="-4.946817">
        <ele>998.57</ele>
        <time>2016-01-16T17:48:12Z</time>
      </trkpt>
      <trkpt lat="36.673627" lon="-4.946601">
        <ele>994.65</ele>
        <time>2016-01-16T17:48:32Z</time>
      </trkpt>
      <trkpt lat="36.673598" lon="-4.946371">
        <ele>987.55</ele>
        <time>2016-01-16T17:48:54Z</time>
      </trkpt>
      <trkpt lat="36.673560" lon="-4.946147">
        <ele>983.84</ele>
        <time>2016-01-16T17:49:14Z</time>
      </trkpt>
      <trkpt lat="36.673564" lon="-4.945917">
        <ele>976.18</ele>
        <time>2016-01-16T17:49:36Z</time>
      </trkpt>
      <trkpt lat="36.673557" lon="-4.945686">
        <ele>969.73</ele>
        <time>2016-01-16T17:50:00Z</time>
      </trkpt>
      <trkpt lat="36.673566" lon="-4.945454">
        <ele>964.83</ele>
        <time>2016-01-16T17:50:22Z</time>
      </trkpt>
      <trkpt lat="36.673540" lon="-4.945231">
        <ele>960.86</ele>
        <time>2016-01-16T17:50:46Z</time>
      </trkpt>
      <trkpt lat="36.673604" lon="-4.945008">
        <ele>954.66</ele>
        <time>2016-01-16T17:51:06Z</time>
      </trkpt>
      <trkpt lat="36.673653" lon="-4.944789">
        <ele>952.15</ele>
        <time>2016-01-16T17:51:22Z</time>
      </trkpt>
      <trkpt lat="36.673654" lon="-4.944560">
        <ele>948.02</ele>
        <time>2016-01-16T17:51:37Z</time>
      </trkpt>
      <trkpt lat="36.673649" lon="-4.944249">
        <ele>946.51</ele>
        <time>2016-01-16T17:51:56Z</time>
      </trkpt>
      <trkpt lat="36.673586" lon="-4.944376">
        <ele>940.072</ele>
        <time>2022-04-15T21:37:08Z</time>
      </trkpt>
      <trkpt lat="36.673476" lon="-4.944507">
        <ele>938.913</ele>
        <time>2022-04-15T21:37:48Z</time>
      </trkpt>
      <trkpt lat="36.673364" lon="-4.944663">
        <ele>938.714</ele>
        <time>2022-04-15T21:38:28Z</time>
      </trkpt>
      <trkpt lat="36.673262" lon="-4.944770">
        <ele>938.109</ele>
        <time>2022-04-15T21:39:08Z</time>
      </trkpt>
      <trkpt lat="36.673141" lon="-4.944867">
        <ele>936.418</ele>
        <time>2022-04-15T21:39:48Z</time>
      </trkpt>
      <trkpt lat="36.672967" lon="-4.945092">
        <ele>935.747</ele>
        <time>2022-04-15T21:40:28Z</time>
      </trkpt>
      <trkpt lat="36.672782" lon="-4.945395">
        <ele>936.797</ele>
        <time>2022-04-15T21:41:08Z</time>
      </trkpt>
      <trkpt lat="36.672609" lon="-4.945630">
        <ele>934.578</ele>
        <time>2022-04-15T21:41:48Z</time>
      </trkpt>
      <trkpt lat="36.672419" lon="-4.945931">
        <ele>931.137</ele>
        <time>2022-04-15T21:42:28Z</time>
      </trkpt>
      <trkpt lat="36.672316" lon="-4.946140">
        <ele>929.873</ele>
        <time>2022-04-15T21:43:08Z</time>
      </trkpt>
      <trkpt lat="36.672226" lon="-4.946392">
        <ele>929.299</ele>
        <time>2022-04-15T21:43:48Z</time>
      </trkpt>
      <trkpt lat="36.672096" lon="-4.946682">
        <ele>923.922</ele>
        <time>2022-04-15T21:44:28Z</time>
      </trkpt>
      <trkpt lat="36.672064" lon="-4.946961">
        <ele>924.981</ele>
        <time>2022-04-15T21:45:08Z</time>
      </trkpt>
      <trkpt lat="36.672040" lon="-4.947126">
        <ele>927.739</ele>
        <time>2022-04-15T21:45:48Z</time>
      </trkpt>
      <trkpt lat="36.671935" lon="-4.947258">
        <ele>926.201</ele>
        <time>2022-04-15T21:46:28Z</time>
      </trkpt>
      <trkpt lat="36.671780" lon="-4.947360">
        <ele>924.221</ele>
        <time>2022-04-15T21:47:08Z</time>
      </trkpt>
      <trkpt lat="36.671593" lon="-4.947419">
        <ele>920.209</ele>
        <time>2022-04-15T21:47:48Z</time>
      </trkpt>
      <trkpt lat="36.671405" lon="-4.947504">
        <ele>919.424</ele>
        <time>2022-04-15T21:48:28Z</time>
      </trkpt>
      <trkpt lat="36.671215" lon="-4.947622">
        <ele>918.953</ele>
        <time>2022-04-15T21:49:08Z</time>
      </trkpt>
      <trkpt lat="36.671019" lon="-4.947757">
        <ele>917.773</ele>
        <time>2022-04-15T21:49:48Z</time>
      </trkpt>
      <trkpt lat="36.670888" lon="-4.947850">
        <ele>916.964</ele>
        <time>2022-04-15T21:50:28Z</time>
      </trkpt>
      <trkpt lat="36.670705" lon="-4.948086">
        <ele>918.523</ele>
        <time>2022-04-15T21:51:08Z</time>
      </trkpt>
      <trkpt lat="36.670535" lon="-4.948228">
        <ele>915.699</ele>
        <time>2022-04-15T21:51:48Z</time>
      </trkpt>
      <trkpt lat="36.670324" lon="-4.948389">
        <ele>911.975</ele>
        <time>2022-04-15T21:52:28Z</time>
      </trkpt>
      <trkpt lat="36.670238" lon="-4.948474">
        <ele>909.498</ele>
        <time>2022-04-15T21:53:08Z</time>
      </trkpt>
      <trkpt lat="36.670045" lon="-4.948418">
        <ele>907.457</ele>
        <time>2022-04-15T21:53:48Z</time>
      </trkpt>
      <trkpt lat="36.669589" lon="-4.948204">
        <ele>916.187</ele>
        <time>2022-04-15T21:54:28Z</time>
      </trkpt>
      <trkpt lat="36.669063" lon="-4.947957">
        <ele>919.042</ele>
        <time>2022-04-15T21:55:08Z</time>
      </trkpt>
      <trkpt lat="36.668814" lon="-4.948064">
        <ele>912.126</ele>
        <time>2022-04-15T21:55:48Z</time>
      </trkpt>
      <trkpt lat="36.668280" lon="-4.948515">
        <ele>889.809</ele>
        <time>2022-04-15T21:56:28Z</time>
      </trkpt>
      <trkpt lat="36.667634" lon="-4.948976">
        <ele>873.289</ele>
        <time>2022-04-15T21:57:08Z</time>
      </trkpt>
      <trkpt lat="36.667140" lon="-4.949187">
        <ele>863.748</ele>
        <time>2022-04-15T21:57:48Z</time>
      </trkpt>
      <trkpt lat="36.666752" lon="-4.949691">
        <ele>859.578</ele>
        <time>2022-04-15T21:58:28Z</time>
      </trkpt>
      <trkpt lat="36.666098" lon="-4.949863">
        <ele>841.489</ele>
        <time>2022-04-15T21:59:08Z</time>
      </trkpt>
      <trkpt lat="36.665357" lon="-4.949927">
        <ele>808.318</ele>
        <time>2022-04-15T21:59:48Z</time>
      </trkpt>
      <trkpt lat="36.664806" lon="-4.949799">
        <ele>791.034</ele>
        <time>2022-04-15T22:00:28Z</time>
      </trkpt>
      <trkpt lat="36.664238" lon="-4.950078">
        <ele>769.660</ele>
        <time>2022-04-15T22:01:08Z</time>
      </trkpt>
      <trkpt lat="36.663641" lon="-4.950614">
        <ele>742.853</ele>
        <time>2022-04-15T22:01:48Z</time>
      </trkpt>
      <trkpt lat="36.663020" lon="-4.951354">
        <ele>714.362</ele>
        <time>2022-04-15T22:02:28Z</time>
      </trkpt>
      <trkpt lat="36.662349" lon="-4.951687">
        <ele>702.469</ele>
        <time>2022-04-15T22:03:08Z</time>
      </trkpt>
      <trkpt lat="36.661904" lon="-4.952145">
        <ele>691.204</ele>
        <time>2022-04-15T22:03:48Z</time>
      </trkpt>
      <trkpt lat="36.662037" lon="-4.952468">
        <ele>681.424</ele>
        <time>2022-04-15T22:04:28Z</time>
      </trkpt>
      <trkpt lat="36.662157" lon="-4.952715">
        <ele>675.009</ele>
        <time>2022-04-15T22:05:08Z</time>
      </trkpt>
      <trkpt lat="36.662295" lon="-4.952897">
        <ele>669.117</ele>
        <time>2022-04-15T22:05:48Z</time>
      </trkpt>
      <trkpt lat="36.662437" lon="-4.952999">
        <ele>664.946</ele>
        <time>2022-04-15T22:06:28Z</time>
      </trkpt>
      <trkpt lat="36.662640" lon="-4.952978">
        <ele>665.976</ele>
        <time>2022-04-15T22:07:08Z</time>
      </trkpt>
      <trkpt lat="36.662623" lon="-4.953310">
        <ele>663.367</ele>
        <time>2022-04-15T22:07:48Z</time>
      </trkpt>
      <trkpt lat="36.662614" lon="-4.953799">
        <ele>653.736</ele>
        <time>2022-04-15T22:08:28Z</time>
      </trkpt>
      <trkpt lat="36.662623" lon="-4.954303">
        <ele>640.252</ele>
        <time>2022-04-15T22:09:08Z</time>
      </trkpt>
      <trkpt lat="36.662769" lon="-4.954652">
        <ele>640.518</ele>
        <time>2022-04-15T22:09:48Z</time>
      </trkpt>
      <trkpt lat="36.663082" lon="-4.954868">
        <ele>641.711</ele>
        <time>2022-04-15T22:10:28Z</time>
      </trkpt>
      <trkpt lat="36.663392" lon="-4.955024">
        <ele>641.010</ele>
        <time>2022-04-15T22:11:08Z</time>
      </trkpt>
      <trkpt lat="36.663825" lon="-4.954911">
        <ele>644.944</ele>
        <time>2022-04-15T22:11:48Z</time>
      </trkpt>
      <trkpt lat="36.664260" lon="-4.954895">
        <ele>642.405</ele>
        <time>2022-04-15T22:12:28Z</time>
      </trkpt>
      <trkpt lat="36.664609" lon="-4.954959">
        <ele>649.515</ele>
        <time>2022-04-15T22:13:08Z</time>
      </trkpt>
      <trkpt lat="36.664781" lon="-4.955083">
        <ele>655.309</ele>
        <time>2022-04-15T22:13:48Z</time>
      </trkpt>
      <trkpt lat="36.664750" lon="-4.955159">
        <ele>654.475</ele>
        <time>2022-04-15T22:14:28Z</time>
      </trkpt>
      <trkpt lat="36.664584" lon="-4.955326">
        <ele>647.964</ele>
        <time>2022-04-15T22:15:08Z</time>
      </trkpt>
      <trkpt lat="36.664459" lon="-4.955540">
        <ele>643.624</ele>
        <time>2022-04-15T22:15:48Z</time>
      </trkpt>
      <trkpt lat="36.664293" lon="-4.955755">
        <ele>639.945</ele>
        <time>2022-04-15T22:16:28Z</time>
      </trkpt>
      <trkpt lat="36.664212" lon="-4.956010">
        <ele>640.974</ele>
        <time>2022-04-15T22:17:08Z</time>
      </trkpt>
      <trkpt lat="36.664139" lon="-4.956161">
        <ele>640.430</ele>
        <time>2022-04-15T22:17:48Z</time>
      </trkpt>
      <trkpt lat="36.663883" lon="-4.956418">
        <ele>630.446</ele>
        <time>2022-04-15T22:18:28Z</time>
      </trkpt>
      <trkpt lat="36.663874" lon="-4.956595">
        <ele>628.299</ele>
        <time>2022-04-15T22:19:08Z</time>
      </trkpt>
      <trkpt lat="36.663999" lon="-4.956754">
        <ele>632.168</ele>
        <time>2022-04-15T22:19:48Z</time>
      </trkpt>
      <trkpt lat="36.664150" lon="-4.956920">
        <ele>635.042</ele>
        <time>2022-04-15T22:20:28Z</time>
      </trkpt>
      <trkpt lat="36.664210" lon="-4.957218">
        <ele>632.122</ele>
        <time>2022-04-15T22:21:08Z</time>
      </trkpt>
      <trkpt lat="36.664283" lon="-4.957400">
        <ele>635.314</ele>
        <time>2022-04-15T22:21:48Z</time>
      </trkpt>
      <trkpt lat="36.664318" lon="-4.957592">
        <ele>638.509</ele>
        <time>2022-04-15T22:22:28Z</time>
      </trkpt>
      <trkpt lat="36.664068" lon="-4.957467">
        <ele>635.395</ele>
        <time>2022-04-15T22:23:08Z</time>
      </trkpt>
      <trkpt lat="36.663801" lon="-4.957196">
        <ele>627.514</ele>
        <time>2022-04-15T22:23:48Z</time>
      </trkpt>
      <trkpt lat="36.663625" lon="-4.957133">
        <ele>625.284</ele>
        <time>2022-04-15T22:24:28Z</time>
      </trkpt>
      <trkpt lat="36.663283" lon="-4.956888">
        <ele>618.675</ele>
        <time>2022-04-15T22:25:08Z</time>
      </trkpt>
      <trkpt lat="36.663180" lon="-4.956818">
        <ele>618.494</ele>
        <time>2022-04-15T22:25:48Z</time>
      </trkpt>
      <trkpt lat="36.662932" lon="-4.956650">
        <ele>614.540</ele>
        <time>2022-04-15T22:26:28Z</time>
      </trkpt>
      <trkpt lat="36.662655" lon="-4.956588">
        <ele>611.786</ele>
        <time>2022-04-15T22:27:08Z</time>
      </trkpt>
      <trkpt lat="36.662230" lon="-4.956626">
        <ele>608.259</ele>
        <time>2022-04-15T22:27:48Z</time>
      </trkpt>
      <trkpt lat="36.662101" lon="-4.956894">
        <ele>611.318</ele>
        <time>2022-04-15T22:28:28Z</time>
      </trkpt>
      <trkpt lat="36.661989" lon="-4.957141">
        <ele>615.637</ele>
        <time>2022-04-15T22:29:08Z</time>
      </trkpt>
      <trkpt lat="36.661584" lon="-4.957119">
        <ele>610.849</ele>
        <time>2022-04-15T22:29:48Z</time>
      </trkpt>
      <trkpt lat="36.661188" lon="-4.957248">
        <ele>604.513</ele>
        <time>2022-04-15T22:30:28Z</time>
      </trkpt>
      <trkpt lat="36.660835" lon="-4.957645">
        <ele>605.809</ele>
        <time>2022-04-15T22:31:08Z</time>
      </trkpt>
      <trkpt lat="36.660370" lon="-4.957967">
        <ele>594.214</ele>
        <time>2022-04-15T22:31:48Z</time>
      </trkpt>
      <trkpt lat="36.660473" lon="-4.958396">
        <ele>592.363</ele>
        <time>2022-04-15T22:32:28Z</time>
      </trkpt>
      <trkpt lat="36.660887" lon="-4.958621">
        <ele>604.723</ele>
        <time>2022-04-15T22:33:08Z</time>
      </trkpt>
      <trkpt lat="36.660990" lon="-4.959158">
        <ele>587.534</ele>
        <time>2022-04-15T22:33:48Z</time>
      </trkpt>
      <trkpt lat="36.661421" lon="-4.959501">
        <ele>604.673</ele>
        <time>2022-04-15T22:34:28Z</time>
      </trkpt>
      <trkpt lat="36.661490" lon="-4.960037">
        <ele>596.319</ele>
        <time>2022-04-15T22:35:08Z</time>
      </trkpt>
      <trkpt lat="36.661740" lon="-4.960606">
        <ele>592.685</ele>
        <time>2022-04-15T22:35:48Z</time>
      </trkpt>
      <trkpt lat="36.661938" lon="-4.961100">
        <ele>597.738</ele>
        <time>2022-04-15T22:36:28Z</time>
      </trkpt>
      <trkpt lat="36.662162" lon="-4.961818">
        <ele>587.987</ele>
        <time>2022-04-15T22:37:08Z</time>
      </trkpt>
      <trkpt lat="36.662334" lon="-4.962205">
        <ele>586.767</ele>
        <time>2022-04-15T22:37:48Z</time>
      </trkpt>
      <trkpt lat="36.662454" lon="-4.962548">
        <ele>582.081</ele>
        <time>2022-04-15T22:38:28Z</time>
      </trkpt>
      <trkpt lat="36.662549" lon="-4.962902">
        <ele>583.519</ele>
        <time>2022-04-15T22:39:08Z</time>
      </trkpt>
      <trkpt lat="36.662644" lon="-4.963084">
        <ele>588.209</ele>
        <time>2022-04-15T22:39:48Z</time>
      </trkpt>
    </trkseg>
  </trk>
</gpx>
